<?xml version="1.0" encoding="UTF-8" standalone="no" ?>
<gpx xmlns="http://www.topografix.com/GPX/1/1" xmlns:xsi="http://www.w3.org/2001/XMLSchema-instance" xsi:schemaLocation="http://www.topografix.com/GPX/1/1 http://www.topografix.com/GPX/1/1/gpx.xsd" version="1.1" creator="VisuGPX - https://www.visugpx.com">
  <metadata>
    <name>espinasses</name>
    <desc><![CDATA[espinasses Lagarde creolier espinasses]]></desc>
  </metadata>
  <trk>
    <name><![CDATA[espinasses_1]]></name>
    <trkseg>
      <trkpt lat="44.4642" lon="6.22868">
        <ele>668</ele>
        <time>2014-06-22T08:23:39.1Z</time>
      </trkpt>
      <trkpt lat="44.4642" lon="6.22869">
        <ele>668</ele>
        <time>2014-06-22T08:23:44.1Z</time>
      </trkpt>
      <trkpt lat="44.46419" lon="6.2287">
        <ele>668</ele>
        <time>2014-06-22T08:23:49.1Z</time>
      </trkpt>
      <trkpt lat="44.46418" lon="6.22871">
        <ele>668</ele>
        <time>2014-06-22T08:23:55.1Z</time>
      </trkpt>
      <trkpt lat="44.46417" lon="6.2287">
        <ele>668</ele>
        <time>2014-06-22T08:24:02.1Z</time>
      </trkpt>
      <trkpt lat="44.46418" lon="6.22869">
        <ele>668</ele>
        <time>2014-06-22T08:24:08.1Z</time>
      </trkpt>
      <trkpt lat="44.46415" lon="6.22869">
        <ele>668</ele>
        <time>2014-06-22T08:24:14.1Z</time>
      </trkpt>
      <trkpt lat="44.46414" lon="6.22869">
        <ele>668</ele>
        <time>2014-06-22T08:24:20.1Z</time>
      </trkpt>
      <trkpt lat="44.46412" lon="6.22869">
        <ele>668</ele>
        <time>2014-06-22T08:24:26.1Z</time>
      </trkpt>
      <trkpt lat="44.46413" lon="6.22869">
        <ele>668</ele>
        <time>2014-06-22T08:24:33.1Z</time>
      </trkpt>
      <trkpt lat="44.46411" lon="6.22871">
        <ele>667</ele>
        <time>2014-06-22T08:24:39.1Z</time>
      </trkpt>
      <trkpt lat="44.4641" lon="6.22872">
        <ele>668</ele>
        <time>2014-06-22T08:24:45.1Z</time>
      </trkpt>
      <trkpt lat="44.4641" lon="6.22872">
        <ele>668</ele>
        <time>2014-06-22T08:24:51.1Z</time>
      </trkpt>
      <trkpt lat="44.4641" lon="6.22873">
        <ele>668</ele>
        <time>2014-06-22T08:24:56.1Z</time>
      </trkpt>
      <trkpt lat="44.46409" lon="6.22874">
        <ele>668</ele>
        <time>2014-06-22T08:25:02.1Z</time>
      </trkpt>
      <trkpt lat="44.4641" lon="6.22873">
        <ele>668</ele>
        <time>2014-06-22T08:25:07.1Z</time>
      </trkpt>
      <trkpt lat="44.46413" lon="6.22873">
        <ele>668</ele>
        <time>2014-06-22T08:25:13.1Z</time>
      </trkpt>
      <trkpt lat="44.46414" lon="6.22877">
        <ele>668</ele>
        <time>2014-06-22T08:25:19.1Z</time>
      </trkpt>
      <trkpt lat="44.46411" lon="6.22885">
        <ele>668</ele>
        <time>2014-06-22T08:25:25.1Z</time>
      </trkpt>
      <trkpt lat="44.46408" lon="6.22886">
        <ele>667</ele>
        <time>2014-06-22T08:25:31.1Z</time>
      </trkpt>
      <trkpt lat="44.46404" lon="6.22886">
        <ele>666</ele>
        <time>2014-06-22T08:25:36.1Z</time>
      </trkpt>
      <trkpt lat="44.46397" lon="6.22886">
        <ele>666</ele>
        <time>2014-06-22T08:25:42.1Z</time>
      </trkpt>
      <trkpt lat="44.46392" lon="6.22885">
        <ele>665</ele>
        <time>2014-06-22T08:25:47.1Z</time>
      </trkpt>
      <trkpt lat="44.46385" lon="6.22885">
        <ele>665</ele>
        <time>2014-06-22T08:25:53.1Z</time>
      </trkpt>
      <trkpt lat="44.4638" lon="6.22887">
        <ele>664</ele>
        <time>2014-06-22T08:25:58.1Z</time>
      </trkpt>
      <trkpt lat="44.46374" lon="6.22887">
        <ele>664</ele>
        <time>2014-06-22T08:26:03.1Z</time>
      </trkpt>
      <trkpt lat="44.46368" lon="6.22886">
        <ele>664</ele>
        <time>2014-06-22T08:26:09.1Z</time>
      </trkpt>
      <trkpt lat="44.46362" lon="6.22885">
        <ele>663</ele>
        <time>2014-06-22T08:26:14.1Z</time>
      </trkpt>
      <trkpt lat="44.46355" lon="6.22883">
        <ele>662</ele>
        <time>2014-06-22T08:26:20.1Z</time>
      </trkpt>
      <trkpt lat="44.46347" lon="6.22882">
        <ele>662</ele>
        <time>2014-06-22T08:26:26.1Z</time>
      </trkpt>
      <trkpt lat="44.46341" lon="6.22883">
        <ele>663</ele>
        <time>2014-06-22T08:26:32.1Z</time>
      </trkpt>
      <trkpt lat="44.4634" lon="6.22892">
        <ele>663</ele>
        <time>2014-06-22T08:26:38.1Z</time>
      </trkpt>
      <trkpt lat="44.46341" lon="6.22901">
        <ele>663</ele>
        <time>2014-06-22T08:26:43.1Z</time>
      </trkpt>
      <trkpt lat="44.46341" lon="6.2291">
        <ele>663</ele>
        <time>2014-06-22T08:26:48.1Z</time>
      </trkpt>
      <trkpt lat="44.46341" lon="6.22921">
        <ele>663</ele>
        <time>2014-06-22T08:26:54.1Z</time>
      </trkpt>
      <trkpt lat="44.46341" lon="6.22932">
        <ele>663</ele>
        <time>2014-06-22T08:27:00.1Z</time>
      </trkpt>
      <trkpt lat="44.46344" lon="6.22941">
        <ele>662</ele>
        <time>2014-06-22T08:27:05.1Z</time>
      </trkpt>
      <trkpt lat="44.46344" lon="6.22952">
        <ele>663</ele>
        <time>2014-06-22T08:27:11.1Z</time>
      </trkpt>
      <trkpt lat="44.46347" lon="6.2296">
        <ele>661</ele>
        <time>2014-06-22T08:27:16.1Z</time>
      </trkpt>
      <trkpt lat="44.46351" lon="6.22971">
        <ele>661</ele>
        <time>2014-06-22T08:27:22.1Z</time>
      </trkpt>
      <trkpt lat="44.46352" lon="6.2298">
        <ele>661</ele>
        <time>2014-06-22T08:27:27.1Z</time>
      </trkpt>
      <trkpt lat="44.46354" lon="6.22992">
        <ele>661</ele>
        <time>2014-06-22T08:27:33.1Z</time>
      </trkpt>
      <trkpt lat="44.46356" lon="6.23002">
        <ele>661</ele>
        <time>2014-06-22T08:27:39.1Z</time>
      </trkpt>
      <trkpt lat="44.46357" lon="6.23011">
        <ele>661</ele>
        <time>2014-06-22T08:27:44.1Z</time>
      </trkpt>
      <trkpt lat="44.46357" lon="6.23019">
        <ele>661</ele>
        <time>2014-06-22T08:27:50.1Z</time>
      </trkpt>
      <trkpt lat="44.46357" lon="6.23026">
        <ele>661</ele>
        <time>2014-06-22T08:27:55.1Z</time>
      </trkpt>
      <trkpt lat="44.46358" lon="6.23036">
        <ele>661</ele>
        <time>2014-06-22T08:28:01.1Z</time>
      </trkpt>
      <trkpt lat="44.46357" lon="6.23044">
        <ele>661</ele>
        <time>2014-06-22T08:28:06.1Z</time>
      </trkpt>
      <trkpt lat="44.4636" lon="6.23054">
        <ele>661</ele>
        <time>2014-06-22T08:28:12.1Z</time>
      </trkpt>
      <trkpt lat="44.46363" lon="6.23062">
        <ele>661</ele>
        <time>2014-06-22T08:28:17.1Z</time>
      </trkpt>
      <trkpt lat="44.46364" lon="6.23069">
        <ele>661</ele>
        <time>2014-06-22T08:28:22.1Z</time>
      </trkpt>
      <trkpt lat="44.46365" lon="6.23079">
        <ele>661</ele>
        <time>2014-06-22T08:28:28.1Z</time>
      </trkpt>
      <trkpt lat="44.46366" lon="6.23088">
        <ele>661</ele>
        <time>2014-06-22T08:28:33.1Z</time>
      </trkpt>
      <trkpt lat="44.46367" lon="6.23098">
        <ele>661</ele>
        <time>2014-06-22T08:28:39.1Z</time>
      </trkpt>
      <trkpt lat="44.46369" lon="6.23106">
        <ele>662</ele>
        <time>2014-06-22T08:28:44.1Z</time>
      </trkpt>
      <trkpt lat="44.46372" lon="6.23116">
        <ele>661</ele>
        <time>2014-06-22T08:28:49.1Z</time>
      </trkpt>
      <trkpt lat="44.46374" lon="6.23128">
        <ele>661</ele>
        <time>2014-06-22T08:28:55.1Z</time>
      </trkpt>
      <trkpt lat="44.46376" lon="6.23132">
        <ele>661</ele>
        <time>2014-06-22T08:29:00.1Z</time>
      </trkpt>
      <trkpt lat="44.46373" lon="6.23131">
        <ele>662</ele>
        <time>2014-06-22T08:29:05.1Z</time>
      </trkpt>
      <trkpt lat="44.46376" lon="6.2313">
        <ele>661</ele>
        <time>2014-06-22T08:29:11.1Z</time>
      </trkpt>
      <trkpt lat="44.46375" lon="6.23123">
        <ele>661</ele>
        <time>2014-06-22T08:29:16.1Z</time>
      </trkpt>
      <trkpt lat="44.46374" lon="6.23117">
        <ele>661</ele>
        <time>2014-06-22T08:29:21.1Z</time>
      </trkpt>
      <trkpt lat="44.46369" lon="6.23117">
        <ele>661</ele>
        <time>2014-06-22T08:29:27.1Z</time>
      </trkpt>
      <trkpt lat="44.46368" lon="6.23117">
        <ele>660</ele>
        <time>2014-06-22T08:29:33.1Z</time>
      </trkpt>
      <trkpt lat="44.46364" lon="6.23116">
        <ele>660</ele>
        <time>2014-06-22T08:29:39.1Z</time>
      </trkpt>
      <trkpt lat="44.46361" lon="6.23118">
        <ele>659</ele>
        <time>2014-06-22T08:29:45.1Z</time>
      </trkpt>
      <trkpt lat="44.46361" lon="6.23121">
        <ele>657</ele>
        <time>2014-06-22T08:29:50.1Z</time>
      </trkpt>
      <trkpt lat="44.4636" lon="6.23127">
        <ele>657</ele>
        <time>2014-06-22T08:29:56.1Z</time>
      </trkpt>
      <trkpt lat="44.4636" lon="6.23135">
        <ele>657</ele>
        <time>2014-06-22T08:30:02.1Z</time>
      </trkpt>
      <trkpt lat="44.4636" lon="6.23141">
        <ele>658</ele>
        <time>2014-06-22T08:30:07.1Z</time>
      </trkpt>
      <trkpt lat="44.4636" lon="6.23147">
        <ele>658</ele>
        <time>2014-06-22T08:30:12.1Z</time>
      </trkpt>
      <trkpt lat="44.4636" lon="6.23154">
        <ele>658</ele>
        <time>2014-06-22T08:30:17.1Z</time>
      </trkpt>
      <trkpt lat="44.4636" lon="6.23161">
        <ele>658</ele>
        <time>2014-06-22T08:30:23.1Z</time>
      </trkpt>
      <trkpt lat="44.46361" lon="6.23167">
        <ele>658</ele>
        <time>2014-06-22T08:30:29.1Z</time>
      </trkpt>
      <trkpt lat="44.46362" lon="6.2317">
        <ele>658</ele>
        <time>2014-06-22T08:30:35.1Z</time>
      </trkpt>
      <trkpt lat="44.46363" lon="6.23175">
        <ele>658</ele>
        <time>2014-06-22T08:30:40.1Z</time>
      </trkpt>
      <trkpt lat="44.46364" lon="6.23182">
        <ele>659</ele>
        <time>2014-06-22T08:30:46.1Z</time>
      </trkpt>
      <trkpt lat="44.46365" lon="6.23187">
        <ele>659</ele>
        <time>2014-06-22T08:30:51.1Z</time>
      </trkpt>
      <trkpt lat="44.46366" lon="6.23194">
        <ele>659</ele>
        <time>2014-06-22T08:30:57.1Z</time>
      </trkpt>
      <trkpt lat="44.46366" lon="6.23199">
        <ele>658</ele>
        <time>2014-06-22T08:31:02.1Z</time>
      </trkpt>
      <trkpt lat="44.46366" lon="6.232">
        <ele>659</ele>
        <time>2014-06-22T08:31:08.1Z</time>
      </trkpt>
      <trkpt lat="44.46366" lon="6.23201">
        <ele>659</ele>
        <time>2014-06-22T08:31:13.1Z</time>
      </trkpt>
      <trkpt lat="44.46367" lon="6.23206">
        <ele>659</ele>
        <time>2014-06-22T08:31:18.1Z</time>
      </trkpt>
      <trkpt lat="44.46368" lon="6.23213">
        <ele>659</ele>
        <time>2014-06-22T08:31:24.1Z</time>
      </trkpt>
      <trkpt lat="44.46369" lon="6.23217">
        <ele>659</ele>
        <time>2014-06-22T08:31:29.1Z</time>
      </trkpt>
      <trkpt lat="44.46369" lon="6.23219">
        <ele>659</ele>
        <time>2014-06-22T08:31:35.1Z</time>
      </trkpt>
      <trkpt lat="44.46369" lon="6.23219">
        <ele>659</ele>
        <time>2014-06-22T08:31:42.1Z</time>
      </trkpt>
      <trkpt lat="44.46369" lon="6.23219">
        <ele>659</ele>
        <time>2014-06-22T08:31:48.1Z</time>
      </trkpt>
      <trkpt lat="44.46369" lon="6.2322">
        <ele>659</ele>
        <time>2014-06-22T08:31:54.1Z</time>
      </trkpt>
      <trkpt lat="44.4637" lon="6.23224">
        <ele>660</ele>
        <time>2014-06-22T08:31:59.1Z</time>
      </trkpt>
      <trkpt lat="44.4637" lon="6.23224">
        <ele>660</ele>
        <time>2014-06-22T08:32:05.1Z</time>
      </trkpt>
      <trkpt lat="44.46371" lon="6.23224">
        <ele>659</ele>
        <time>2014-06-22T08:32:14.1Z</time>
      </trkpt>
      <trkpt lat="44.46371" lon="6.23224">
        <ele>659</ele>
        <time>2014-06-22T08:32:20.1Z</time>
      </trkpt>
      <trkpt lat="44.46373" lon="6.23225">
        <ele>659</ele>
        <time>2014-06-22T08:32:25.1Z</time>
      </trkpt>
      <trkpt lat="44.46376" lon="6.23228">
        <ele>660</ele>
        <time>2014-06-22T08:32:30.1Z</time>
      </trkpt>
      <trkpt lat="44.46379" lon="6.23232">
        <ele>660</ele>
        <time>2014-06-22T08:32:35.1Z</time>
      </trkpt>
      <trkpt lat="44.46383" lon="6.23237">
        <ele>660</ele>
        <time>2014-06-22T08:32:41.1Z</time>
      </trkpt>
      <trkpt lat="44.46386" lon="6.23242">
        <ele>660</ele>
        <time>2014-06-22T08:32:46.1Z</time>
      </trkpt>
      <trkpt lat="44.46391" lon="6.23247">
        <ele>660</ele>
        <time>2014-06-22T08:32:52.1Z</time>
      </trkpt>
      <trkpt lat="44.46394" lon="6.2325">
        <ele>660</ele>
        <time>2014-06-22T08:32:57.1Z</time>
      </trkpt>
      <trkpt lat="44.46399" lon="6.23253">
        <ele>660</ele>
        <time>2014-06-22T08:33:03.1Z</time>
      </trkpt>
      <trkpt lat="44.46404" lon="6.23257">
        <ele>660</ele>
        <time>2014-06-22T08:33:08.1Z</time>
      </trkpt>
      <trkpt lat="44.46409" lon="6.23258">
        <ele>661</ele>
        <time>2014-06-22T08:33:14.1Z</time>
      </trkpt>
      <trkpt lat="44.46415" lon="6.23257">
        <ele>662</ele>
        <time>2014-06-22T08:33:20.1Z</time>
      </trkpt>
      <trkpt lat="44.46421" lon="6.23258">
        <ele>663</ele>
        <time>2014-06-22T08:33:25.1Z</time>
      </trkpt>
      <trkpt lat="44.46427" lon="6.23261">
        <ele>664</ele>
        <time>2014-06-22T08:33:31.1Z</time>
      </trkpt>
      <trkpt lat="44.46432" lon="6.23264">
        <ele>665</ele>
        <time>2014-06-22T08:33:36.1Z</time>
      </trkpt>
      <trkpt lat="44.46437" lon="6.23271">
        <ele>666</ele>
        <time>2014-06-22T08:33:42.1Z</time>
      </trkpt>
      <trkpt lat="44.4644" lon="6.2328">
        <ele>666</ele>
        <time>2014-06-22T08:33:48.1Z</time>
      </trkpt>
      <trkpt lat="44.46441" lon="6.23287">
        <ele>666</ele>
        <time>2014-06-22T08:33:53.1Z</time>
      </trkpt>
      <trkpt lat="44.46442" lon="6.23293">
        <ele>667</ele>
        <time>2014-06-22T08:33:58.1Z</time>
      </trkpt>
      <trkpt lat="44.46442" lon="6.23301">
        <ele>668</ele>
        <time>2014-06-22T08:34:04.1Z</time>
      </trkpt>
      <trkpt lat="44.46446" lon="6.23307">
        <ele>668</ele>
        <time>2014-06-22T08:34:10.1Z</time>
      </trkpt>
      <trkpt lat="44.4645" lon="6.23311">
        <ele>668</ele>
        <time>2014-06-22T08:34:15.1Z</time>
      </trkpt>
      <trkpt lat="44.46455" lon="6.2332">
        <ele>669</ele>
        <time>2014-06-22T08:34:21.1Z</time>
      </trkpt>
      <trkpt lat="44.46457" lon="6.23327">
        <ele>668</ele>
        <time>2014-06-22T08:34:26.1Z</time>
      </trkpt>
      <trkpt lat="44.4646" lon="6.23334">
        <ele>668</ele>
        <time>2014-06-22T08:34:31.1Z</time>
      </trkpt>
      <trkpt lat="44.46464" lon="6.23342">
        <ele>668</ele>
        <time>2014-06-22T08:34:37.1Z</time>
      </trkpt>
      <trkpt lat="44.46467" lon="6.23346">
        <ele>668</ele>
        <time>2014-06-22T08:34:43.1Z</time>
      </trkpt>
      <trkpt lat="44.46471" lon="6.23351">
        <ele>669</ele>
        <time>2014-06-22T08:34:48.1Z</time>
      </trkpt>
      <trkpt lat="44.46475" lon="6.23359">
        <ele>669</ele>
        <time>2014-06-22T08:34:54.1Z</time>
      </trkpt>
      <trkpt lat="44.46479" lon="6.23362">
        <ele>668</ele>
        <time>2014-06-22T08:35:00.1Z</time>
      </trkpt>
      <trkpt lat="44.46485" lon="6.23358">
        <ele>668</ele>
        <time>2014-06-22T08:35:06.1Z</time>
      </trkpt>
      <trkpt lat="44.46491" lon="6.23353">
        <ele>669</ele>
        <time>2014-06-22T08:35:12.1Z</time>
      </trkpt>
      <trkpt lat="44.46495" lon="6.23349">
        <ele>669</ele>
        <time>2014-06-22T08:35:17.1Z</time>
      </trkpt>
      <trkpt lat="44.46502" lon="6.23342">
        <ele>670</ele>
        <time>2014-06-22T08:35:23.1Z</time>
      </trkpt>
      <trkpt lat="44.46508" lon="6.2334">
        <ele>670</ele>
        <time>2014-06-22T08:35:28.1Z</time>
      </trkpt>
      <trkpt lat="44.46513" lon="6.2334">
        <ele>671</ele>
        <time>2014-06-22T08:35:33.1Z</time>
      </trkpt>
      <trkpt lat="44.4652" lon="6.23344">
        <ele>671</ele>
        <time>2014-06-22T08:35:39.1Z</time>
      </trkpt>
      <trkpt lat="44.46524" lon="6.2335">
        <ele>671</ele>
        <time>2014-06-22T08:35:44.1Z</time>
      </trkpt>
      <trkpt lat="44.46527" lon="6.23356">
        <ele>672</ele>
        <time>2014-06-22T08:35:49.1Z</time>
      </trkpt>
      <trkpt lat="44.46529" lon="6.23366">
        <ele>672</ele>
        <time>2014-06-22T08:35:55.1Z</time>
      </trkpt>
      <trkpt lat="44.46529" lon="6.23375">
        <ele>672</ele>
        <time>2014-06-22T08:36:00.1Z</time>
      </trkpt>
      <trkpt lat="44.46526" lon="6.23385">
        <ele>671</ele>
        <time>2014-06-22T08:36:06.1Z</time>
      </trkpt>
      <trkpt lat="44.46524" lon="6.23396">
        <ele>671</ele>
        <time>2014-06-22T08:36:12.1Z</time>
      </trkpt>
      <trkpt lat="44.46519" lon="6.23404">
        <ele>672</ele>
        <time>2014-06-22T08:36:18.1Z</time>
      </trkpt>
      <trkpt lat="44.46516" lon="6.23413">
        <ele>671</ele>
        <time>2014-06-22T08:36:24.1Z</time>
      </trkpt>
      <trkpt lat="44.46513" lon="6.23422">
        <ele>671</ele>
        <time>2014-06-22T08:36:30.1Z</time>
      </trkpt>
      <trkpt lat="44.4651" lon="6.23432">
        <ele>671</ele>
        <time>2014-06-22T08:36:36.1Z</time>
      </trkpt>
      <trkpt lat="44.46506" lon="6.23443">
        <ele>671</ele>
        <time>2014-06-22T08:36:42.1Z</time>
      </trkpt>
      <trkpt lat="44.46504" lon="6.23453">
        <ele>670</ele>
        <time>2014-06-22T08:36:48.1Z</time>
      </trkpt>
      <trkpt lat="44.46504" lon="6.23462">
        <ele>670</ele>
        <time>2014-06-22T08:36:53.1Z</time>
      </trkpt>
      <trkpt lat="44.46503" lon="6.23471">
        <ele>670</ele>
        <time>2014-06-22T08:36:58.1Z</time>
      </trkpt>
      <trkpt lat="44.46501" lon="6.23481">
        <ele>670</ele>
        <time>2014-06-22T08:37:04.1Z</time>
      </trkpt>
      <trkpt lat="44.46497" lon="6.23491">
        <ele>670</ele>
        <time>2014-06-22T08:37:10.1Z</time>
      </trkpt>
      <trkpt lat="44.46494" lon="6.23499">
        <ele>670</ele>
        <time>2014-06-22T08:37:16.1Z</time>
      </trkpt>
      <trkpt lat="44.46489" lon="6.23504">
        <ele>670</ele>
        <time>2014-06-22T08:37:21.1Z</time>
      </trkpt>
      <trkpt lat="44.46486" lon="6.23514">
        <ele>669</ele>
        <time>2014-06-22T08:37:27.1Z</time>
      </trkpt>
      <trkpt lat="44.46481" lon="6.23518">
        <ele>670</ele>
        <time>2014-06-22T08:37:32.1Z</time>
      </trkpt>
      <trkpt lat="44.46473" lon="6.23521">
        <ele>670</ele>
        <time>2014-06-22T08:37:38.1Z</time>
      </trkpt>
      <trkpt lat="44.46468" lon="6.23525">
        <ele>670</ele>
        <time>2014-06-22T08:37:43.1Z</time>
      </trkpt>
      <trkpt lat="44.46464" lon="6.23527">
        <ele>670</ele>
        <time>2014-06-22T08:37:49.1Z</time>
      </trkpt>
      <trkpt lat="44.46457" lon="6.2353">
        <ele>670</ele>
        <time>2014-06-22T08:37:55.1Z</time>
      </trkpt>
      <trkpt lat="44.4645" lon="6.23534">
        <ele>670</ele>
        <time>2014-06-22T08:38:01.1Z</time>
      </trkpt>
      <trkpt lat="44.46445" lon="6.23537">
        <ele>670</ele>
        <time>2014-06-22T08:38:06.1Z</time>
      </trkpt>
      <trkpt lat="44.46439" lon="6.23541">
        <ele>670</ele>
        <time>2014-06-22T08:38:11.1Z</time>
      </trkpt>
      <trkpt lat="44.46433" lon="6.23546">
        <ele>670</ele>
        <time>2014-06-22T08:38:17.1Z</time>
      </trkpt>
      <trkpt lat="44.46427" lon="6.23549">
        <ele>670</ele>
        <time>2014-06-22T08:38:22.1Z</time>
      </trkpt>
      <trkpt lat="44.4642" lon="6.23553">
        <ele>670</ele>
        <time>2014-06-22T08:38:28.1Z</time>
      </trkpt>
      <trkpt lat="44.46414" lon="6.23558">
        <ele>670</ele>
        <time>2014-06-22T08:38:33.1Z</time>
      </trkpt>
      <trkpt lat="44.46407" lon="6.23562">
        <ele>670</ele>
        <time>2014-06-22T08:38:39.1Z</time>
      </trkpt>
      <trkpt lat="44.46399" lon="6.23566">
        <ele>670</ele>
        <time>2014-06-22T08:38:45.1Z</time>
      </trkpt>
      <trkpt lat="44.46392" lon="6.23572">
        <ele>670</ele>
        <time>2014-06-22T08:38:51.1Z</time>
      </trkpt>
      <trkpt lat="44.46385" lon="6.23576">
        <ele>670</ele>
        <time>2014-06-22T08:38:57.1Z</time>
      </trkpt>
      <trkpt lat="44.46376" lon="6.23581">
        <ele>669</ele>
        <time>2014-06-22T08:39:03.1Z</time>
      </trkpt>
      <trkpt lat="44.46369" lon="6.23586">
        <ele>669</ele>
        <time>2014-06-22T08:39:08.1Z</time>
      </trkpt>
      <trkpt lat="44.46362" lon="6.2359">
        <ele>670</ele>
        <time>2014-06-22T08:39:14.1Z</time>
      </trkpt>
      <trkpt lat="44.46355" lon="6.23592">
        <ele>670</ele>
        <time>2014-06-22T08:39:19.1Z</time>
      </trkpt>
      <trkpt lat="44.46347" lon="6.2359">
        <ele>670</ele>
        <time>2014-06-22T08:39:25.1Z</time>
      </trkpt>
      <trkpt lat="44.46339" lon="6.23593">
        <ele>670</ele>
        <time>2014-06-22T08:39:31.1Z</time>
      </trkpt>
      <trkpt lat="44.46331" lon="6.23596">
        <ele>670</ele>
        <time>2014-06-22T08:39:37.1Z</time>
      </trkpt>
      <trkpt lat="44.46324" lon="6.23599">
        <ele>670</ele>
        <time>2014-06-22T08:39:42.1Z</time>
      </trkpt>
      <trkpt lat="44.46317" lon="6.23603">
        <ele>670</ele>
        <time>2014-06-22T08:39:48.1Z</time>
      </trkpt>
      <trkpt lat="44.46311" lon="6.23606">
        <ele>670</ele>
        <time>2014-06-22T08:39:53.1Z</time>
      </trkpt>
      <trkpt lat="44.46305" lon="6.23609">
        <ele>670</ele>
        <time>2014-06-22T08:39:58.1Z</time>
      </trkpt>
      <trkpt lat="44.46299" lon="6.23611">
        <ele>670</ele>
        <time>2014-06-22T08:40:03.1Z</time>
      </trkpt>
      <trkpt lat="44.46293" lon="6.23614">
        <ele>670</ele>
        <time>2014-06-22T08:40:08.1Z</time>
      </trkpt>
      <trkpt lat="44.46286" lon="6.23618">
        <ele>670</ele>
        <time>2014-06-22T08:40:13.1Z</time>
      </trkpt>
      <trkpt lat="44.46279" lon="6.23621">
        <ele>670</ele>
        <time>2014-06-22T08:40:19.1Z</time>
      </trkpt>
      <trkpt lat="44.46272" lon="6.23625">
        <ele>670</ele>
        <time>2014-06-22T08:40:25.1Z</time>
      </trkpt>
      <trkpt lat="44.46265" lon="6.23627">
        <ele>670</ele>
        <time>2014-06-22T08:40:31.1Z</time>
      </trkpt>
      <trkpt lat="44.46259" lon="6.2363">
        <ele>670</ele>
        <time>2014-06-22T08:40:36.1Z</time>
      </trkpt>
      <trkpt lat="44.46252" lon="6.23635">
        <ele>671</ele>
        <time>2014-06-22T08:40:42.1Z</time>
      </trkpt>
      <trkpt lat="44.46246" lon="6.2364">
        <ele>671</ele>
        <time>2014-06-22T08:40:47.1Z</time>
      </trkpt>
      <trkpt lat="44.4624" lon="6.23644">
        <ele>671</ele>
        <time>2014-06-22T08:40:52.1Z</time>
      </trkpt>
      <trkpt lat="44.46235" lon="6.2365">
        <ele>670</ele>
        <time>2014-06-22T08:40:57.1Z</time>
      </trkpt>
      <trkpt lat="44.4623" lon="6.23657">
        <ele>671</ele>
        <time>2014-06-22T08:41:02.1Z</time>
      </trkpt>
      <trkpt lat="44.46224" lon="6.23662">
        <ele>671</ele>
        <time>2014-06-22T08:41:08.1Z</time>
      </trkpt>
      <trkpt lat="44.46223" lon="6.23669">
        <ele>670</ele>
        <time>2014-06-22T08:41:13.1Z</time>
      </trkpt>
      <trkpt lat="44.46223" lon="6.23678">
        <ele>669</ele>
        <time>2014-06-22T08:41:18.1Z</time>
      </trkpt>
      <trkpt lat="44.46223" lon="6.23687">
        <ele>668</ele>
        <time>2014-06-22T08:41:23.1Z</time>
      </trkpt>
      <trkpt lat="44.46222" lon="6.23695">
        <ele>668</ele>
        <time>2014-06-22T08:41:28.1Z</time>
      </trkpt>
      <trkpt lat="44.46223" lon="6.23703">
        <ele>668</ele>
        <time>2014-06-22T08:41:33.1Z</time>
      </trkpt>
      <trkpt lat="44.46227" lon="6.23711">
        <ele>668</ele>
        <time>2014-06-22T08:41:38.1Z</time>
      </trkpt>
      <trkpt lat="44.46229" lon="6.2372">
        <ele>668</ele>
        <time>2014-06-22T08:41:43.1Z</time>
      </trkpt>
      <trkpt lat="44.46232" lon="6.23729">
        <ele>668</ele>
        <time>2014-06-22T08:41:48.1Z</time>
      </trkpt>
      <trkpt lat="44.46235" lon="6.23736">
        <ele>668</ele>
        <time>2014-06-22T08:41:53.1Z</time>
      </trkpt>
      <trkpt lat="44.4624" lon="6.23744">
        <ele>668</ele>
        <time>2014-06-22T08:41:58.1Z</time>
      </trkpt>
      <trkpt lat="44.46245" lon="6.23752">
        <ele>668</ele>
        <time>2014-06-22T08:42:03.1Z</time>
      </trkpt>
      <trkpt lat="44.46251" lon="6.23762">
        <ele>668</ele>
        <time>2014-06-22T08:42:09.1Z</time>
      </trkpt>
      <trkpt lat="44.46254" lon="6.23768">
        <ele>667</ele>
        <time>2014-06-22T08:42:15.1Z</time>
      </trkpt>
      <trkpt lat="44.46253" lon="6.23769">
        <ele>667</ele>
        <time>2014-06-22T08:42:20.1Z</time>
      </trkpt>
      <trkpt lat="44.46252" lon="6.2377">
        <ele>667</ele>
        <time>2014-06-22T08:42:26.1Z</time>
      </trkpt>
      <trkpt lat="44.46251" lon="6.23771">
        <ele>667</ele>
        <time>2014-06-22T08:42:31.1Z</time>
      </trkpt>
      <trkpt lat="44.46251" lon="6.23773">
        <ele>668</ele>
        <time>2014-06-22T08:42:36.1Z</time>
      </trkpt>
      <trkpt lat="44.4625" lon="6.23774">
        <ele>667</ele>
        <time>2014-06-22T08:42:42.1Z</time>
      </trkpt>
      <trkpt lat="44.46249" lon="6.23774">
        <ele>667</ele>
        <time>2014-06-22T08:42:47.1Z</time>
      </trkpt>
      <trkpt lat="44.46249" lon="6.23773">
        <ele>667</ele>
        <time>2014-06-22T08:42:52.1Z</time>
      </trkpt>
      <trkpt lat="44.46249" lon="6.23773">
        <ele>667</ele>
        <time>2014-06-22T08:42:58.1Z</time>
      </trkpt>
      <trkpt lat="44.46249" lon="6.23775">
        <ele>667</ele>
        <time>2014-06-22T08:43:04.1Z</time>
      </trkpt>
      <trkpt lat="44.46251" lon="6.23781">
        <ele>668</ele>
        <time>2014-06-22T08:43:10.1Z</time>
      </trkpt>
      <trkpt lat="44.46254" lon="6.23789">
        <ele>667</ele>
        <time>2014-06-22T08:43:15.1Z</time>
      </trkpt>
      <trkpt lat="44.46256" lon="6.23797">
        <ele>668</ele>
        <time>2014-06-22T08:43:20.1Z</time>
      </trkpt>
      <trkpt lat="44.46259" lon="6.23806">
        <ele>668</ele>
        <time>2014-06-22T08:43:25.1Z</time>
      </trkpt>
      <trkpt lat="44.46262" lon="6.23814">
        <ele>667</ele>
        <time>2014-06-22T08:43:30.1Z</time>
      </trkpt>
      <trkpt lat="44.46265" lon="6.23825">
        <ele>667</ele>
        <time>2014-06-22T08:43:36.1Z</time>
      </trkpt>
      <trkpt lat="44.46266" lon="6.23833">
        <ele>668</ele>
        <time>2014-06-22T08:43:41.1Z</time>
      </trkpt>
      <trkpt lat="44.46267" lon="6.23844">
        <ele>668</ele>
        <time>2014-06-22T08:43:47.1Z</time>
      </trkpt>
      <trkpt lat="44.46267" lon="6.23855">
        <ele>667</ele>
        <time>2014-06-22T08:43:53.1Z</time>
      </trkpt>
      <trkpt lat="44.46267" lon="6.23866">
        <ele>667</ele>
        <time>2014-06-22T08:43:59.1Z</time>
      </trkpt>
      <trkpt lat="44.46266" lon="6.23877">
        <ele>667</ele>
        <time>2014-06-22T08:44:05.1Z</time>
      </trkpt>
      <trkpt lat="44.46266" lon="6.23887">
        <ele>667</ele>
        <time>2014-06-22T08:44:11.1Z</time>
      </trkpt>
      <trkpt lat="44.46264" lon="6.23897">
        <ele>668</ele>
        <time>2014-06-22T08:44:17.1Z</time>
      </trkpt>
      <trkpt lat="44.46263" lon="6.23906">
        <ele>668</ele>
        <time>2014-06-22T08:44:22.1Z</time>
      </trkpt>
      <trkpt lat="44.46262" lon="6.23916">
        <ele>668</ele>
        <time>2014-06-22T08:44:27.1Z</time>
      </trkpt>
      <trkpt lat="44.46261" lon="6.23925">
        <ele>668</ele>
        <time>2014-06-22T08:44:32.1Z</time>
      </trkpt>
      <trkpt lat="44.4626" lon="6.23934">
        <ele>667</ele>
        <time>2014-06-22T08:44:37.1Z</time>
      </trkpt>
      <trkpt lat="44.46262" lon="6.23945">
        <ele>668</ele>
        <time>2014-06-22T08:44:43.1Z</time>
      </trkpt>
      <trkpt lat="44.46262" lon="6.23955">
        <ele>668</ele>
        <time>2014-06-22T08:44:48.1Z</time>
      </trkpt>
      <trkpt lat="44.4626" lon="6.23963">
        <ele>667</ele>
        <time>2014-06-22T08:44:53.1Z</time>
      </trkpt>
      <trkpt lat="44.4626" lon="6.23973">
        <ele>668</ele>
        <time>2014-06-22T08:44:58.1Z</time>
      </trkpt>
      <trkpt lat="44.46257" lon="6.23981">
        <ele>668</ele>
        <time>2014-06-22T08:45:03.1Z</time>
      </trkpt>
      <trkpt lat="44.46252" lon="6.23986">
        <ele>668</ele>
        <time>2014-06-22T08:45:08.1Z</time>
      </trkpt>
      <trkpt lat="44.46246" lon="6.23994">
        <ele>669</ele>
        <time>2014-06-22T08:45:14.1Z</time>
      </trkpt>
      <trkpt lat="44.46238" lon="6.23997">
        <ele>669</ele>
        <time>2014-06-22T08:45:20.1Z</time>
      </trkpt>
      <trkpt lat="44.46232" lon="6.24004">
        <ele>669</ele>
        <time>2014-06-22T08:45:25.1Z</time>
      </trkpt>
      <trkpt lat="44.46227" lon="6.24011">
        <ele>669</ele>
        <time>2014-06-22T08:45:30.1Z</time>
      </trkpt>
      <trkpt lat="44.4622" lon="6.24018">
        <ele>670</ele>
        <time>2014-06-22T08:45:36.1Z</time>
      </trkpt>
      <trkpt lat="44.46212" lon="6.24026">
        <ele>670</ele>
        <time>2014-06-22T08:45:42.1Z</time>
      </trkpt>
      <trkpt lat="44.46206" lon="6.24034">
        <ele>670</ele>
        <time>2014-06-22T08:45:48.1Z</time>
      </trkpt>
      <trkpt lat="44.462" lon="6.24043">
        <ele>670</ele>
        <time>2014-06-22T08:45:54.1Z</time>
      </trkpt>
      <trkpt lat="44.46194" lon="6.24048">
        <ele>670</ele>
        <time>2014-06-22T08:45:59.1Z</time>
      </trkpt>
      <trkpt lat="44.46188" lon="6.24052">
        <ele>670</ele>
        <time>2014-06-22T08:46:04.1Z</time>
      </trkpt>
      <trkpt lat="44.46181" lon="6.24053">
        <ele>669</ele>
        <time>2014-06-22T08:46:10.1Z</time>
      </trkpt>
      <trkpt lat="44.46173" lon="6.24058">
        <ele>669</ele>
        <time>2014-06-22T08:46:16.1Z</time>
      </trkpt>
      <trkpt lat="44.46166" lon="6.24061">
        <ele>669</ele>
        <time>2014-06-22T08:46:22.1Z</time>
      </trkpt>
      <trkpt lat="44.46161" lon="6.24066">
        <ele>669</ele>
        <time>2014-06-22T08:46:27.1Z</time>
      </trkpt>
      <trkpt lat="44.4616" lon="6.24068">
        <ele>670</ele>
        <time>2014-06-22T08:46:32.1Z</time>
      </trkpt>
      <trkpt lat="44.46155" lon="6.24074">
        <ele>670</ele>
        <time>2014-06-22T08:46:38.1Z</time>
      </trkpt>
      <trkpt lat="44.46151" lon="6.2408">
        <ele>670</ele>
        <time>2014-06-22T08:46:43.1Z</time>
      </trkpt>
      <trkpt lat="44.46146" lon="6.24086">
        <ele>670</ele>
        <time>2014-06-22T08:46:48.1Z</time>
      </trkpt>
      <trkpt lat="44.46141" lon="6.24092">
        <ele>670</ele>
        <time>2014-06-22T08:46:53.1Z</time>
      </trkpt>
      <trkpt lat="44.46136" lon="6.24099">
        <ele>670</ele>
        <time>2014-06-22T08:46:58.1Z</time>
      </trkpt>
      <trkpt lat="44.46131" lon="6.24107">
        <ele>670</ele>
        <time>2014-06-22T08:47:04.1Z</time>
      </trkpt>
      <trkpt lat="44.46125" lon="6.24115">
        <ele>670</ele>
        <time>2014-06-22T08:47:10.1Z</time>
      </trkpt>
      <trkpt lat="44.4612" lon="6.24122">
        <ele>669</ele>
        <time>2014-06-22T08:47:15.1Z</time>
      </trkpt>
      <trkpt lat="44.46115" lon="6.24131">
        <ele>669</ele>
        <time>2014-06-22T08:47:21.1Z</time>
      </trkpt>
      <trkpt lat="44.46111" lon="6.24138">
        <ele>670</ele>
        <time>2014-06-22T08:47:26.1Z</time>
      </trkpt>
      <trkpt lat="44.46107" lon="6.24146">
        <ele>670</ele>
        <time>2014-06-22T08:47:31.1Z</time>
      </trkpt>
      <trkpt lat="44.46103" lon="6.24151">
        <ele>670</ele>
        <time>2014-06-22T08:47:36.1Z</time>
      </trkpt>
      <trkpt lat="44.46097" lon="6.2416">
        <ele>669</ele>
        <time>2014-06-22T08:47:42.1Z</time>
      </trkpt>
      <trkpt lat="44.46093" lon="6.24167">
        <ele>670</ele>
        <time>2014-06-22T08:47:47.1Z</time>
      </trkpt>
      <trkpt lat="44.46088" lon="6.24173">
        <ele>670</ele>
        <time>2014-06-22T08:47:52.1Z</time>
      </trkpt>
      <trkpt lat="44.46082" lon="6.24182">
        <ele>670</ele>
        <time>2014-06-22T08:47:58.1Z</time>
      </trkpt>
      <trkpt lat="44.46077" lon="6.24189">
        <ele>670</ele>
        <time>2014-06-22T08:48:03.1Z</time>
      </trkpt>
      <trkpt lat="44.46072" lon="6.24197">
        <ele>670</ele>
        <time>2014-06-22T08:48:08.1Z</time>
      </trkpt>
      <trkpt lat="44.46067" lon="6.24206">
        <ele>670</ele>
        <time>2014-06-22T08:48:14.1Z</time>
      </trkpt>
      <trkpt lat="44.46062" lon="6.24216">
        <ele>670</ele>
        <time>2014-06-22T08:48:20.1Z</time>
      </trkpt>
      <trkpt lat="44.46057" lon="6.24223">
        <ele>670</ele>
        <time>2014-06-22T08:48:25.1Z</time>
      </trkpt>
      <trkpt lat="44.46053" lon="6.24231">
        <ele>670</ele>
        <time>2014-06-22T08:48:30.1Z</time>
      </trkpt>
      <trkpt lat="44.46048" lon="6.24239">
        <ele>670</ele>
        <time>2014-06-22T08:48:36.1Z</time>
      </trkpt>
      <trkpt lat="44.46043" lon="6.24248">
        <ele>670</ele>
        <time>2014-06-22T08:48:42.1Z</time>
      </trkpt>
      <trkpt lat="44.46038" lon="6.24256">
        <ele>670</ele>
        <time>2014-06-22T08:48:48.1Z</time>
      </trkpt>
      <trkpt lat="44.46032" lon="6.24263">
        <ele>670</ele>
        <time>2014-06-22T08:48:54.1Z</time>
      </trkpt>
      <trkpt lat="44.46028" lon="6.24271">
        <ele>670</ele>
        <time>2014-06-22T08:48:59.1Z</time>
      </trkpt>
      <trkpt lat="44.46023" lon="6.2428">
        <ele>670</ele>
        <time>2014-06-22T08:49:05.1Z</time>
      </trkpt>
      <trkpt lat="44.46021" lon="6.24288">
        <ele>670</ele>
        <time>2014-06-22T08:49:10.1Z</time>
      </trkpt>
      <trkpt lat="44.46018" lon="6.24298">
        <ele>670</ele>
        <time>2014-06-22T08:49:16.1Z</time>
      </trkpt>
      <trkpt lat="44.46016" lon="6.24308">
        <ele>670</ele>
        <time>2014-06-22T08:49:22.1Z</time>
      </trkpt>
      <trkpt lat="44.46016" lon="6.24318">
        <ele>670</ele>
        <time>2014-06-22T08:49:27.1Z</time>
      </trkpt>
      <trkpt lat="44.4602" lon="6.24327">
        <ele>670</ele>
        <time>2014-06-22T08:49:33.1Z</time>
      </trkpt>
      <trkpt lat="44.46025" lon="6.24336">
        <ele>670</ele>
        <time>2014-06-22T08:49:39.1Z</time>
      </trkpt>
      <trkpt lat="44.4603" lon="6.24344">
        <ele>670</ele>
        <time>2014-06-22T08:49:45.1Z</time>
      </trkpt>
      <trkpt lat="44.46036" lon="6.24352">
        <ele>670</ele>
        <time>2014-06-22T08:49:51.1Z</time>
      </trkpt>
      <trkpt lat="44.4604" lon="6.24358">
        <ele>670</ele>
        <time>2014-06-22T08:49:56.1Z</time>
      </trkpt>
      <trkpt lat="44.46047" lon="6.24366">
        <ele>670</ele>
        <time>2014-06-22T08:50:02.1Z</time>
      </trkpt>
      <trkpt lat="44.46053" lon="6.24371">
        <ele>669</ele>
        <time>2014-06-22T08:50:07.1Z</time>
      </trkpt>
      <trkpt lat="44.46059" lon="6.24378">
        <ele>669</ele>
        <time>2014-06-22T08:50:13.1Z</time>
      </trkpt>
      <trkpt lat="44.46064" lon="6.24385">
        <ele>669</ele>
        <time>2014-06-22T08:50:18.1Z</time>
      </trkpt>
      <trkpt lat="44.46067" lon="6.24391">
        <ele>668</ele>
        <time>2014-06-22T08:50:23.1Z</time>
      </trkpt>
      <trkpt lat="44.46068" lon="6.24394">
        <ele>668</ele>
        <time>2014-06-22T08:50:29.1Z</time>
      </trkpt>
      <trkpt lat="44.4607" lon="6.24395">
        <ele>668</ele>
        <time>2014-06-22T08:50:35.1Z</time>
      </trkpt>
      <trkpt lat="44.46072" lon="6.24399">
        <ele>668</ele>
        <time>2014-06-22T08:50:41.1Z</time>
      </trkpt>
      <trkpt lat="44.46073" lon="6.244">
        <ele>668</ele>
        <time>2014-06-22T08:50:46.1Z</time>
      </trkpt>
      <trkpt lat="44.46074" lon="6.24403">
        <ele>668</ele>
        <time>2014-06-22T08:50:52.1Z</time>
      </trkpt>
      <trkpt lat="44.46073" lon="6.24403">
        <ele>668</ele>
        <time>2014-06-22T08:50:57.1Z</time>
      </trkpt>
      <trkpt lat="44.4607" lon="6.24404">
        <ele>668</ele>
        <time>2014-06-22T08:51:02.1Z</time>
      </trkpt>
      <trkpt lat="44.46067" lon="6.24405">
        <ele>668</ele>
        <time>2014-06-22T08:51:07.1Z</time>
      </trkpt>
      <trkpt lat="44.46066" lon="6.24406">
        <ele>668</ele>
        <time>2014-06-22T08:51:13.1Z</time>
      </trkpt>
      <trkpt lat="44.46064" lon="6.24407">
        <ele>669</ele>
        <time>2014-06-22T08:51:18.1Z</time>
      </trkpt>
      <trkpt lat="44.46061" lon="6.24408">
        <ele>668</ele>
        <time>2014-06-22T08:51:24.1Z</time>
      </trkpt>
      <trkpt lat="44.46059" lon="6.24408">
        <ele>668</ele>
        <time>2014-06-22T08:51:29.1Z</time>
      </trkpt>
      <trkpt lat="44.46058" lon="6.2441">
        <ele>668</ele>
        <time>2014-06-22T08:51:34.1Z</time>
      </trkpt>
      <trkpt lat="44.46054" lon="6.24412">
        <ele>668</ele>
        <time>2014-06-22T08:51:39.1Z</time>
      </trkpt>
      <trkpt lat="44.4605" lon="6.2441">
        <ele>668</ele>
        <time>2014-06-22T08:51:44.1Z</time>
      </trkpt>
      <trkpt lat="44.46045" lon="6.24409">
        <ele>669</ele>
        <time>2014-06-22T08:51:50.1Z</time>
      </trkpt>
      <trkpt lat="44.4604" lon="6.24408">
        <ele>669</ele>
        <time>2014-06-22T08:51:55.1Z</time>
      </trkpt>
      <trkpt lat="44.46035" lon="6.24404">
        <ele>669</ele>
        <time>2014-06-22T08:52:00.1Z</time>
      </trkpt>
      <trkpt lat="44.46028" lon="6.244">
        <ele>669</ele>
        <time>2014-06-22T08:52:06.1Z</time>
      </trkpt>
      <trkpt lat="44.46022" lon="6.24395">
        <ele>669</ele>
        <time>2014-06-22T08:52:12.1Z</time>
      </trkpt>
      <trkpt lat="44.46016" lon="6.24392">
        <ele>670</ele>
        <time>2014-06-22T08:52:17.1Z</time>
      </trkpt>
      <trkpt lat="44.46009" lon="6.24393">
        <ele>669</ele>
        <time>2014-06-22T08:52:23.1Z</time>
      </trkpt>
      <trkpt lat="44.46005" lon="6.24396">
        <ele>669</ele>
        <time>2014-06-22T08:52:28.1Z</time>
      </trkpt>
      <trkpt lat="44.46003" lon="6.244">
        <ele>670</ele>
        <time>2014-06-22T08:52:33.1Z</time>
      </trkpt>
      <trkpt lat="44.45998" lon="6.24406">
        <ele>670</ele>
        <time>2014-06-22T08:52:39.1Z</time>
      </trkpt>
      <trkpt lat="44.45997" lon="6.24409">
        <ele>669</ele>
        <time>2014-06-22T08:52:44.1Z</time>
      </trkpt>
      <trkpt lat="44.45995" lon="6.24415">
        <ele>669</ele>
        <time>2014-06-22T08:52:50.1Z</time>
      </trkpt>
      <trkpt lat="44.4599" lon="6.24422">
        <ele>669</ele>
        <time>2014-06-22T08:52:56.1Z</time>
      </trkpt>
      <trkpt lat="44.45987" lon="6.24428">
        <ele>669</ele>
        <time>2014-06-22T08:53:01.1Z</time>
      </trkpt>
      <trkpt lat="44.45985" lon="6.24435">
        <ele>670</ele>
        <time>2014-06-22T08:53:06.1Z</time>
      </trkpt>
      <trkpt lat="44.45986" lon="6.24445">
        <ele>669</ele>
        <time>2014-06-22T08:53:12.1Z</time>
      </trkpt>
      <trkpt lat="44.45985" lon="6.24453">
        <ele>668</ele>
        <time>2014-06-22T08:53:17.1Z</time>
      </trkpt>
      <trkpt lat="44.45985" lon="6.24462">
        <ele>669</ele>
        <time>2014-06-22T08:53:22.1Z</time>
      </trkpt>
      <trkpt lat="44.45986" lon="6.24471">
        <ele>669</ele>
        <time>2014-06-22T08:53:27.1Z</time>
      </trkpt>
      <trkpt lat="44.45986" lon="6.24479">
        <ele>669</ele>
        <time>2014-06-22T08:53:32.1Z</time>
      </trkpt>
      <trkpt lat="44.45988" lon="6.24489">
        <ele>669</ele>
        <time>2014-06-22T08:53:38.1Z</time>
      </trkpt>
      <trkpt lat="44.45988" lon="6.24498">
        <ele>669</ele>
        <time>2014-06-22T08:53:43.1Z</time>
      </trkpt>
      <trkpt lat="44.45988" lon="6.24506">
        <ele>669</ele>
        <time>2014-06-22T08:53:48.1Z</time>
      </trkpt>
      <trkpt lat="44.45987" lon="6.24512">
        <ele>669</ele>
        <time>2014-06-22T08:53:54.1Z</time>
      </trkpt>
      <trkpt lat="44.45985" lon="6.24519">
        <ele>669</ele>
        <time>2014-06-22T08:53:59.1Z</time>
      </trkpt>
      <trkpt lat="44.45982" lon="6.24528">
        <ele>669</ele>
        <time>2014-06-22T08:54:05.1Z</time>
      </trkpt>
      <trkpt lat="44.45979" lon="6.24534">
        <ele>668</ele>
        <time>2014-06-22T08:54:10.1Z</time>
      </trkpt>
      <trkpt lat="44.45975" lon="6.24544">
        <ele>669</ele>
        <time>2014-06-22T08:54:16.1Z</time>
      </trkpt>
      <trkpt lat="44.45972" lon="6.24553">
        <ele>668</ele>
        <time>2014-06-22T08:54:21.1Z</time>
      </trkpt>
      <trkpt lat="44.45973" lon="6.24561">
        <ele>668</ele>
        <time>2014-06-22T08:54:26.1Z</time>
      </trkpt>
      <trkpt lat="44.45975" lon="6.24558">
        <ele>668</ele>
        <time>2014-06-22T08:54:31.1Z</time>
      </trkpt>
      <trkpt lat="44.4598" lon="6.24561">
        <ele>669</ele>
        <time>2014-06-22T08:54:37.1Z</time>
      </trkpt>
      <trkpt lat="44.45986" lon="6.24566">
        <ele>669</ele>
        <time>2014-06-22T08:54:42.1Z</time>
      </trkpt>
      <trkpt lat="44.45992" lon="6.24572">
        <ele>669</ele>
        <time>2014-06-22T08:54:47.1Z</time>
      </trkpt>
      <trkpt lat="44.45998" lon="6.2458">
        <ele>668</ele>
        <time>2014-06-22T08:54:52.1Z</time>
      </trkpt>
      <trkpt lat="44.46004" lon="6.24584">
        <ele>668</ele>
        <time>2014-06-22T08:54:57.1Z</time>
      </trkpt>
      <trkpt lat="44.4601" lon="6.2459">
        <ele>668</ele>
        <time>2014-06-22T08:55:02.1Z</time>
      </trkpt>
      <trkpt lat="44.46014" lon="6.24597">
        <ele>668</ele>
        <time>2014-06-22T08:55:08.1Z</time>
      </trkpt>
      <trkpt lat="44.46016" lon="6.24605">
        <ele>668</ele>
        <time>2014-06-22T08:55:13.1Z</time>
      </trkpt>
      <trkpt lat="44.46022" lon="6.24613">
        <ele>668</ele>
        <time>2014-06-22T08:55:19.1Z</time>
      </trkpt>
      <trkpt lat="44.46025" lon="6.24611">
        <ele>668</ele>
        <time>2014-06-22T08:55:24.1Z</time>
      </trkpt>
      <trkpt lat="44.46029" lon="6.24607">
        <ele>668</ele>
        <time>2014-06-22T08:55:30.1Z</time>
      </trkpt>
      <trkpt lat="44.46032" lon="6.24607">
        <ele>668</ele>
        <time>2014-06-22T08:55:35.1Z</time>
      </trkpt>
      <trkpt lat="44.4604" lon="6.24607">
        <ele>668</ele>
        <time>2014-06-22T08:55:41.1Z</time>
      </trkpt>
      <trkpt lat="44.46046" lon="6.24606">
        <ele>667</ele>
        <time>2014-06-22T08:55:46.1Z</time>
      </trkpt>
      <trkpt lat="44.46055" lon="6.24606">
        <ele>667</ele>
        <time>2014-06-22T08:55:51.1Z</time>
      </trkpt>
      <trkpt lat="44.46062" lon="6.24608">
        <ele>667</ele>
        <time>2014-06-22T08:55:56.1Z</time>
      </trkpt>
      <trkpt lat="44.4607" lon="6.24609">
        <ele>668</ele>
        <time>2014-06-22T08:56:01.1Z</time>
      </trkpt>
      <trkpt lat="44.46078" lon="6.24611">
        <ele>667</ele>
        <time>2014-06-22T08:56:07.1Z</time>
      </trkpt>
      <trkpt lat="44.46083" lon="6.24612">
        <ele>667</ele>
        <time>2014-06-22T08:56:12.1Z</time>
      </trkpt>
      <trkpt lat="44.46088" lon="6.24615">
        <ele>668</ele>
        <time>2014-06-22T08:56:17.1Z</time>
      </trkpt>
      <trkpt lat="44.46096" lon="6.24616">
        <ele>668</ele>
        <time>2014-06-22T08:56:23.1Z</time>
      </trkpt>
      <trkpt lat="44.46103" lon="6.2462">
        <ele>668</ele>
        <time>2014-06-22T08:56:28.1Z</time>
      </trkpt>
      <trkpt lat="44.46109" lon="6.24623">
        <ele>668</ele>
        <time>2014-06-22T08:56:33.1Z</time>
      </trkpt>
      <trkpt lat="44.46116" lon="6.24626">
        <ele>668</ele>
        <time>2014-06-22T08:56:39.1Z</time>
      </trkpt>
      <trkpt lat="44.46118" lon="6.24627">
        <ele>668</ele>
        <time>2014-06-22T08:56:44.1Z</time>
      </trkpt>
      <trkpt lat="44.46125" lon="6.24632">
        <ele>667</ele>
        <time>2014-06-22T08:56:50.1Z</time>
      </trkpt>
      <trkpt lat="44.46131" lon="6.24636">
        <ele>667</ele>
        <time>2014-06-22T08:56:55.1Z</time>
      </trkpt>
      <trkpt lat="44.46135" lon="6.2464">
        <ele>667</ele>
        <time>2014-06-22T08:57:00.1Z</time>
      </trkpt>
      <trkpt lat="44.46141" lon="6.24645">
        <ele>667</ele>
        <time>2014-06-22T08:57:06.1Z</time>
      </trkpt>
      <trkpt lat="44.46148" lon="6.24652">
        <ele>667</ele>
        <time>2014-06-22T08:57:12.1Z</time>
      </trkpt>
      <trkpt lat="44.46152" lon="6.24657">
        <ele>667</ele>
        <time>2014-06-22T08:57:17.1Z</time>
      </trkpt>
      <trkpt lat="44.46155" lon="6.24664">
        <ele>667</ele>
        <time>2014-06-22T08:57:22.1Z</time>
      </trkpt>
      <trkpt lat="44.46159" lon="6.24671">
        <ele>667</ele>
        <time>2014-06-22T08:57:28.1Z</time>
      </trkpt>
      <trkpt lat="44.46162" lon="6.2468">
        <ele>667</ele>
        <time>2014-06-22T08:57:34.1Z</time>
      </trkpt>
      <trkpt lat="44.46165" lon="6.24687">
        <ele>667</ele>
        <time>2014-06-22T08:57:39.1Z</time>
      </trkpt>
      <trkpt lat="44.46167" lon="6.24696">
        <ele>667</ele>
        <time>2014-06-22T08:57:45.1Z</time>
      </trkpt>
      <trkpt lat="44.4617" lon="6.24704">
        <ele>667</ele>
        <time>2014-06-22T08:57:50.1Z</time>
      </trkpt>
      <trkpt lat="44.46173" lon="6.24712">
        <ele>667</ele>
        <time>2014-06-22T08:57:56.1Z</time>
      </trkpt>
      <trkpt lat="44.46177" lon="6.2472">
        <ele>667</ele>
        <time>2014-06-22T08:58:02.1Z</time>
      </trkpt>
      <trkpt lat="44.46176" lon="6.24727">
        <ele>667</ele>
        <time>2014-06-22T08:58:07.1Z</time>
      </trkpt>
      <trkpt lat="44.46175" lon="6.24733">
        <ele>667</ele>
        <time>2014-06-22T08:58:13.1Z</time>
      </trkpt>
      <trkpt lat="44.46175" lon="6.24741">
        <ele>667</ele>
        <time>2014-06-22T08:58:18.1Z</time>
      </trkpt>
      <trkpt lat="44.46177" lon="6.2475">
        <ele>667</ele>
        <time>2014-06-22T08:58:23.1Z</time>
      </trkpt>
      <trkpt lat="44.46173" lon="6.24752">
        <ele>667</ele>
        <time>2014-06-22T08:58:29.1Z</time>
      </trkpt>
      <trkpt lat="44.4617" lon="6.24752">
        <ele>667</ele>
        <time>2014-06-22T08:58:34.1Z</time>
      </trkpt>
      <trkpt lat="44.4617" lon="6.24757">
        <ele>667</ele>
        <time>2014-06-22T08:58:39.1Z</time>
      </trkpt>
      <trkpt lat="44.46166" lon="6.24757">
        <ele>666</ele>
        <time>2014-06-22T08:58:44.1Z</time>
      </trkpt>
      <trkpt lat="44.4616" lon="6.24757">
        <ele>666</ele>
        <time>2014-06-22T08:58:49.1Z</time>
      </trkpt>
      <trkpt lat="44.46154" lon="6.24756">
        <ele>666</ele>
        <time>2014-06-22T08:58:55.1Z</time>
      </trkpt>
      <trkpt lat="44.4615" lon="6.24759">
        <ele>667</ele>
        <time>2014-06-22T08:59:01.1Z</time>
      </trkpt>
      <trkpt lat="44.46148" lon="6.24766">
        <ele>667</ele>
        <time>2014-06-22T08:59:06.1Z</time>
      </trkpt>
      <trkpt lat="44.46149" lon="6.24771">
        <ele>667</ele>
        <time>2014-06-22T08:59:12.1Z</time>
      </trkpt>
      <trkpt lat="44.46148" lon="6.2478">
        <ele>667</ele>
        <time>2014-06-22T08:59:18.1Z</time>
      </trkpt>
      <trkpt lat="44.46147" lon="6.24783">
        <ele>667</ele>
        <time>2014-06-22T08:59:23.1Z</time>
      </trkpt>
      <trkpt lat="44.46146" lon="6.24785">
        <ele>667</ele>
        <time>2014-06-22T08:59:29.1Z</time>
      </trkpt>
      <trkpt lat="44.46142" lon="6.24788">
        <ele>667</ele>
        <time>2014-06-22T08:59:35.1Z</time>
      </trkpt>
      <trkpt lat="44.4614" lon="6.24791">
        <ele>667</ele>
        <time>2014-06-22T08:59:40.1Z</time>
      </trkpt>
      <trkpt lat="44.46138" lon="6.24796">
        <ele>667</ele>
        <time>2014-06-22T08:59:46.1Z</time>
      </trkpt>
      <trkpt lat="44.46137" lon="6.24796">
        <ele>667</ele>
        <time>2014-06-22T08:59:52.1Z</time>
      </trkpt>
      <trkpt lat="44.46138" lon="6.24795">
        <ele>667</ele>
        <time>2014-06-22T08:59:58.1Z</time>
      </trkpt>
      <trkpt lat="44.46138" lon="6.24791">
        <ele>667</ele>
        <time>2014-06-22T09:00:03.1Z</time>
      </trkpt>
      <trkpt lat="44.4614" lon="6.2479">
        <ele>667</ele>
        <time>2014-06-22T09:00:08.1Z</time>
      </trkpt>
      <trkpt lat="44.46142" lon="6.24786">
        <ele>667</ele>
        <time>2014-06-22T09:00:13.1Z</time>
      </trkpt>
      <trkpt lat="44.46142" lon="6.24779">
        <ele>667</ele>
        <time>2014-06-22T09:00:19.1Z</time>
      </trkpt>
      <trkpt lat="44.46143" lon="6.24771">
        <ele>667</ele>
        <time>2014-06-22T09:00:24.1Z</time>
      </trkpt>
      <trkpt lat="44.46143" lon="6.24761">
        <ele>667</ele>
        <time>2014-06-22T09:00:30.1Z</time>
      </trkpt>
      <trkpt lat="44.46139" lon="6.24753">
        <ele>667</ele>
        <time>2014-06-22T09:00:36.1Z</time>
      </trkpt>
      <trkpt lat="44.46137" lon="6.24747">
        <ele>667</ele>
        <time>2014-06-22T09:00:41.1Z</time>
      </trkpt>
      <trkpt lat="44.46133" lon="6.24743">
        <ele>667</ele>
        <time>2014-06-22T09:00:46.1Z</time>
      </trkpt>
      <trkpt lat="44.46128" lon="6.24738">
        <ele>668</ele>
        <time>2014-06-22T09:00:52.1Z</time>
      </trkpt>
      <trkpt lat="44.46125" lon="6.24733">
        <ele>667</ele>
        <time>2014-06-22T09:00:57.1Z</time>
      </trkpt>
      <trkpt lat="44.46122" lon="6.24729">
        <ele>667</ele>
        <time>2014-06-22T09:01:02.1Z</time>
      </trkpt>
      <trkpt lat="44.46122" lon="6.24725">
        <ele>667</ele>
        <time>2014-06-22T09:01:08.1Z</time>
      </trkpt>
      <trkpt lat="44.46122" lon="6.24718">
        <ele>668</ele>
        <time>2014-06-22T09:01:14.1Z</time>
      </trkpt>
      <trkpt lat="44.46119" lon="6.24711">
        <ele>667</ele>
        <time>2014-06-22T09:01:19.1Z</time>
      </trkpt>
      <trkpt lat="44.46115" lon="6.24705">
        <ele>667</ele>
        <time>2014-06-22T09:01:24.1Z</time>
      </trkpt>
      <trkpt lat="44.46112" lon="6.24698">
        <ele>668</ele>
        <time>2014-06-22T09:01:29.1Z</time>
      </trkpt>
      <trkpt lat="44.46109" lon="6.24693">
        <ele>667</ele>
        <time>2014-06-22T09:01:34.1Z</time>
      </trkpt>
      <trkpt lat="44.46107" lon="6.2469">
        <ele>667</ele>
        <time>2014-06-22T09:01:40.1Z</time>
      </trkpt>
      <trkpt lat="44.46103" lon="6.24683">
        <ele>668</ele>
        <time>2014-06-22T09:01:46.1Z</time>
      </trkpt>
      <trkpt lat="44.461" lon="6.24676">
        <ele>668</ele>
        <time>2014-06-22T09:01:52.1Z</time>
      </trkpt>
      <trkpt lat="44.46095" lon="6.24671">
        <ele>668</ele>
        <time>2014-06-22T09:01:57.1Z</time>
      </trkpt>
      <trkpt lat="44.46091" lon="6.24665">
        <ele>668</ele>
        <time>2014-06-22T09:02:03.1Z</time>
      </trkpt>
      <trkpt lat="44.46089" lon="6.24662">
        <ele>668</ele>
        <time>2014-06-22T09:02:09.1Z</time>
      </trkpt>
      <trkpt lat="44.46086" lon="6.24658">
        <ele>668</ele>
        <time>2014-06-22T09:02:14.1Z</time>
      </trkpt>
      <trkpt lat="44.46083" lon="6.24653">
        <ele>668</ele>
        <time>2014-06-22T09:02:19.1Z</time>
      </trkpt>
      <trkpt lat="44.46081" lon="6.24648">
        <ele>668</ele>
        <time>2014-06-22T09:02:25.1Z</time>
      </trkpt>
      <trkpt lat="44.46077" lon="6.24641">
        <ele>669</ele>
        <time>2014-06-22T09:02:31.1Z</time>
      </trkpt>
      <trkpt lat="44.46073" lon="6.24638">
        <ele>669</ele>
        <time>2014-06-22T09:02:36.1Z</time>
      </trkpt>
      <trkpt lat="44.4607" lon="6.24636">
        <ele>668</ele>
        <time>2014-06-22T09:02:42.1Z</time>
      </trkpt>
      <trkpt lat="44.46069" lon="6.24635">
        <ele>668</ele>
        <time>2014-06-22T09:02:49.1Z</time>
      </trkpt>
      <trkpt lat="44.46066" lon="6.24634">
        <ele>668</ele>
        <time>2014-06-22T09:02:54.1Z</time>
      </trkpt>
      <trkpt lat="44.46062" lon="6.24634">
        <ele>669</ele>
        <time>2014-06-22T09:02:59.1Z</time>
      </trkpt>
      <trkpt lat="44.46056" lon="6.24632">
        <ele>669</ele>
        <time>2014-06-22T09:03:05.1Z</time>
      </trkpt>
      <trkpt lat="44.46049" lon="6.24629">
        <ele>668</ele>
        <time>2014-06-22T09:03:11.1Z</time>
      </trkpt>
      <trkpt lat="44.46043" lon="6.24625">
        <ele>669</ele>
        <time>2014-06-22T09:03:16.1Z</time>
      </trkpt>
      <trkpt lat="44.46035" lon="6.24624">
        <ele>669</ele>
        <time>2014-06-22T09:03:22.1Z</time>
      </trkpt>
      <trkpt lat="44.46029" lon="6.24625">
        <ele>669</ele>
        <time>2014-06-22T09:03:27.1Z</time>
      </trkpt>
      <trkpt lat="44.46024" lon="6.24624">
        <ele>669</ele>
        <time>2014-06-22T09:03:32.1Z</time>
      </trkpt>
      <trkpt lat="44.46019" lon="6.24619">
        <ele>669</ele>
        <time>2014-06-22T09:03:38.1Z</time>
      </trkpt>
      <trkpt lat="44.46018" lon="6.24616">
        <ele>669</ele>
        <time>2014-06-22T09:03:43.1Z</time>
      </trkpt>
      <trkpt lat="44.46016" lon="6.2461">
        <ele>668</ele>
        <time>2014-06-22T09:03:49.1Z</time>
      </trkpt>
      <trkpt lat="44.46013" lon="6.24603">
        <ele>669</ele>
        <time>2014-06-22T09:03:55.1Z</time>
      </trkpt>
      <trkpt lat="44.46006" lon="6.24597">
        <ele>669</ele>
        <time>2014-06-22T09:04:01.1Z</time>
      </trkpt>
      <trkpt lat="44.46002" lon="6.24591">
        <ele>669</ele>
        <time>2014-06-22T09:04:07.1Z</time>
      </trkpt>
      <trkpt lat="44.45996" lon="6.24582">
        <ele>669</ele>
        <time>2014-06-22T09:04:13.1Z</time>
      </trkpt>
      <trkpt lat="44.45992" lon="6.24577">
        <ele>669</ele>
        <time>2014-06-22T09:04:18.1Z</time>
      </trkpt>
      <trkpt lat="44.45987" lon="6.24571">
        <ele>669</ele>
        <time>2014-06-22T09:04:24.1Z</time>
      </trkpt>
      <trkpt lat="44.45982" lon="6.24573">
        <ele>670</ele>
        <time>2014-06-22T09:04:30.1Z</time>
      </trkpt>
      <trkpt lat="44.45979" lon="6.24579">
        <ele>670</ele>
        <time>2014-06-22T09:04:35.1Z</time>
      </trkpt>
      <trkpt lat="44.45979" lon="6.24584">
        <ele>670</ele>
        <time>2014-06-22T09:04:40.1Z</time>
      </trkpt>
      <trkpt lat="44.45979" lon="6.24593">
        <ele>670</ele>
        <time>2014-06-22T09:04:45.1Z</time>
      </trkpt>
      <trkpt lat="44.45979" lon="6.246">
        <ele>670</ele>
        <time>2014-06-22T09:04:51.1Z</time>
      </trkpt>
      <trkpt lat="44.45979" lon="6.24608">
        <ele>670</ele>
        <time>2014-06-22T09:04:57.1Z</time>
      </trkpt>
      <trkpt lat="44.45979" lon="6.24616">
        <ele>670</ele>
        <time>2014-06-22T09:05:03.1Z</time>
      </trkpt>
      <trkpt lat="44.45979" lon="6.24627">
        <ele>669</ele>
        <time>2014-06-22T09:05:09.1Z</time>
      </trkpt>
      <trkpt lat="44.45979" lon="6.24638">
        <ele>669</ele>
        <time>2014-06-22T09:05:15.1Z</time>
      </trkpt>
      <trkpt lat="44.4598" lon="6.24645">
        <ele>669</ele>
        <time>2014-06-22T09:05:20.1Z</time>
      </trkpt>
      <trkpt lat="44.45981" lon="6.24651">
        <ele>669</ele>
        <time>2014-06-22T09:05:25.1Z</time>
      </trkpt>
      <trkpt lat="44.45981" lon="6.24658">
        <ele>669</ele>
        <time>2014-06-22T09:05:30.1Z</time>
      </trkpt>
      <trkpt lat="44.45982" lon="6.24665">
        <ele>670</ele>
        <time>2014-06-22T09:05:35.1Z</time>
      </trkpt>
      <trkpt lat="44.45983" lon="6.24673">
        <ele>670</ele>
        <time>2014-06-22T09:05:40.1Z</time>
      </trkpt>
      <trkpt lat="44.45982" lon="6.2468">
        <ele>670</ele>
        <time>2014-06-22T09:05:45.1Z</time>
      </trkpt>
      <trkpt lat="44.45982" lon="6.24684">
        <ele>669</ele>
        <time>2014-06-22T09:05:51.1Z</time>
      </trkpt>
      <trkpt lat="44.45982" lon="6.24691">
        <ele>669</ele>
        <time>2014-06-22T09:05:56.1Z</time>
      </trkpt>
      <trkpt lat="44.45986" lon="6.24701">
        <ele>669</ele>
        <time>2014-06-22T09:06:02.1Z</time>
      </trkpt>
      <trkpt lat="44.45988" lon="6.24708">
        <ele>670</ele>
        <time>2014-06-22T09:06:07.1Z</time>
      </trkpt>
      <trkpt lat="44.4599" lon="6.24717">
        <ele>669</ele>
        <time>2014-06-22T09:06:13.1Z</time>
      </trkpt>
      <trkpt lat="44.45992" lon="6.24724">
        <ele>669</ele>
        <time>2014-06-22T09:06:18.1Z</time>
      </trkpt>
      <trkpt lat="44.45995" lon="6.2473">
        <ele>669</ele>
        <time>2014-06-22T09:06:24.1Z</time>
      </trkpt>
      <trkpt lat="44.45997" lon="6.24738">
        <ele>669</ele>
        <time>2014-06-22T09:06:29.1Z</time>
      </trkpt>
      <trkpt lat="44.46001" lon="6.24748">
        <ele>669</ele>
        <time>2014-06-22T09:06:34.1Z</time>
      </trkpt>
      <trkpt lat="44.46003" lon="6.24757">
        <ele>670</ele>
        <time>2014-06-22T09:06:39.1Z</time>
      </trkpt>
      <trkpt lat="44.46006" lon="6.24768">
        <ele>669</ele>
        <time>2014-06-22T09:06:45.1Z</time>
      </trkpt>
      <trkpt lat="44.46011" lon="6.24777">
        <ele>669</ele>
        <time>2014-06-22T09:06:50.1Z</time>
      </trkpt>
      <trkpt lat="44.46014" lon="6.24786">
        <ele>669</ele>
        <time>2014-06-22T09:06:55.1Z</time>
      </trkpt>
      <trkpt lat="44.46018" lon="6.24795">
        <ele>669</ele>
        <time>2014-06-22T09:07:00.1Z</time>
      </trkpt>
      <trkpt lat="44.46022" lon="6.24807">
        <ele>670</ele>
        <time>2014-06-22T09:07:06.1Z</time>
      </trkpt>
      <trkpt lat="44.46023" lon="6.24817">
        <ele>669</ele>
        <time>2014-06-22T09:07:12.1Z</time>
      </trkpt>
      <trkpt lat="44.46026" lon="6.24826">
        <ele>669</ele>
        <time>2014-06-22T09:07:18.1Z</time>
      </trkpt>
      <trkpt lat="44.46029" lon="6.24834">
        <ele>669</ele>
        <time>2014-06-22T09:07:23.1Z</time>
      </trkpt>
      <trkpt lat="44.46031" lon="6.24843">
        <ele>669</ele>
        <time>2014-06-22T09:07:28.1Z</time>
      </trkpt>
      <trkpt lat="44.46035" lon="6.2485">
        <ele>670</ele>
        <time>2014-06-22T09:07:33.1Z</time>
      </trkpt>
      <trkpt lat="44.46038" lon="6.2486">
        <ele>669</ele>
        <time>2014-06-22T09:07:38.1Z</time>
      </trkpt>
      <trkpt lat="44.46041" lon="6.24869">
        <ele>669</ele>
        <time>2014-06-22T09:07:43.1Z</time>
      </trkpt>
      <trkpt lat="44.46044" lon="6.24879">
        <ele>669</ele>
        <time>2014-06-22T09:07:49.1Z</time>
      </trkpt>
      <trkpt lat="44.46046" lon="6.24886">
        <ele>670</ele>
        <time>2014-06-22T09:07:55.1Z</time>
      </trkpt>
      <trkpt lat="44.46049" lon="6.24894">
        <ele>670</ele>
        <time>2014-06-22T09:08:00.1Z</time>
      </trkpt>
      <trkpt lat="44.46052" lon="6.24905">
        <ele>670</ele>
        <time>2014-06-22T09:08:06.1Z</time>
      </trkpt>
      <trkpt lat="44.46054" lon="6.24914">
        <ele>670</ele>
        <time>2014-06-22T09:08:11.1Z</time>
      </trkpt>
      <trkpt lat="44.46056" lon="6.24925">
        <ele>670</ele>
        <time>2014-06-22T09:08:16.1Z</time>
      </trkpt>
      <trkpt lat="44.46058" lon="6.24934">
        <ele>670</ele>
        <time>2014-06-22T09:08:21.1Z</time>
      </trkpt>
      <trkpt lat="44.46058" lon="6.24943">
        <ele>671</ele>
        <time>2014-06-22T09:08:27.1Z</time>
      </trkpt>
      <trkpt lat="44.46057" lon="6.24953">
        <ele>671</ele>
        <time>2014-06-22T09:08:32.1Z</time>
      </trkpt>
      <trkpt lat="44.46056" lon="6.24961">
        <ele>671</ele>
        <time>2014-06-22T09:08:37.1Z</time>
      </trkpt>
      <trkpt lat="44.46057" lon="6.24971">
        <ele>671</ele>
        <time>2014-06-22T09:08:43.1Z</time>
      </trkpt>
      <trkpt lat="44.46057" lon="6.24977">
        <ele>672</ele>
        <time>2014-06-22T09:08:48.1Z</time>
      </trkpt>
      <trkpt lat="44.46057" lon="6.24985">
        <ele>672</ele>
        <time>2014-06-22T09:08:53.1Z</time>
      </trkpt>
      <trkpt lat="44.46059" lon="6.24993">
        <ele>672</ele>
        <time>2014-06-22T09:08:59.1Z</time>
      </trkpt>
      <trkpt lat="44.46061" lon="6.25002">
        <ele>672</ele>
        <time>2014-06-22T09:09:04.1Z</time>
      </trkpt>
      <trkpt lat="44.46067" lon="6.2501">
        <ele>672</ele>
        <time>2014-06-22T09:09:10.1Z</time>
      </trkpt>
      <trkpt lat="44.46072" lon="6.2502">
        <ele>672</ele>
        <time>2014-06-22T09:09:15.1Z</time>
      </trkpt>
      <trkpt lat="44.46075" lon="6.25027">
        <ele>672</ele>
        <time>2014-06-22T09:09:21.1Z</time>
      </trkpt>
      <trkpt lat="44.4608" lon="6.25038">
        <ele>672</ele>
        <time>2014-06-22T09:09:27.1Z</time>
      </trkpt>
      <trkpt lat="44.46079" lon="6.25046">
        <ele>672</ele>
        <time>2014-06-22T09:09:32.1Z</time>
      </trkpt>
      <trkpt lat="44.46081" lon="6.25055">
        <ele>673</ele>
        <time>2014-06-22T09:09:37.1Z</time>
      </trkpt>
      <trkpt lat="44.46082" lon="6.25063">
        <ele>673</ele>
        <time>2014-06-22T09:09:42.1Z</time>
      </trkpt>
      <trkpt lat="44.46083" lon="6.25073">
        <ele>673</ele>
        <time>2014-06-22T09:09:48.1Z</time>
      </trkpt>
      <trkpt lat="44.46086" lon="6.25083">
        <ele>673</ele>
        <time>2014-06-22T09:09:53.1Z</time>
      </trkpt>
      <trkpt lat="44.46088" lon="6.25092">
        <ele>674</ele>
        <time>2014-06-22T09:09:58.1Z</time>
      </trkpt>
      <trkpt lat="44.46088" lon="6.251">
        <ele>675</ele>
        <time>2014-06-22T09:10:04.1Z</time>
      </trkpt>
      <trkpt lat="44.46092" lon="6.25108">
        <ele>675</ele>
        <time>2014-06-22T09:10:09.1Z</time>
      </trkpt>
      <trkpt lat="44.46096" lon="6.25117">
        <ele>675</ele>
        <time>2014-06-22T09:10:14.1Z</time>
      </trkpt>
      <trkpt lat="44.461" lon="6.25125">
        <ele>675</ele>
        <time>2014-06-22T09:10:19.1Z</time>
      </trkpt>
      <trkpt lat="44.46105" lon="6.25135">
        <ele>676</ele>
        <time>2014-06-22T09:10:24.1Z</time>
      </trkpt>
      <trkpt lat="44.46109" lon="6.25144">
        <ele>675</ele>
        <time>2014-06-22T09:10:29.1Z</time>
      </trkpt>
      <trkpt lat="44.46113" lon="6.25152">
        <ele>676</ele>
        <time>2014-06-22T09:10:34.1Z</time>
      </trkpt>
      <trkpt lat="44.46114" lon="6.2516">
        <ele>676</ele>
        <time>2014-06-22T09:10:40.1Z</time>
      </trkpt>
      <trkpt lat="44.46115" lon="6.2517">
        <ele>675</ele>
        <time>2014-06-22T09:10:45.1Z</time>
      </trkpt>
      <trkpt lat="44.46116" lon="6.25178">
        <ele>676</ele>
        <time>2014-06-22T09:10:51.1Z</time>
      </trkpt>
      <trkpt lat="44.46117" lon="6.25188">
        <ele>676</ele>
        <time>2014-06-22T09:10:56.1Z</time>
      </trkpt>
      <trkpt lat="44.4612" lon="6.25198">
        <ele>676</ele>
        <time>2014-06-22T09:11:01.1Z</time>
      </trkpt>
      <trkpt lat="44.4612" lon="6.25207">
        <ele>677</ele>
        <time>2014-06-22T09:11:07.1Z</time>
      </trkpt>
      <trkpt lat="44.46122" lon="6.25217">
        <ele>676</ele>
        <time>2014-06-22T09:11:12.1Z</time>
      </trkpt>
      <trkpt lat="44.46124" lon="6.25226">
        <ele>676</ele>
        <time>2014-06-22T09:11:17.1Z</time>
      </trkpt>
      <trkpt lat="44.46124" lon="6.25234">
        <ele>676</ele>
        <time>2014-06-22T09:11:23.1Z</time>
      </trkpt>
      <trkpt lat="44.46125" lon="6.25241">
        <ele>676</ele>
        <time>2014-06-22T09:11:28.1Z</time>
      </trkpt>
      <trkpt lat="44.46127" lon="6.25251">
        <ele>677</ele>
        <time>2014-06-22T09:11:34.1Z</time>
      </trkpt>
      <trkpt lat="44.46129" lon="6.25261">
        <ele>676</ele>
        <time>2014-06-22T09:11:39.1Z</time>
      </trkpt>
      <trkpt lat="44.46132" lon="6.2527">
        <ele>676</ele>
        <time>2014-06-22T09:11:45.1Z</time>
      </trkpt>
      <trkpt lat="44.46134" lon="6.25278">
        <ele>676</ele>
        <time>2014-06-22T09:11:50.1Z</time>
      </trkpt>
      <trkpt lat="44.46135" lon="6.25288">
        <ele>676</ele>
        <time>2014-06-22T09:11:55.1Z</time>
      </trkpt>
      <trkpt lat="44.46135" lon="6.25295">
        <ele>676</ele>
        <time>2014-06-22T09:12:00.1Z</time>
      </trkpt>
      <trkpt lat="44.46135" lon="6.25302">
        <ele>676</ele>
        <time>2014-06-22T09:12:05.1Z</time>
      </trkpt>
      <trkpt lat="44.46137" lon="6.2531">
        <ele>676</ele>
        <time>2014-06-22T09:12:11.1Z</time>
      </trkpt>
      <trkpt lat="44.4614" lon="6.25319">
        <ele>676</ele>
        <time>2014-06-22T09:12:16.1Z</time>
      </trkpt>
      <trkpt lat="44.46141" lon="6.2533">
        <ele>676</ele>
        <time>2014-06-22T09:12:22.1Z</time>
      </trkpt>
      <trkpt lat="44.46142" lon="6.25339">
        <ele>676</ele>
        <time>2014-06-22T09:12:27.1Z</time>
      </trkpt>
      <trkpt lat="44.46145" lon="6.25346">
        <ele>677</ele>
        <time>2014-06-22T09:12:33.1Z</time>
      </trkpt>
      <trkpt lat="44.46149" lon="6.25356">
        <ele>677</ele>
        <time>2014-06-22T09:12:38.1Z</time>
      </trkpt>
      <trkpt lat="44.46152" lon="6.25364">
        <ele>676</ele>
        <time>2014-06-22T09:12:43.1Z</time>
      </trkpt>
      <trkpt lat="44.46154" lon="6.25373">
        <ele>677</ele>
        <time>2014-06-22T09:12:48.1Z</time>
      </trkpt>
      <trkpt lat="44.46155" lon="6.25382">
        <ele>677</ele>
        <time>2014-06-22T09:12:53.1Z</time>
      </trkpt>
      <trkpt lat="44.46159" lon="6.2539">
        <ele>677</ele>
        <time>2014-06-22T09:12:59.1Z</time>
      </trkpt>
      <trkpt lat="44.46162" lon="6.25397">
        <ele>677</ele>
        <time>2014-06-22T09:13:04.1Z</time>
      </trkpt>
      <trkpt lat="44.46167" lon="6.25406">
        <ele>677</ele>
        <time>2014-06-22T09:13:10.1Z</time>
      </trkpt>
      <trkpt lat="44.46171" lon="6.25413">
        <ele>676</ele>
        <time>2014-06-22T09:13:15.1Z</time>
      </trkpt>
      <trkpt lat="44.46174" lon="6.25422">
        <ele>676</ele>
        <time>2014-06-22T09:13:20.1Z</time>
      </trkpt>
      <trkpt lat="44.46179" lon="6.2543">
        <ele>675</ele>
        <time>2014-06-22T09:13:26.1Z</time>
      </trkpt>
      <trkpt lat="44.46185" lon="6.25437">
        <ele>675</ele>
        <time>2014-06-22T09:13:31.1Z</time>
      </trkpt>
      <trkpt lat="44.46189" lon="6.25444">
        <ele>675</ele>
        <time>2014-06-22T09:13:36.1Z</time>
      </trkpt>
      <trkpt lat="44.46189" lon="6.25451">
        <ele>675</ele>
        <time>2014-06-22T09:13:42.1Z</time>
      </trkpt>
      <trkpt lat="44.46191" lon="6.25461">
        <ele>675</ele>
        <time>2014-06-22T09:13:47.1Z</time>
      </trkpt>
      <trkpt lat="44.46195" lon="6.2547">
        <ele>675</ele>
        <time>2014-06-22T09:13:52.1Z</time>
      </trkpt>
      <trkpt lat="44.46198" lon="6.25479">
        <ele>675</ele>
        <time>2014-06-22T09:13:58.1Z</time>
      </trkpt>
      <trkpt lat="44.462" lon="6.25488">
        <ele>676</ele>
        <time>2014-06-22T09:14:03.1Z</time>
      </trkpt>
      <trkpt lat="44.46203" lon="6.25498">
        <ele>676</ele>
        <time>2014-06-22T09:14:08.1Z</time>
      </trkpt>
      <trkpt lat="44.46204" lon="6.25507">
        <ele>677</ele>
        <time>2014-06-22T09:14:13.1Z</time>
      </trkpt>
      <trkpt lat="44.46207" lon="6.25517">
        <ele>677</ele>
        <time>2014-06-22T09:14:19.1Z</time>
      </trkpt>
      <trkpt lat="44.4621" lon="6.25528">
        <ele>677</ele>
        <time>2014-06-22T09:14:24.1Z</time>
      </trkpt>
      <trkpt lat="44.46213" lon="6.25537">
        <ele>677</ele>
        <time>2014-06-22T09:14:29.1Z</time>
      </trkpt>
      <trkpt lat="44.46218" lon="6.25547">
        <ele>677</ele>
        <time>2014-06-22T09:14:34.1Z</time>
      </trkpt>
      <trkpt lat="44.46223" lon="6.25555">
        <ele>677</ele>
        <time>2014-06-22T09:14:39.1Z</time>
      </trkpt>
      <trkpt lat="44.46229" lon="6.25566">
        <ele>676</ele>
        <time>2014-06-22T09:14:46.1Z</time>
      </trkpt>
      <trkpt lat="44.46232" lon="6.25573">
        <ele>677</ele>
        <time>2014-06-22T09:14:51.1Z</time>
      </trkpt>
      <trkpt lat="44.46234" lon="6.25581">
        <ele>677</ele>
        <time>2014-06-22T09:14:56.1Z</time>
      </trkpt>
      <trkpt lat="44.46235" lon="6.25587">
        <ele>676</ele>
        <time>2014-06-22T09:15:01.1Z</time>
      </trkpt>
      <trkpt lat="44.46237" lon="6.25593">
        <ele>676</ele>
        <time>2014-06-22T09:15:07.1Z</time>
      </trkpt>
      <trkpt lat="44.46241" lon="6.25601">
        <ele>676</ele>
        <time>2014-06-22T09:15:13.1Z</time>
      </trkpt>
      <trkpt lat="44.46246" lon="6.25612">
        <ele>676</ele>
        <time>2014-06-22T09:15:18.1Z</time>
      </trkpt>
      <trkpt lat="44.46251" lon="6.2562">
        <ele>676</ele>
        <time>2014-06-22T09:15:24.1Z</time>
      </trkpt>
      <trkpt lat="44.46256" lon="6.25628">
        <ele>675</ele>
        <time>2014-06-22T09:15:29.1Z</time>
      </trkpt>
      <trkpt lat="44.46261" lon="6.25635">
        <ele>675</ele>
        <time>2014-06-22T09:15:34.1Z</time>
      </trkpt>
      <trkpt lat="44.46263" lon="6.25639">
        <ele>675</ele>
        <time>2014-06-22T09:15:39.1Z</time>
      </trkpt>
      <trkpt lat="44.4627" lon="6.25648">
        <ele>676</ele>
        <time>2014-06-22T09:15:45.1Z</time>
      </trkpt>
      <trkpt lat="44.46276" lon="6.25655">
        <ele>675</ele>
        <time>2014-06-22T09:15:50.1Z</time>
      </trkpt>
      <trkpt lat="44.46281" lon="6.25664">
        <ele>675</ele>
        <time>2014-06-22T09:15:56.1Z</time>
      </trkpt>
      <trkpt lat="44.46288" lon="6.25673">
        <ele>675</ele>
        <time>2014-06-22T09:16:01.1Z</time>
      </trkpt>
      <trkpt lat="44.46293" lon="6.25682">
        <ele>674</ele>
        <time>2014-06-22T09:16:07.1Z</time>
      </trkpt>
      <trkpt lat="44.463" lon="6.25692">
        <ele>674</ele>
        <time>2014-06-22T09:16:12.1Z</time>
      </trkpt>
      <trkpt lat="44.46305" lon="6.25702">
        <ele>674</ele>
        <time>2014-06-22T09:16:17.1Z</time>
      </trkpt>
      <trkpt lat="44.46311" lon="6.25711">
        <ele>674</ele>
        <time>2014-06-22T09:16:24.1Z</time>
      </trkpt>
      <trkpt lat="44.46313" lon="6.2572">
        <ele>673</ele>
        <time>2014-06-22T09:16:30.1Z</time>
      </trkpt>
      <trkpt lat="44.46319" lon="6.25729">
        <ele>673</ele>
        <time>2014-06-22T09:16:35.1Z</time>
      </trkpt>
      <trkpt lat="44.46325" lon="6.25736">
        <ele>673</ele>
        <time>2014-06-22T09:16:40.1Z</time>
      </trkpt>
      <trkpt lat="44.4633" lon="6.25746">
        <ele>673</ele>
        <time>2014-06-22T09:16:46.1Z</time>
      </trkpt>
      <trkpt lat="44.46332" lon="6.25754">
        <ele>673</ele>
        <time>2014-06-22T09:16:52.1Z</time>
      </trkpt>
      <trkpt lat="44.46336" lon="6.25762">
        <ele>673</ele>
        <time>2014-06-22T09:16:57.1Z</time>
      </trkpt>
      <trkpt lat="44.46339" lon="6.25772">
        <ele>673</ele>
        <time>2014-06-22T09:17:02.1Z</time>
      </trkpt>
      <trkpt lat="44.46343" lon="6.25783">
        <ele>673</ele>
        <time>2014-06-22T09:17:07.1Z</time>
      </trkpt>
      <trkpt lat="44.46346" lon="6.25793">
        <ele>673</ele>
        <time>2014-06-22T09:17:13.1Z</time>
      </trkpt>
      <trkpt lat="44.46348" lon="6.25804">
        <ele>673</ele>
        <time>2014-06-22T09:17:18.1Z</time>
      </trkpt>
      <trkpt lat="44.4635" lon="6.25812">
        <ele>674</ele>
        <time>2014-06-22T09:17:23.1Z</time>
      </trkpt>
      <trkpt lat="44.4635" lon="6.25817">
        <ele>674</ele>
        <time>2014-06-22T09:17:29.1Z</time>
      </trkpt>
      <trkpt lat="44.46351" lon="6.25824">
        <ele>674</ele>
        <time>2014-06-22T09:17:34.1Z</time>
      </trkpt>
      <trkpt lat="44.46352" lon="6.25831">
        <ele>675</ele>
        <time>2014-06-22T09:17:39.1Z</time>
      </trkpt>
      <trkpt lat="44.46354" lon="6.25839">
        <ele>676</ele>
        <time>2014-06-22T09:17:44.1Z</time>
      </trkpt>
      <trkpt lat="44.46356" lon="6.25845">
        <ele>677</ele>
        <time>2014-06-22T09:17:49.1Z</time>
      </trkpt>
      <trkpt lat="44.46358" lon="6.25853">
        <ele>678</ele>
        <time>2014-06-22T09:17:54.1Z</time>
      </trkpt>
      <trkpt lat="44.4636" lon="6.25861">
        <ele>678</ele>
        <time>2014-06-22T09:18:00.1Z</time>
      </trkpt>
      <trkpt lat="44.46362" lon="6.2587">
        <ele>678</ele>
        <time>2014-06-22T09:18:05.1Z</time>
      </trkpt>
      <trkpt lat="44.46365" lon="6.25878">
        <ele>678</ele>
        <time>2014-06-22T09:18:10.1Z</time>
      </trkpt>
      <trkpt lat="44.46366" lon="6.25889">
        <ele>678</ele>
        <time>2014-06-22T09:18:16.1Z</time>
      </trkpt>
      <trkpt lat="44.4637" lon="6.25898">
        <ele>678</ele>
        <time>2014-06-22T09:18:22.1Z</time>
      </trkpt>
      <trkpt lat="44.46371" lon="6.25908">
        <ele>678</ele>
        <time>2014-06-22T09:18:27.1Z</time>
      </trkpt>
      <trkpt lat="44.46369" lon="6.25917">
        <ele>678</ele>
        <time>2014-06-22T09:18:34.1Z</time>
      </trkpt>
      <trkpt lat="44.46365" lon="6.25925">
        <ele>678</ele>
        <time>2014-06-22T09:18:39.1Z</time>
      </trkpt>
      <trkpt lat="44.46366" lon="6.25933">
        <ele>679</ele>
        <time>2014-06-22T09:18:44.1Z</time>
      </trkpt>
      <trkpt lat="44.46367" lon="6.2594">
        <ele>679</ele>
        <time>2014-06-22T09:18:49.1Z</time>
      </trkpt>
      <trkpt lat="44.46368" lon="6.25948">
        <ele>679</ele>
        <time>2014-06-22T09:18:55.1Z</time>
      </trkpt>
      <trkpt lat="44.46368" lon="6.25955">
        <ele>679</ele>
        <time>2014-06-22T09:19:00.1Z</time>
      </trkpt>
      <trkpt lat="44.46367" lon="6.25965">
        <ele>679</ele>
        <time>2014-06-22T09:19:05.1Z</time>
      </trkpt>
      <trkpt lat="44.46367" lon="6.25976">
        <ele>679</ele>
        <time>2014-06-22T09:19:11.1Z</time>
      </trkpt>
      <trkpt lat="44.46368" lon="6.25986">
        <ele>679</ele>
        <time>2014-06-22T09:19:17.1Z</time>
      </trkpt>
      <trkpt lat="44.46369" lon="6.25997">
        <ele>679</ele>
        <time>2014-06-22T09:19:22.1Z</time>
      </trkpt>
      <trkpt lat="44.46371" lon="6.26007">
        <ele>679</ele>
        <time>2014-06-22T09:19:28.1Z</time>
      </trkpt>
      <trkpt lat="44.46374" lon="6.26014">
        <ele>680</ele>
        <time>2014-06-22T09:19:34.1Z</time>
      </trkpt>
      <trkpt lat="44.46377" lon="6.2602">
        <ele>680</ele>
        <time>2014-06-22T09:19:39.1Z</time>
      </trkpt>
      <trkpt lat="44.46379" lon="6.26022">
        <ele>680</ele>
        <time>2014-06-22T09:19:44.1Z</time>
      </trkpt>
      <trkpt lat="44.46381" lon="6.26024">
        <ele>680</ele>
        <time>2014-06-22T09:19:49.1Z</time>
      </trkpt>
      <trkpt lat="44.46383" lon="6.26025">
        <ele>681</ele>
        <time>2014-06-22T09:19:54.1Z</time>
      </trkpt>
      <trkpt lat="44.46385" lon="6.26026">
        <ele>682</ele>
        <time>2014-06-22T09:20:00.1Z</time>
      </trkpt>
      <trkpt lat="44.46389" lon="6.26027">
        <ele>683</ele>
        <time>2014-06-22T09:20:05.1Z</time>
      </trkpt>
      <trkpt lat="44.46394" lon="6.2603">
        <ele>683</ele>
        <time>2014-06-22T09:20:10.1Z</time>
      </trkpt>
      <trkpt lat="44.46399" lon="6.26035">
        <ele>684</ele>
        <time>2014-06-22T09:20:15.1Z</time>
      </trkpt>
      <trkpt lat="44.46402" lon="6.26042">
        <ele>685</ele>
        <time>2014-06-22T09:20:20.1Z</time>
      </trkpt>
      <trkpt lat="44.46404" lon="6.2605">
        <ele>686</ele>
        <time>2014-06-22T09:20:26.1Z</time>
      </trkpt>
      <trkpt lat="44.46405" lon="6.26055">
        <ele>687</ele>
        <time>2014-06-22T09:20:31.1Z</time>
      </trkpt>
      <trkpt lat="44.46405" lon="6.26062">
        <ele>688</ele>
        <time>2014-06-22T09:20:37.1Z</time>
      </trkpt>
      <trkpt lat="44.46405" lon="6.26067">
        <ele>688</ele>
        <time>2014-06-22T09:20:43.1Z</time>
      </trkpt>
      <trkpt lat="44.46407" lon="6.26074">
        <ele>689</ele>
        <time>2014-06-22T09:20:48.1Z</time>
      </trkpt>
      <trkpt lat="44.46412" lon="6.26081">
        <ele>690</ele>
        <time>2014-06-22T09:20:54.1Z</time>
      </trkpt>
      <trkpt lat="44.46414" lon="6.26087">
        <ele>691</ele>
        <time>2014-06-22T09:20:59.1Z</time>
      </trkpt>
      <trkpt lat="44.46414" lon="6.26093">
        <ele>691</ele>
        <time>2014-06-22T09:21:04.1Z</time>
      </trkpt>
      <trkpt lat="44.46415" lon="6.261">
        <ele>692</ele>
        <time>2014-06-22T09:21:11.1Z</time>
      </trkpt>
      <trkpt lat="44.46417" lon="6.26107">
        <ele>694</ele>
        <time>2014-06-22T09:21:17.1Z</time>
      </trkpt>
      <trkpt lat="44.46418" lon="6.26112">
        <ele>695</ele>
        <time>2014-06-22T09:21:22.1Z</time>
      </trkpt>
      <trkpt lat="44.46419" lon="6.26118">
        <ele>695</ele>
        <time>2014-06-22T09:21:27.1Z</time>
      </trkpt>
      <trkpt lat="44.4642" lon="6.26124">
        <ele>696</ele>
        <time>2014-06-22T09:21:32.1Z</time>
      </trkpt>
      <trkpt lat="44.4642" lon="6.26131">
        <ele>697</ele>
        <time>2014-06-22T09:21:39.1Z</time>
      </trkpt>
      <trkpt lat="44.46421" lon="6.26137">
        <ele>698</ele>
        <time>2014-06-22T09:21:44.1Z</time>
      </trkpt>
      <trkpt lat="44.46421" lon="6.26143">
        <ele>698</ele>
        <time>2014-06-22T09:21:49.1Z</time>
      </trkpt>
      <trkpt lat="44.4642" lon="6.2615">
        <ele>698</ele>
        <time>2014-06-22T09:21:55.1Z</time>
      </trkpt>
      <trkpt lat="44.46419" lon="6.26158">
        <ele>699</ele>
        <time>2014-06-22T09:22:00.1Z</time>
      </trkpt>
      <trkpt lat="44.4642" lon="6.26163">
        <ele>700</ele>
        <time>2014-06-22T09:22:05.1Z</time>
      </trkpt>
      <trkpt lat="44.46418" lon="6.2617">
        <ele>701</ele>
        <time>2014-06-22T09:22:11.1Z</time>
      </trkpt>
      <trkpt lat="44.46415" lon="6.26177">
        <ele>701</ele>
        <time>2014-06-22T09:22:16.1Z</time>
      </trkpt>
      <trkpt lat="44.46414" lon="6.26182">
        <ele>702</ele>
        <time>2014-06-22T09:22:22.1Z</time>
      </trkpt>
      <trkpt lat="44.46411" lon="6.26186">
        <ele>703</ele>
        <time>2014-06-22T09:22:27.1Z</time>
      </trkpt>
      <trkpt lat="44.46409" lon="6.2619">
        <ele>703</ele>
        <time>2014-06-22T09:22:33.1Z</time>
      </trkpt>
      <trkpt lat="44.46409" lon="6.26197">
        <ele>704</ele>
        <time>2014-06-22T09:22:38.1Z</time>
      </trkpt>
      <trkpt lat="44.4641" lon="6.26204">
        <ele>704</ele>
        <time>2014-06-22T09:22:43.1Z</time>
      </trkpt>
      <trkpt lat="44.4641" lon="6.26209">
        <ele>705</ele>
        <time>2014-06-22T09:22:48.1Z</time>
      </trkpt>
      <trkpt lat="44.46409" lon="6.26214">
        <ele>706</ele>
        <time>2014-06-22T09:22:53.1Z</time>
      </trkpt>
      <trkpt lat="44.46407" lon="6.26217">
        <ele>707</ele>
        <time>2014-06-22T09:22:59.1Z</time>
      </trkpt>
      <trkpt lat="44.46408" lon="6.26223">
        <ele>708</ele>
        <time>2014-06-22T09:23:04.1Z</time>
      </trkpt>
      <trkpt lat="44.4641" lon="6.26228">
        <ele>708</ele>
        <time>2014-06-22T09:23:09.1Z</time>
      </trkpt>
      <trkpt lat="44.4641" lon="6.26233">
        <ele>709</ele>
        <time>2014-06-22T09:23:14.1Z</time>
      </trkpt>
      <trkpt lat="44.46412" lon="6.26239">
        <ele>710</ele>
        <time>2014-06-22T09:23:20.1Z</time>
      </trkpt>
      <trkpt lat="44.46413" lon="6.26245">
        <ele>711</ele>
        <time>2014-06-22T09:23:25.1Z</time>
      </trkpt>
      <trkpt lat="44.46412" lon="6.26253">
        <ele>711</ele>
        <time>2014-06-22T09:23:31.1Z</time>
      </trkpt>
      <trkpt lat="44.46409" lon="6.26259">
        <ele>712</ele>
        <time>2014-06-22T09:23:36.1Z</time>
      </trkpt>
      <trkpt lat="44.46405" lon="6.26264">
        <ele>713</ele>
        <time>2014-06-22T09:23:42.1Z</time>
      </trkpt>
      <trkpt lat="44.464" lon="6.26269">
        <ele>714</ele>
        <time>2014-06-22T09:23:48.1Z</time>
      </trkpt>
      <trkpt lat="44.46397" lon="6.26274">
        <ele>714</ele>
        <time>2014-06-22T09:23:54.1Z</time>
      </trkpt>
      <trkpt lat="44.46393" lon="6.26278">
        <ele>715</ele>
        <time>2014-06-22T09:23:59.1Z</time>
      </trkpt>
      <trkpt lat="44.46389" lon="6.26281">
        <ele>715</ele>
        <time>2014-06-22T09:24:04.1Z</time>
      </trkpt>
      <trkpt lat="44.46384" lon="6.26284">
        <ele>716</ele>
        <time>2014-06-22T09:24:09.1Z</time>
      </trkpt>
      <trkpt lat="44.46381" lon="6.26285">
        <ele>717</ele>
        <time>2014-06-22T09:24:16.1Z</time>
      </trkpt>
      <trkpt lat="44.4638" lon="6.26282">
        <ele>718</ele>
        <time>2014-06-22T09:24:21.1Z</time>
      </trkpt>
      <trkpt lat="44.46378" lon="6.26279">
        <ele>719</ele>
        <time>2014-06-22T09:24:26.1Z</time>
      </trkpt>
      <trkpt lat="44.46375" lon="6.26272">
        <ele>719</ele>
        <time>2014-06-22T09:24:32.1Z</time>
      </trkpt>
      <trkpt lat="44.46373" lon="6.26267">
        <ele>720</ele>
        <time>2014-06-22T09:24:38.1Z</time>
      </trkpt>
      <trkpt lat="44.46373" lon="6.26262">
        <ele>720</ele>
        <time>2014-06-22T09:24:44.1Z</time>
      </trkpt>
      <trkpt lat="44.46372" lon="6.26256">
        <ele>721</ele>
        <time>2014-06-22T09:24:49.1Z</time>
      </trkpt>
      <trkpt lat="44.46369" lon="6.26251">
        <ele>722</ele>
        <time>2014-06-22T09:24:54.1Z</time>
      </trkpt>
      <trkpt lat="44.46366" lon="6.26244">
        <ele>723</ele>
        <time>2014-06-22T09:25:00.1Z</time>
      </trkpt>
      <trkpt lat="44.46363" lon="6.26239">
        <ele>724</ele>
        <time>2014-06-22T09:25:05.1Z</time>
      </trkpt>
      <trkpt lat="44.46359" lon="6.26235">
        <ele>724</ele>
        <time>2014-06-22T09:25:11.1Z</time>
      </trkpt>
      <trkpt lat="44.46354" lon="6.26229">
        <ele>725</ele>
        <time>2014-06-22T09:25:16.1Z</time>
      </trkpt>
      <trkpt lat="44.4635" lon="6.26225">
        <ele>725</ele>
        <time>2014-06-22T09:25:21.1Z</time>
      </trkpt>
      <trkpt lat="44.46346" lon="6.26221">
        <ele>726</ele>
        <time>2014-06-22T09:25:26.1Z</time>
      </trkpt>
      <trkpt lat="44.46343" lon="6.26215">
        <ele>727</ele>
        <time>2014-06-22T09:25:32.1Z</time>
      </trkpt>
      <trkpt lat="44.46341" lon="6.26209">
        <ele>727</ele>
        <time>2014-06-22T09:25:37.1Z</time>
      </trkpt>
      <trkpt lat="44.46338" lon="6.26202">
        <ele>727</ele>
        <time>2014-06-22T09:25:43.1Z</time>
      </trkpt>
      <trkpt lat="44.46338" lon="6.26194">
        <ele>728</ele>
        <time>2014-06-22T09:25:48.1Z</time>
      </trkpt>
      <trkpt lat="44.46338" lon="6.26186">
        <ele>728</ele>
        <time>2014-06-22T09:25:54.1Z</time>
      </trkpt>
      <trkpt lat="44.46336" lon="6.2618">
        <ele>729</ele>
        <time>2014-06-22T09:26:00.1Z</time>
      </trkpt>
      <trkpt lat="44.46335" lon="6.26175">
        <ele>730</ele>
        <time>2014-06-22T09:26:05.1Z</time>
      </trkpt>
      <trkpt lat="44.46334" lon="6.26171">
        <ele>730</ele>
        <time>2014-06-22T09:26:10.1Z</time>
      </trkpt>
      <trkpt lat="44.4633" lon="6.26167">
        <ele>731</ele>
        <time>2014-06-22T09:26:15.1Z</time>
      </trkpt>
      <trkpt lat="44.46327" lon="6.26165">
        <ele>731</ele>
        <time>2014-06-22T09:26:20.1Z</time>
      </trkpt>
      <trkpt lat="44.46322" lon="6.26164">
        <ele>733</ele>
        <time>2014-06-22T09:26:26.1Z</time>
      </trkpt>
      <trkpt lat="44.46319" lon="6.26165">
        <ele>733</ele>
        <time>2014-06-22T09:26:31.1Z</time>
      </trkpt>
      <trkpt lat="44.46318" lon="6.26168">
        <ele>733</ele>
        <time>2014-06-22T09:26:37.1Z</time>
      </trkpt>
      <trkpt lat="44.46316" lon="6.26172">
        <ele>734</ele>
        <time>2014-06-22T09:26:42.1Z</time>
      </trkpt>
      <trkpt lat="44.46315" lon="6.26175">
        <ele>735</ele>
        <time>2014-06-22T09:26:47.1Z</time>
      </trkpt>
      <trkpt lat="44.46313" lon="6.26179">
        <ele>736</ele>
        <time>2014-06-22T09:26:53.1Z</time>
      </trkpt>
      <trkpt lat="44.46311" lon="6.26184">
        <ele>737</ele>
        <time>2014-06-22T09:26:59.1Z</time>
      </trkpt>
      <trkpt lat="44.46309" lon="6.26189">
        <ele>738</ele>
        <time>2014-06-22T09:27:05.1Z</time>
      </trkpt>
      <trkpt lat="44.46308" lon="6.26191">
        <ele>738</ele>
        <time>2014-06-22T09:27:10.1Z</time>
      </trkpt>
      <trkpt lat="44.46307" lon="6.26196">
        <ele>738</ele>
        <time>2014-06-22T09:27:16.1Z</time>
      </trkpt>
      <trkpt lat="44.46305" lon="6.26203">
        <ele>739</ele>
        <time>2014-06-22T09:27:21.1Z</time>
      </trkpt>
      <trkpt lat="44.46305" lon="6.26208">
        <ele>740</ele>
        <time>2014-06-22T09:27:26.1Z</time>
      </trkpt>
      <trkpt lat="44.46305" lon="6.26214">
        <ele>741</ele>
        <time>2014-06-22T09:27:31.1Z</time>
      </trkpt>
      <trkpt lat="44.46304" lon="6.2622">
        <ele>742</ele>
        <time>2014-06-22T09:27:37.1Z</time>
      </trkpt>
      <trkpt lat="44.46305" lon="6.26227">
        <ele>742</ele>
        <time>2014-06-22T09:27:43.1Z</time>
      </trkpt>
      <trkpt lat="44.46306" lon="6.26231">
        <ele>743</ele>
        <time>2014-06-22T09:27:48.1Z</time>
      </trkpt>
      <trkpt lat="44.46307" lon="6.26238">
        <ele>744</ele>
        <time>2014-06-22T09:27:54.1Z</time>
      </trkpt>
      <trkpt lat="44.46306" lon="6.26243">
        <ele>745</ele>
        <time>2014-06-22T09:28:00.1Z</time>
      </trkpt>
      <trkpt lat="44.46308" lon="6.26248">
        <ele>745</ele>
        <time>2014-06-22T09:28:05.1Z</time>
      </trkpt>
      <trkpt lat="44.4631" lon="6.26255">
        <ele>746</ele>
        <time>2014-06-22T09:28:11.1Z</time>
      </trkpt>
      <trkpt lat="44.46312" lon="6.26261">
        <ele>746</ele>
        <time>2014-06-22T09:28:16.1Z</time>
      </trkpt>
      <trkpt lat="44.46313" lon="6.26267">
        <ele>747</ele>
        <time>2014-06-22T09:28:21.1Z</time>
      </trkpt>
      <trkpt lat="44.46313" lon="6.26274">
        <ele>748</ele>
        <time>2014-06-22T09:28:28.1Z</time>
      </trkpt>
      <trkpt lat="44.46315" lon="6.26282">
        <ele>749</ele>
        <time>2014-06-22T09:28:33.1Z</time>
      </trkpt>
      <trkpt lat="44.46315" lon="6.26288">
        <ele>749</ele>
        <time>2014-06-22T09:28:38.1Z</time>
      </trkpt>
      <trkpt lat="44.46315" lon="6.26293">
        <ele>750</ele>
        <time>2014-06-22T09:28:43.1Z</time>
      </trkpt>
      <trkpt lat="44.46316" lon="6.263">
        <ele>751</ele>
        <time>2014-06-22T09:28:49.1Z</time>
      </trkpt>
      <trkpt lat="44.46315" lon="6.26306">
        <ele>752</ele>
        <time>2014-06-22T09:28:54.1Z</time>
      </trkpt>
      <trkpt lat="44.46314" lon="6.26314">
        <ele>753</ele>
        <time>2014-06-22T09:29:00.1Z</time>
      </trkpt>
      <trkpt lat="44.46313" lon="6.26321">
        <ele>753</ele>
        <time>2014-06-22T09:29:06.1Z</time>
      </trkpt>
      <trkpt lat="44.46312" lon="6.26327">
        <ele>754</ele>
        <time>2014-06-22T09:29:11.1Z</time>
      </trkpt>
      <trkpt lat="44.46312" lon="6.26333">
        <ele>754</ele>
        <time>2014-06-22T09:29:17.1Z</time>
      </trkpt>
      <trkpt lat="44.46311" lon="6.26341">
        <ele>754</ele>
        <time>2014-06-22T09:29:22.1Z</time>
      </trkpt>
      <trkpt lat="44.4631" lon="6.26347">
        <ele>755</ele>
        <time>2014-06-22T09:29:27.1Z</time>
      </trkpt>
      <trkpt lat="44.4631" lon="6.26353">
        <ele>756</ele>
        <time>2014-06-22T09:29:33.1Z</time>
      </trkpt>
      <trkpt lat="44.46314" lon="6.26362">
        <ele>757</ele>
        <time>2014-06-22T09:29:39.1Z</time>
      </trkpt>
      <trkpt lat="44.46317" lon="6.26369">
        <ele>757</ele>
        <time>2014-06-22T09:29:45.1Z</time>
      </trkpt>
      <trkpt lat="44.46321" lon="6.26377">
        <ele>758</ele>
        <time>2014-06-22T09:29:51.1Z</time>
      </trkpt>
      <trkpt lat="44.46321" lon="6.26384">
        <ele>758</ele>
        <time>2014-06-22T09:29:56.1Z</time>
      </trkpt>
      <trkpt lat="44.46323" lon="6.2639">
        <ele>759</ele>
        <time>2014-06-22T09:30:01.1Z</time>
      </trkpt>
      <trkpt lat="44.46322" lon="6.26398">
        <ele>759</ele>
        <time>2014-06-22T09:30:06.1Z</time>
      </trkpt>
      <trkpt lat="44.4632" lon="6.26405">
        <ele>759</ele>
        <time>2014-06-22T09:30:11.1Z</time>
      </trkpt>
      <trkpt lat="44.46318" lon="6.26413">
        <ele>760</ele>
        <time>2014-06-22T09:30:17.1Z</time>
      </trkpt>
      <trkpt lat="44.46316" lon="6.26421">
        <ele>761</ele>
        <time>2014-06-22T09:30:22.1Z</time>
      </trkpt>
      <trkpt lat="44.46312" lon="6.26426">
        <ele>761</ele>
        <time>2014-06-22T09:30:27.1Z</time>
      </trkpt>
      <trkpt lat="44.46306" lon="6.26432">
        <ele>762</ele>
        <time>2014-06-22T09:30:33.1Z</time>
      </trkpt>
      <trkpt lat="44.46302" lon="6.2644">
        <ele>762</ele>
        <time>2014-06-22T09:30:39.1Z</time>
      </trkpt>
      <trkpt lat="44.46302" lon="6.26448">
        <ele>762</ele>
        <time>2014-06-22T09:30:45.1Z</time>
      </trkpt>
      <trkpt lat="44.46303" lon="6.26455">
        <ele>763</ele>
        <time>2014-06-22T09:30:50.1Z</time>
      </trkpt>
      <trkpt lat="44.46306" lon="6.26461">
        <ele>764</ele>
        <time>2014-06-22T09:30:56.1Z</time>
      </trkpt>
      <trkpt lat="44.4631" lon="6.26464">
        <ele>763</ele>
        <time>2014-06-22T09:31:02.1Z</time>
      </trkpt>
      <trkpt lat="44.46313" lon="6.26468">
        <ele>764</ele>
        <time>2014-06-22T09:31:08.1Z</time>
      </trkpt>
      <trkpt lat="44.46317" lon="6.26474">
        <ele>764</ele>
        <time>2014-06-22T09:31:13.1Z</time>
      </trkpt>
      <trkpt lat="44.46319" lon="6.26482">
        <ele>765</ele>
        <time>2014-06-22T09:31:18.1Z</time>
      </trkpt>
      <trkpt lat="44.46322" lon="6.26491">
        <ele>765</ele>
        <time>2014-06-22T09:31:25.1Z</time>
      </trkpt>
      <trkpt lat="44.46321" lon="6.26499">
        <ele>766</ele>
        <time>2014-06-22T09:31:30.1Z</time>
      </trkpt>
      <trkpt lat="44.46322" lon="6.26506">
        <ele>767</ele>
        <time>2014-06-22T09:31:35.1Z</time>
      </trkpt>
      <trkpt lat="44.46321" lon="6.26514">
        <ele>767</ele>
        <time>2014-06-22T09:31:41.1Z</time>
      </trkpt>
      <trkpt lat="44.4632" lon="6.26522">
        <ele>768</ele>
        <time>2014-06-22T09:31:47.1Z</time>
      </trkpt>
      <trkpt lat="44.46319" lon="6.2653">
        <ele>769</ele>
        <time>2014-06-22T09:31:52.1Z</time>
      </trkpt>
      <trkpt lat="44.4632" lon="6.26536">
        <ele>769</ele>
        <time>2014-06-22T09:31:57.1Z</time>
      </trkpt>
      <trkpt lat="44.46322" lon="6.26544">
        <ele>770</ele>
        <time>2014-06-22T09:32:03.1Z</time>
      </trkpt>
      <trkpt lat="44.46323" lon="6.2655">
        <ele>771</ele>
        <time>2014-06-22T09:32:08.1Z</time>
      </trkpt>
      <trkpt lat="44.46323" lon="6.26555">
        <ele>772</ele>
        <time>2014-06-22T09:32:14.1Z</time>
      </trkpt>
      <trkpt lat="44.46323" lon="6.26559">
        <ele>773</ele>
        <time>2014-06-22T09:32:19.1Z</time>
      </trkpt>
      <trkpt lat="44.46326" lon="6.26564">
        <ele>773</ele>
        <time>2014-06-22T09:32:24.1Z</time>
      </trkpt>
      <trkpt lat="44.46328" lon="6.2657">
        <ele>775</ele>
        <time>2014-06-22T09:32:30.1Z</time>
      </trkpt>
      <trkpt lat="44.46328" lon="6.26574">
        <ele>776</ele>
        <time>2014-06-22T09:32:36.1Z</time>
      </trkpt>
      <trkpt lat="44.4633" lon="6.26579">
        <ele>776</ele>
        <time>2014-06-22T09:32:41.1Z</time>
      </trkpt>
      <trkpt lat="44.46333" lon="6.26584">
        <ele>776</ele>
        <time>2014-06-22T09:32:46.1Z</time>
      </trkpt>
      <trkpt lat="44.46334" lon="6.2659">
        <ele>777</ele>
        <time>2014-06-22T09:32:52.1Z</time>
      </trkpt>
      <trkpt lat="44.46336" lon="6.26595">
        <ele>778</ele>
        <time>2014-06-22T09:32:58.1Z</time>
      </trkpt>
      <trkpt lat="44.46337" lon="6.26601">
        <ele>778</ele>
        <time>2014-06-22T09:33:03.1Z</time>
      </trkpt>
      <trkpt lat="44.46337" lon="6.26607">
        <ele>778</ele>
        <time>2014-06-22T09:33:08.1Z</time>
      </trkpt>
      <trkpt lat="44.46338" lon="6.26612">
        <ele>778</ele>
        <time>2014-06-22T09:33:13.1Z</time>
      </trkpt>
      <trkpt lat="44.46341" lon="6.2662">
        <ele>779</ele>
        <time>2014-06-22T09:33:19.1Z</time>
      </trkpt>
      <trkpt lat="44.46343" lon="6.26628">
        <ele>779</ele>
        <time>2014-06-22T09:33:25.1Z</time>
      </trkpt>
      <trkpt lat="44.46346" lon="6.26636">
        <ele>779</ele>
        <time>2014-06-22T09:33:31.1Z</time>
      </trkpt>
      <trkpt lat="44.4635" lon="6.26644">
        <ele>778</ele>
        <time>2014-06-22T09:33:36.1Z</time>
      </trkpt>
      <trkpt lat="44.46353" lon="6.26651">
        <ele>779</ele>
        <time>2014-06-22T09:33:41.1Z</time>
      </trkpt>
      <trkpt lat="44.46355" lon="6.26658">
        <ele>779</ele>
        <time>2014-06-22T09:33:46.1Z</time>
      </trkpt>
      <trkpt lat="44.46356" lon="6.26665">
        <ele>781</ele>
        <time>2014-06-22T09:33:52.1Z</time>
      </trkpt>
      <trkpt lat="44.46359" lon="6.26671">
        <ele>781</ele>
        <time>2014-06-22T09:33:58.1Z</time>
      </trkpt>
      <trkpt lat="44.4636" lon="6.26678">
        <ele>782</ele>
        <time>2014-06-22T09:34:03.1Z</time>
      </trkpt>
      <trkpt lat="44.4636" lon="6.26684">
        <ele>783</ele>
        <time>2014-06-22T09:34:08.1Z</time>
      </trkpt>
      <trkpt lat="44.46361" lon="6.26691">
        <ele>784</ele>
        <time>2014-06-22T09:34:14.1Z</time>
      </trkpt>
      <trkpt lat="44.46361" lon="6.26697">
        <ele>785</ele>
        <time>2014-06-22T09:34:19.1Z</time>
      </trkpt>
      <trkpt lat="44.46363" lon="6.26706">
        <ele>785</ele>
        <time>2014-06-22T09:34:25.1Z</time>
      </trkpt>
      <trkpt lat="44.46366" lon="6.26715">
        <ele>786</ele>
        <time>2014-06-22T09:34:31.1Z</time>
      </trkpt>
      <trkpt lat="44.46368" lon="6.26723">
        <ele>786</ele>
        <time>2014-06-22T09:34:37.1Z</time>
      </trkpt>
      <trkpt lat="44.46371" lon="6.26729">
        <ele>787</ele>
        <time>2014-06-22T09:34:42.1Z</time>
      </trkpt>
      <trkpt lat="44.46371" lon="6.26735">
        <ele>788</ele>
        <time>2014-06-22T09:34:48.1Z</time>
      </trkpt>
      <trkpt lat="44.46374" lon="6.2674">
        <ele>788</ele>
        <time>2014-06-22T09:34:54.1Z</time>
      </trkpt>
      <trkpt lat="44.46376" lon="6.26747">
        <ele>790</ele>
        <time>2014-06-22T09:34:59.1Z</time>
      </trkpt>
      <trkpt lat="44.46379" lon="6.26753">
        <ele>790</ele>
        <time>2014-06-22T09:35:04.1Z</time>
      </trkpt>
      <trkpt lat="44.46381" lon="6.26758">
        <ele>790</ele>
        <time>2014-06-22T09:35:09.1Z</time>
      </trkpt>
      <trkpt lat="44.46383" lon="6.26764">
        <ele>791</ele>
        <time>2014-06-22T09:35:15.1Z</time>
      </trkpt>
      <trkpt lat="44.46384" lon="6.26769">
        <ele>792</ele>
        <time>2014-06-22T09:35:21.1Z</time>
      </trkpt>
      <trkpt lat="44.46384" lon="6.26772">
        <ele>793</ele>
        <time>2014-06-22T09:35:27.1Z</time>
      </trkpt>
      <trkpt lat="44.46385" lon="6.26776">
        <ele>794</ele>
        <time>2014-06-22T09:35:32.1Z</time>
      </trkpt>
      <trkpt lat="44.46387" lon="6.26782">
        <ele>795</ele>
        <time>2014-06-22T09:35:38.1Z</time>
      </trkpt>
      <trkpt lat="44.4639" lon="6.26787">
        <ele>795</ele>
        <time>2014-06-22T09:35:43.1Z</time>
      </trkpt>
      <trkpt lat="44.46391" lon="6.26792">
        <ele>796</ele>
        <time>2014-06-22T09:35:48.1Z</time>
      </trkpt>
      <trkpt lat="44.46393" lon="6.268">
        <ele>797</ele>
        <time>2014-06-22T09:35:54.1Z</time>
      </trkpt>
      <trkpt lat="44.46395" lon="6.26809">
        <ele>798</ele>
        <time>2014-06-22T09:36:00.1Z</time>
      </trkpt>
      <trkpt lat="44.46397" lon="6.26816">
        <ele>799</ele>
        <time>2014-06-22T09:36:06.1Z</time>
      </trkpt>
      <trkpt lat="44.46399" lon="6.26824">
        <ele>799</ele>
        <time>2014-06-22T09:36:11.1Z</time>
      </trkpt>
      <trkpt lat="44.46401" lon="6.26831">
        <ele>800</ele>
        <time>2014-06-22T09:36:16.1Z</time>
      </trkpt>
      <trkpt lat="44.46402" lon="6.2684">
        <ele>801</ele>
        <time>2014-06-22T09:36:22.1Z</time>
      </trkpt>
      <trkpt lat="44.46403" lon="6.26848">
        <ele>801</ele>
        <time>2014-06-22T09:36:28.1Z</time>
      </trkpt>
      <trkpt lat="44.46403" lon="6.26855">
        <ele>802</ele>
        <time>2014-06-22T09:36:33.1Z</time>
      </trkpt>
      <trkpt lat="44.46403" lon="6.26863">
        <ele>802</ele>
        <time>2014-06-22T09:36:39.1Z</time>
      </trkpt>
      <trkpt lat="44.46402" lon="6.26871">
        <ele>803</ele>
        <time>2014-06-22T09:36:44.1Z</time>
      </trkpt>
      <trkpt lat="44.464" lon="6.26878">
        <ele>803</ele>
        <time>2014-06-22T09:36:49.1Z</time>
      </trkpt>
      <trkpt lat="44.46398" lon="6.26884">
        <ele>804</ele>
        <time>2014-06-22T09:36:54.1Z</time>
      </trkpt>
      <trkpt lat="44.46394" lon="6.26889">
        <ele>805</ele>
        <time>2014-06-22T09:36:59.1Z</time>
      </trkpt>
      <trkpt lat="44.46389" lon="6.26895">
        <ele>805</ele>
        <time>2014-06-22T09:37:05.1Z</time>
      </trkpt>
      <trkpt lat="44.46385" lon="6.26899">
        <ele>805</ele>
        <time>2014-06-22T09:37:10.1Z</time>
      </trkpt>
      <trkpt lat="44.46381" lon="6.26903">
        <ele>806</ele>
        <time>2014-06-22T09:37:15.1Z</time>
      </trkpt>
      <trkpt lat="44.46375" lon="6.26908">
        <ele>807</ele>
        <time>2014-06-22T09:37:21.1Z</time>
      </trkpt>
      <trkpt lat="44.4637" lon="6.26912">
        <ele>808</ele>
        <time>2014-06-22T09:37:27.1Z</time>
      </trkpt>
      <trkpt lat="44.46367" lon="6.26916">
        <ele>808</ele>
        <time>2014-06-22T09:37:32.1Z</time>
      </trkpt>
      <trkpt lat="44.46362" lon="6.26922">
        <ele>808</ele>
        <time>2014-06-22T09:37:38.1Z</time>
      </trkpt>
      <trkpt lat="44.46356" lon="6.26927">
        <ele>809</ele>
        <time>2014-06-22T09:37:44.1Z</time>
      </trkpt>
      <trkpt lat="44.46351" lon="6.2693">
        <ele>809</ele>
        <time>2014-06-22T09:37:49.1Z</time>
      </trkpt>
      <trkpt lat="44.46346" lon="6.26933">
        <ele>809</ele>
        <time>2014-06-22T09:37:54.1Z</time>
      </trkpt>
      <trkpt lat="44.46341" lon="6.26934">
        <ele>809</ele>
        <time>2014-06-22T09:37:59.1Z</time>
      </trkpt>
      <trkpt lat="44.46336" lon="6.26937">
        <ele>810</ele>
        <time>2014-06-22T09:38:05.1Z</time>
      </trkpt>
      <trkpt lat="44.4633" lon="6.26938">
        <ele>810</ele>
        <time>2014-06-22T09:38:10.1Z</time>
      </trkpt>
      <trkpt lat="44.46323" lon="6.26939">
        <ele>810</ele>
        <time>2014-06-22T09:38:16.1Z</time>
      </trkpt>
      <trkpt lat="44.46318" lon="6.26939">
        <ele>811</ele>
        <time>2014-06-22T09:38:21.1Z</time>
      </trkpt>
      <trkpt lat="44.46311" lon="6.26938">
        <ele>811</ele>
        <time>2014-06-22T09:38:27.1Z</time>
      </trkpt>
      <trkpt lat="44.46303" lon="6.26937">
        <ele>811</ele>
        <time>2014-06-22T09:38:33.1Z</time>
      </trkpt>
      <trkpt lat="44.46295" lon="6.26939">
        <ele>812</ele>
        <time>2014-06-22T09:38:39.1Z</time>
      </trkpt>
      <trkpt lat="44.46289" lon="6.2694">
        <ele>812</ele>
        <time>2014-06-22T09:38:44.1Z</time>
      </trkpt>
      <trkpt lat="44.46283" lon="6.26941">
        <ele>812</ele>
        <time>2014-06-22T09:38:50.1Z</time>
      </trkpt>
      <trkpt lat="44.46276" lon="6.26944">
        <ele>813</ele>
        <time>2014-06-22T09:38:56.1Z</time>
      </trkpt>
      <trkpt lat="44.4627" lon="6.26947">
        <ele>813</ele>
        <time>2014-06-22T09:39:02.1Z</time>
      </trkpt>
      <trkpt lat="44.46265" lon="6.26951">
        <ele>814</ele>
        <time>2014-06-22T09:39:07.1Z</time>
      </trkpt>
      <trkpt lat="44.4626" lon="6.26955">
        <ele>814</ele>
        <time>2014-06-22T09:39:12.1Z</time>
      </trkpt>
      <trkpt lat="44.46255" lon="6.26959">
        <ele>814</ele>
        <time>2014-06-22T09:39:17.1Z</time>
      </trkpt>
      <trkpt lat="44.4625" lon="6.26964">
        <ele>814</ele>
        <time>2014-06-22T09:39:22.1Z</time>
      </trkpt>
      <trkpt lat="44.46246" lon="6.2697">
        <ele>815</ele>
        <time>2014-06-22T09:39:27.1Z</time>
      </trkpt>
      <trkpt lat="44.46241" lon="6.26978">
        <ele>815</ele>
        <time>2014-06-22T09:39:33.1Z</time>
      </trkpt>
      <trkpt lat="44.46238" lon="6.26985">
        <ele>815</ele>
        <time>2014-06-22T09:39:38.1Z</time>
      </trkpt>
      <trkpt lat="44.46234" lon="6.26991">
        <ele>815</ele>
        <time>2014-06-22T09:39:43.1Z</time>
      </trkpt>
      <trkpt lat="44.4623" lon="6.26999">
        <ele>816</ele>
        <time>2014-06-22T09:39:49.1Z</time>
      </trkpt>
      <trkpt lat="44.46227" lon="6.27008">
        <ele>817</ele>
        <time>2014-06-22T09:39:55.1Z</time>
      </trkpt>
      <trkpt lat="44.46225" lon="6.27017">
        <ele>816</ele>
        <time>2014-06-22T09:40:01.1Z</time>
      </trkpt>
      <trkpt lat="44.46224" lon="6.27025">
        <ele>817</ele>
        <time>2014-06-22T09:40:06.1Z</time>
      </trkpt>
      <trkpt lat="44.46224" lon="6.27036">
        <ele>817</ele>
        <time>2014-06-22T09:40:12.1Z</time>
      </trkpt>
      <trkpt lat="44.46225" lon="6.27044">
        <ele>818</ele>
        <time>2014-06-22T09:40:17.1Z</time>
      </trkpt>
      <trkpt lat="44.46227" lon="6.27052">
        <ele>818</ele>
        <time>2014-06-22T09:40:22.1Z</time>
      </trkpt>
      <trkpt lat="44.46228" lon="6.2706">
        <ele>818</ele>
        <time>2014-06-22T09:40:27.1Z</time>
      </trkpt>
      <trkpt lat="44.46228" lon="6.27069">
        <ele>818</ele>
        <time>2014-06-22T09:40:33.1Z</time>
      </trkpt>
      <trkpt lat="44.46228" lon="6.27077">
        <ele>819</ele>
        <time>2014-06-22T09:40:38.1Z</time>
      </trkpt>
      <trkpt lat="44.46228" lon="6.27086">
        <ele>819</ele>
        <time>2014-06-22T09:40:44.1Z</time>
      </trkpt>
      <trkpt lat="44.46227" lon="6.27093">
        <ele>820</ele>
        <time>2014-06-22T09:40:49.1Z</time>
      </trkpt>
      <trkpt lat="44.46227" lon="6.27101">
        <ele>820</ele>
        <time>2014-06-22T09:40:54.1Z</time>
      </trkpt>
      <trkpt lat="44.46226" lon="6.27111">
        <ele>820</ele>
        <time>2014-06-22T09:41:00.1Z</time>
      </trkpt>
      <trkpt lat="44.46226" lon="6.27118">
        <ele>821</ele>
        <time>2014-06-22T09:41:05.1Z</time>
      </trkpt>
      <trkpt lat="44.46225" lon="6.27129">
        <ele>821</ele>
        <time>2014-06-22T09:41:11.1Z</time>
      </trkpt>
      <trkpt lat="44.46226" lon="6.27137">
        <ele>822</ele>
        <time>2014-06-22T09:41:16.1Z</time>
      </trkpt>
      <trkpt lat="44.46227" lon="6.27146">
        <ele>822</ele>
        <time>2014-06-22T09:41:22.1Z</time>
      </trkpt>
      <trkpt lat="44.46227" lon="6.27156">
        <ele>823</ele>
        <time>2014-06-22T09:41:28.1Z</time>
      </trkpt>
      <trkpt lat="44.46228" lon="6.27164">
        <ele>824</ele>
        <time>2014-06-22T09:41:33.1Z</time>
      </trkpt>
      <trkpt lat="44.46227" lon="6.27173">
        <ele>824</ele>
        <time>2014-06-22T09:41:39.1Z</time>
      </trkpt>
      <trkpt lat="44.4623" lon="6.27181">
        <ele>825</ele>
        <time>2014-06-22T09:41:44.1Z</time>
      </trkpt>
      <trkpt lat="44.46233" lon="6.2719">
        <ele>825</ele>
        <time>2014-06-22T09:41:50.1Z</time>
      </trkpt>
      <trkpt lat="44.46234" lon="6.27198">
        <ele>825</ele>
        <time>2014-06-22T09:41:55.1Z</time>
      </trkpt>
      <trkpt lat="44.46233" lon="6.27206">
        <ele>826</ele>
        <time>2014-06-22T09:42:00.1Z</time>
      </trkpt>
      <trkpt lat="44.46231" lon="6.27214">
        <ele>827</ele>
        <time>2014-06-22T09:42:05.1Z</time>
      </trkpt>
      <trkpt lat="44.46228" lon="6.27224">
        <ele>827</ele>
        <time>2014-06-22T09:42:11.1Z</time>
      </trkpt>
      <trkpt lat="44.46224" lon="6.27233">
        <ele>827</ele>
        <time>2014-06-22T09:42:17.1Z</time>
      </trkpt>
      <trkpt lat="44.46221" lon="6.2724">
        <ele>827</ele>
        <time>2014-06-22T09:42:22.1Z</time>
      </trkpt>
      <trkpt lat="44.46217" lon="6.27249">
        <ele>828</ele>
        <time>2014-06-22T09:42:28.1Z</time>
      </trkpt>
      <trkpt lat="44.46213" lon="6.27257">
        <ele>828</ele>
        <time>2014-06-22T09:42:34.1Z</time>
      </trkpt>
      <trkpt lat="44.46209" lon="6.27265">
        <ele>828</ele>
        <time>2014-06-22T09:42:40.1Z</time>
      </trkpt>
      <trkpt lat="44.46205" lon="6.27272">
        <ele>828</ele>
        <time>2014-06-22T09:42:45.1Z</time>
      </trkpt>
      <trkpt lat="44.46201" lon="6.27278">
        <ele>828</ele>
        <time>2014-06-22T09:42:50.1Z</time>
      </trkpt>
      <trkpt lat="44.46197" lon="6.27287">
        <ele>828</ele>
        <time>2014-06-22T09:42:56.1Z</time>
      </trkpt>
      <trkpt lat="44.46193" lon="6.27294">
        <ele>829</ele>
        <time>2014-06-22T09:43:01.1Z</time>
      </trkpt>
      <trkpt lat="44.46189" lon="6.27304">
        <ele>829</ele>
        <time>2014-06-22T09:43:07.1Z</time>
      </trkpt>
      <trkpt lat="44.46185" lon="6.27311">
        <ele>829</ele>
        <time>2014-06-22T09:43:12.1Z</time>
      </trkpt>
      <trkpt lat="44.46182" lon="6.27319">
        <ele>830</ele>
        <time>2014-06-22T09:43:17.1Z</time>
      </trkpt>
      <trkpt lat="44.46179" lon="6.27329">
        <ele>830</ele>
        <time>2014-06-22T09:43:23.1Z</time>
      </trkpt>
      <trkpt lat="44.46174" lon="6.27336">
        <ele>830</ele>
        <time>2014-06-22T09:43:29.1Z</time>
      </trkpt>
      <trkpt lat="44.46169" lon="6.27342">
        <ele>830</ele>
        <time>2014-06-22T09:43:34.1Z</time>
      </trkpt>
      <trkpt lat="44.46168" lon="6.2735">
        <ele>830</ele>
        <time>2014-06-22T09:43:39.1Z</time>
      </trkpt>
      <trkpt lat="44.46167" lon="6.2736">
        <ele>831</ele>
        <time>2014-06-22T09:43:45.1Z</time>
      </trkpt>
      <trkpt lat="44.46167" lon="6.27368">
        <ele>831</ele>
        <time>2014-06-22T09:43:50.1Z</time>
      </trkpt>
      <trkpt lat="44.46164" lon="6.27373">
        <ele>831</ele>
        <time>2014-06-22T09:43:55.1Z</time>
      </trkpt>
      <trkpt lat="44.46162" lon="6.27373">
        <ele>831</ele>
        <time>2014-06-22T09:44:00.1Z</time>
      </trkpt>
      <trkpt lat="44.46161" lon="6.27375">
        <ele>831</ele>
        <time>2014-06-22T09:44:06.1Z</time>
      </trkpt>
      <trkpt lat="44.4616" lon="6.27376">
        <ele>831</ele>
        <time>2014-06-22T09:44:11.1Z</time>
      </trkpt>
      <trkpt lat="44.46159" lon="6.27377">
        <ele>832</ele>
        <time>2014-06-22T09:44:16.1Z</time>
      </trkpt>
      <trkpt lat="44.46159" lon="6.27378">
        <ele>832</ele>
        <time>2014-06-22T09:44:22.1Z</time>
      </trkpt>
      <trkpt lat="44.46158" lon="6.2738">
        <ele>831</ele>
        <time>2014-06-22T09:44:27.1Z</time>
      </trkpt>
      <trkpt lat="44.46158" lon="6.27381">
        <ele>831</ele>
        <time>2014-06-22T09:44:32.1Z</time>
      </trkpt>
      <trkpt lat="44.46157" lon="6.27382">
        <ele>832</ele>
        <time>2014-06-22T09:44:37.1Z</time>
      </trkpt>
      <trkpt lat="44.46157" lon="6.27383">
        <ele>831</ele>
        <time>2014-06-22T09:44:43.1Z</time>
      </trkpt>
      <trkpt lat="44.46158" lon="6.27385">
        <ele>831</ele>
        <time>2014-06-22T09:44:48.1Z</time>
      </trkpt>
      <trkpt lat="44.46157" lon="6.27383">
        <ele>832</ele>
        <time>2014-06-22T09:44:53.1Z</time>
      </trkpt>
      <trkpt lat="44.46155" lon="6.27378">
        <ele>832</ele>
        <time>2014-06-22T09:44:58.1Z</time>
      </trkpt>
      <trkpt lat="44.46154" lon="6.27369">
        <ele>833</ele>
        <time>2014-06-22T09:45:04.1Z</time>
      </trkpt>
      <trkpt lat="44.46154" lon="6.2736">
        <ele>834</ele>
        <time>2014-06-22T09:45:10.1Z</time>
      </trkpt>
      <trkpt lat="44.46152" lon="6.27351">
        <ele>834</ele>
        <time>2014-06-22T09:45:16.1Z</time>
      </trkpt>
      <trkpt lat="44.46153" lon="6.27341">
        <ele>835</ele>
        <time>2014-06-22T09:45:22.1Z</time>
      </trkpt>
      <trkpt lat="44.46153" lon="6.27332">
        <ele>836</ele>
        <time>2014-06-22T09:45:28.1Z</time>
      </trkpt>
      <trkpt lat="44.46153" lon="6.27324">
        <ele>837</ele>
        <time>2014-06-22T09:45:33.1Z</time>
      </trkpt>
      <trkpt lat="44.46154" lon="6.27317">
        <ele>838</ele>
        <time>2014-06-22T09:45:39.1Z</time>
      </trkpt>
      <trkpt lat="44.46153" lon="6.27309">
        <ele>838</ele>
        <time>2014-06-22T09:45:44.1Z</time>
      </trkpt>
      <trkpt lat="44.46153" lon="6.27303">
        <ele>839</ele>
        <time>2014-06-22T09:45:50.1Z</time>
      </trkpt>
      <trkpt lat="44.46151" lon="6.27298">
        <ele>840</ele>
        <time>2014-06-22T09:45:55.1Z</time>
      </trkpt>
      <trkpt lat="44.46148" lon="6.27296">
        <ele>840</ele>
        <time>2014-06-22T09:46:00.1Z</time>
      </trkpt>
      <trkpt lat="44.46144" lon="6.27298">
        <ele>841</ele>
        <time>2014-06-22T09:46:05.1Z</time>
      </trkpt>
      <trkpt lat="44.46141" lon="6.27299">
        <ele>842</ele>
        <time>2014-06-22T09:46:10.1Z</time>
      </trkpt>
      <trkpt lat="44.46137" lon="6.27302">
        <ele>842</ele>
        <time>2014-06-22T09:46:16.1Z</time>
      </trkpt>
      <trkpt lat="44.46134" lon="6.27305">
        <ele>843</ele>
        <time>2014-06-22T09:46:21.1Z</time>
      </trkpt>
      <trkpt lat="44.4613" lon="6.27307">
        <ele>844</ele>
        <time>2014-06-22T09:46:26.1Z</time>
      </trkpt>
      <trkpt lat="44.46125" lon="6.27309">
        <ele>844</ele>
        <time>2014-06-22T09:46:32.1Z</time>
      </trkpt>
      <trkpt lat="44.46121" lon="6.27311">
        <ele>845</ele>
        <time>2014-06-22T09:46:37.1Z</time>
      </trkpt>
      <trkpt lat="44.46115" lon="6.2731">
        <ele>846</ele>
        <time>2014-06-22T09:46:43.1Z</time>
      </trkpt>
      <trkpt lat="44.46111" lon="6.27311">
        <ele>846</ele>
        <time>2014-06-22T09:46:48.1Z</time>
      </trkpt>
      <trkpt lat="44.46106" lon="6.27312">
        <ele>847</ele>
        <time>2014-06-22T09:46:53.1Z</time>
      </trkpt>
      <trkpt lat="44.46101" lon="6.27312">
        <ele>848</ele>
        <time>2014-06-22T09:46:59.1Z</time>
      </trkpt>
      <trkpt lat="44.46096" lon="6.27312">
        <ele>848</ele>
        <time>2014-06-22T09:47:05.1Z</time>
      </trkpt>
      <trkpt lat="44.4609" lon="6.2731">
        <ele>849</ele>
        <time>2014-06-22T09:47:11.1Z</time>
      </trkpt>
      <trkpt lat="44.46087" lon="6.27308">
        <ele>850</ele>
        <time>2014-06-22T09:47:16.1Z</time>
      </trkpt>
      <trkpt lat="44.46087" lon="6.27304">
        <ele>850</ele>
        <time>2014-06-22T09:47:21.1Z</time>
      </trkpt>
      <trkpt lat="44.46088" lon="6.27303">
        <ele>850</ele>
        <time>2014-06-22T09:47:27.1Z</time>
      </trkpt>
      <trkpt lat="44.46087" lon="6.27299">
        <ele>851</ele>
        <time>2014-06-22T09:47:32.1Z</time>
      </trkpt>
      <trkpt lat="44.46085" lon="6.27296">
        <ele>852</ele>
        <time>2014-06-22T09:47:37.1Z</time>
      </trkpt>
      <trkpt lat="44.46086" lon="6.27292">
        <ele>853</ele>
        <time>2014-06-22T09:47:43.1Z</time>
      </trkpt>
      <trkpt lat="44.46085" lon="6.27288">
        <ele>855</ele>
        <time>2014-06-22T09:47:48.1Z</time>
      </trkpt>
      <trkpt lat="44.46087" lon="6.27283">
        <ele>855</ele>
        <time>2014-06-22T09:47:54.1Z</time>
      </trkpt>
      <trkpt lat="44.46087" lon="6.27281">
        <ele>856</ele>
        <time>2014-06-22T09:47:59.1Z</time>
      </trkpt>
      <trkpt lat="44.46089" lon="6.2728">
        <ele>858</ele>
        <time>2014-06-22T09:48:05.1Z</time>
      </trkpt>
      <trkpt lat="44.46092" lon="6.27277">
        <ele>858</ele>
        <time>2014-06-22T09:48:11.1Z</time>
      </trkpt>
      <trkpt lat="44.46095" lon="6.27274">
        <ele>859</ele>
        <time>2014-06-22T09:48:16.1Z</time>
      </trkpt>
      <trkpt lat="44.46096" lon="6.2727">
        <ele>859</ele>
        <time>2014-06-22T09:48:22.1Z</time>
      </trkpt>
      <trkpt lat="44.46097" lon="6.27266">
        <ele>860</ele>
        <time>2014-06-22T09:48:27.1Z</time>
      </trkpt>
      <trkpt lat="44.46098" lon="6.27263">
        <ele>860</ele>
        <time>2014-06-22T09:48:32.1Z</time>
      </trkpt>
      <trkpt lat="44.461" lon="6.27261">
        <ele>861</ele>
        <time>2014-06-22T09:48:37.1Z</time>
      </trkpt>
      <trkpt lat="44.46101" lon="6.27259">
        <ele>863</ele>
        <time>2014-06-22T09:48:42.1Z</time>
      </trkpt>
      <trkpt lat="44.46099" lon="6.27259">
        <ele>863</ele>
        <time>2014-06-22T09:48:48.1Z</time>
      </trkpt>
      <trkpt lat="44.46098" lon="6.27258">
        <ele>864</ele>
        <time>2014-06-22T09:48:54.1Z</time>
      </trkpt>
      <trkpt lat="44.46095" lon="6.27257">
        <ele>865</ele>
        <time>2014-06-22T09:48:59.1Z</time>
      </trkpt>
      <trkpt lat="44.46093" lon="6.27254">
        <ele>865</ele>
        <time>2014-06-22T09:49:04.1Z</time>
      </trkpt>
      <trkpt lat="44.46092" lon="6.27251">
        <ele>866</ele>
        <time>2014-06-22T09:49:10.1Z</time>
      </trkpt>
      <trkpt lat="44.46092" lon="6.27249">
        <ele>867</ele>
        <time>2014-06-22T09:49:15.1Z</time>
      </trkpt>
      <trkpt lat="44.46093" lon="6.27246">
        <ele>868</ele>
        <time>2014-06-22T09:49:20.1Z</time>
      </trkpt>
      <trkpt lat="44.46095" lon="6.2724">
        <ele>869</ele>
        <time>2014-06-22T09:49:26.1Z</time>
      </trkpt>
      <trkpt lat="44.46096" lon="6.27235">
        <ele>870</ele>
        <time>2014-06-22T09:49:31.1Z</time>
      </trkpt>
      <trkpt lat="44.46098" lon="6.27232">
        <ele>871</ele>
        <time>2014-06-22T09:49:37.1Z</time>
      </trkpt>
      <trkpt lat="44.46099" lon="6.2723">
        <ele>872</ele>
        <time>2014-06-22T09:49:42.1Z</time>
      </trkpt>
      <trkpt lat="44.46102" lon="6.27228">
        <ele>872</ele>
        <time>2014-06-22T09:49:48.1Z</time>
      </trkpt>
      <trkpt lat="44.46104" lon="6.27225">
        <ele>873</ele>
        <time>2014-06-22T09:49:53.1Z</time>
      </trkpt>
      <trkpt lat="44.46107" lon="6.27221">
        <ele>874</ele>
        <time>2014-06-22T09:49:59.1Z</time>
      </trkpt>
      <trkpt lat="44.46109" lon="6.27218">
        <ele>875</ele>
        <time>2014-06-22T09:50:04.1Z</time>
      </trkpt>
      <trkpt lat="44.46111" lon="6.27216">
        <ele>875</ele>
        <time>2014-06-22T09:50:10.1Z</time>
      </trkpt>
      <trkpt lat="44.46112" lon="6.27214">
        <ele>876</ele>
        <time>2014-06-22T09:50:15.1Z</time>
      </trkpt>
      <trkpt lat="44.46116" lon="6.27211">
        <ele>877</ele>
        <time>2014-06-22T09:50:21.1Z</time>
      </trkpt>
      <trkpt lat="44.46117" lon="6.27208">
        <ele>878</ele>
        <time>2014-06-22T09:50:26.1Z</time>
      </trkpt>
      <trkpt lat="44.46119" lon="6.27205">
        <ele>878</ele>
        <time>2014-06-22T09:50:32.1Z</time>
      </trkpt>
      <trkpt lat="44.4612" lon="6.27203">
        <ele>879</ele>
        <time>2014-06-22T09:50:37.1Z</time>
      </trkpt>
      <trkpt lat="44.46123" lon="6.27199">
        <ele>880</ele>
        <time>2014-06-22T09:50:43.1Z</time>
      </trkpt>
      <trkpt lat="44.46124" lon="6.27193">
        <ele>880</ele>
        <time>2014-06-22T09:50:49.1Z</time>
      </trkpt>
      <trkpt lat="44.46126" lon="6.2719">
        <ele>881</ele>
        <time>2014-06-22T09:50:55.1Z</time>
      </trkpt>
      <trkpt lat="44.46128" lon="6.27189">
        <ele>881</ele>
        <time>2014-06-22T09:51:00.1Z</time>
      </trkpt>
      <trkpt lat="44.46129" lon="6.27184">
        <ele>882</ele>
        <time>2014-06-22T09:51:06.1Z</time>
      </trkpt>
      <trkpt lat="44.46133" lon="6.27176">
        <ele>884</ele>
        <time>2014-06-22T09:51:12.1Z</time>
      </trkpt>
      <trkpt lat="44.46135" lon="6.27173">
        <ele>884</ele>
        <time>2014-06-22T09:51:17.1Z</time>
      </trkpt>
      <trkpt lat="44.46136" lon="6.27169">
        <ele>884</ele>
        <time>2014-06-22T09:51:22.1Z</time>
      </trkpt>
      <trkpt lat="44.46136" lon="6.27166">
        <ele>886</ele>
        <time>2014-06-22T09:51:28.1Z</time>
      </trkpt>
      <trkpt lat="44.46137" lon="6.27166">
        <ele>887</ele>
        <time>2014-06-22T09:51:34.1Z</time>
      </trkpt>
      <trkpt lat="44.46139" lon="6.27165">
        <ele>888</ele>
        <time>2014-06-22T09:51:39.1Z</time>
      </trkpt>
      <trkpt lat="44.46143" lon="6.27165">
        <ele>889</ele>
        <time>2014-06-22T09:51:44.1Z</time>
      </trkpt>
      <trkpt lat="44.46146" lon="6.27162">
        <ele>889</ele>
        <time>2014-06-22T09:51:50.1Z</time>
      </trkpt>
      <trkpt lat="44.46147" lon="6.27157">
        <ele>889</ele>
        <time>2014-06-22T09:51:56.1Z</time>
      </trkpt>
      <trkpt lat="44.46149" lon="6.27154">
        <ele>890</ele>
        <time>2014-06-22T09:52:01.1Z</time>
      </trkpt>
      <trkpt lat="44.46148" lon="6.27151">
        <ele>890</ele>
        <time>2014-06-22T09:52:06.1Z</time>
      </trkpt>
      <trkpt lat="44.46146" lon="6.27149">
        <ele>891</ele>
        <time>2014-06-22T09:52:11.1Z</time>
      </trkpt>
      <trkpt lat="44.46143" lon="6.27146">
        <ele>893</ele>
        <time>2014-06-22T09:52:17.1Z</time>
      </trkpt>
      <trkpt lat="44.46141" lon="6.27142">
        <ele>893</ele>
        <time>2014-06-22T09:52:23.1Z</time>
      </trkpt>
      <trkpt lat="44.46138" lon="6.27136">
        <ele>893</ele>
        <time>2014-06-22T09:52:29.1Z</time>
      </trkpt>
      <trkpt lat="44.46137" lon="6.27131">
        <ele>894</ele>
        <time>2014-06-22T09:52:34.1Z</time>
      </trkpt>
      <trkpt lat="44.46135" lon="6.27123">
        <ele>894</ele>
        <time>2014-06-22T09:52:40.1Z</time>
      </trkpt>
      <trkpt lat="44.46132" lon="6.27118">
        <ele>895</ele>
        <time>2014-06-22T09:52:45.1Z</time>
      </trkpt>
      <trkpt lat="44.46129" lon="6.27112">
        <ele>895</ele>
        <time>2014-06-22T09:52:51.1Z</time>
      </trkpt>
      <trkpt lat="44.46127" lon="6.27107">
        <ele>896</ele>
        <time>2014-06-22T09:52:56.1Z</time>
      </trkpt>
      <trkpt lat="44.46124" lon="6.27102">
        <ele>897</ele>
        <time>2014-06-22T09:53:01.1Z</time>
      </trkpt>
      <trkpt lat="44.4612" lon="6.27096">
        <ele>897</ele>
        <time>2014-06-22T09:53:07.1Z</time>
      </trkpt>
      <trkpt lat="44.4612" lon="6.27094">
        <ele>897</ele>
        <time>2014-06-22T09:53:13.1Z</time>
      </trkpt>
      <trkpt lat="44.46119" lon="6.27089">
        <ele>897</ele>
        <time>2014-06-22T09:53:18.1Z</time>
      </trkpt>
      <trkpt lat="44.46116" lon="6.27082">
        <ele>898</ele>
        <time>2014-06-22T09:53:24.1Z</time>
      </trkpt>
      <trkpt lat="44.46116" lon="6.27075">
        <ele>899</ele>
        <time>2014-06-22T09:53:29.1Z</time>
      </trkpt>
      <trkpt lat="44.46116" lon="6.27069">
        <ele>899</ele>
        <time>2014-06-22T09:53:34.1Z</time>
      </trkpt>
      <trkpt lat="44.46116" lon="6.2706">
        <ele>899</ele>
        <time>2014-06-22T09:53:40.1Z</time>
      </trkpt>
      <trkpt lat="44.46115" lon="6.27051">
        <ele>900</ele>
        <time>2014-06-22T09:53:46.1Z</time>
      </trkpt>
      <trkpt lat="44.46112" lon="6.27044">
        <ele>901</ele>
        <time>2014-06-22T09:53:52.1Z</time>
      </trkpt>
      <trkpt lat="44.46111" lon="6.27042">
        <ele>902</ele>
        <time>2014-06-22T09:53:57.1Z</time>
      </trkpt>
      <trkpt lat="44.46111" lon="6.27041">
        <ele>902</ele>
        <time>2014-06-22T09:54:03.1Z</time>
      </trkpt>
      <trkpt lat="44.4611" lon="6.27038">
        <ele>902</ele>
        <time>2014-06-22T09:54:09.1Z</time>
      </trkpt>
      <trkpt lat="44.4611" lon="6.27033">
        <ele>902</ele>
        <time>2014-06-22T09:54:14.1Z</time>
      </trkpt>
      <trkpt lat="44.4611" lon="6.27033">
        <ele>902</ele>
        <time>2014-06-22T09:54:21.1Z</time>
      </trkpt>
      <trkpt lat="44.46109" lon="6.27032">
        <ele>902</ele>
        <time>2014-06-22T09:54:27.1Z</time>
      </trkpt>
      <trkpt lat="44.46109" lon="6.27032">
        <ele>903</ele>
        <time>2014-06-22T09:54:33.1Z</time>
      </trkpt>
      <trkpt lat="44.46109" lon="6.27031">
        <ele>903</ele>
        <time>2014-06-22T09:54:38.1Z</time>
      </trkpt>
      <trkpt lat="44.46107" lon="6.27029">
        <ele>903</ele>
        <time>2014-06-22T09:54:44.1Z</time>
      </trkpt>
      <trkpt lat="44.46106" lon="6.27028">
        <ele>903</ele>
        <time>2014-06-22T09:54:50.1Z</time>
      </trkpt>
      <trkpt lat="44.46105" lon="6.27027">
        <ele>903</ele>
        <time>2014-06-22T09:54:56.1Z</time>
      </trkpt>
      <trkpt lat="44.46104" lon="6.27025">
        <ele>902</ele>
        <time>2014-06-22T09:55:01.1Z</time>
      </trkpt>
      <trkpt lat="44.46105" lon="6.27021">
        <ele>903</ele>
        <time>2014-06-22T09:55:07.1Z</time>
      </trkpt>
      <trkpt lat="44.46104" lon="6.27019">
        <ele>904</ele>
        <time>2014-06-22T09:55:13.1Z</time>
      </trkpt>
      <trkpt lat="44.46105" lon="6.27018">
        <ele>903</ele>
        <time>2014-06-22T09:55:19.1Z</time>
      </trkpt>
      <trkpt lat="44.46106" lon="6.27018">
        <ele>904</ele>
        <time>2014-06-22T09:55:25.1Z</time>
      </trkpt>
      <trkpt lat="44.46106" lon="6.27019">
        <ele>904</ele>
        <time>2014-06-22T09:55:30.1Z</time>
      </trkpt>
      <trkpt lat="44.46109" lon="6.27017">
        <ele>904</ele>
        <time>2014-06-22T09:55:36.1Z</time>
      </trkpt>
      <trkpt lat="44.46111" lon="6.27017">
        <ele>904</ele>
        <time>2014-06-22T09:55:41.1Z</time>
      </trkpt>
      <trkpt lat="44.46112" lon="6.27017">
        <ele>904</ele>
        <time>2014-06-22T09:55:47.1Z</time>
      </trkpt>
      <trkpt lat="44.46113" lon="6.27016">
        <ele>903</ele>
        <time>2014-06-22T09:55:53.1Z</time>
      </trkpt>
      <trkpt lat="44.46113" lon="6.27016">
        <ele>904</ele>
        <time>2014-06-22T09:56:00.1Z</time>
      </trkpt>
      <trkpt lat="44.46113" lon="6.27016">
        <ele>904</ele>
        <time>2014-06-22T09:56:05.1Z</time>
      </trkpt>
      <trkpt lat="44.46114" lon="6.27015">
        <ele>904</ele>
        <time>2014-06-22T09:56:11.1Z</time>
      </trkpt>
      <trkpt lat="44.46114" lon="6.27015">
        <ele>903</ele>
        <time>2014-06-22T09:56:17.1Z</time>
      </trkpt>
      <trkpt lat="44.46115" lon="6.27015">
        <ele>903</ele>
        <time>2014-06-22T09:56:22.1Z</time>
      </trkpt>
      <trkpt lat="44.46117" lon="6.27013">
        <ele>904</ele>
        <time>2014-06-22T09:56:28.1Z</time>
      </trkpt>
      <trkpt lat="44.46114" lon="6.27011">
        <ele>904</ele>
        <time>2014-06-22T09:56:33.1Z</time>
      </trkpt>
      <trkpt lat="44.46109" lon="6.27006">
        <ele>904</ele>
        <time>2014-06-22T09:56:38.1Z</time>
      </trkpt>
      <trkpt lat="44.46108" lon="6.27001">
        <ele>904</ele>
        <time>2014-06-22T09:56:43.1Z</time>
      </trkpt>
      <trkpt lat="44.46107" lon="6.26998">
        <ele>905</ele>
        <time>2014-06-22T09:56:48.1Z</time>
      </trkpt>
      <trkpt lat="44.46108" lon="6.26991">
        <ele>906</ele>
        <time>2014-06-22T09:56:53.1Z</time>
      </trkpt>
      <trkpt lat="44.46109" lon="6.26983">
        <ele>906</ele>
        <time>2014-06-22T09:56:59.1Z</time>
      </trkpt>
      <trkpt lat="44.46109" lon="6.26976">
        <ele>906</ele>
        <time>2014-06-22T09:57:04.1Z</time>
      </trkpt>
      <trkpt lat="44.46108" lon="6.26968">
        <ele>907</ele>
        <time>2014-06-22T09:57:10.1Z</time>
      </trkpt>
      <trkpt lat="44.46106" lon="6.26959">
        <ele>908</ele>
        <time>2014-06-22T09:57:16.1Z</time>
      </trkpt>
      <trkpt lat="44.46104" lon="6.26952">
        <ele>909</ele>
        <time>2014-06-22T09:57:21.1Z</time>
      </trkpt>
      <trkpt lat="44.461" lon="6.26944">
        <ele>909</ele>
        <time>2014-06-22T09:57:27.1Z</time>
      </trkpt>
      <trkpt lat="44.46095" lon="6.26938">
        <ele>910</ele>
        <time>2014-06-22T09:57:33.1Z</time>
      </trkpt>
      <trkpt lat="44.4609" lon="6.26934">
        <ele>910</ele>
        <time>2014-06-22T09:57:39.1Z</time>
      </trkpt>
      <trkpt lat="44.46085" lon="6.2693">
        <ele>909</ele>
        <time>2014-06-22T09:57:45.1Z</time>
      </trkpt>
      <trkpt lat="44.46079" lon="6.26927">
        <ele>909</ele>
        <time>2014-06-22T09:57:50.1Z</time>
      </trkpt>
      <trkpt lat="44.46074" lon="6.26923">
        <ele>909</ele>
        <time>2014-06-22T09:57:56.1Z</time>
      </trkpt>
      <trkpt lat="44.46069" lon="6.26917">
        <ele>908</ele>
        <time>2014-06-22T09:58:01.1Z</time>
      </trkpt>
      <trkpt lat="44.46061" lon="6.26913">
        <ele>908</ele>
        <time>2014-06-22T09:58:07.1Z</time>
      </trkpt>
      <trkpt lat="44.46054" lon="6.26905">
        <ele>908</ele>
        <time>2014-06-22T09:58:13.1Z</time>
      </trkpt>
      <trkpt lat="44.46049" lon="6.26898">
        <ele>907</ele>
        <time>2014-06-22T09:58:18.1Z</time>
      </trkpt>
      <trkpt lat="44.46045" lon="6.2689">
        <ele>907</ele>
        <time>2014-06-22T09:58:24.1Z</time>
      </trkpt>
      <trkpt lat="44.46042" lon="6.26882">
        <ele>907</ele>
        <time>2014-06-22T09:58:29.1Z</time>
      </trkpt>
      <trkpt lat="44.4604" lon="6.26874">
        <ele>907</ele>
        <time>2014-06-22T09:58:34.1Z</time>
      </trkpt>
      <trkpt lat="44.46043" lon="6.26865">
        <ele>907</ele>
        <time>2014-06-22T09:58:40.1Z</time>
      </trkpt>
      <trkpt lat="44.46047" lon="6.2686">
        <ele>907</ele>
        <time>2014-06-22T09:58:45.1Z</time>
      </trkpt>
      <trkpt lat="44.4605" lon="6.26855">
        <ele>908</ele>
        <time>2014-06-22T09:58:50.1Z</time>
      </trkpt>
      <trkpt lat="44.46054" lon="6.26851">
        <ele>908</ele>
        <time>2014-06-22T09:58:55.1Z</time>
      </trkpt>
      <trkpt lat="44.46059" lon="6.26849">
        <ele>908</ele>
        <time>2014-06-22T09:59:00.1Z</time>
      </trkpt>
      <trkpt lat="44.46064" lon="6.26847">
        <ele>908</ele>
        <time>2014-06-22T09:59:05.1Z</time>
      </trkpt>
      <trkpt lat="44.46069" lon="6.26843">
        <ele>909</ele>
        <time>2014-06-22T09:59:10.1Z</time>
      </trkpt>
      <trkpt lat="44.46075" lon="6.26838">
        <ele>909</ele>
        <time>2014-06-22T09:59:15.1Z</time>
      </trkpt>
      <trkpt lat="44.4608" lon="6.26833">
        <ele>910</ele>
        <time>2014-06-22T09:59:20.1Z</time>
      </trkpt>
      <trkpt lat="44.46085" lon="6.26828">
        <ele>911</ele>
        <time>2014-06-22T09:59:25.1Z</time>
      </trkpt>
      <trkpt lat="44.46089" lon="6.26821">
        <ele>911</ele>
        <time>2014-06-22T09:59:31.1Z</time>
      </trkpt>
      <trkpt lat="44.46091" lon="6.26813">
        <ele>911</ele>
        <time>2014-06-22T09:59:36.1Z</time>
      </trkpt>
      <trkpt lat="44.46092" lon="6.26804">
        <ele>911</ele>
        <time>2014-06-22T09:59:42.1Z</time>
      </trkpt>
      <trkpt lat="44.46093" lon="6.26797">
        <ele>911</ele>
        <time>2014-06-22T09:59:47.1Z</time>
      </trkpt>
      <trkpt lat="44.46093" lon="6.26787">
        <ele>911</ele>
        <time>2014-06-22T09:59:53.1Z</time>
      </trkpt>
      <trkpt lat="44.46092" lon="6.26778">
        <ele>911</ele>
        <time>2014-06-22T09:59:58.1Z</time>
      </trkpt>
      <trkpt lat="44.4609" lon="6.26768">
        <ele>911</ele>
        <time>2014-06-22T10:00:04.1Z</time>
      </trkpt>
      <trkpt lat="44.46088" lon="6.26759">
        <ele>911</ele>
        <time>2014-06-22T10:00:10.1Z</time>
      </trkpt>
      <trkpt lat="44.46087" lon="6.26751">
        <ele>910</ele>
        <time>2014-06-22T10:00:15.1Z</time>
      </trkpt>
      <trkpt lat="44.46085" lon="6.26742">
        <ele>910</ele>
        <time>2014-06-22T10:00:21.1Z</time>
      </trkpt>
      <trkpt lat="44.46083" lon="6.26733">
        <ele>910</ele>
        <time>2014-06-22T10:00:26.1Z</time>
      </trkpt>
      <trkpt lat="44.4608" lon="6.26723">
        <ele>910</ele>
        <time>2014-06-22T10:00:32.1Z</time>
      </trkpt>
      <trkpt lat="44.46078" lon="6.26715">
        <ele>909</ele>
        <time>2014-06-22T10:00:37.1Z</time>
      </trkpt>
      <trkpt lat="44.46076" lon="6.26707">
        <ele>909</ele>
        <time>2014-06-22T10:00:42.1Z</time>
      </trkpt>
      <trkpt lat="44.46073" lon="6.26698">
        <ele>908</ele>
        <time>2014-06-22T10:00:47.1Z</time>
      </trkpt>
      <trkpt lat="44.4607" lon="6.26687">
        <ele>908</ele>
        <time>2014-06-22T10:00:53.1Z</time>
      </trkpt>
      <trkpt lat="44.46068" lon="6.26679">
        <ele>908</ele>
        <time>2014-06-22T10:00:58.1Z</time>
      </trkpt>
      <trkpt lat="44.46065" lon="6.26669">
        <ele>907</ele>
        <time>2014-06-22T10:01:04.1Z</time>
      </trkpt>
      <trkpt lat="44.46061" lon="6.26661">
        <ele>907</ele>
        <time>2014-06-22T10:01:09.1Z</time>
      </trkpt>
      <trkpt lat="44.46057" lon="6.26652">
        <ele>906</ele>
        <time>2014-06-22T10:01:15.1Z</time>
      </trkpt>
      <trkpt lat="44.46053" lon="6.26645">
        <ele>906</ele>
        <time>2014-06-22T10:01:20.1Z</time>
      </trkpt>
      <trkpt lat="44.4605" lon="6.26637">
        <ele>905</ele>
        <time>2014-06-22T10:01:25.1Z</time>
      </trkpt>
      <trkpt lat="44.46046" lon="6.26627">
        <ele>905</ele>
        <time>2014-06-22T10:01:31.1Z</time>
      </trkpt>
      <trkpt lat="44.46043" lon="6.26619">
        <ele>904</ele>
        <time>2014-06-22T10:01:36.1Z</time>
      </trkpt>
      <trkpt lat="44.46041" lon="6.26612">
        <ele>904</ele>
        <time>2014-06-22T10:01:41.1Z</time>
      </trkpt>
      <trkpt lat="44.46038" lon="6.26604">
        <ele>904</ele>
        <time>2014-06-22T10:01:46.1Z</time>
      </trkpt>
      <trkpt lat="44.46034" lon="6.26595">
        <ele>904</ele>
        <time>2014-06-22T10:01:52.1Z</time>
      </trkpt>
      <trkpt lat="44.4603" lon="6.26588">
        <ele>903</ele>
        <time>2014-06-22T10:01:57.1Z</time>
      </trkpt>
      <trkpt lat="44.46026" lon="6.2658">
        <ele>903</ele>
        <time>2014-06-22T10:02:03.1Z</time>
      </trkpt>
      <trkpt lat="44.46023" lon="6.26572">
        <ele>903</ele>
        <time>2014-06-22T10:02:08.1Z</time>
      </trkpt>
      <trkpt lat="44.4602" lon="6.26564">
        <ele>902</ele>
        <time>2014-06-22T10:02:13.1Z</time>
      </trkpt>
      <trkpt lat="44.46017" lon="6.26553">
        <ele>902</ele>
        <time>2014-06-22T10:02:19.1Z</time>
      </trkpt>
      <trkpt lat="44.46015" lon="6.26545">
        <ele>902</ele>
        <time>2014-06-22T10:02:24.1Z</time>
      </trkpt>
      <trkpt lat="44.46011" lon="6.26536">
        <ele>901</ele>
        <time>2014-06-22T10:02:30.1Z</time>
      </trkpt>
      <trkpt lat="44.46006" lon="6.26527">
        <ele>901</ele>
        <time>2014-06-22T10:02:36.1Z</time>
      </trkpt>
      <trkpt lat="44.46001" lon="6.2652">
        <ele>900</ele>
        <time>2014-06-22T10:02:42.1Z</time>
      </trkpt>
      <trkpt lat="44.45995" lon="6.26516">
        <ele>900</ele>
        <time>2014-06-22T10:02:48.1Z</time>
      </trkpt>
      <trkpt lat="44.45989" lon="6.26514">
        <ele>900</ele>
        <time>2014-06-22T10:02:53.1Z</time>
      </trkpt>
      <trkpt lat="44.45983" lon="6.26516">
        <ele>900</ele>
        <time>2014-06-22T10:02:59.1Z</time>
      </trkpt>
      <trkpt lat="44.45979" lon="6.26518">
        <ele>899</ele>
        <time>2014-06-22T10:03:04.1Z</time>
      </trkpt>
      <trkpt lat="44.45976" lon="6.26519">
        <ele>899</ele>
        <time>2014-06-22T10:03:09.1Z</time>
      </trkpt>
      <trkpt lat="44.45975" lon="6.26519">
        <ele>899</ele>
        <time>2014-06-22T10:03:16.1Z</time>
      </trkpt>
      <trkpt lat="44.45975" lon="6.26519">
        <ele>899</ele>
        <time>2014-06-22T10:03:21.1Z</time>
      </trkpt>
      <trkpt lat="44.45975" lon="6.2652">
        <ele>899</ele>
        <time>2014-06-22T10:03:28.1Z</time>
      </trkpt>
      <trkpt lat="44.45975" lon="6.2652">
        <ele>899</ele>
        <time>2014-06-22T10:03:33.1Z</time>
      </trkpt>
      <trkpt lat="44.45975" lon="6.26519">
        <ele>899</ele>
        <time>2014-06-22T10:03:39.1Z</time>
      </trkpt>
      <trkpt lat="44.45972" lon="6.2652">
        <ele>899</ele>
        <time>2014-06-22T10:03:44.1Z</time>
      </trkpt>
      <trkpt lat="44.45968" lon="6.26518">
        <ele>899</ele>
        <time>2014-06-22T10:03:49.1Z</time>
      </trkpt>
      <trkpt lat="44.45967" lon="6.26517">
        <ele>899</ele>
        <time>2014-06-22T10:03:54.1Z</time>
      </trkpt>
      <trkpt lat="44.45967" lon="6.26517">
        <ele>899</ele>
        <time>2014-06-22T10:03:59.1Z</time>
      </trkpt>
      <trkpt lat="44.45966" lon="6.26518">
        <ele>899</ele>
        <time>2014-06-22T10:04:05.1Z</time>
      </trkpt>
      <trkpt lat="44.45966" lon="6.26518">
        <ele>899</ele>
        <time>2014-06-22T10:04:10.1Z</time>
      </trkpt>
      <trkpt lat="44.45963" lon="6.26517">
        <ele>899</ele>
        <time>2014-06-22T10:04:15.1Z</time>
      </trkpt>
      <trkpt lat="44.45957" lon="6.26511">
        <ele>899</ele>
        <time>2014-06-22T10:04:21.1Z</time>
      </trkpt>
      <trkpt lat="44.45951" lon="6.26503">
        <ele>898</ele>
        <time>2014-06-22T10:04:27.1Z</time>
      </trkpt>
      <trkpt lat="44.45947" lon="6.26497">
        <ele>898</ele>
        <time>2014-06-22T10:04:32.1Z</time>
      </trkpt>
      <trkpt lat="44.45941" lon="6.26488">
        <ele>897</ele>
        <time>2014-06-22T10:04:38.1Z</time>
      </trkpt>
      <trkpt lat="44.45936" lon="6.26482">
        <ele>897</ele>
        <time>2014-06-22T10:04:43.1Z</time>
      </trkpt>
      <trkpt lat="44.45932" lon="6.26474">
        <ele>896</ele>
        <time>2014-06-22T10:04:49.1Z</time>
      </trkpt>
      <trkpt lat="44.45927" lon="6.2647">
        <ele>895</ele>
        <time>2014-06-22T10:04:54.1Z</time>
      </trkpt>
      <trkpt lat="44.45921" lon="6.26465">
        <ele>895</ele>
        <time>2014-06-22T10:04:59.1Z</time>
      </trkpt>
      <trkpt lat="44.45916" lon="6.2646">
        <ele>895</ele>
        <time>2014-06-22T10:05:04.1Z</time>
      </trkpt>
      <trkpt lat="44.4591" lon="6.26455">
        <ele>894</ele>
        <time>2014-06-22T10:05:09.1Z</time>
      </trkpt>
      <trkpt lat="44.45903" lon="6.26451">
        <ele>894</ele>
        <time>2014-06-22T10:05:15.1Z</time>
      </trkpt>
      <trkpt lat="44.45896" lon="6.26446">
        <ele>893</ele>
        <time>2014-06-22T10:05:21.1Z</time>
      </trkpt>
      <trkpt lat="44.45889" lon="6.26441">
        <ele>893</ele>
        <time>2014-06-22T10:05:27.1Z</time>
      </trkpt>
      <trkpt lat="44.45883" lon="6.26438">
        <ele>893</ele>
        <time>2014-06-22T10:05:32.1Z</time>
      </trkpt>
      <trkpt lat="44.45876" lon="6.26431">
        <ele>892</ele>
        <time>2014-06-22T10:05:38.1Z</time>
      </trkpt>
      <trkpt lat="44.4587" lon="6.26425">
        <ele>892</ele>
        <time>2014-06-22T10:05:43.1Z</time>
      </trkpt>
      <trkpt lat="44.45863" lon="6.26418">
        <ele>892</ele>
        <time>2014-06-22T10:05:49.1Z</time>
      </trkpt>
      <trkpt lat="44.45857" lon="6.26411">
        <ele>892</ele>
        <time>2014-06-22T10:05:54.1Z</time>
      </trkpt>
      <trkpt lat="44.45853" lon="6.26405">
        <ele>892</ele>
        <time>2014-06-22T10:05:59.1Z</time>
      </trkpt>
      <trkpt lat="44.45848" lon="6.26399">
        <ele>892</ele>
        <time>2014-06-22T10:06:04.1Z</time>
      </trkpt>
      <trkpt lat="44.45844" lon="6.26392">
        <ele>892</ele>
        <time>2014-06-22T10:06:10.1Z</time>
      </trkpt>
      <trkpt lat="44.45839" lon="6.26386">
        <ele>892</ele>
        <time>2014-06-22T10:06:16.1Z</time>
      </trkpt>
      <trkpt lat="44.45834" lon="6.26379">
        <ele>892</ele>
        <time>2014-06-22T10:06:21.1Z</time>
      </trkpt>
      <trkpt lat="44.4583" lon="6.26375">
        <ele>893</ele>
        <time>2014-06-22T10:06:26.1Z</time>
      </trkpt>
      <trkpt lat="44.45824" lon="6.26368">
        <ele>892</ele>
        <time>2014-06-22T10:06:32.1Z</time>
      </trkpt>
      <trkpt lat="44.45816" lon="6.26362">
        <ele>892</ele>
        <time>2014-06-22T10:06:38.1Z</time>
      </trkpt>
      <trkpt lat="44.45811" lon="6.26359">
        <ele>892</ele>
        <time>2014-06-22T10:06:43.1Z</time>
      </trkpt>
      <trkpt lat="44.45805" lon="6.26354">
        <ele>892</ele>
        <time>2014-06-22T10:06:49.1Z</time>
      </trkpt>
      <trkpt lat="44.458" lon="6.26349">
        <ele>892</ele>
        <time>2014-06-22T10:06:54.1Z</time>
      </trkpt>
      <trkpt lat="44.45794" lon="6.26341">
        <ele>892</ele>
        <time>2014-06-22T10:07:00.1Z</time>
      </trkpt>
      <trkpt lat="44.45789" lon="6.26332">
        <ele>892</ele>
        <time>2014-06-22T10:07:06.1Z</time>
      </trkpt>
      <trkpt lat="44.45785" lon="6.2632">
        <ele>892</ele>
        <time>2014-06-22T10:07:12.1Z</time>
      </trkpt>
      <trkpt lat="44.45784" lon="6.26309">
        <ele>891</ele>
        <time>2014-06-22T10:07:18.1Z</time>
      </trkpt>
      <trkpt lat="44.45785" lon="6.26298">
        <ele>891</ele>
        <time>2014-06-22T10:07:24.1Z</time>
      </trkpt>
      <trkpt lat="44.45787" lon="6.26291">
        <ele>891</ele>
        <time>2014-06-22T10:07:29.1Z</time>
      </trkpt>
      <trkpt lat="44.45792" lon="6.26281">
        <ele>890</ele>
        <time>2014-06-22T10:07:35.1Z</time>
      </trkpt>
      <trkpt lat="44.45795" lon="6.26273">
        <ele>889</ele>
        <time>2014-06-22T10:07:40.1Z</time>
      </trkpt>
      <trkpt lat="44.45795" lon="6.26268">
        <ele>889</ele>
        <time>2014-06-22T10:07:46.1Z</time>
      </trkpt>
      <trkpt lat="44.45795" lon="6.26268">
        <ele>889</ele>
        <time>2014-06-22T10:07:52.1Z</time>
      </trkpt>
      <trkpt lat="44.45795" lon="6.26268">
        <ele>889</ele>
        <time>2014-06-22T10:07:58.1Z</time>
      </trkpt>
      <trkpt lat="44.45795" lon="6.26269">
        <ele>888</ele>
        <time>2014-06-22T10:08:05.1Z</time>
      </trkpt>
      <trkpt lat="44.45795" lon="6.2627">
        <ele>888</ele>
        <time>2014-06-22T10:08:11.1Z</time>
      </trkpt>
      <trkpt lat="44.45795" lon="6.2627">
        <ele>889</ele>
        <time>2014-06-22T10:08:16.1Z</time>
      </trkpt>
      <trkpt lat="44.45796" lon="6.2627">
        <ele>889</ele>
        <time>2014-06-22T10:08:24.1Z</time>
      </trkpt>
      <trkpt lat="44.45796" lon="6.26269">
        <ele>889</ele>
        <time>2014-06-22T10:08:30.1Z</time>
      </trkpt>
      <trkpt lat="44.45797" lon="6.26268">
        <ele>889</ele>
        <time>2014-06-22T10:08:37.1Z</time>
      </trkpt>
      <trkpt lat="44.45797" lon="6.26268">
        <ele>889</ele>
        <time>2014-06-22T10:08:44.1Z</time>
      </trkpt>
      <trkpt lat="44.45797" lon="6.26268">
        <ele>889</ele>
        <time>2014-06-22T10:08:51.1Z</time>
      </trkpt>
      <trkpt lat="44.45797" lon="6.26268">
        <ele>889</ele>
        <time>2014-06-22T10:08:56.1Z</time>
      </trkpt>
      <trkpt lat="44.458" lon="6.26266">
        <ele>889</ele>
        <time>2014-06-22T10:09:02.1Z</time>
      </trkpt>
      <trkpt lat="44.45804" lon="6.26261">
        <ele>888</ele>
        <time>2014-06-22T10:09:07.1Z</time>
      </trkpt>
      <trkpt lat="44.45805" lon="6.26256">
        <ele>888</ele>
        <time>2014-06-22T10:09:13.1Z</time>
      </trkpt>
      <trkpt lat="44.45805" lon="6.26257">
        <ele>887</ele>
        <time>2014-06-22T10:09:19.1Z</time>
      </trkpt>
      <trkpt lat="44.45809" lon="6.26259">
        <ele>888</ele>
        <time>2014-06-22T10:09:24.1Z</time>
      </trkpt>
      <trkpt lat="44.45813" lon="6.26259">
        <ele>887</ele>
        <time>2014-06-22T10:09:29.1Z</time>
      </trkpt>
      <trkpt lat="44.4582" lon="6.26258">
        <ele>886</ele>
        <time>2014-06-22T10:09:35.1Z</time>
      </trkpt>
      <trkpt lat="44.45826" lon="6.26257">
        <ele>885</ele>
        <time>2014-06-22T10:09:40.1Z</time>
      </trkpt>
      <trkpt lat="44.45833" lon="6.26253">
        <ele>885</ele>
        <time>2014-06-22T10:09:46.1Z</time>
      </trkpt>
      <trkpt lat="44.45839" lon="6.26247">
        <ele>884</ele>
        <time>2014-06-22T10:09:51.1Z</time>
      </trkpt>
      <trkpt lat="44.45842" lon="6.26238">
        <ele>884</ele>
        <time>2014-06-22T10:09:56.1Z</time>
      </trkpt>
      <trkpt lat="44.45845" lon="6.26227">
        <ele>883</ele>
        <time>2014-06-22T10:10:02.1Z</time>
      </trkpt>
      <trkpt lat="44.45849" lon="6.26217">
        <ele>882</ele>
        <time>2014-06-22T10:10:08.1Z</time>
      </trkpt>
      <trkpt lat="44.45853" lon="6.2621">
        <ele>882</ele>
        <time>2014-06-22T10:10:13.1Z</time>
      </trkpt>
      <trkpt lat="44.45857" lon="6.26202">
        <ele>881</ele>
        <time>2014-06-22T10:10:19.1Z</time>
      </trkpt>
      <trkpt lat="44.4586" lon="6.26199">
        <ele>880</ele>
        <time>2014-06-22T10:10:25.1Z</time>
      </trkpt>
      <trkpt lat="44.4586" lon="6.26199">
        <ele>880</ele>
        <time>2014-06-22T10:10:32.1Z</time>
      </trkpt>
      <trkpt lat="44.4586" lon="6.262">
        <ele>880</ele>
        <time>2014-06-22T10:10:38.1Z</time>
      </trkpt>
      <trkpt lat="44.45861" lon="6.262">
        <ele>880</ele>
        <time>2014-06-22T10:10:43.1Z</time>
      </trkpt>
      <trkpt lat="44.45861" lon="6.26201">
        <ele>880</ele>
        <time>2014-06-22T10:10:49.1Z</time>
      </trkpt>
      <trkpt lat="44.45861" lon="6.26202">
        <ele>880</ele>
        <time>2014-06-22T10:10:54.1Z</time>
      </trkpt>
      <trkpt lat="44.45867" lon="6.26203">
        <ele>880</ele>
        <time>2014-06-22T10:11:00.1Z</time>
      </trkpt>
      <trkpt lat="44.45874" lon="6.26202">
        <ele>880</ele>
        <time>2014-06-22T10:11:06.1Z</time>
      </trkpt>
      <trkpt lat="44.45879" lon="6.262">
        <ele>879</ele>
        <time>2014-06-22T10:11:11.1Z</time>
      </trkpt>
      <trkpt lat="44.45879" lon="6.262">
        <ele>878</ele>
        <time>2014-06-22T10:11:17.1Z</time>
      </trkpt>
      <trkpt lat="44.45884" lon="6.26201">
        <ele>878</ele>
        <time>2014-06-22T10:11:23.1Z</time>
      </trkpt>
      <trkpt lat="44.45884" lon="6.262">
        <ele>878</ele>
        <time>2014-06-22T10:11:29.1Z</time>
      </trkpt>
      <trkpt lat="44.45884" lon="6.262">
        <ele>878</ele>
        <time>2014-06-22T10:11:36.1Z</time>
      </trkpt>
      <trkpt lat="44.45884" lon="6.262">
        <ele>878</ele>
        <time>2014-06-22T10:11:41.1Z</time>
      </trkpt>
      <trkpt lat="44.45885" lon="6.26201">
        <ele>877</ele>
        <time>2014-06-22T10:11:47.1Z</time>
      </trkpt>
      <trkpt lat="44.45887" lon="6.26202">
        <ele>878</ele>
        <time>2014-06-22T10:11:53.1Z</time>
      </trkpt>
      <trkpt lat="44.45888" lon="6.26202">
        <ele>878</ele>
        <time>2014-06-22T10:11:58.1Z</time>
      </trkpt>
      <trkpt lat="44.4589" lon="6.26202">
        <ele>878</ele>
        <time>2014-06-22T10:12:03.1Z</time>
      </trkpt>
      <trkpt lat="44.45893" lon="6.26202">
        <ele>878</ele>
        <time>2014-06-22T10:12:09.1Z</time>
      </trkpt>
      <trkpt lat="44.45897" lon="6.26203">
        <ele>877</ele>
        <time>2014-06-22T10:12:14.1Z</time>
      </trkpt>
      <trkpt lat="44.45897" lon="6.26202">
        <ele>877</ele>
        <time>2014-06-22T10:12:19.1Z</time>
      </trkpt>
      <trkpt lat="44.45897" lon="6.26201">
        <ele>877</ele>
        <time>2014-06-22T10:12:25.1Z</time>
      </trkpt>
      <trkpt lat="44.45896" lon="6.26198">
        <ele>877</ele>
        <time>2014-06-22T10:12:30.1Z</time>
      </trkpt>
      <trkpt lat="44.45896" lon="6.26196">
        <ele>877</ele>
        <time>2014-06-22T10:12:36.1Z</time>
      </trkpt>
      <trkpt lat="44.45896" lon="6.26194">
        <ele>877</ele>
        <time>2014-06-22T10:12:41.1Z</time>
      </trkpt>
      <trkpt lat="44.459" lon="6.26194">
        <ele>877</ele>
        <time>2014-06-22T10:12:47.1Z</time>
      </trkpt>
      <trkpt lat="44.459" lon="6.26195">
        <ele>876</ele>
        <time>2014-06-22T10:12:52.1Z</time>
      </trkpt>
      <trkpt lat="44.45899" lon="6.26196">
        <ele>876</ele>
        <time>2014-06-22T10:12:57.1Z</time>
      </trkpt>
      <trkpt lat="44.45894" lon="6.26197">
        <ele>877</ele>
        <time>2014-06-22T10:13:03.1Z</time>
      </trkpt>
      <trkpt lat="44.45889" lon="6.26196">
        <ele>878</ele>
        <time>2014-06-22T10:13:09.1Z</time>
      </trkpt>
      <trkpt lat="44.45883" lon="6.26197">
        <ele>878</ele>
        <time>2014-06-22T10:13:15.1Z</time>
      </trkpt>
      <trkpt lat="44.45878" lon="6.26198">
        <ele>878</ele>
        <time>2014-06-22T10:13:20.1Z</time>
      </trkpt>
      <trkpt lat="44.45873" lon="6.262">
        <ele>879</ele>
        <time>2014-06-22T10:13:26.1Z</time>
      </trkpt>
      <trkpt lat="44.45869" lon="6.26202">
        <ele>880</ele>
        <time>2014-06-22T10:13:31.1Z</time>
      </trkpt>
      <trkpt lat="44.45863" lon="6.26205">
        <ele>880</ele>
        <time>2014-06-22T10:13:37.1Z</time>
      </trkpt>
      <trkpt lat="44.4586" lon="6.26208">
        <ele>881</ele>
        <time>2014-06-22T10:13:42.1Z</time>
      </trkpt>
      <trkpt lat="44.45856" lon="6.26213">
        <ele>881</ele>
        <time>2014-06-22T10:13:47.1Z</time>
      </trkpt>
      <trkpt lat="44.45853" lon="6.26218">
        <ele>882</ele>
        <time>2014-06-22T10:13:52.1Z</time>
      </trkpt>
      <trkpt lat="44.4585" lon="6.26225">
        <ele>883</ele>
        <time>2014-06-22T10:13:58.1Z</time>
      </trkpt>
      <trkpt lat="44.45848" lon="6.26232">
        <ele>883</ele>
        <time>2014-06-22T10:14:03.1Z</time>
      </trkpt>
      <trkpt lat="44.45847" lon="6.26237">
        <ele>884</ele>
        <time>2014-06-22T10:14:08.1Z</time>
      </trkpt>
      <trkpt lat="44.45846" lon="6.26239">
        <ele>884</ele>
        <time>2014-06-22T10:14:14.1Z</time>
      </trkpt>
      <trkpt lat="44.45844" lon="6.26244">
        <ele>884</ele>
        <time>2014-06-22T10:14:19.1Z</time>
      </trkpt>
      <trkpt lat="44.45839" lon="6.26249">
        <ele>884</ele>
        <time>2014-06-22T10:14:25.1Z</time>
      </trkpt>
      <trkpt lat="44.45833" lon="6.26253">
        <ele>885</ele>
        <time>2014-06-22T10:14:31.1Z</time>
      </trkpt>
      <trkpt lat="44.45828" lon="6.26254">
        <ele>885</ele>
        <time>2014-06-22T10:14:36.1Z</time>
      </trkpt>
      <trkpt lat="44.45822" lon="6.26255">
        <ele>886</ele>
        <time>2014-06-22T10:14:42.1Z</time>
      </trkpt>
      <trkpt lat="44.45816" lon="6.26255">
        <ele>887</ele>
        <time>2014-06-22T10:14:47.1Z</time>
      </trkpt>
      <trkpt lat="44.4581" lon="6.26257">
        <ele>887</ele>
        <time>2014-06-22T10:14:53.1Z</time>
      </trkpt>
      <trkpt lat="44.45805" lon="6.26261">
        <ele>887</ele>
        <time>2014-06-22T10:14:58.1Z</time>
      </trkpt>
      <trkpt lat="44.45801" lon="6.26264">
        <ele>888</ele>
        <time>2014-06-22T10:15:03.1Z</time>
      </trkpt>
      <trkpt lat="44.45797" lon="6.26269">
        <ele>888</ele>
        <time>2014-06-22T10:15:09.1Z</time>
      </trkpt>
      <trkpt lat="44.45794" lon="6.26276">
        <ele>889</ele>
        <time>2014-06-22T10:15:15.1Z</time>
      </trkpt>
      <trkpt lat="44.4579" lon="6.26282">
        <ele>890</ele>
        <time>2014-06-22T10:15:20.1Z</time>
      </trkpt>
      <trkpt lat="44.45787" lon="6.26287">
        <ele>890</ele>
        <time>2014-06-22T10:15:25.1Z</time>
      </trkpt>
      <trkpt lat="44.45784" lon="6.26294">
        <ele>891</ele>
        <time>2014-06-22T10:15:30.1Z</time>
      </trkpt>
      <trkpt lat="44.45783" lon="6.26295">
        <ele>891</ele>
        <time>2014-06-22T10:15:36.1Z</time>
      </trkpt>
      <trkpt lat="44.45783" lon="6.26304">
        <ele>891</ele>
        <time>2014-06-22T10:15:42.1Z</time>
      </trkpt>
      <trkpt lat="44.45782" lon="6.26308">
        <ele>891</ele>
        <time>2014-06-22T10:15:48.1Z</time>
      </trkpt>
      <trkpt lat="44.4578" lon="6.26308">
        <ele>891</ele>
        <time>2014-06-22T10:15:53.1Z</time>
      </trkpt>
      <trkpt lat="44.45777" lon="6.2631">
        <ele>892</ele>
        <time>2014-06-22T10:15:59.1Z</time>
      </trkpt>
      <trkpt lat="44.45776" lon="6.26311">
        <ele>891</ele>
        <time>2014-06-22T10:16:04.1Z</time>
      </trkpt>
      <trkpt lat="44.45776" lon="6.26307">
        <ele>891</ele>
        <time>2014-06-22T10:16:10.1Z</time>
      </trkpt>
      <trkpt lat="44.45775" lon="6.26307">
        <ele>891</ele>
        <time>2014-06-22T10:16:15.1Z</time>
      </trkpt>
      <trkpt lat="44.45773" lon="6.26306">
        <ele>891</ele>
        <time>2014-06-22T10:16:20.1Z</time>
      </trkpt>
      <trkpt lat="44.45771" lon="6.26305">
        <ele>891</ele>
        <time>2014-06-22T10:16:25.1Z</time>
      </trkpt>
      <trkpt lat="44.45769" lon="6.26305">
        <ele>891</ele>
        <time>2014-06-22T10:16:31.1Z</time>
      </trkpt>
      <trkpt lat="44.45768" lon="6.26306">
        <ele>891</ele>
        <time>2014-06-22T10:16:37.1Z</time>
      </trkpt>
      <trkpt lat="44.45765" lon="6.2631">
        <ele>892</ele>
        <time>2014-06-22T10:16:42.1Z</time>
      </trkpt>
      <trkpt lat="44.4576" lon="6.26314">
        <ele>892</ele>
        <time>2014-06-22T10:16:48.1Z</time>
      </trkpt>
      <trkpt lat="44.45753" lon="6.26317">
        <ele>890</ele>
        <time>2014-06-22T10:16:54.1Z</time>
      </trkpt>
      <trkpt lat="44.45747" lon="6.2632">
        <ele>889</ele>
        <time>2014-06-22T10:16:59.1Z</time>
      </trkpt>
      <trkpt lat="44.45745" lon="6.26321">
        <ele>889</ele>
        <time>2014-06-22T10:17:05.1Z</time>
      </trkpt>
      <trkpt lat="44.45746" lon="6.26321">
        <ele>889</ele>
        <time>2014-06-22T10:17:11.1Z</time>
      </trkpt>
      <trkpt lat="44.45743" lon="6.26324">
        <ele>889</ele>
        <time>2014-06-22T10:17:16.1Z</time>
      </trkpt>
      <trkpt lat="44.45737" lon="6.26326">
        <ele>888</ele>
        <time>2014-06-22T10:17:21.1Z</time>
      </trkpt>
      <trkpt lat="44.45731" lon="6.26329">
        <ele>887</ele>
        <time>2014-06-22T10:17:27.1Z</time>
      </trkpt>
      <trkpt lat="44.45725" lon="6.26334">
        <ele>887</ele>
        <time>2014-06-22T10:17:32.1Z</time>
      </trkpt>
      <trkpt lat="44.4572" lon="6.26338">
        <ele>885</ele>
        <time>2014-06-22T10:17:37.1Z</time>
      </trkpt>
      <trkpt lat="44.45713" lon="6.26343">
        <ele>884</ele>
        <time>2014-06-22T10:17:42.1Z</time>
      </trkpt>
      <trkpt lat="44.45709" lon="6.2635">
        <ele>883</ele>
        <time>2014-06-22T10:17:47.1Z</time>
      </trkpt>
      <trkpt lat="44.45704" lon="6.26357">
        <ele>881</ele>
        <time>2014-06-22T10:17:53.1Z</time>
      </trkpt>
      <trkpt lat="44.45699" lon="6.2636">
        <ele>881</ele>
        <time>2014-06-22T10:17:58.1Z</time>
      </trkpt>
      <trkpt lat="44.45696" lon="6.26364">
        <ele>881</ele>
        <time>2014-06-22T10:18:03.1Z</time>
      </trkpt>
      <trkpt lat="44.45691" lon="6.26367">
        <ele>879</ele>
        <time>2014-06-22T10:18:09.1Z</time>
      </trkpt>
      <trkpt lat="44.45687" lon="6.26369">
        <ele>878</ele>
        <time>2014-06-22T10:18:14.1Z</time>
      </trkpt>
      <trkpt lat="44.45681" lon="6.26374">
        <ele>877</ele>
        <time>2014-06-22T10:18:20.1Z</time>
      </trkpt>
      <trkpt lat="44.45676" lon="6.26377">
        <ele>877</ele>
        <time>2014-06-22T10:18:26.1Z</time>
      </trkpt>
      <trkpt lat="44.4567" lon="6.2638">
        <ele>877</ele>
        <time>2014-06-22T10:18:32.1Z</time>
      </trkpt>
      <trkpt lat="44.45668" lon="6.26385">
        <ele>877</ele>
        <time>2014-06-22T10:18:38.1Z</time>
      </trkpt>
      <trkpt lat="44.45665" lon="6.26389">
        <ele>878</ele>
        <time>2014-06-22T10:18:43.1Z</time>
      </trkpt>
      <trkpt lat="44.45661" lon="6.26394">
        <ele>878</ele>
        <time>2014-06-22T10:18:49.1Z</time>
      </trkpt>
      <trkpt lat="44.45656" lon="6.264">
        <ele>879</ele>
        <time>2014-06-22T10:18:55.1Z</time>
      </trkpt>
      <trkpt lat="44.45652" lon="6.26406">
        <ele>879</ele>
        <time>2014-06-22T10:19:00.1Z</time>
      </trkpt>
      <trkpt lat="44.45649" lon="6.26412">
        <ele>880</ele>
        <time>2014-06-22T10:19:06.1Z</time>
      </trkpt>
      <trkpt lat="44.45645" lon="6.26414">
        <ele>880</ele>
        <time>2014-06-22T10:19:11.1Z</time>
      </trkpt>
      <trkpt lat="44.45642" lon="6.26419">
        <ele>880</ele>
        <time>2014-06-22T10:19:16.1Z</time>
      </trkpt>
      <trkpt lat="44.45641" lon="6.26421">
        <ele>881</ele>
        <time>2014-06-22T10:19:22.1Z</time>
      </trkpt>
      <trkpt lat="44.4564" lon="6.26425">
        <ele>881</ele>
        <time>2014-06-22T10:19:28.1Z</time>
      </trkpt>
      <trkpt lat="44.45639" lon="6.26429">
        <ele>881</ele>
        <time>2014-06-22T10:19:33.1Z</time>
      </trkpt>
      <trkpt lat="44.45638" lon="6.26429">
        <ele>881</ele>
        <time>2014-06-22T10:19:38.1Z</time>
      </trkpt>
      <trkpt lat="44.45638" lon="6.26427">
        <ele>881</ele>
        <time>2014-06-22T10:19:43.1Z</time>
      </trkpt>
      <trkpt lat="44.45635" lon="6.26427">
        <ele>881</ele>
        <time>2014-06-22T10:19:48.1Z</time>
      </trkpt>
      <trkpt lat="44.45632" lon="6.26428">
        <ele>880</ele>
        <time>2014-06-22T10:19:54.1Z</time>
      </trkpt>
      <trkpt lat="44.4563" lon="6.2643">
        <ele>881</ele>
        <time>2014-06-22T10:19:59.1Z</time>
      </trkpt>
      <trkpt lat="44.45628" lon="6.26431">
        <ele>881</ele>
        <time>2014-06-22T10:20:04.1Z</time>
      </trkpt>
      <trkpt lat="44.45628" lon="6.26432">
        <ele>881</ele>
        <time>2014-06-22T10:20:09.1Z</time>
      </trkpt>
      <trkpt lat="44.45628" lon="6.26436">
        <ele>882</ele>
        <time>2014-06-22T10:20:15.1Z</time>
      </trkpt>
      <trkpt lat="44.45628" lon="6.26438">
        <ele>883</ele>
        <time>2014-06-22T10:20:21.1Z</time>
      </trkpt>
      <trkpt lat="44.45631" lon="6.2644">
        <ele>884</ele>
        <time>2014-06-22T10:20:26.1Z</time>
      </trkpt>
      <trkpt lat="44.45628" lon="6.26449">
        <ele>884</ele>
        <time>2014-06-22T10:20:32.1Z</time>
      </trkpt>
      <trkpt lat="44.4563" lon="6.2645">
        <ele>885</ele>
        <time>2014-06-22T10:20:37.1Z</time>
      </trkpt>
      <trkpt lat="44.4563" lon="6.26457">
        <ele>886</ele>
        <time>2014-06-22T10:20:43.1Z</time>
      </trkpt>
      <trkpt lat="44.45621" lon="6.26469">
        <ele>886</ele>
        <time>2014-06-22T10:20:49.1Z</time>
      </trkpt>
      <trkpt lat="44.4562" lon="6.26479">
        <ele>886</ele>
        <time>2014-06-22T10:20:54.1Z</time>
      </trkpt>
      <trkpt lat="44.45616" lon="6.26482">
        <ele>887</ele>
        <time>2014-06-22T10:20:59.1Z</time>
      </trkpt>
      <trkpt lat="44.45614" lon="6.26487">
        <ele>887</ele>
        <time>2014-06-22T10:21:05.1Z</time>
      </trkpt>
      <trkpt lat="44.45612" lon="6.2649">
        <ele>887</ele>
        <time>2014-06-22T10:21:10.1Z</time>
      </trkpt>
      <trkpt lat="44.45606" lon="6.26491">
        <ele>887</ele>
        <time>2014-06-22T10:21:16.1Z</time>
      </trkpt>
      <trkpt lat="44.45602" lon="6.26493">
        <ele>888</ele>
        <time>2014-06-22T10:21:22.1Z</time>
      </trkpt>
      <trkpt lat="44.45598" lon="6.26496">
        <ele>888</ele>
        <time>2014-06-22T10:21:27.1Z</time>
      </trkpt>
      <trkpt lat="44.45596" lon="6.265">
        <ele>888</ele>
        <time>2014-06-22T10:21:33.1Z</time>
      </trkpt>
      <trkpt lat="44.45593" lon="6.26502">
        <ele>889</ele>
        <time>2014-06-22T10:21:38.1Z</time>
      </trkpt>
      <trkpt lat="44.4559" lon="6.26503">
        <ele>889</ele>
        <time>2014-06-22T10:21:43.1Z</time>
      </trkpt>
      <trkpt lat="44.45587" lon="6.26505">
        <ele>890</ele>
        <time>2014-06-22T10:21:49.1Z</time>
      </trkpt>
      <trkpt lat="44.45584" lon="6.26508">
        <ele>890</ele>
        <time>2014-06-22T10:21:54.1Z</time>
      </trkpt>
      <trkpt lat="44.45579" lon="6.26512">
        <ele>889</ele>
        <time>2014-06-22T10:21:59.1Z</time>
      </trkpt>
      <trkpt lat="44.45574" lon="6.26513">
        <ele>889</ele>
        <time>2014-06-22T10:22:04.1Z</time>
      </trkpt>
      <trkpt lat="44.45566" lon="6.26515">
        <ele>891</ele>
        <time>2014-06-22T10:22:10.1Z</time>
      </trkpt>
      <trkpt lat="44.45559" lon="6.26515">
        <ele>891</ele>
        <time>2014-06-22T10:22:16.1Z</time>
      </trkpt>
      <trkpt lat="44.45552" lon="6.26515">
        <ele>891</ele>
        <time>2014-06-22T10:22:21.1Z</time>
      </trkpt>
      <trkpt lat="44.45547" lon="6.26515">
        <ele>891</ele>
        <time>2014-06-22T10:22:26.1Z</time>
      </trkpt>
      <trkpt lat="44.45541" lon="6.26516">
        <ele>892</ele>
        <time>2014-06-22T10:22:32.1Z</time>
      </trkpt>
      <trkpt lat="44.45539" lon="6.26515">
        <ele>892</ele>
        <time>2014-06-22T10:22:38.1Z</time>
      </trkpt>
      <trkpt lat="44.45537" lon="6.26514">
        <ele>892</ele>
        <time>2014-06-22T10:22:44.1Z</time>
      </trkpt>
      <trkpt lat="44.45536" lon="6.26514">
        <ele>892</ele>
        <time>2014-06-22T10:22:49.1Z</time>
      </trkpt>
      <trkpt lat="44.45535" lon="6.26517">
        <ele>892</ele>
        <time>2014-06-22T10:22:55.1Z</time>
      </trkpt>
      <trkpt lat="44.45536" lon="6.26517">
        <ele>892</ele>
        <time>2014-06-22T10:23:00.1Z</time>
      </trkpt>
      <trkpt lat="44.45536" lon="6.26518">
        <ele>892</ele>
        <time>2014-06-22T10:23:05.1Z</time>
      </trkpt>
      <trkpt lat="44.45533" lon="6.26522">
        <ele>892</ele>
        <time>2014-06-22T10:23:10.1Z</time>
      </trkpt>
      <trkpt lat="44.45533" lon="6.26523">
        <ele>892</ele>
        <time>2014-06-22T10:23:15.1Z</time>
      </trkpt>
      <trkpt lat="44.45533" lon="6.26525">
        <ele>893</ele>
        <time>2014-06-22T10:23:22.1Z</time>
      </trkpt>
      <trkpt lat="44.45533" lon="6.26526">
        <ele>893</ele>
        <time>2014-06-22T10:23:27.1Z</time>
      </trkpt>
      <trkpt lat="44.45533" lon="6.26527">
        <ele>892</ele>
        <time>2014-06-22T10:23:32.1Z</time>
      </trkpt>
      <trkpt lat="44.45533" lon="6.26528">
        <ele>893</ele>
        <time>2014-06-22T10:23:37.1Z</time>
      </trkpt>
      <trkpt lat="44.45533" lon="6.2653">
        <ele>892</ele>
        <time>2014-06-22T10:23:43.1Z</time>
      </trkpt>
      <trkpt lat="44.45533" lon="6.2653">
        <ele>892</ele>
        <time>2014-06-22T10:23:48.1Z</time>
      </trkpt>
      <trkpt lat="44.45534" lon="6.2653">
        <ele>892</ele>
        <time>2014-06-22T10:23:53.1Z</time>
      </trkpt>
      <trkpt lat="44.45535" lon="6.26529">
        <ele>892</ele>
        <time>2014-06-22T10:23:59.1Z</time>
      </trkpt>
      <trkpt lat="44.45536" lon="6.26526">
        <ele>892</ele>
        <time>2014-06-22T10:24:04.1Z</time>
      </trkpt>
      <trkpt lat="44.45535" lon="6.26524">
        <ele>892</ele>
        <time>2014-06-22T10:24:10.1Z</time>
      </trkpt>
      <trkpt lat="44.45533" lon="6.26522">
        <ele>893</ele>
        <time>2014-06-22T10:24:16.1Z</time>
      </trkpt>
      <trkpt lat="44.45534" lon="6.2652">
        <ele>893</ele>
        <time>2014-06-22T10:24:21.1Z</time>
      </trkpt>
      <trkpt lat="44.45534" lon="6.26521">
        <ele>892</ele>
        <time>2014-06-22T10:24:26.1Z</time>
      </trkpt>
      <trkpt lat="44.45534" lon="6.26521">
        <ele>893</ele>
        <time>2014-06-22T10:24:32.1Z</time>
      </trkpt>
      <trkpt lat="44.45534" lon="6.26522">
        <ele>893</ele>
        <time>2014-06-22T10:24:37.1Z</time>
      </trkpt>
      <trkpt lat="44.45533" lon="6.26523">
        <ele>893</ele>
        <time>2014-06-22T10:24:42.1Z</time>
      </trkpt>
      <trkpt lat="44.45533" lon="6.26524">
        <ele>893</ele>
        <time>2014-06-22T10:24:48.1Z</time>
      </trkpt>
      <trkpt lat="44.45537" lon="6.2652">
        <ele>893</ele>
        <time>2014-06-22T10:24:53.1Z</time>
      </trkpt>
      <trkpt lat="44.45541" lon="6.26518">
        <ele>892</ele>
        <time>2014-06-22T10:24:58.1Z</time>
      </trkpt>
      <trkpt lat="44.45545" lon="6.26515">
        <ele>891</ele>
        <time>2014-06-22T10:25:04.1Z</time>
      </trkpt>
      <trkpt lat="44.4555" lon="6.26517">
        <ele>892</ele>
        <time>2014-06-22T10:25:09.1Z</time>
      </trkpt>
      <trkpt lat="44.45554" lon="6.26517">
        <ele>891</ele>
        <time>2014-06-22T10:25:14.1Z</time>
      </trkpt>
      <trkpt lat="44.45559" lon="6.26517">
        <ele>891</ele>
        <time>2014-06-22T10:25:20.1Z</time>
      </trkpt>
      <trkpt lat="44.45565" lon="6.26516">
        <ele>890</ele>
        <time>2014-06-22T10:25:25.1Z</time>
      </trkpt>
      <trkpt lat="44.4557" lon="6.26512">
        <ele>889</ele>
        <time>2014-06-22T10:25:31.1Z</time>
      </trkpt>
      <trkpt lat="44.45573" lon="6.26508">
        <ele>890</ele>
        <time>2014-06-22T10:25:37.1Z</time>
      </trkpt>
      <trkpt lat="44.45573" lon="6.26505">
        <ele>890</ele>
        <time>2014-06-22T10:25:42.1Z</time>
      </trkpt>
      <trkpt lat="44.45573" lon="6.26502">
        <ele>890</ele>
        <time>2014-06-22T10:25:48.1Z</time>
      </trkpt>
      <trkpt lat="44.45576" lon="6.26497">
        <ele>890</ele>
        <time>2014-06-22T10:25:54.1Z</time>
      </trkpt>
      <trkpt lat="44.45577" lon="6.26495">
        <ele>890</ele>
        <time>2014-06-22T10:25:59.1Z</time>
      </trkpt>
      <trkpt lat="44.45578" lon="6.26497">
        <ele>890</ele>
        <time>2014-06-22T10:26:05.1Z</time>
      </trkpt>
      <trkpt lat="44.45579" lon="6.26497">
        <ele>890</ele>
        <time>2014-06-22T10:26:10.1Z</time>
      </trkpt>
      <trkpt lat="44.45581" lon="6.26497">
        <ele>890</ele>
        <time>2014-06-22T10:26:16.1Z</time>
      </trkpt>
      <trkpt lat="44.45582" lon="6.26498">
        <ele>889</ele>
        <time>2014-06-22T10:26:21.1Z</time>
      </trkpt>
      <trkpt lat="44.45587" lon="6.26498">
        <ele>889</ele>
        <time>2014-06-22T10:26:27.1Z</time>
      </trkpt>
      <trkpt lat="44.45589" lon="6.26496">
        <ele>888</ele>
        <time>2014-06-22T10:26:33.1Z</time>
      </trkpt>
      <trkpt lat="44.45591" lon="6.26493">
        <ele>888</ele>
        <time>2014-06-22T10:26:38.1Z</time>
      </trkpt>
      <trkpt lat="44.45593" lon="6.26489">
        <ele>888</ele>
        <time>2014-06-22T10:26:43.1Z</time>
      </trkpt>
      <trkpt lat="44.45597" lon="6.26484">
        <ele>887</ele>
        <time>2014-06-22T10:26:49.1Z</time>
      </trkpt>
      <trkpt lat="44.45599" lon="6.26479">
        <ele>887</ele>
        <time>2014-06-22T10:26:55.1Z</time>
      </trkpt>
      <trkpt lat="44.456" lon="6.26475">
        <ele>887</ele>
        <time>2014-06-22T10:27:00.1Z</time>
      </trkpt>
      <trkpt lat="44.45603" lon="6.26471">
        <ele>887</ele>
        <time>2014-06-22T10:27:05.1Z</time>
      </trkpt>
      <trkpt lat="44.45605" lon="6.26466">
        <ele>885</ele>
        <time>2014-06-22T10:27:11.1Z</time>
      </trkpt>
      <trkpt lat="44.45607" lon="6.26463">
        <ele>885</ele>
        <time>2014-06-22T10:27:16.1Z</time>
      </trkpt>
      <trkpt lat="44.4561" lon="6.26456">
        <ele>885</ele>
        <time>2014-06-22T10:27:22.1Z</time>
      </trkpt>
      <trkpt lat="44.45611" lon="6.26453">
        <ele>884</ele>
        <time>2014-06-22T10:27:28.1Z</time>
      </trkpt>
      <trkpt lat="44.45615" lon="6.26448">
        <ele>883</ele>
        <time>2014-06-22T10:27:34.1Z</time>
      </trkpt>
      <trkpt lat="44.45617" lon="6.26443">
        <ele>883</ele>
        <time>2014-06-22T10:27:39.1Z</time>
      </trkpt>
      <trkpt lat="44.45621" lon="6.26439">
        <ele>883</ele>
        <time>2014-06-22T10:27:45.1Z</time>
      </trkpt>
      <trkpt lat="44.45624" lon="6.26437">
        <ele>881</ele>
        <time>2014-06-22T10:27:51.1Z</time>
      </trkpt>
      <trkpt lat="44.45628" lon="6.26435">
        <ele>881</ele>
        <time>2014-06-22T10:27:57.1Z</time>
      </trkpt>
      <trkpt lat="44.45628" lon="6.26434">
        <ele>881</ele>
        <time>2014-06-22T10:28:02.1Z</time>
      </trkpt>
      <trkpt lat="44.45631" lon="6.2643">
        <ele>881</ele>
        <time>2014-06-22T10:28:08.1Z</time>
      </trkpt>
      <trkpt lat="44.45633" lon="6.26427">
        <ele>881</ele>
        <time>2014-06-22T10:28:13.1Z</time>
      </trkpt>
      <trkpt lat="44.45633" lon="6.26421">
        <ele>881</ele>
        <time>2014-06-22T10:28:18.1Z</time>
      </trkpt>
      <trkpt lat="44.45636" lon="6.26416">
        <ele>880</ele>
        <time>2014-06-22T10:28:24.1Z</time>
      </trkpt>
      <trkpt lat="44.45638" lon="6.26413">
        <ele>879</ele>
        <time>2014-06-22T10:28:30.1Z</time>
      </trkpt>
      <trkpt lat="44.45641" lon="6.2641">
        <ele>880</ele>
        <time>2014-06-22T10:28:35.1Z</time>
      </trkpt>
      <trkpt lat="44.45646" lon="6.26405">
        <ele>879</ele>
        <time>2014-06-22T10:28:41.1Z</time>
      </trkpt>
      <trkpt lat="44.45648" lon="6.26401">
        <ele>879</ele>
        <time>2014-06-22T10:28:46.1Z</time>
      </trkpt>
      <trkpt lat="44.45651" lon="6.26398">
        <ele>879</ele>
        <time>2014-06-22T10:28:51.1Z</time>
      </trkpt>
      <trkpt lat="44.45653" lon="6.26394">
        <ele>878</ele>
        <time>2014-06-22T10:28:57.1Z</time>
      </trkpt>
      <trkpt lat="44.45653" lon="6.26392">
        <ele>878</ele>
        <time>2014-06-22T10:29:02.1Z</time>
      </trkpt>
      <trkpt lat="44.45655" lon="6.26388">
        <ele>878</ele>
        <time>2014-06-22T10:29:07.1Z</time>
      </trkpt>
      <trkpt lat="44.45659" lon="6.26382">
        <ele>878</ele>
        <time>2014-06-22T10:29:12.1Z</time>
      </trkpt>
      <trkpt lat="44.45661" lon="6.2638">
        <ele>878</ele>
        <time>2014-06-22T10:29:17.1Z</time>
      </trkpt>
      <trkpt lat="44.45661" lon="6.26379">
        <ele>877</ele>
        <time>2014-06-22T10:29:23.1Z</time>
      </trkpt>
      <trkpt lat="44.45661" lon="6.2638">
        <ele>878</ele>
        <time>2014-06-22T10:29:29.1Z</time>
      </trkpt>
      <trkpt lat="44.45663" lon="6.26377">
        <ele>877</ele>
        <time>2014-06-22T10:29:35.1Z</time>
      </trkpt>
      <trkpt lat="44.45667" lon="6.26374">
        <ele>877</ele>
        <time>2014-06-22T10:29:40.1Z</time>
      </trkpt>
      <trkpt lat="44.4567" lon="6.26369">
        <ele>878</ele>
        <time>2014-06-22T10:29:45.1Z</time>
      </trkpt>
      <trkpt lat="44.45672" lon="6.26364">
        <ele>879</ele>
        <time>2014-06-22T10:29:50.1Z</time>
      </trkpt>
      <trkpt lat="44.45676" lon="6.26357">
        <ele>879</ele>
        <time>2014-06-22T10:29:56.1Z</time>
      </trkpt>
      <trkpt lat="44.45679" lon="6.26354">
        <ele>880</ele>
        <time>2014-06-22T10:30:02.1Z</time>
      </trkpt>
      <trkpt lat="44.45682" lon="6.2635">
        <ele>881</ele>
        <time>2014-06-22T10:30:07.1Z</time>
      </trkpt>
      <trkpt lat="44.45686" lon="6.26346">
        <ele>881</ele>
        <time>2014-06-22T10:30:12.1Z</time>
      </trkpt>
      <trkpt lat="44.4569" lon="6.26341">
        <ele>881</ele>
        <time>2014-06-22T10:30:18.1Z</time>
      </trkpt>
      <trkpt lat="44.45693" lon="6.26337">
        <ele>882</ele>
        <time>2014-06-22T10:30:24.1Z</time>
      </trkpt>
      <trkpt lat="44.45694" lon="6.26333">
        <ele>883</ele>
        <time>2014-06-22T10:30:29.1Z</time>
      </trkpt>
      <trkpt lat="44.45698" lon="6.2633">
        <ele>884</ele>
        <time>2014-06-22T10:30:34.1Z</time>
      </trkpt>
      <trkpt lat="44.45703" lon="6.26327">
        <ele>884</ele>
        <time>2014-06-22T10:30:40.1Z</time>
      </trkpt>
      <trkpt lat="44.45707" lon="6.26323">
        <ele>885</ele>
        <time>2014-06-22T10:30:46.1Z</time>
      </trkpt>
      <trkpt lat="44.45712" lon="6.26321">
        <ele>886</ele>
        <time>2014-06-22T10:30:52.1Z</time>
      </trkpt>
      <trkpt lat="44.45715" lon="6.26321">
        <ele>887</ele>
        <time>2014-06-22T10:30:58.1Z</time>
      </trkpt>
      <trkpt lat="44.45719" lon="6.26322">
        <ele>888</ele>
        <time>2014-06-22T10:31:03.1Z</time>
      </trkpt>
      <trkpt lat="44.45721" lon="6.26322">
        <ele>888</ele>
        <time>2014-06-22T10:31:08.1Z</time>
      </trkpt>
      <trkpt lat="44.45721" lon="6.26323">
        <ele>887</ele>
        <time>2014-06-22T10:31:14.1Z</time>
      </trkpt>
      <trkpt lat="44.45722" lon="6.26326">
        <ele>888</ele>
        <time>2014-06-22T10:31:20.1Z</time>
      </trkpt>
      <trkpt lat="44.45723" lon="6.26329">
        <ele>888</ele>
        <time>2014-06-22T10:31:25.1Z</time>
      </trkpt>
      <trkpt lat="44.45723" lon="6.26331">
        <ele>888</ele>
        <time>2014-06-22T10:31:31.1Z</time>
      </trkpt>
      <trkpt lat="44.45723" lon="6.26334">
        <ele>888</ele>
        <time>2014-06-22T10:31:37.1Z</time>
      </trkpt>
      <trkpt lat="44.45725" lon="6.26338">
        <ele>888</ele>
        <time>2014-06-22T10:31:43.1Z</time>
      </trkpt>
      <trkpt lat="44.45724" lon="6.26338">
        <ele>888</ele>
        <time>2014-06-22T10:31:48.1Z</time>
      </trkpt>
      <trkpt lat="44.45725" lon="6.26335">
        <ele>888</ele>
        <time>2014-06-22T10:31:53.1Z</time>
      </trkpt>
      <trkpt lat="44.45729" lon="6.2633">
        <ele>888</ele>
        <time>2014-06-22T10:31:59.1Z</time>
      </trkpt>
      <trkpt lat="44.45732" lon="6.26325">
        <ele>889</ele>
        <time>2014-06-22T10:32:04.1Z</time>
      </trkpt>
      <trkpt lat="44.45735" lon="6.26321">
        <ele>889</ele>
        <time>2014-06-22T10:32:09.1Z</time>
      </trkpt>
      <trkpt lat="44.4574" lon="6.26318">
        <ele>889</ele>
        <time>2014-06-22T10:32:15.1Z</time>
      </trkpt>
      <trkpt lat="44.45745" lon="6.26315">
        <ele>889</ele>
        <time>2014-06-22T10:32:20.1Z</time>
      </trkpt>
      <trkpt lat="44.4575" lon="6.26312">
        <ele>890</ele>
        <time>2014-06-22T10:32:26.1Z</time>
      </trkpt>
      <trkpt lat="44.45754" lon="6.2631">
        <ele>891</ele>
        <time>2014-06-22T10:32:31.1Z</time>
      </trkpt>
      <trkpt lat="44.45759" lon="6.2631">
        <ele>892</ele>
        <time>2014-06-22T10:32:36.1Z</time>
      </trkpt>
      <trkpt lat="44.45763" lon="6.26306">
        <ele>892</ele>
        <time>2014-06-22T10:32:41.1Z</time>
      </trkpt>
      <trkpt lat="44.45768" lon="6.26304">
        <ele>892</ele>
        <time>2014-06-22T10:32:47.1Z</time>
      </trkpt>
      <trkpt lat="44.45773" lon="6.26305">
        <ele>892</ele>
        <time>2014-06-22T10:32:53.1Z</time>
      </trkpt>
      <trkpt lat="44.45776" lon="6.26307">
        <ele>892</ele>
        <time>2014-06-22T10:32:58.1Z</time>
      </trkpt>
      <trkpt lat="44.45778" lon="6.26311">
        <ele>892</ele>
        <time>2014-06-22T10:33:03.1Z</time>
      </trkpt>
      <trkpt lat="44.45781" lon="6.26318">
        <ele>893</ele>
        <time>2014-06-22T10:33:08.1Z</time>
      </trkpt>
      <trkpt lat="44.45785" lon="6.26326">
        <ele>893</ele>
        <time>2014-06-22T10:33:14.1Z</time>
      </trkpt>
      <trkpt lat="44.45789" lon="6.26331">
        <ele>893</ele>
        <time>2014-06-22T10:33:19.1Z</time>
      </trkpt>
      <trkpt lat="44.45792" lon="6.26336">
        <ele>894</ele>
        <time>2014-06-22T10:33:24.1Z</time>
      </trkpt>
      <trkpt lat="44.45796" lon="6.2634">
        <ele>893</ele>
        <time>2014-06-22T10:33:29.1Z</time>
      </trkpt>
      <trkpt lat="44.45801" lon="6.26345">
        <ele>893</ele>
        <time>2014-06-22T10:33:35.1Z</time>
      </trkpt>
      <trkpt lat="44.45806" lon="6.26347">
        <ele>893</ele>
        <time>2014-06-22T10:33:40.1Z</time>
      </trkpt>
      <trkpt lat="44.45813" lon="6.2635">
        <ele>893</ele>
        <time>2014-06-22T10:33:46.1Z</time>
      </trkpt>
      <trkpt lat="44.45817" lon="6.26355">
        <ele>893</ele>
        <time>2014-06-22T10:33:51.1Z</time>
      </trkpt>
      <trkpt lat="44.45821" lon="6.26361">
        <ele>894</ele>
        <time>2014-06-22T10:33:56.1Z</time>
      </trkpt>
      <trkpt lat="44.45827" lon="6.26368">
        <ele>893</ele>
        <time>2014-06-22T10:34:02.1Z</time>
      </trkpt>
      <trkpt lat="44.45831" lon="6.26374">
        <ele>893</ele>
        <time>2014-06-22T10:34:07.1Z</time>
      </trkpt>
      <trkpt lat="44.45837" lon="6.26382">
        <ele>894</ele>
        <time>2014-06-22T10:34:13.1Z</time>
      </trkpt>
      <trkpt lat="44.4584" lon="6.26389">
        <ele>893</ele>
        <time>2014-06-22T10:34:18.1Z</time>
      </trkpt>
      <trkpt lat="44.45845" lon="6.26395">
        <ele>893</ele>
        <time>2014-06-22T10:34:23.1Z</time>
      </trkpt>
      <trkpt lat="44.4585" lon="6.264">
        <ele>894</ele>
        <time>2014-06-22T10:34:28.1Z</time>
      </trkpt>
      <trkpt lat="44.45855" lon="6.26406">
        <ele>894</ele>
        <time>2014-06-22T10:34:33.1Z</time>
      </trkpt>
      <trkpt lat="44.45863" lon="6.26412">
        <ele>894</ele>
        <time>2014-06-22T10:34:39.1Z</time>
      </trkpt>
      <trkpt lat="44.45868" lon="6.26418">
        <ele>894</ele>
        <time>2014-06-22T10:34:44.1Z</time>
      </trkpt>
      <trkpt lat="44.45875" lon="6.26424">
        <ele>894</ele>
        <time>2014-06-22T10:34:50.1Z</time>
      </trkpt>
      <trkpt lat="44.4588" lon="6.26429">
        <ele>894</ele>
        <time>2014-06-22T10:34:55.1Z</time>
      </trkpt>
      <trkpt lat="44.45886" lon="6.26433">
        <ele>894</ele>
        <time>2014-06-22T10:35:00.1Z</time>
      </trkpt>
      <trkpt lat="44.45891" lon="6.26438">
        <ele>894</ele>
        <time>2014-06-22T10:35:05.1Z</time>
      </trkpt>
      <trkpt lat="44.45897" lon="6.26441">
        <ele>895</ele>
        <time>2014-06-22T10:35:11.1Z</time>
      </trkpt>
      <trkpt lat="44.45903" lon="6.26444">
        <ele>895</ele>
        <time>2014-06-22T10:35:16.1Z</time>
      </trkpt>
      <trkpt lat="44.4591" lon="6.26447">
        <ele>895</ele>
        <time>2014-06-22T10:35:22.1Z</time>
      </trkpt>
      <trkpt lat="44.45916" lon="6.26451">
        <ele>896</ele>
        <time>2014-06-22T10:35:27.1Z</time>
      </trkpt>
      <trkpt lat="44.45922" lon="6.26456">
        <ele>896</ele>
        <time>2014-06-22T10:35:33.1Z</time>
      </trkpt>
      <trkpt lat="44.45927" lon="6.2646">
        <ele>897</ele>
        <time>2014-06-22T10:35:38.1Z</time>
      </trkpt>
      <trkpt lat="44.45932" lon="6.26466">
        <ele>897</ele>
        <time>2014-06-22T10:35:44.1Z</time>
      </trkpt>
      <trkpt lat="44.45937" lon="6.26471">
        <ele>898</ele>
        <time>2014-06-22T10:35:49.1Z</time>
      </trkpt>
      <trkpt lat="44.45941" lon="6.26476">
        <ele>898</ele>
        <time>2014-06-22T10:35:54.1Z</time>
      </trkpt>
      <trkpt lat="44.45945" lon="6.26482">
        <ele>898</ele>
        <time>2014-06-22T10:35:59.1Z</time>
      </trkpt>
      <trkpt lat="44.4595" lon="6.26489">
        <ele>899</ele>
        <time>2014-06-22T10:36:05.1Z</time>
      </trkpt>
      <trkpt lat="44.45954" lon="6.26496">
        <ele>900</ele>
        <time>2014-06-22T10:36:10.1Z</time>
      </trkpt>
      <trkpt lat="44.45957" lon="6.26502">
        <ele>899</ele>
        <time>2014-06-22T10:36:15.1Z</time>
      </trkpt>
      <trkpt lat="44.45961" lon="6.26508">
        <ele>900</ele>
        <time>2014-06-22T10:36:20.1Z</time>
      </trkpt>
      <trkpt lat="44.45966" lon="6.26515">
        <ele>900</ele>
        <time>2014-06-22T10:36:26.1Z</time>
      </trkpt>
      <trkpt lat="44.45972" lon="6.26516">
        <ele>901</ele>
        <time>2014-06-22T10:36:31.1Z</time>
      </trkpt>
      <trkpt lat="44.4598" lon="6.26514">
        <ele>901</ele>
        <time>2014-06-22T10:36:37.1Z</time>
      </trkpt>
      <trkpt lat="44.45985" lon="6.2651">
        <ele>901</ele>
        <time>2014-06-22T10:36:42.1Z</time>
      </trkpt>
      <trkpt lat="44.45991" lon="6.26508">
        <ele>902</ele>
        <time>2014-06-22T10:36:47.1Z</time>
      </trkpt>
      <trkpt lat="44.45998" lon="6.26509">
        <ele>902</ele>
        <time>2014-06-22T10:36:53.1Z</time>
      </trkpt>
      <trkpt lat="44.46004" lon="6.26514">
        <ele>902</ele>
        <time>2014-06-22T10:36:59.1Z</time>
      </trkpt>
      <trkpt lat="44.46008" lon="6.26519">
        <ele>902</ele>
        <time>2014-06-22T10:37:04.1Z</time>
      </trkpt>
      <trkpt lat="44.46014" lon="6.26526">
        <ele>903</ele>
        <time>2014-06-22T10:37:10.1Z</time>
      </trkpt>
      <trkpt lat="44.46017" lon="6.26532">
        <ele>903</ele>
        <time>2014-06-22T10:37:15.1Z</time>
      </trkpt>
      <trkpt lat="44.4602" lon="6.2654">
        <ele>903</ele>
        <time>2014-06-22T10:37:20.1Z</time>
      </trkpt>
      <trkpt lat="44.46023" lon="6.2655">
        <ele>904</ele>
        <time>2014-06-22T10:37:26.1Z</time>
      </trkpt>
      <trkpt lat="44.46024" lon="6.26558">
        <ele>903</ele>
        <time>2014-06-22T10:37:31.1Z</time>
      </trkpt>
      <trkpt lat="44.46027" lon="6.26565">
        <ele>904</ele>
        <time>2014-06-22T10:37:36.1Z</time>
      </trkpt>
      <trkpt lat="44.46031" lon="6.26574">
        <ele>904</ele>
        <time>2014-06-22T10:37:42.1Z</time>
      </trkpt>
      <trkpt lat="44.46034" lon="6.26581">
        <ele>905</ele>
        <time>2014-06-22T10:37:47.1Z</time>
      </trkpt>
      <trkpt lat="44.46037" lon="6.2659">
        <ele>905</ele>
        <time>2014-06-22T10:37:53.1Z</time>
      </trkpt>
      <trkpt lat="44.4604" lon="6.26598">
        <ele>905</ele>
        <time>2014-06-22T10:37:58.1Z</time>
      </trkpt>
      <trkpt lat="44.46043" lon="6.26607">
        <ele>906</ele>
        <time>2014-06-22T10:38:04.1Z</time>
      </trkpt>
      <trkpt lat="44.46047" lon="6.26616">
        <ele>907</ele>
        <time>2014-06-22T10:38:10.1Z</time>
      </trkpt>
      <trkpt lat="44.46051" lon="6.26625">
        <ele>907</ele>
        <time>2014-06-22T10:38:16.1Z</time>
      </trkpt>
      <trkpt lat="44.46054" lon="6.26634">
        <ele>907</ele>
        <time>2014-06-22T10:38:22.1Z</time>
      </trkpt>
      <trkpt lat="44.46059" lon="6.26642">
        <ele>909</ele>
        <time>2014-06-22T10:38:28.1Z</time>
      </trkpt>
      <trkpt lat="44.46062" lon="6.26649">
        <ele>908</ele>
        <time>2014-06-22T10:38:33.1Z</time>
      </trkpt>
      <trkpt lat="44.46067" lon="6.26655">
        <ele>909</ele>
        <time>2014-06-22T10:38:39.1Z</time>
      </trkpt>
      <trkpt lat="44.4607" lon="6.26663">
        <ele>909</ele>
        <time>2014-06-22T10:38:44.1Z</time>
      </trkpt>
      <trkpt lat="44.46074" lon="6.26672">
        <ele>910</ele>
        <time>2014-06-22T10:38:50.1Z</time>
      </trkpt>
      <trkpt lat="44.46077" lon="6.26678">
        <ele>911</ele>
        <time>2014-06-22T10:38:55.1Z</time>
      </trkpt>
      <trkpt lat="44.46079" lon="6.26686">
        <ele>911</ele>
        <time>2014-06-22T10:39:00.1Z</time>
      </trkpt>
      <trkpt lat="44.4608" lon="6.26694">
        <ele>911</ele>
        <time>2014-06-22T10:39:06.1Z</time>
      </trkpt>
      <trkpt lat="44.46082" lon="6.26701">
        <ele>912</ele>
        <time>2014-06-22T10:39:11.1Z</time>
      </trkpt>
      <trkpt lat="44.46085" lon="6.26707">
        <ele>912</ele>
        <time>2014-06-22T10:39:16.1Z</time>
      </trkpt>
      <trkpt lat="44.46087" lon="6.26717">
        <ele>913</ele>
        <time>2014-06-22T10:39:22.1Z</time>
      </trkpt>
      <trkpt lat="44.46089" lon="6.26725">
        <ele>913</ele>
        <time>2014-06-22T10:39:28.1Z</time>
      </trkpt>
      <trkpt lat="44.46091" lon="6.26734">
        <ele>913</ele>
        <time>2014-06-22T10:39:34.1Z</time>
      </trkpt>
      <trkpt lat="44.46094" lon="6.26743">
        <ele>914</ele>
        <time>2014-06-22T10:39:40.1Z</time>
      </trkpt>
      <trkpt lat="44.46096" lon="6.2675">
        <ele>914</ele>
        <time>2014-06-22T10:39:45.1Z</time>
      </trkpt>
      <trkpt lat="44.46097" lon="6.26758">
        <ele>914</ele>
        <time>2014-06-22T10:39:50.1Z</time>
      </trkpt>
      <trkpt lat="44.46097" lon="6.26765">
        <ele>914</ele>
        <time>2014-06-22T10:39:55.1Z</time>
      </trkpt>
      <trkpt lat="44.46098" lon="6.26774">
        <ele>914</ele>
        <time>2014-06-22T10:40:01.1Z</time>
      </trkpt>
      <trkpt lat="44.46099" lon="6.26783">
        <ele>914</ele>
        <time>2014-06-22T10:40:07.1Z</time>
      </trkpt>
      <trkpt lat="44.46099" lon="6.26793">
        <ele>914</ele>
        <time>2014-06-22T10:40:13.1Z</time>
      </trkpt>
      <trkpt lat="44.46097" lon="6.26803">
        <ele>913</ele>
        <time>2014-06-22T10:40:18.1Z</time>
      </trkpt>
      <trkpt lat="44.46092" lon="6.26813">
        <ele>913</ele>
        <time>2014-06-22T10:40:24.1Z</time>
      </trkpt>
      <trkpt lat="44.46086" lon="6.26823">
        <ele>912</ele>
        <time>2014-06-22T10:40:30.1Z</time>
      </trkpt>
      <trkpt lat="44.4608" lon="6.26831">
        <ele>912</ele>
        <time>2014-06-22T10:40:35.1Z</time>
      </trkpt>
      <trkpt lat="44.46073" lon="6.26838">
        <ele>911</ele>
        <time>2014-06-22T10:40:40.1Z</time>
      </trkpt>
      <trkpt lat="44.46067" lon="6.2684">
        <ele>911</ele>
        <time>2014-06-22T10:40:45.1Z</time>
      </trkpt>
      <trkpt lat="44.46061" lon="6.26841">
        <ele>911</ele>
        <time>2014-06-22T10:40:50.1Z</time>
      </trkpt>
      <trkpt lat="44.46055" lon="6.26845">
        <ele>911</ele>
        <time>2014-06-22T10:40:56.1Z</time>
      </trkpt>
      <trkpt lat="44.46051" lon="6.26847">
        <ele>910</ele>
        <time>2014-06-22T10:41:02.1Z</time>
      </trkpt>
      <trkpt lat="44.46049" lon="6.26855">
        <ele>909</ele>
        <time>2014-06-22T10:41:07.1Z</time>
      </trkpt>
      <trkpt lat="44.4605" lon="6.26864">
        <ele>909</ele>
        <time>2014-06-22T10:41:13.1Z</time>
      </trkpt>
      <trkpt lat="44.46051" lon="6.26875">
        <ele>910</ele>
        <time>2014-06-22T10:41:19.1Z</time>
      </trkpt>
      <trkpt lat="44.46052" lon="6.26884">
        <ele>910</ele>
        <time>2014-06-22T10:41:25.1Z</time>
      </trkpt>
      <trkpt lat="44.46055" lon="6.26891">
        <ele>911</ele>
        <time>2014-06-22T10:41:30.1Z</time>
      </trkpt>
      <trkpt lat="44.4606" lon="6.26898">
        <ele>911</ele>
        <time>2014-06-22T10:41:36.1Z</time>
      </trkpt>
      <trkpt lat="44.46063" lon="6.26903">
        <ele>911</ele>
        <time>2014-06-22T10:41:41.1Z</time>
      </trkpt>
      <trkpt lat="44.46068" lon="6.26909">
        <ele>912</ele>
        <time>2014-06-22T10:41:47.1Z</time>
      </trkpt>
      <trkpt lat="44.46072" lon="6.26913">
        <ele>912</ele>
        <time>2014-06-22T10:41:52.1Z</time>
      </trkpt>
      <trkpt lat="44.46077" lon="6.26918">
        <ele>912</ele>
        <time>2014-06-22T10:41:57.1Z</time>
      </trkpt>
      <trkpt lat="44.46083" lon="6.26923">
        <ele>912</ele>
        <time>2014-06-22T10:42:03.1Z</time>
      </trkpt>
      <trkpt lat="44.46088" lon="6.26929">
        <ele>912</ele>
        <time>2014-06-22T10:42:09.1Z</time>
      </trkpt>
      <trkpt lat="44.46094" lon="6.26935">
        <ele>912</ele>
        <time>2014-06-22T10:42:14.1Z</time>
      </trkpt>
      <trkpt lat="44.46101" lon="6.26942">
        <ele>912</ele>
        <time>2014-06-22T10:42:20.1Z</time>
      </trkpt>
      <trkpt lat="44.46106" lon="6.26946">
        <ele>912</ele>
        <time>2014-06-22T10:42:25.1Z</time>
      </trkpt>
      <trkpt lat="44.46106" lon="6.26952">
        <ele>911</ele>
        <time>2014-06-22T10:42:30.1Z</time>
      </trkpt>
      <trkpt lat="44.46108" lon="6.2696">
        <ele>911</ele>
        <time>2014-06-22T10:42:36.1Z</time>
      </trkpt>
      <trkpt lat="44.46109" lon="6.26966">
        <ele>910</ele>
        <time>2014-06-22T10:42:42.1Z</time>
      </trkpt>
      <trkpt lat="44.46109" lon="6.26972">
        <ele>909</ele>
        <time>2014-06-22T10:42:47.1Z</time>
      </trkpt>
      <trkpt lat="44.46108" lon="6.26979">
        <ele>909</ele>
        <time>2014-06-22T10:42:53.1Z</time>
      </trkpt>
      <trkpt lat="44.46109" lon="6.26986">
        <ele>908</ele>
        <time>2014-06-22T10:42:58.1Z</time>
      </trkpt>
      <trkpt lat="44.4611" lon="6.26993">
        <ele>908</ele>
        <time>2014-06-22T10:43:03.1Z</time>
      </trkpt>
      <trkpt lat="44.46111" lon="6.27">
        <ele>907</ele>
        <time>2014-06-22T10:43:09.1Z</time>
      </trkpt>
      <trkpt lat="44.46111" lon="6.27005">
        <ele>907</ele>
        <time>2014-06-22T10:43:14.1Z</time>
      </trkpt>
      <trkpt lat="44.4611" lon="6.27011">
        <ele>907</ele>
        <time>2014-06-22T10:43:20.1Z</time>
      </trkpt>
      <trkpt lat="44.46109" lon="6.27022">
        <ele>906</ele>
        <time>2014-06-22T10:43:26.1Z</time>
      </trkpt>
      <trkpt lat="44.46107" lon="6.27031">
        <ele>906</ele>
        <time>2014-06-22T10:43:32.1Z</time>
      </trkpt>
      <trkpt lat="44.46106" lon="6.27039">
        <ele>906</ele>
        <time>2014-06-22T10:43:37.1Z</time>
      </trkpt>
      <trkpt lat="44.46105" lon="6.27048">
        <ele>906</ele>
        <time>2014-06-22T10:43:43.1Z</time>
      </trkpt>
      <trkpt lat="44.46104" lon="6.27058">
        <ele>907</ele>
        <time>2014-06-22T10:43:49.1Z</time>
      </trkpt>
      <trkpt lat="44.46104" lon="6.27064">
        <ele>908</ele>
        <time>2014-06-22T10:43:54.1Z</time>
      </trkpt>
      <trkpt lat="44.46101" lon="6.27072">
        <ele>909</ele>
        <time>2014-06-22T10:44:00.1Z</time>
      </trkpt>
      <trkpt lat="44.46098" lon="6.27077">
        <ele>909</ele>
        <time>2014-06-22T10:44:05.1Z</time>
      </trkpt>
      <trkpt lat="44.46093" lon="6.27083">
        <ele>910</ele>
        <time>2014-06-22T10:44:11.1Z</time>
      </trkpt>
      <trkpt lat="44.46088" lon="6.27086">
        <ele>910</ele>
        <time>2014-06-22T10:44:16.1Z</time>
      </trkpt>
      <trkpt lat="44.46083" lon="6.27088">
        <ele>910</ele>
        <time>2014-06-22T10:44:22.1Z</time>
      </trkpt>
      <trkpt lat="44.46079" lon="6.27086">
        <ele>912</ele>
        <time>2014-06-22T10:44:27.1Z</time>
      </trkpt>
      <trkpt lat="44.46076" lon="6.27084">
        <ele>912</ele>
        <time>2014-06-22T10:44:32.1Z</time>
      </trkpt>
      <trkpt lat="44.46072" lon="6.27082">
        <ele>912</ele>
        <time>2014-06-22T10:44:38.1Z</time>
      </trkpt>
      <trkpt lat="44.46071" lon="6.27083">
        <ele>912</ele>
        <time>2014-06-22T10:44:44.1Z</time>
      </trkpt>
      <trkpt lat="44.4607" lon="6.27083">
        <ele>912</ele>
        <time>2014-06-22T10:44:49.1Z</time>
      </trkpt>
      <trkpt lat="44.46069" lon="6.27085">
        <ele>912</ele>
        <time>2014-06-22T10:44:55.1Z</time>
      </trkpt>
      <trkpt lat="44.46069" lon="6.27086">
        <ele>912</ele>
        <time>2014-06-22T10:45:00.1Z</time>
      </trkpt>
      <trkpt lat="44.46068" lon="6.27088">
        <ele>912</ele>
        <time>2014-06-22T10:45:06.1Z</time>
      </trkpt>
      <trkpt lat="44.46069" lon="6.27087">
        <ele>912</ele>
        <time>2014-06-22T10:45:12.1Z</time>
      </trkpt>
      <trkpt lat="44.46069" lon="6.27088">
        <ele>912</ele>
        <time>2014-06-22T10:45:17.1Z</time>
      </trkpt>
      <trkpt lat="44.46068" lon="6.27088">
        <ele>912</ele>
        <time>2014-06-22T10:45:22.1Z</time>
      </trkpt>
      <trkpt lat="44.46069" lon="6.27088">
        <ele>911</ele>
        <time>2014-06-22T10:45:29.1Z</time>
      </trkpt>
      <trkpt lat="44.46069" lon="6.27088">
        <ele>911</ele>
        <time>2014-06-22T10:45:34.1Z</time>
      </trkpt>
      <trkpt lat="44.46068" lon="6.27088">
        <ele>911</ele>
        <time>2014-06-22T10:45:39.1Z</time>
      </trkpt>
      <trkpt lat="44.46068" lon="6.2709">
        <ele>911</ele>
        <time>2014-06-22T10:45:44.1Z</time>
      </trkpt>
      <trkpt lat="44.46068" lon="6.27089">
        <ele>911</ele>
        <time>2014-06-22T10:45:51.1Z</time>
      </trkpt>
      <trkpt lat="44.46068" lon="6.27089">
        <ele>911</ele>
        <time>2014-06-22T10:45:57.1Z</time>
      </trkpt>
      <trkpt lat="44.46067" lon="6.2709">
        <ele>911</ele>
        <time>2014-06-22T10:46:02.1Z</time>
      </trkpt>
      <trkpt lat="44.46067" lon="6.2709">
        <ele>911</ele>
        <time>2014-06-22T10:46:08.1Z</time>
      </trkpt>
      <trkpt lat="44.46067" lon="6.27089">
        <ele>911</ele>
        <time>2014-06-22T10:46:13.1Z</time>
      </trkpt>
      <trkpt lat="44.46067" lon="6.2709">
        <ele>911</ele>
        <time>2014-06-22T10:46:19.1Z</time>
      </trkpt>
      <trkpt lat="44.46068" lon="6.27089">
        <ele>911</ele>
        <time>2014-06-22T10:46:24.1Z</time>
      </trkpt>
      <trkpt lat="44.46069" lon="6.27089">
        <ele>911</ele>
        <time>2014-06-22T10:46:29.1Z</time>
      </trkpt>
      <trkpt lat="44.4607" lon="6.27088">
        <ele>911</ele>
        <time>2014-06-22T10:46:35.1Z</time>
      </trkpt>
      <trkpt lat="44.46071" lon="6.27088">
        <ele>911</ele>
        <time>2014-06-22T10:46:40.1Z</time>
      </trkpt>
      <trkpt lat="44.46072" lon="6.27088">
        <ele>911</ele>
        <time>2014-06-22T10:46:46.1Z</time>
      </trkpt>
      <trkpt lat="44.46072" lon="6.27088">
        <ele>911</ele>
        <time>2014-06-22T10:46:51.1Z</time>
      </trkpt>
      <trkpt lat="44.46073" lon="6.27089">
        <ele>911</ele>
        <time>2014-06-22T10:46:57.1Z</time>
      </trkpt>
      <trkpt lat="44.46072" lon="6.27088">
        <ele>911</ele>
        <time>2014-06-22T10:47:02.1Z</time>
      </trkpt>
      <trkpt lat="44.46072" lon="6.27088">
        <ele>911</ele>
        <time>2014-06-22T10:47:09.1Z</time>
      </trkpt>
      <trkpt lat="44.46074" lon="6.27087">
        <ele>911</ele>
        <time>2014-06-22T10:47:14.1Z</time>
      </trkpt>
      <trkpt lat="44.46073" lon="6.27086">
        <ele>911</ele>
        <time>2014-06-22T10:47:20.1Z</time>
      </trkpt>
      <trkpt lat="44.46073" lon="6.27086">
        <ele>911</ele>
        <time>2014-06-22T10:47:26.1Z</time>
      </trkpt>
      <trkpt lat="44.46072" lon="6.27086">
        <ele>911</ele>
        <time>2014-06-22T10:47:31.1Z</time>
      </trkpt>
      <trkpt lat="44.46071" lon="6.27085">
        <ele>911</ele>
        <time>2014-06-22T10:47:37.1Z</time>
      </trkpt>
      <trkpt lat="44.46069" lon="6.27083">
        <ele>911</ele>
        <time>2014-06-22T10:47:42.1Z</time>
      </trkpt>
      <trkpt lat="44.46069" lon="6.27084">
        <ele>911</ele>
        <time>2014-06-22T10:47:47.1Z</time>
      </trkpt>
      <trkpt lat="44.46068" lon="6.27084">
        <ele>911</ele>
        <time>2014-06-22T10:47:53.1Z</time>
      </trkpt>
      <trkpt lat="44.46067" lon="6.27082">
        <ele>911</ele>
        <time>2014-06-22T10:47:59.1Z</time>
      </trkpt>
      <trkpt lat="44.46066" lon="6.2708">
        <ele>911</ele>
        <time>2014-06-22T10:48:04.1Z</time>
      </trkpt>
      <trkpt lat="44.46065" lon="6.27077">
        <ele>911</ele>
        <time>2014-06-22T10:48:09.1Z</time>
      </trkpt>
      <trkpt lat="44.46064" lon="6.27075">
        <ele>911</ele>
        <time>2014-06-22T10:48:15.1Z</time>
      </trkpt>
      <trkpt lat="44.46063" lon="6.27074">
        <ele>911</ele>
        <time>2014-06-22T10:48:20.1Z</time>
      </trkpt>
      <trkpt lat="44.46063" lon="6.27074">
        <ele>911</ele>
        <time>2014-06-22T10:48:27.1Z</time>
      </trkpt>
      <trkpt lat="44.46064" lon="6.27078">
        <ele>911</ele>
        <time>2014-06-22T10:48:32.1Z</time>
      </trkpt>
      <trkpt lat="44.46063" lon="6.27078">
        <ele>911</ele>
        <time>2014-06-22T10:48:38.1Z</time>
      </trkpt>
      <trkpt lat="44.46063" lon="6.27078">
        <ele>911</ele>
        <time>2014-06-22T10:48:43.1Z</time>
      </trkpt>
      <trkpt lat="44.46062" lon="6.27077">
        <ele>911</ele>
        <time>2014-06-22T10:48:48.1Z</time>
      </trkpt>
      <trkpt lat="44.46062" lon="6.27077">
        <ele>911</ele>
        <time>2014-06-22T10:48:53.1Z</time>
      </trkpt>
      <trkpt lat="44.46062" lon="6.27077">
        <ele>911</ele>
        <time>2014-06-22T10:48:58.1Z</time>
      </trkpt>
      <trkpt lat="44.46063" lon="6.27078">
        <ele>912</ele>
        <time>2014-06-22T10:49:06.1Z</time>
      </trkpt>
      <trkpt lat="44.46064" lon="6.27079">
        <ele>911</ele>
        <time>2014-06-22T10:49:12.1Z</time>
      </trkpt>
      <trkpt lat="44.46064" lon="6.2708">
        <ele>911</ele>
        <time>2014-06-22T10:49:18.1Z</time>
      </trkpt>
      <trkpt lat="44.46064" lon="6.27082">
        <ele>912</ele>
        <time>2014-06-22T10:49:24.1Z</time>
      </trkpt>
      <trkpt lat="44.46064" lon="6.27083">
        <ele>911</ele>
        <time>2014-06-22T10:49:29.1Z</time>
      </trkpt>
      <trkpt lat="44.46066" lon="6.27084">
        <ele>911</ele>
        <time>2014-06-22T10:49:35.1Z</time>
      </trkpt>
      <trkpt lat="44.46066" lon="6.27084">
        <ele>911</ele>
        <time>2014-06-22T10:49:40.1Z</time>
      </trkpt>
      <trkpt lat="44.46067" lon="6.27083">
        <ele>911</ele>
        <time>2014-06-22T10:49:46.1Z</time>
      </trkpt>
      <trkpt lat="44.46067" lon="6.27083">
        <ele>911</ele>
        <time>2014-06-22T10:49:51.1Z</time>
      </trkpt>
      <trkpt lat="44.46067" lon="6.27083">
        <ele>911</ele>
        <time>2014-06-22T10:49:57.1Z</time>
      </trkpt>
      <trkpt lat="44.46068" lon="6.27084">
        <ele>911</ele>
        <time>2014-06-22T10:50:02.1Z</time>
      </trkpt>
      <trkpt lat="44.46068" lon="6.27085">
        <ele>911</ele>
        <time>2014-06-22T10:50:07.1Z</time>
      </trkpt>
      <trkpt lat="44.46068" lon="6.27084">
        <ele>911</ele>
        <time>2014-06-22T10:50:13.1Z</time>
      </trkpt>
      <trkpt lat="44.46068" lon="6.27085">
        <ele>911</ele>
        <time>2014-06-22T10:50:19.1Z</time>
      </trkpt>
      <trkpt lat="44.46068" lon="6.27086">
        <ele>911</ele>
        <time>2014-06-22T10:50:26.1Z</time>
      </trkpt>
      <trkpt lat="44.46068" lon="6.27086">
        <ele>911</ele>
        <time>2014-06-22T10:50:33.1Z</time>
      </trkpt>
      <trkpt lat="44.46067" lon="6.27086">
        <ele>911</ele>
        <time>2014-06-22T10:50:39.1Z</time>
      </trkpt>
      <trkpt lat="44.46067" lon="6.27085">
        <ele>911</ele>
        <time>2014-06-22T10:50:44.1Z</time>
      </trkpt>
      <trkpt lat="44.46066" lon="6.27084">
        <ele>911</ele>
        <time>2014-06-22T10:50:50.1Z</time>
      </trkpt>
      <trkpt lat="44.46066" lon="6.27084">
        <ele>911</ele>
        <time>2014-06-22T10:50:55.1Z</time>
      </trkpt>
      <trkpt lat="44.46065" lon="6.27082">
        <ele>911</ele>
        <time>2014-06-22T10:51:01.1Z</time>
      </trkpt>
      <trkpt lat="44.46065" lon="6.27081">
        <ele>911</ele>
        <time>2014-06-22T10:51:06.1Z</time>
      </trkpt>
      <trkpt lat="44.46065" lon="6.27081">
        <ele>911</ele>
        <time>2014-06-22T10:51:12.1Z</time>
      </trkpt>
      <trkpt lat="44.46064" lon="6.2708">
        <ele>911</ele>
        <time>2014-06-22T10:51:17.1Z</time>
      </trkpt>
      <trkpt lat="44.46064" lon="6.27079">
        <ele>911</ele>
        <time>2014-06-22T10:51:22.1Z</time>
      </trkpt>
      <trkpt lat="44.46064" lon="6.27079">
        <ele>911</ele>
        <time>2014-06-22T10:51:28.1Z</time>
      </trkpt>
      <trkpt lat="44.46064" lon="6.27078">
        <ele>911</ele>
        <time>2014-06-22T10:51:34.1Z</time>
      </trkpt>
      <trkpt lat="44.46064" lon="6.27078">
        <ele>911</ele>
        <time>2014-06-22T10:51:40.1Z</time>
      </trkpt>
      <trkpt lat="44.46063" lon="6.27078">
        <ele>911</ele>
        <time>2014-06-22T10:51:46.1Z</time>
      </trkpt>
      <trkpt lat="44.46063" lon="6.27077">
        <ele>911</ele>
        <time>2014-06-22T10:51:53.1Z</time>
      </trkpt>
      <trkpt lat="44.46063" lon="6.27078">
        <ele>911</ele>
        <time>2014-06-22T10:51:58.1Z</time>
      </trkpt>
      <trkpt lat="44.46064" lon="6.27079">
        <ele>911</ele>
        <time>2014-06-22T10:52:04.1Z</time>
      </trkpt>
      <trkpt lat="44.46064" lon="6.2708">
        <ele>911</ele>
        <time>2014-06-22T10:52:09.1Z</time>
      </trkpt>
      <trkpt lat="44.46064" lon="6.27079">
        <ele>911</ele>
        <time>2014-06-22T10:52:15.1Z</time>
      </trkpt>
      <trkpt lat="44.46064" lon="6.27079">
        <ele>911</ele>
        <time>2014-06-22T10:52:21.1Z</time>
      </trkpt>
      <trkpt lat="44.46064" lon="6.27079">
        <ele>911</ele>
        <time>2014-06-22T10:52:26.1Z</time>
      </trkpt>
      <trkpt lat="44.46064" lon="6.27079">
        <ele>911</ele>
        <time>2014-06-22T10:52:32.1Z</time>
      </trkpt>
      <trkpt lat="44.46064" lon="6.27079">
        <ele>911</ele>
        <time>2014-06-22T10:52:39.1Z</time>
      </trkpt>
      <trkpt lat="44.46064" lon="6.27078">
        <ele>911</ele>
        <time>2014-06-22T10:52:44.1Z</time>
      </trkpt>
      <trkpt lat="44.46063" lon="6.27078">
        <ele>911</ele>
        <time>2014-06-22T10:52:49.1Z</time>
      </trkpt>
      <trkpt lat="44.46063" lon="6.27077">
        <ele>911</ele>
        <time>2014-06-22T10:52:54.1Z</time>
      </trkpt>
      <trkpt lat="44.46063" lon="6.27078">
        <ele>912</ele>
        <time>2014-06-22T10:53:00.1Z</time>
      </trkpt>
      <trkpt lat="44.46063" lon="6.27079">
        <ele>911</ele>
        <time>2014-06-22T10:53:05.1Z</time>
      </trkpt>
      <trkpt lat="44.46064" lon="6.27082">
        <ele>912</ele>
        <time>2014-06-22T10:53:11.1Z</time>
      </trkpt>
      <trkpt lat="44.46065" lon="6.27084">
        <ele>912</ele>
        <time>2014-06-22T10:53:17.1Z</time>
      </trkpt>
      <trkpt lat="44.46066" lon="6.27086">
        <ele>911</ele>
        <time>2014-06-22T10:53:23.1Z</time>
      </trkpt>
      <trkpt lat="44.46066" lon="6.27087">
        <ele>911</ele>
        <time>2014-06-22T10:53:28.1Z</time>
      </trkpt>
      <trkpt lat="44.46066" lon="6.27089">
        <ele>911</ele>
        <time>2014-06-22T10:53:33.1Z</time>
      </trkpt>
      <trkpt lat="44.46067" lon="6.2709">
        <ele>911</ele>
        <time>2014-06-22T10:53:39.1Z</time>
      </trkpt>
      <trkpt lat="44.46067" lon="6.27091">
        <ele>911</ele>
        <time>2014-06-22T10:53:44.1Z</time>
      </trkpt>
      <trkpt lat="44.46067" lon="6.27092">
        <ele>911</ele>
        <time>2014-06-22T10:53:50.1Z</time>
      </trkpt>
      <trkpt lat="44.46068" lon="6.27092">
        <ele>911</ele>
        <time>2014-06-22T10:53:55.1Z</time>
      </trkpt>
      <trkpt lat="44.46068" lon="6.27091">
        <ele>911</ele>
        <time>2014-06-22T10:54:01.1Z</time>
      </trkpt>
      <trkpt lat="44.46068" lon="6.2709">
        <ele>911</ele>
        <time>2014-06-22T10:54:07.1Z</time>
      </trkpt>
      <trkpt lat="44.46068" lon="6.27088">
        <ele>911</ele>
        <time>2014-06-22T10:54:13.1Z</time>
      </trkpt>
      <trkpt lat="44.46068" lon="6.27088">
        <ele>911</ele>
        <time>2014-06-22T10:54:18.1Z</time>
      </trkpt>
      <trkpt lat="44.46068" lon="6.27088">
        <ele>911</ele>
        <time>2014-06-22T10:54:25.1Z</time>
      </trkpt>
      <trkpt lat="44.46068" lon="6.27087">
        <ele>911</ele>
        <time>2014-06-22T10:54:30.1Z</time>
      </trkpt>
      <trkpt lat="44.46067" lon="6.27087">
        <ele>911</ele>
        <time>2014-06-22T10:54:35.1Z</time>
      </trkpt>
      <trkpt lat="44.46067" lon="6.27086">
        <ele>911</ele>
        <time>2014-06-22T10:54:41.1Z</time>
      </trkpt>
      <trkpt lat="44.46067" lon="6.27086">
        <ele>911</ele>
        <time>2014-06-22T10:54:46.1Z</time>
      </trkpt>
      <trkpt lat="44.46067" lon="6.27085">
        <ele>911</ele>
        <time>2014-06-22T10:54:52.1Z</time>
      </trkpt>
      <trkpt lat="44.46066" lon="6.27085">
        <ele>911</ele>
        <time>2014-06-22T10:54:57.1Z</time>
      </trkpt>
      <trkpt lat="44.46066" lon="6.27083">
        <ele>911</ele>
        <time>2014-06-22T10:55:03.1Z</time>
      </trkpt>
      <trkpt lat="44.46066" lon="6.27082">
        <ele>912</ele>
        <time>2014-06-22T10:55:09.1Z</time>
      </trkpt>
      <trkpt lat="44.46066" lon="6.2708">
        <ele>911</ele>
        <time>2014-06-22T10:55:15.1Z</time>
      </trkpt>
      <trkpt lat="44.46066" lon="6.2708">
        <ele>911</ele>
        <time>2014-06-22T10:55:20.1Z</time>
      </trkpt>
      <trkpt lat="44.46067" lon="6.2708">
        <ele>911</ele>
        <time>2014-06-22T10:55:26.1Z</time>
      </trkpt>
      <trkpt lat="44.46068" lon="6.27081">
        <ele>911</ele>
        <time>2014-06-22T10:55:31.1Z</time>
      </trkpt>
      <trkpt lat="44.46069" lon="6.27082">
        <ele>911</ele>
        <time>2014-06-22T10:55:37.1Z</time>
      </trkpt>
      <trkpt lat="44.46069" lon="6.27083">
        <ele>911</ele>
        <time>2014-06-22T10:55:42.1Z</time>
      </trkpt>
      <trkpt lat="44.46069" lon="6.27084">
        <ele>911</ele>
        <time>2014-06-22T10:55:47.1Z</time>
      </trkpt>
      <trkpt lat="44.46069" lon="6.27085">
        <ele>911</ele>
        <time>2014-06-22T10:55:53.1Z</time>
      </trkpt>
      <trkpt lat="44.46069" lon="6.27085">
        <ele>912</ele>
        <time>2014-06-22T10:55:58.1Z</time>
      </trkpt>
      <trkpt lat="44.46068" lon="6.27085">
        <ele>911</ele>
        <time>2014-06-22T10:56:03.1Z</time>
      </trkpt>
      <trkpt lat="44.46068" lon="6.27084">
        <ele>912</ele>
        <time>2014-06-22T10:56:08.1Z</time>
      </trkpt>
      <trkpt lat="44.46067" lon="6.27084">
        <ele>911</ele>
        <time>2014-06-22T10:56:13.1Z</time>
      </trkpt>
      <trkpt lat="44.46067" lon="6.27082">
        <ele>911</ele>
        <time>2014-06-22T10:56:19.1Z</time>
      </trkpt>
      <trkpt lat="44.46067" lon="6.27081">
        <ele>912</ele>
        <time>2014-06-22T10:56:24.1Z</time>
      </trkpt>
      <trkpt lat="44.46067" lon="6.27081">
        <ele>912</ele>
        <time>2014-06-22T10:56:30.1Z</time>
      </trkpt>
      <trkpt lat="44.46068" lon="6.27081">
        <ele>911</ele>
        <time>2014-06-22T10:56:35.1Z</time>
      </trkpt>
      <trkpt lat="44.46068" lon="6.27082">
        <ele>912</ele>
        <time>2014-06-22T10:56:41.1Z</time>
      </trkpt>
      <trkpt lat="44.46068" lon="6.27082">
        <ele>912</ele>
        <time>2014-06-22T10:56:47.1Z</time>
      </trkpt>
      <trkpt lat="44.46069" lon="6.27083">
        <ele>912</ele>
        <time>2014-06-22T10:56:53.1Z</time>
      </trkpt>
      <trkpt lat="44.46069" lon="6.27084">
        <ele>911</ele>
        <time>2014-06-22T10:56:59.1Z</time>
      </trkpt>
      <trkpt lat="44.46069" lon="6.27084">
        <ele>912</ele>
        <time>2014-06-22T10:57:04.1Z</time>
      </trkpt>
      <trkpt lat="44.46069" lon="6.27084">
        <ele>912</ele>
        <time>2014-06-22T10:57:09.1Z</time>
      </trkpt>
      <trkpt lat="44.4607" lon="6.27084">
        <ele>912</ele>
        <time>2014-06-22T10:57:15.1Z</time>
      </trkpt>
      <trkpt lat="44.4607" lon="6.27084">
        <ele>912</ele>
        <time>2014-06-22T10:57:21.1Z</time>
      </trkpt>
      <trkpt lat="44.4607" lon="6.27084">
        <ele>912</ele>
        <time>2014-06-22T10:57:26.1Z</time>
      </trkpt>
      <trkpt lat="44.4607" lon="6.27084">
        <ele>911</ele>
        <time>2014-06-22T10:57:32.1Z</time>
      </trkpt>
      <trkpt lat="44.4607" lon="6.27084">
        <ele>911</ele>
        <time>2014-06-22T10:57:37.1Z</time>
      </trkpt>
      <trkpt lat="44.46071" lon="6.27084">
        <ele>911</ele>
        <time>2014-06-22T10:57:43.1Z</time>
      </trkpt>
      <trkpt lat="44.46071" lon="6.27084">
        <ele>912</ele>
        <time>2014-06-22T10:57:49.1Z</time>
      </trkpt>
      <trkpt lat="44.46071" lon="6.27084">
        <ele>912</ele>
        <time>2014-06-22T10:57:54.1Z</time>
      </trkpt>
      <trkpt lat="44.46071" lon="6.27085">
        <ele>911</ele>
        <time>2014-06-22T10:57:59.1Z</time>
      </trkpt>
      <trkpt lat="44.46072" lon="6.27085">
        <ele>912</ele>
        <time>2014-06-22T10:58:05.1Z</time>
      </trkpt>
      <trkpt lat="44.46072" lon="6.27085">
        <ele>912</ele>
        <time>2014-06-22T10:58:11.1Z</time>
      </trkpt>
      <trkpt lat="44.46072" lon="6.27085">
        <ele>912</ele>
        <time>2014-06-22T10:58:19.1Z</time>
      </trkpt>
      <trkpt lat="44.46072" lon="6.27085">
        <ele>912</ele>
        <time>2014-06-22T10:58:24.1Z</time>
      </trkpt>
      <trkpt lat="44.46072" lon="6.27085">
        <ele>912</ele>
        <time>2014-06-22T10:58:30.1Z</time>
      </trkpt>
      <trkpt lat="44.46071" lon="6.27085">
        <ele>912</ele>
        <time>2014-06-22T10:58:35.1Z</time>
      </trkpt>
      <trkpt lat="44.46071" lon="6.27085">
        <ele>911</ele>
        <time>2014-06-22T10:58:43.1Z</time>
      </trkpt>
      <trkpt lat="44.46071" lon="6.27085">
        <ele>912</ele>
        <time>2014-06-22T10:58:49.1Z</time>
      </trkpt>
      <trkpt lat="44.46071" lon="6.27085">
        <ele>912</ele>
        <time>2014-06-22T10:58:55.1Z</time>
      </trkpt>
      <trkpt lat="44.46071" lon="6.27086">
        <ele>912</ele>
        <time>2014-06-22T10:59:01.1Z</time>
      </trkpt>
      <trkpt lat="44.46071" lon="6.27086">
        <ele>912</ele>
        <time>2014-06-22T10:59:08.1Z</time>
      </trkpt>
      <trkpt lat="44.46072" lon="6.27085">
        <ele>911</ele>
        <time>2014-06-22T10:59:13.1Z</time>
      </trkpt>
      <trkpt lat="44.46073" lon="6.27085">
        <ele>912</ele>
        <time>2014-06-22T10:59:18.1Z</time>
      </trkpt>
      <trkpt lat="44.46074" lon="6.27084">
        <ele>912</ele>
        <time>2014-06-22T10:59:24.1Z</time>
      </trkpt>
      <trkpt lat="44.46076" lon="6.27083">
        <ele>912</ele>
        <time>2014-06-22T10:59:30.1Z</time>
      </trkpt>
      <trkpt lat="44.46077" lon="6.27083">
        <ele>912</ele>
        <time>2014-06-22T10:59:36.1Z</time>
      </trkpt>
      <trkpt lat="44.46078" lon="6.27082">
        <ele>912</ele>
        <time>2014-06-22T10:59:42.1Z</time>
      </trkpt>
      <trkpt lat="44.46078" lon="6.27082">
        <ele>912</ele>
        <time>2014-06-22T10:59:48.1Z</time>
      </trkpt>
      <trkpt lat="44.46079" lon="6.27082">
        <ele>912</ele>
        <time>2014-06-22T10:59:53.1Z</time>
      </trkpt>
      <trkpt lat="44.46078" lon="6.27081">
        <ele>912</ele>
        <time>2014-06-22T10:59:59.1Z</time>
      </trkpt>
      <trkpt lat="44.46077" lon="6.27082">
        <ele>912</ele>
        <time>2014-06-22T11:00:05.1Z</time>
      </trkpt>
      <trkpt lat="44.46075" lon="6.27083">
        <ele>912</ele>
        <time>2014-06-22T11:00:10.1Z</time>
      </trkpt>
      <trkpt lat="44.46074" lon="6.27083">
        <ele>912</ele>
        <time>2014-06-22T11:00:16.1Z</time>
      </trkpt>
      <trkpt lat="44.46074" lon="6.27083">
        <ele>912</ele>
        <time>2014-06-22T11:00:21.1Z</time>
      </trkpt>
      <trkpt lat="44.46075" lon="6.27083">
        <ele>912</ele>
        <time>2014-06-22T11:00:27.1Z</time>
      </trkpt>
      <trkpt lat="44.46075" lon="6.27083">
        <ele>912</ele>
        <time>2014-06-22T11:00:33.1Z</time>
      </trkpt>
      <trkpt lat="44.46074" lon="6.27083">
        <ele>912</ele>
        <time>2014-06-22T11:00:38.1Z</time>
      </trkpt>
      <trkpt lat="44.46074" lon="6.27083">
        <ele>912</ele>
        <time>2014-06-22T11:00:44.1Z</time>
      </trkpt>
      <trkpt lat="44.46074" lon="6.27084">
        <ele>912</ele>
        <time>2014-06-22T11:00:49.1Z</time>
      </trkpt>
      <trkpt lat="44.46073" lon="6.27085">
        <ele>912</ele>
        <time>2014-06-22T11:00:55.1Z</time>
      </trkpt>
      <trkpt lat="44.46073" lon="6.27085">
        <ele>912</ele>
        <time>2014-06-22T11:01:00.1Z</time>
      </trkpt>
      <trkpt lat="44.46073" lon="6.27085">
        <ele>912</ele>
        <time>2014-06-22T11:01:06.1Z</time>
      </trkpt>
      <trkpt lat="44.46073" lon="6.27085">
        <ele>912</ele>
        <time>2014-06-22T11:01:11.1Z</time>
      </trkpt>
      <trkpt lat="44.46073" lon="6.27084">
        <ele>912</ele>
        <time>2014-06-22T11:01:17.1Z</time>
      </trkpt>
      <trkpt lat="44.46073" lon="6.27083">
        <ele>912</ele>
        <time>2014-06-22T11:01:23.1Z</time>
      </trkpt>
      <trkpt lat="44.46073" lon="6.27083">
        <ele>912</ele>
        <time>2014-06-22T11:01:29.1Z</time>
      </trkpt>
      <trkpt lat="44.46073" lon="6.27083">
        <ele>912</ele>
        <time>2014-06-22T11:01:34.1Z</time>
      </trkpt>
      <trkpt lat="44.46072" lon="6.27082">
        <ele>912</ele>
        <time>2014-06-22T11:01:40.1Z</time>
      </trkpt>
      <trkpt lat="44.46072" lon="6.27082">
        <ele>912</ele>
        <time>2014-06-22T11:01:45.1Z</time>
      </trkpt>
      <trkpt lat="44.46072" lon="6.27081">
        <ele>912</ele>
        <time>2014-06-22T11:01:51.1Z</time>
      </trkpt>
      <trkpt lat="44.46072" lon="6.27081">
        <ele>912</ele>
        <time>2014-06-22T11:01:57.1Z</time>
      </trkpt>
      <trkpt lat="44.46072" lon="6.27082">
        <ele>912</ele>
        <time>2014-06-22T11:02:03.1Z</time>
      </trkpt>
      <trkpt lat="44.46072" lon="6.27081">
        <ele>912</ele>
        <time>2014-06-22T11:02:09.1Z</time>
      </trkpt>
      <trkpt lat="44.46073" lon="6.27081">
        <ele>912</ele>
        <time>2014-06-22T11:02:14.1Z</time>
      </trkpt>
      <trkpt lat="44.46073" lon="6.27082">
        <ele>912</ele>
        <time>2014-06-22T11:02:19.1Z</time>
      </trkpt>
      <trkpt lat="44.46072" lon="6.27082">
        <ele>912</ele>
        <time>2014-06-22T11:02:25.1Z</time>
      </trkpt>
      <trkpt lat="44.46071" lon="6.27083">
        <ele>912</ele>
        <time>2014-06-22T11:02:31.1Z</time>
      </trkpt>
      <trkpt lat="44.46071" lon="6.27083">
        <ele>912</ele>
        <time>2014-06-22T11:02:36.1Z</time>
      </trkpt>
      <trkpt lat="44.4607" lon="6.27084">
        <ele>912</ele>
        <time>2014-06-22T11:02:42.1Z</time>
      </trkpt>
      <trkpt lat="44.46069" lon="6.27086">
        <ele>912</ele>
        <time>2014-06-22T11:02:48.1Z</time>
      </trkpt>
      <trkpt lat="44.46069" lon="6.27085">
        <ele>912</ele>
        <time>2014-06-22T11:02:54.1Z</time>
      </trkpt>
      <trkpt lat="44.4607" lon="6.27085">
        <ele>912</ele>
        <time>2014-06-22T11:02:59.1Z</time>
      </trkpt>
      <trkpt lat="44.46069" lon="6.27086">
        <ele>912</ele>
        <time>2014-06-22T11:03:05.1Z</time>
      </trkpt>
      <trkpt lat="44.46068" lon="6.27086">
        <ele>912</ele>
        <time>2014-06-22T11:03:10.1Z</time>
      </trkpt>
      <trkpt lat="44.46067" lon="6.27087">
        <ele>912</ele>
        <time>2014-06-22T11:03:16.1Z</time>
      </trkpt>
      <trkpt lat="44.46067" lon="6.27088">
        <ele>912</ele>
        <time>2014-06-22T11:03:23.1Z</time>
      </trkpt>
      <trkpt lat="44.46067" lon="6.27087">
        <ele>912</ele>
        <time>2014-06-22T11:03:28.1Z</time>
      </trkpt>
      <trkpt lat="44.46069" lon="6.27086">
        <ele>912</ele>
        <time>2014-06-22T11:03:34.1Z</time>
      </trkpt>
      <trkpt lat="44.4607" lon="6.27086">
        <ele>912</ele>
        <time>2014-06-22T11:03:39.1Z</time>
      </trkpt>
      <trkpt lat="44.46072" lon="6.27085">
        <ele>912</ele>
        <time>2014-06-22T11:03:45.1Z</time>
      </trkpt>
      <trkpt lat="44.46073" lon="6.27084">
        <ele>912</ele>
        <time>2014-06-22T11:03:51.1Z</time>
      </trkpt>
      <trkpt lat="44.46075" lon="6.27084">
        <ele>912</ele>
        <time>2014-06-22T11:03:56.1Z</time>
      </trkpt>
      <trkpt lat="44.46076" lon="6.27083">
        <ele>912</ele>
        <time>2014-06-22T11:04:02.1Z</time>
      </trkpt>
      <trkpt lat="44.46077" lon="6.27083">
        <ele>912</ele>
        <time>2014-06-22T11:04:07.1Z</time>
      </trkpt>
      <trkpt lat="44.4608" lon="6.27082">
        <ele>912</ele>
        <time>2014-06-22T11:04:13.1Z</time>
      </trkpt>
      <trkpt lat="44.46081" lon="6.27081">
        <ele>912</ele>
        <time>2014-06-22T11:04:19.1Z</time>
      </trkpt>
      <trkpt lat="44.4608" lon="6.27082">
        <ele>912</ele>
        <time>2014-06-22T11:04:24.1Z</time>
      </trkpt>
      <trkpt lat="44.46078" lon="6.27083">
        <ele>912</ele>
        <time>2014-06-22T11:04:30.1Z</time>
      </trkpt>
      <trkpt lat="44.46077" lon="6.27083">
        <ele>912</ele>
        <time>2014-06-22T11:04:36.1Z</time>
      </trkpt>
      <trkpt lat="44.46076" lon="6.27084">
        <ele>912</ele>
        <time>2014-06-22T11:04:42.1Z</time>
      </trkpt>
      <trkpt lat="44.46074" lon="6.27085">
        <ele>912</ele>
        <time>2014-06-22T11:04:47.1Z</time>
      </trkpt>
      <trkpt lat="44.46072" lon="6.27087">
        <ele>912</ele>
        <time>2014-06-22T11:04:53.1Z</time>
      </trkpt>
      <trkpt lat="44.46072" lon="6.27087">
        <ele>912</ele>
        <time>2014-06-22T11:04:58.1Z</time>
      </trkpt>
      <trkpt lat="44.46071" lon="6.27088">
        <ele>912</ele>
        <time>2014-06-22T11:05:04.1Z</time>
      </trkpt>
      <trkpt lat="44.4607" lon="6.27088">
        <ele>912</ele>
        <time>2014-06-22T11:05:12.1Z</time>
      </trkpt>
      <trkpt lat="44.4607" lon="6.27088">
        <ele>912</ele>
        <time>2014-06-22T11:05:22.1Z</time>
      </trkpt>
      <trkpt lat="44.4607" lon="6.27088">
        <ele>912</ele>
        <time>2014-06-22T11:05:28.1Z</time>
      </trkpt>
      <trkpt lat="44.46071" lon="6.27087">
        <ele>912</ele>
        <time>2014-06-22T11:05:34.1Z</time>
      </trkpt>
      <trkpt lat="44.46072" lon="6.27087">
        <ele>912</ele>
        <time>2014-06-22T11:05:39.1Z</time>
      </trkpt>
      <trkpt lat="44.46072" lon="6.27087">
        <ele>912</ele>
        <time>2014-06-22T11:05:45.1Z</time>
      </trkpt>
      <trkpt lat="44.46073" lon="6.27087">
        <ele>912</ele>
        <time>2014-06-22T11:05:51.1Z</time>
      </trkpt>
      <trkpt lat="44.46073" lon="6.27086">
        <ele>912</ele>
        <time>2014-06-22T11:05:58.1Z</time>
      </trkpt>
      <trkpt lat="44.46073" lon="6.27086">
        <ele>912</ele>
        <time>2014-06-22T11:06:03.1Z</time>
      </trkpt>
      <trkpt lat="44.46073" lon="6.27086">
        <ele>913</ele>
        <time>2014-06-22T11:06:09.1Z</time>
      </trkpt>
      <trkpt lat="44.46072" lon="6.27086">
        <ele>912</ele>
        <time>2014-06-22T11:06:14.1Z</time>
      </trkpt>
      <trkpt lat="44.46073" lon="6.2708">
        <ele>912</ele>
        <time>2014-06-22T11:06:19.1Z</time>
      </trkpt>
      <trkpt lat="44.46076" lon="6.27082">
        <ele>912</ele>
        <time>2014-06-22T11:06:25.1Z</time>
      </trkpt>
      <trkpt lat="44.46076" lon="6.27085">
        <ele>913</ele>
        <time>2014-06-22T11:06:31.1Z</time>
      </trkpt>
      <trkpt lat="44.46077" lon="6.27085">
        <ele>912</ele>
        <time>2014-06-22T11:06:36.1Z</time>
      </trkpt>
      <trkpt lat="44.46067" lon="6.27089">
        <ele>913</ele>
        <time>2014-06-22T11:07:03.1Z</time>
      </trkpt>
      <trkpt lat="44.46068" lon="6.27089">
        <ele>913</ele>
        <time>2014-06-22T11:07:09.1Z</time>
      </trkpt>
      <trkpt lat="44.46067" lon="6.27088">
        <ele>912</ele>
        <time>2014-06-22T11:07:14.1Z</time>
      </trkpt>
      <trkpt lat="44.46067" lon="6.27087">
        <ele>912</ele>
        <time>2014-06-22T11:07:19.1Z</time>
      </trkpt>
      <trkpt lat="44.46068" lon="6.27086">
        <ele>912</ele>
        <time>2014-06-22T11:07:24.1Z</time>
      </trkpt>
      <trkpt lat="44.46071" lon="6.27084">
        <ele>912</ele>
        <time>2014-06-22T11:07:30.1Z</time>
      </trkpt>
      <trkpt lat="44.46074" lon="6.27082">
        <ele>912</ele>
        <time>2014-06-22T11:07:36.1Z</time>
      </trkpt>
      <trkpt lat="44.46075" lon="6.2708">
        <ele>912</ele>
        <time>2014-06-22T11:07:41.1Z</time>
      </trkpt>
      <trkpt lat="44.46077" lon="6.2708">
        <ele>912</ele>
        <time>2014-06-22T11:07:46.1Z</time>
      </trkpt>
      <trkpt lat="44.46078" lon="6.27079">
        <ele>912</ele>
        <time>2014-06-22T11:07:52.1Z</time>
      </trkpt>
      <trkpt lat="44.46077" lon="6.27079">
        <ele>912</ele>
        <time>2014-06-22T11:07:58.1Z</time>
      </trkpt>
      <trkpt lat="44.46077" lon="6.27079">
        <ele>912</ele>
        <time>2014-06-22T11:08:03.1Z</time>
      </trkpt>
      <trkpt lat="44.46077" lon="6.2708">
        <ele>913</ele>
        <time>2014-06-22T11:08:08.1Z</time>
      </trkpt>
      <trkpt lat="44.46075" lon="6.27081">
        <ele>913</ele>
        <time>2014-06-22T11:08:14.1Z</time>
      </trkpt>
      <trkpt lat="44.46074" lon="6.27082">
        <ele>913</ele>
        <time>2014-06-22T11:08:19.1Z</time>
      </trkpt>
      <trkpt lat="44.46072" lon="6.27083">
        <ele>914</ele>
        <time>2014-06-22T11:08:25.1Z</time>
      </trkpt>
      <trkpt lat="44.46068" lon="6.27081">
        <ele>914</ele>
        <time>2014-06-22T11:08:31.1Z</time>
      </trkpt>
      <trkpt lat="44.46065" lon="6.27077">
        <ele>915</ele>
        <time>2014-06-22T11:08:37.1Z</time>
      </trkpt>
      <trkpt lat="44.4606" lon="6.27073">
        <ele>916</ele>
        <time>2014-06-22T11:08:43.1Z</time>
      </trkpt>
      <trkpt lat="44.46056" lon="6.27068">
        <ele>916</ele>
        <time>2014-06-22T11:08:49.1Z</time>
      </trkpt>
      <trkpt lat="44.46051" lon="6.27064">
        <ele>916</ele>
        <time>2014-06-22T11:08:54.1Z</time>
      </trkpt>
      <trkpt lat="44.46047" lon="6.27058">
        <ele>916</ele>
        <time>2014-06-22T11:09:00.1Z</time>
      </trkpt>
      <trkpt lat="44.46044" lon="6.27053">
        <ele>917</ele>
        <time>2014-06-22T11:09:05.1Z</time>
      </trkpt>
      <trkpt lat="44.4604" lon="6.27046">
        <ele>918</ele>
        <time>2014-06-22T11:09:11.1Z</time>
      </trkpt>
      <trkpt lat="44.46038" lon="6.2704">
        <ele>918</ele>
        <time>2014-06-22T11:09:16.1Z</time>
      </trkpt>
      <trkpt lat="44.46036" lon="6.27036">
        <ele>919</ele>
        <time>2014-06-22T11:09:21.1Z</time>
      </trkpt>
      <trkpt lat="44.46032" lon="6.27032">
        <ele>919</ele>
        <time>2014-06-22T11:09:27.1Z</time>
      </trkpt>
      <trkpt lat="44.46028" lon="6.27028">
        <ele>920</ele>
        <time>2014-06-22T11:09:32.1Z</time>
      </trkpt>
      <trkpt lat="44.46022" lon="6.27025">
        <ele>921</ele>
        <time>2014-06-22T11:09:38.1Z</time>
      </trkpt>
      <trkpt lat="44.46017" lon="6.27023">
        <ele>921</ele>
        <time>2014-06-22T11:09:44.1Z</time>
      </trkpt>
      <trkpt lat="44.46014" lon="6.27024">
        <ele>921</ele>
        <time>2014-06-22T11:09:49.1Z</time>
      </trkpt>
      <trkpt lat="44.46011" lon="6.27026">
        <ele>922</ele>
        <time>2014-06-22T11:09:54.1Z</time>
      </trkpt>
      <trkpt lat="44.46008" lon="6.2703">
        <ele>922</ele>
        <time>2014-06-22T11:10:00.1Z</time>
      </trkpt>
      <trkpt lat="44.46006" lon="6.27035">
        <ele>923</ele>
        <time>2014-06-22T11:10:06.1Z</time>
      </trkpt>
      <trkpt lat="44.46005" lon="6.27042">
        <ele>924</ele>
        <time>2014-06-22T11:10:12.1Z</time>
      </trkpt>
      <trkpt lat="44.46005" lon="6.27047">
        <ele>925</ele>
        <time>2014-06-22T11:10:18.1Z</time>
      </trkpt>
      <trkpt lat="44.46005" lon="6.2705">
        <ele>925</ele>
        <time>2014-06-22T11:10:24.1Z</time>
      </trkpt>
      <trkpt lat="44.46004" lon="6.27057">
        <ele>926</ele>
        <time>2014-06-22T11:10:29.1Z</time>
      </trkpt>
      <trkpt lat="44.46" lon="6.27065">
        <ele>926</ele>
        <time>2014-06-22T11:10:35.1Z</time>
      </trkpt>
      <trkpt lat="44.45995" lon="6.27072">
        <ele>927</ele>
        <time>2014-06-22T11:10:40.1Z</time>
      </trkpt>
      <trkpt lat="44.4599" lon="6.27078">
        <ele>927</ele>
        <time>2014-06-22T11:10:46.1Z</time>
      </trkpt>
      <trkpt lat="44.45984" lon="6.27082">
        <ele>928</ele>
        <time>2014-06-22T11:10:52.1Z</time>
      </trkpt>
      <trkpt lat="44.45977" lon="6.27084">
        <ele>928</ele>
        <time>2014-06-22T11:10:58.1Z</time>
      </trkpt>
      <trkpt lat="44.45973" lon="6.27085">
        <ele>929</ele>
        <time>2014-06-22T11:11:03.1Z</time>
      </trkpt>
      <trkpt lat="44.45968" lon="6.27086">
        <ele>930</ele>
        <time>2014-06-22T11:11:08.1Z</time>
      </trkpt>
      <trkpt lat="44.45962" lon="6.27086">
        <ele>931</ele>
        <time>2014-06-22T11:11:14.1Z</time>
      </trkpt>
      <trkpt lat="44.45956" lon="6.27086">
        <ele>931</ele>
        <time>2014-06-22T11:11:19.1Z</time>
      </trkpt>
      <trkpt lat="44.45952" lon="6.27087">
        <ele>932</ele>
        <time>2014-06-22T11:11:24.1Z</time>
      </trkpt>
      <trkpt lat="44.45947" lon="6.27088">
        <ele>932</ele>
        <time>2014-06-22T11:11:29.1Z</time>
      </trkpt>
      <trkpt lat="44.4594" lon="6.2709">
        <ele>933</ele>
        <time>2014-06-22T11:11:35.1Z</time>
      </trkpt>
      <trkpt lat="44.45935" lon="6.27091">
        <ele>934</ele>
        <time>2014-06-22T11:11:40.1Z</time>
      </trkpt>
      <trkpt lat="44.4593" lon="6.27093">
        <ele>934</ele>
        <time>2014-06-22T11:11:45.1Z</time>
      </trkpt>
      <trkpt lat="44.45924" lon="6.27096">
        <ele>934</ele>
        <time>2014-06-22T11:11:51.1Z</time>
      </trkpt>
      <trkpt lat="44.4592" lon="6.27098">
        <ele>935</ele>
        <time>2014-06-22T11:11:57.1Z</time>
      </trkpt>
      <trkpt lat="44.45916" lon="6.27102">
        <ele>936</ele>
        <time>2014-06-22T11:12:03.1Z</time>
      </trkpt>
      <trkpt lat="44.45912" lon="6.27107">
        <ele>936</ele>
        <time>2014-06-22T11:12:09.1Z</time>
      </trkpt>
      <trkpt lat="44.45908" lon="6.27112">
        <ele>937</ele>
        <time>2014-06-22T11:12:15.1Z</time>
      </trkpt>
      <trkpt lat="44.45903" lon="6.27114">
        <ele>938</ele>
        <time>2014-06-22T11:12:20.1Z</time>
      </trkpt>
      <trkpt lat="44.45897" lon="6.27116">
        <ele>939</ele>
        <time>2014-06-22T11:12:26.1Z</time>
      </trkpt>
      <trkpt lat="44.45892" lon="6.27117">
        <ele>939</ele>
        <time>2014-06-22T11:12:31.1Z</time>
      </trkpt>
      <trkpt lat="44.45887" lon="6.27119">
        <ele>939</ele>
        <time>2014-06-22T11:12:36.1Z</time>
      </trkpt>
      <trkpt lat="44.45882" lon="6.27121">
        <ele>940</ele>
        <time>2014-06-22T11:12:42.1Z</time>
      </trkpt>
      <trkpt lat="44.45876" lon="6.27122">
        <ele>941</ele>
        <time>2014-06-22T11:12:48.1Z</time>
      </trkpt>
      <trkpt lat="44.45871" lon="6.27123">
        <ele>942</ele>
        <time>2014-06-22T11:12:53.1Z</time>
      </trkpt>
      <trkpt lat="44.45866" lon="6.27123">
        <ele>942</ele>
        <time>2014-06-22T11:12:58.1Z</time>
      </trkpt>
      <trkpt lat="44.45861" lon="6.27124">
        <ele>943</ele>
        <time>2014-06-22T11:13:04.1Z</time>
      </trkpt>
      <trkpt lat="44.45855" lon="6.27125">
        <ele>944</ele>
        <time>2014-06-22T11:13:10.1Z</time>
      </trkpt>
      <trkpt lat="44.4585" lon="6.27128">
        <ele>944</ele>
        <time>2014-06-22T11:13:15.1Z</time>
      </trkpt>
      <trkpt lat="44.45846" lon="6.2713">
        <ele>945</ele>
        <time>2014-06-22T11:13:20.1Z</time>
      </trkpt>
      <trkpt lat="44.45842" lon="6.27133">
        <ele>945</ele>
        <time>2014-06-22T11:13:25.1Z</time>
      </trkpt>
      <trkpt lat="44.45836" lon="6.27136">
        <ele>946</ele>
        <time>2014-06-22T11:13:31.1Z</time>
      </trkpt>
      <trkpt lat="44.45831" lon="6.27138">
        <ele>947</ele>
        <time>2014-06-22T11:13:37.1Z</time>
      </trkpt>
      <trkpt lat="44.45827" lon="6.27139">
        <ele>947</ele>
        <time>2014-06-22T11:13:42.1Z</time>
      </trkpt>
      <trkpt lat="44.45822" lon="6.27142">
        <ele>948</ele>
        <time>2014-06-22T11:13:47.1Z</time>
      </trkpt>
      <trkpt lat="44.45818" lon="6.27145">
        <ele>949</ele>
        <time>2014-06-22T11:13:52.1Z</time>
      </trkpt>
      <trkpt lat="44.45813" lon="6.27149">
        <ele>950</ele>
        <time>2014-06-22T11:13:58.1Z</time>
      </trkpt>
      <trkpt lat="44.45808" lon="6.27152">
        <ele>950</ele>
        <time>2014-06-22T11:14:03.1Z</time>
      </trkpt>
      <trkpt lat="44.45803" lon="6.27155">
        <ele>950</ele>
        <time>2014-06-22T11:14:09.1Z</time>
      </trkpt>
      <trkpt lat="44.45797" lon="6.27158">
        <ele>951</ele>
        <time>2014-06-22T11:14:15.1Z</time>
      </trkpt>
      <trkpt lat="44.45793" lon="6.2716">
        <ele>952</ele>
        <time>2014-06-22T11:14:20.1Z</time>
      </trkpt>
      <trkpt lat="44.45789" lon="6.27162">
        <ele>952</ele>
        <time>2014-06-22T11:14:25.1Z</time>
      </trkpt>
      <trkpt lat="44.45784" lon="6.27166">
        <ele>952</ele>
        <time>2014-06-22T11:14:30.1Z</time>
      </trkpt>
      <trkpt lat="44.45778" lon="6.2717">
        <ele>953</ele>
        <time>2014-06-22T11:14:36.1Z</time>
      </trkpt>
      <trkpt lat="44.45773" lon="6.27173">
        <ele>954</ele>
        <time>2014-06-22T11:14:41.1Z</time>
      </trkpt>
      <trkpt lat="44.45768" lon="6.27175">
        <ele>954</ele>
        <time>2014-06-22T11:14:46.1Z</time>
      </trkpt>
      <trkpt lat="44.45763" lon="6.27175">
        <ele>955</ele>
        <time>2014-06-22T11:14:51.1Z</time>
      </trkpt>
      <trkpt lat="44.45755" lon="6.27173">
        <ele>955</ele>
        <time>2014-06-22T11:14:57.1Z</time>
      </trkpt>
      <trkpt lat="44.4575" lon="6.2717">
        <ele>956</ele>
        <time>2014-06-22T11:15:02.1Z</time>
      </trkpt>
      <trkpt lat="44.45746" lon="6.27164">
        <ele>956</ele>
        <time>2014-06-22T11:15:07.1Z</time>
      </trkpt>
      <trkpt lat="44.45743" lon="6.27158">
        <ele>956</ele>
        <time>2014-06-22T11:15:12.1Z</time>
      </trkpt>
      <trkpt lat="44.45739" lon="6.27152">
        <ele>956</ele>
        <time>2014-06-22T11:15:18.1Z</time>
      </trkpt>
      <trkpt lat="44.45735" lon="6.27147">
        <ele>957</ele>
        <time>2014-06-22T11:15:23.1Z</time>
      </trkpt>
      <trkpt lat="44.4573" lon="6.27143">
        <ele>957</ele>
        <time>2014-06-22T11:15:28.1Z</time>
      </trkpt>
      <trkpt lat="44.45724" lon="6.27143">
        <ele>957</ele>
        <time>2014-06-22T11:15:33.1Z</time>
      </trkpt>
      <trkpt lat="44.45717" lon="6.27143">
        <ele>957</ele>
        <time>2014-06-22T11:15:39.1Z</time>
      </trkpt>
      <trkpt lat="44.45713" lon="6.27143">
        <ele>958</ele>
        <time>2014-06-22T11:15:44.1Z</time>
      </trkpt>
      <trkpt lat="44.45708" lon="6.27143">
        <ele>958</ele>
        <time>2014-06-22T11:15:49.1Z</time>
      </trkpt>
      <trkpt lat="44.45705" lon="6.27145">
        <ele>959</ele>
        <time>2014-06-22T11:15:54.1Z</time>
      </trkpt>
      <trkpt lat="44.45699" lon="6.27148">
        <ele>959</ele>
        <time>2014-06-22T11:16:00.1Z</time>
      </trkpt>
      <trkpt lat="44.45695" lon="6.2715">
        <ele>960</ele>
        <time>2014-06-22T11:16:05.1Z</time>
      </trkpt>
      <trkpt lat="44.45693" lon="6.27154">
        <ele>960</ele>
        <time>2014-06-22T11:16:10.1Z</time>
      </trkpt>
      <trkpt lat="44.45689" lon="6.27158">
        <ele>960</ele>
        <time>2014-06-22T11:16:16.1Z</time>
      </trkpt>
      <trkpt lat="44.45685" lon="6.27164">
        <ele>961</ele>
        <time>2014-06-22T11:16:22.1Z</time>
      </trkpt>
      <trkpt lat="44.45682" lon="6.2717">
        <ele>961</ele>
        <time>2014-06-22T11:16:28.1Z</time>
      </trkpt>
      <trkpt lat="44.45679" lon="6.27174">
        <ele>961</ele>
        <time>2014-06-22T11:16:33.1Z</time>
      </trkpt>
      <trkpt lat="44.45676" lon="6.27179">
        <ele>961</ele>
        <time>2014-06-22T11:16:38.1Z</time>
      </trkpt>
      <trkpt lat="44.45671" lon="6.27186">
        <ele>962</ele>
        <time>2014-06-22T11:16:44.1Z</time>
      </trkpt>
      <trkpt lat="44.45666" lon="6.27191">
        <ele>963</ele>
        <time>2014-06-22T11:16:49.1Z</time>
      </trkpt>
      <trkpt lat="44.45662" lon="6.27196">
        <ele>963</ele>
        <time>2014-06-22T11:16:55.1Z</time>
      </trkpt>
      <trkpt lat="44.45656" lon="6.27203">
        <ele>963</ele>
        <time>2014-06-22T11:17:01.1Z</time>
      </trkpt>
      <trkpt lat="44.4565" lon="6.27209">
        <ele>963</ele>
        <time>2014-06-22T11:17:07.1Z</time>
      </trkpt>
      <trkpt lat="44.45644" lon="6.27214">
        <ele>963</ele>
        <time>2014-06-22T11:17:13.1Z</time>
      </trkpt>
      <trkpt lat="44.45639" lon="6.2722">
        <ele>964</ele>
        <time>2014-06-22T11:17:18.1Z</time>
      </trkpt>
      <trkpt lat="44.45633" lon="6.27224">
        <ele>964</ele>
        <time>2014-06-22T11:17:23.1Z</time>
      </trkpt>
      <trkpt lat="44.45626" lon="6.27229">
        <ele>964</ele>
        <time>2014-06-22T11:17:28.1Z</time>
      </trkpt>
      <trkpt lat="44.4562" lon="6.27235">
        <ele>965</ele>
        <time>2014-06-22T11:17:34.1Z</time>
      </trkpt>
      <trkpt lat="44.45613" lon="6.27239">
        <ele>965</ele>
        <time>2014-06-22T11:17:40.1Z</time>
      </trkpt>
      <trkpt lat="44.45606" lon="6.27242">
        <ele>964</ele>
        <time>2014-06-22T11:17:46.1Z</time>
      </trkpt>
      <trkpt lat="44.45598" lon="6.27246">
        <ele>965</ele>
        <time>2014-06-22T11:17:52.1Z</time>
      </trkpt>
      <trkpt lat="44.4559" lon="6.27251">
        <ele>965</ele>
        <time>2014-06-22T11:17:58.1Z</time>
      </trkpt>
      <trkpt lat="44.45583" lon="6.27255">
        <ele>965</ele>
        <time>2014-06-22T11:18:03.1Z</time>
      </trkpt>
      <trkpt lat="44.45575" lon="6.27261">
        <ele>965</ele>
        <time>2014-06-22T11:18:09.1Z</time>
      </trkpt>
      <trkpt lat="44.45569" lon="6.27265">
        <ele>965</ele>
        <time>2014-06-22T11:18:14.1Z</time>
      </trkpt>
      <trkpt lat="44.45561" lon="6.27269">
        <ele>965</ele>
        <time>2014-06-22T11:18:20.1Z</time>
      </trkpt>
      <trkpt lat="44.45555" lon="6.27272">
        <ele>965</ele>
        <time>2014-06-22T11:18:25.1Z</time>
      </trkpt>
      <trkpt lat="44.45547" lon="6.27276">
        <ele>965</ele>
        <time>2014-06-22T11:18:31.1Z</time>
      </trkpt>
      <trkpt lat="44.45541" lon="6.27278">
        <ele>965</ele>
        <time>2014-06-22T11:18:36.1Z</time>
      </trkpt>
      <trkpt lat="44.45534" lon="6.27279">
        <ele>966</ele>
        <time>2014-06-22T11:18:42.1Z</time>
      </trkpt>
      <trkpt lat="44.45527" lon="6.27278">
        <ele>967</ele>
        <time>2014-06-22T11:18:48.1Z</time>
      </trkpt>
      <trkpt lat="44.45522" lon="6.27281">
        <ele>967</ele>
        <time>2014-06-22T11:18:54.1Z</time>
      </trkpt>
      <trkpt lat="44.45519" lon="6.27283">
        <ele>968</ele>
        <time>2014-06-22T11:19:00.1Z</time>
      </trkpt>
      <trkpt lat="44.45516" lon="6.27287">
        <ele>968</ele>
        <time>2014-06-22T11:19:05.1Z</time>
      </trkpt>
      <trkpt lat="44.45515" lon="6.27294">
        <ele>969</ele>
        <time>2014-06-22T11:19:11.1Z</time>
      </trkpt>
      <trkpt lat="44.45517" lon="6.27301">
        <ele>969</ele>
        <time>2014-06-22T11:19:17.1Z</time>
      </trkpt>
      <trkpt lat="44.4552" lon="6.27307">
        <ele>970</ele>
        <time>2014-06-22T11:19:22.1Z</time>
      </trkpt>
      <trkpt lat="44.45523" lon="6.27314">
        <ele>971</ele>
        <time>2014-06-22T11:19:28.1Z</time>
      </trkpt>
      <trkpt lat="44.45525" lon="6.2732">
        <ele>972</ele>
        <time>2014-06-22T11:19:34.1Z</time>
      </trkpt>
      <trkpt lat="44.45527" lon="6.27327">
        <ele>972</ele>
        <time>2014-06-22T11:19:40.1Z</time>
      </trkpt>
      <trkpt lat="44.45527" lon="6.27333">
        <ele>973</ele>
        <time>2014-06-22T11:19:45.1Z</time>
      </trkpt>
      <trkpt lat="44.45528" lon="6.27339">
        <ele>974</ele>
        <time>2014-06-22T11:19:50.1Z</time>
      </trkpt>
      <trkpt lat="44.45528" lon="6.27345">
        <ele>974</ele>
        <time>2014-06-22T11:19:56.1Z</time>
      </trkpt>
      <trkpt lat="44.45528" lon="6.27352">
        <ele>975</ele>
        <time>2014-06-22T11:20:02.1Z</time>
      </trkpt>
      <trkpt lat="44.45528" lon="6.27359">
        <ele>975</ele>
        <time>2014-06-22T11:20:08.1Z</time>
      </trkpt>
      <trkpt lat="44.45527" lon="6.27367">
        <ele>976</ele>
        <time>2014-06-22T11:20:14.1Z</time>
      </trkpt>
      <trkpt lat="44.45527" lon="6.27374">
        <ele>976</ele>
        <time>2014-06-22T11:20:20.1Z</time>
      </trkpt>
      <trkpt lat="44.45526" lon="6.27381">
        <ele>976</ele>
        <time>2014-06-22T11:20:26.1Z</time>
      </trkpt>
      <trkpt lat="44.45523" lon="6.27387">
        <ele>977</ele>
        <time>2014-06-22T11:20:32.1Z</time>
      </trkpt>
      <trkpt lat="44.4552" lon="6.27391">
        <ele>977</ele>
        <time>2014-06-22T11:20:37.1Z</time>
      </trkpt>
      <trkpt lat="44.45517" lon="6.27396">
        <ele>978</ele>
        <time>2014-06-22T11:20:42.1Z</time>
      </trkpt>
      <trkpt lat="44.45512" lon="6.27401">
        <ele>978</ele>
        <time>2014-06-22T11:20:48.1Z</time>
      </trkpt>
      <trkpt lat="44.45509" lon="6.27407">
        <ele>979</ele>
        <time>2014-06-22T11:20:53.1Z</time>
      </trkpt>
      <trkpt lat="44.45502" lon="6.27411">
        <ele>979</ele>
        <time>2014-06-22T11:20:59.1Z</time>
      </trkpt>
      <trkpt lat="44.45495" lon="6.27415">
        <ele>979</ele>
        <time>2014-06-22T11:21:05.1Z</time>
      </trkpt>
      <trkpt lat="44.45489" lon="6.27419">
        <ele>979</ele>
        <time>2014-06-22T11:21:10.1Z</time>
      </trkpt>
      <trkpt lat="44.45486" lon="6.27424">
        <ele>979</ele>
        <time>2014-06-22T11:21:15.1Z</time>
      </trkpt>
      <trkpt lat="44.4548" lon="6.27429">
        <ele>980</ele>
        <time>2014-06-22T11:21:21.1Z</time>
      </trkpt>
      <trkpt lat="44.45474" lon="6.27436">
        <ele>981</ele>
        <time>2014-06-22T11:21:27.1Z</time>
      </trkpt>
      <trkpt lat="44.45466" lon="6.27439">
        <ele>981</ele>
        <time>2014-06-22T11:21:33.1Z</time>
      </trkpt>
      <trkpt lat="44.45456" lon="6.27443">
        <ele>981</ele>
        <time>2014-06-22T11:21:39.1Z</time>
      </trkpt>
      <trkpt lat="44.4545" lon="6.27445">
        <ele>980</ele>
        <time>2014-06-22T11:21:44.1Z</time>
      </trkpt>
      <trkpt lat="44.45441" lon="6.27448">
        <ele>981</ele>
        <time>2014-06-22T11:21:50.1Z</time>
      </trkpt>
      <trkpt lat="44.45433" lon="6.27452">
        <ele>981</ele>
        <time>2014-06-22T11:21:56.1Z</time>
      </trkpt>
      <trkpt lat="44.45424" lon="6.27455">
        <ele>981</ele>
        <time>2014-06-22T11:22:02.1Z</time>
      </trkpt>
      <trkpt lat="44.45416" lon="6.27454">
        <ele>981</ele>
        <time>2014-06-22T11:22:08.1Z</time>
      </trkpt>
      <trkpt lat="44.45408" lon="6.27453">
        <ele>980</ele>
        <time>2014-06-22T11:22:13.1Z</time>
      </trkpt>
      <trkpt lat="44.45399" lon="6.27452">
        <ele>981</ele>
        <time>2014-06-22T11:22:19.1Z</time>
      </trkpt>
      <trkpt lat="44.45392" lon="6.27451">
        <ele>980</ele>
        <time>2014-06-22T11:22:24.1Z</time>
      </trkpt>
      <trkpt lat="44.45384" lon="6.27449">
        <ele>980</ele>
        <time>2014-06-22T11:22:30.1Z</time>
      </trkpt>
      <trkpt lat="44.45377" lon="6.27444">
        <ele>981</ele>
        <time>2014-06-22T11:22:36.1Z</time>
      </trkpt>
      <trkpt lat="44.4537" lon="6.27439">
        <ele>981</ele>
        <time>2014-06-22T11:22:42.1Z</time>
      </trkpt>
      <trkpt lat="44.45364" lon="6.27433">
        <ele>982</ele>
        <time>2014-06-22T11:22:48.1Z</time>
      </trkpt>
      <trkpt lat="44.45358" lon="6.27427">
        <ele>983</ele>
        <time>2014-06-22T11:22:54.1Z</time>
      </trkpt>
      <trkpt lat="44.45354" lon="6.27419">
        <ele>983</ele>
        <time>2014-06-22T11:23:00.1Z</time>
      </trkpt>
      <trkpt lat="44.45351" lon="6.27411">
        <ele>984</ele>
        <time>2014-06-22T11:23:06.1Z</time>
      </trkpt>
      <trkpt lat="44.45347" lon="6.27402">
        <ele>985</ele>
        <time>2014-06-22T11:23:12.1Z</time>
      </trkpt>
      <trkpt lat="44.45344" lon="6.27393">
        <ele>985</ele>
        <time>2014-06-22T11:23:18.1Z</time>
      </trkpt>
      <trkpt lat="44.45341" lon="6.27387">
        <ele>985</ele>
        <time>2014-06-22T11:23:23.1Z</time>
      </trkpt>
      <trkpt lat="44.45337" lon="6.27382">
        <ele>985</ele>
        <time>2014-06-22T11:23:28.1Z</time>
      </trkpt>
      <trkpt lat="44.45332" lon="6.27376">
        <ele>986</ele>
        <time>2014-06-22T11:23:34.1Z</time>
      </trkpt>
      <trkpt lat="44.45328" lon="6.2737">
        <ele>987</ele>
        <time>2014-06-22T11:23:40.1Z</time>
      </trkpt>
      <trkpt lat="44.45326" lon="6.27362">
        <ele>988</ele>
        <time>2014-06-22T11:23:46.1Z</time>
      </trkpt>
      <trkpt lat="44.45323" lon="6.27355">
        <ele>989</ele>
        <time>2014-06-22T11:23:52.1Z</time>
      </trkpt>
      <trkpt lat="44.4532" lon="6.27349">
        <ele>989</ele>
        <time>2014-06-22T11:23:58.1Z</time>
      </trkpt>
      <trkpt lat="44.45317" lon="6.27341">
        <ele>990</ele>
        <time>2014-06-22T11:24:04.1Z</time>
      </trkpt>
      <trkpt lat="44.45312" lon="6.27334">
        <ele>990</ele>
        <time>2014-06-22T11:24:10.1Z</time>
      </trkpt>
      <trkpt lat="44.45307" lon="6.2733">
        <ele>991</ele>
        <time>2014-06-22T11:24:16.1Z</time>
      </trkpt>
      <trkpt lat="44.45303" lon="6.27324">
        <ele>991</ele>
        <time>2014-06-22T11:24:22.1Z</time>
      </trkpt>
      <trkpt lat="44.45301" lon="6.27322">
        <ele>991</ele>
        <time>2014-06-22T11:24:27.1Z</time>
      </trkpt>
      <trkpt lat="44.45294" lon="6.27317">
        <ele>991</ele>
        <time>2014-06-22T11:24:33.1Z</time>
      </trkpt>
      <trkpt lat="44.4529" lon="6.27312">
        <ele>991</ele>
        <time>2014-06-22T11:24:38.1Z</time>
      </trkpt>
      <trkpt lat="44.45286" lon="6.27301">
        <ele>990</ele>
        <time>2014-06-22T11:24:44.1Z</time>
      </trkpt>
      <trkpt lat="44.4528" lon="6.27291">
        <ele>990</ele>
        <time>2014-06-22T11:24:50.1Z</time>
      </trkpt>
      <trkpt lat="44.45277" lon="6.27283">
        <ele>990</ele>
        <time>2014-06-22T11:24:55.1Z</time>
      </trkpt>
      <trkpt lat="44.45272" lon="6.27274">
        <ele>990</ele>
        <time>2014-06-22T11:25:01.1Z</time>
      </trkpt>
      <trkpt lat="44.4527" lon="6.27267">
        <ele>990</ele>
        <time>2014-06-22T11:25:06.1Z</time>
      </trkpt>
      <trkpt lat="44.45265" lon="6.27259">
        <ele>991</ele>
        <time>2014-06-22T11:25:12.1Z</time>
      </trkpt>
      <trkpt lat="44.4526" lon="6.27252">
        <ele>992</ele>
        <time>2014-06-22T11:25:17.1Z</time>
      </trkpt>
      <trkpt lat="44.45256" lon="6.27244">
        <ele>992</ele>
        <time>2014-06-22T11:25:23.1Z</time>
      </trkpt>
      <trkpt lat="44.45249" lon="6.27237">
        <ele>992</ele>
        <time>2014-06-22T11:25:29.1Z</time>
      </trkpt>
      <trkpt lat="44.45243" lon="6.27231">
        <ele>992</ele>
        <time>2014-06-22T11:25:34.1Z</time>
      </trkpt>
      <trkpt lat="44.45236" lon="6.27226">
        <ele>993</ele>
        <time>2014-06-22T11:25:40.1Z</time>
      </trkpt>
      <trkpt lat="44.45231" lon="6.27219">
        <ele>993</ele>
        <time>2014-06-22T11:25:46.1Z</time>
      </trkpt>
      <trkpt lat="44.45229" lon="6.27213">
        <ele>994</ele>
        <time>2014-06-22T11:25:51.1Z</time>
      </trkpt>
      <trkpt lat="44.45223" lon="6.27206">
        <ele>994</ele>
        <time>2014-06-22T11:25:57.1Z</time>
      </trkpt>
      <trkpt lat="44.45218" lon="6.272">
        <ele>995</ele>
        <time>2014-06-22T11:26:03.1Z</time>
      </trkpt>
      <trkpt lat="44.45213" lon="6.27196">
        <ele>995</ele>
        <time>2014-06-22T11:26:08.1Z</time>
      </trkpt>
      <trkpt lat="44.45206" lon="6.27189">
        <ele>995</ele>
        <time>2014-06-22T11:26:14.1Z</time>
      </trkpt>
      <trkpt lat="44.45201" lon="6.27182">
        <ele>995</ele>
        <time>2014-06-22T11:26:19.1Z</time>
      </trkpt>
      <trkpt lat="44.45196" lon="6.27174">
        <ele>994</ele>
        <time>2014-06-22T11:26:25.1Z</time>
      </trkpt>
      <trkpt lat="44.45192" lon="6.27166">
        <ele>994</ele>
        <time>2014-06-22T11:26:31.1Z</time>
      </trkpt>
      <trkpt lat="44.45186" lon="6.27159">
        <ele>994</ele>
        <time>2014-06-22T11:26:36.1Z</time>
      </trkpt>
      <trkpt lat="44.45182" lon="6.27151">
        <ele>994</ele>
        <time>2014-06-22T11:26:42.1Z</time>
      </trkpt>
      <trkpt lat="44.45179" lon="6.27144">
        <ele>995</ele>
        <time>2014-06-22T11:26:48.1Z</time>
      </trkpt>
      <trkpt lat="44.45173" lon="6.2714">
        <ele>996</ele>
        <time>2014-06-22T11:26:54.1Z</time>
      </trkpt>
      <trkpt lat="44.45168" lon="6.27137">
        <ele>997</ele>
        <time>2014-06-22T11:27:00.1Z</time>
      </trkpt>
      <trkpt lat="44.45163" lon="6.27137">
        <ele>997</ele>
        <time>2014-06-22T11:27:05.1Z</time>
      </trkpt>
      <trkpt lat="44.45154" lon="6.27138">
        <ele>998</ele>
        <time>2014-06-22T11:27:11.1Z</time>
      </trkpt>
      <trkpt lat="44.45147" lon="6.27141">
        <ele>998</ele>
        <time>2014-06-22T11:27:17.1Z</time>
      </trkpt>
      <trkpt lat="44.45142" lon="6.27146">
        <ele>999</ele>
        <time>2014-06-22T11:27:23.1Z</time>
      </trkpt>
      <trkpt lat="44.45134" lon="6.2715">
        <ele>999</ele>
        <time>2014-06-22T11:27:28.1Z</time>
      </trkpt>
      <trkpt lat="44.45129" lon="6.27157">
        <ele>1000</ele>
        <time>2014-06-22T11:27:33.1Z</time>
      </trkpt>
      <trkpt lat="44.45125" lon="6.27166">
        <ele>1000</ele>
        <time>2014-06-22T11:27:39.1Z</time>
      </trkpt>
      <trkpt lat="44.45122" lon="6.27173">
        <ele>1000</ele>
        <time>2014-06-22T11:27:44.1Z</time>
      </trkpt>
      <trkpt lat="44.45118" lon="6.27179">
        <ele>1000</ele>
        <time>2014-06-22T11:27:50.1Z</time>
      </trkpt>
      <trkpt lat="44.45118" lon="6.27184">
        <ele>1000</ele>
        <time>2014-06-22T11:27:55.1Z</time>
      </trkpt>
      <trkpt lat="44.45112" lon="6.27181">
        <ele>1001</ele>
        <time>2014-06-22T11:28:01.1Z</time>
      </trkpt>
      <trkpt lat="44.45103" lon="6.27174">
        <ele>1002</ele>
        <time>2014-06-22T11:28:07.1Z</time>
      </trkpt>
      <trkpt lat="44.45097" lon="6.27166">
        <ele>1002</ele>
        <time>2014-06-22T11:28:12.1Z</time>
      </trkpt>
      <trkpt lat="44.45092" lon="6.27157">
        <ele>1001</ele>
        <time>2014-06-22T11:28:17.1Z</time>
      </trkpt>
      <trkpt lat="44.45087" lon="6.27146">
        <ele>1001</ele>
        <time>2014-06-22T11:28:22.1Z</time>
      </trkpt>
      <trkpt lat="44.45083" lon="6.27132">
        <ele>1001</ele>
        <time>2014-06-22T11:28:28.1Z</time>
      </trkpt>
      <trkpt lat="44.45086" lon="6.27121">
        <ele>1001</ele>
        <time>2014-06-22T11:28:34.1Z</time>
      </trkpt>
      <trkpt lat="44.4509" lon="6.27112">
        <ele>1001</ele>
        <time>2014-06-22T11:28:40.1Z</time>
      </trkpt>
      <trkpt lat="44.45092" lon="6.27104">
        <ele>1001</ele>
        <time>2014-06-22T11:28:46.1Z</time>
      </trkpt>
      <trkpt lat="44.45098" lon="6.27097">
        <ele>1001</ele>
        <time>2014-06-22T11:28:52.1Z</time>
      </trkpt>
      <trkpt lat="44.45103" lon="6.2709">
        <ele>1001</ele>
        <time>2014-06-22T11:28:58.1Z</time>
      </trkpt>
      <trkpt lat="44.45108" lon="6.27082">
        <ele>1002</ele>
        <time>2014-06-22T11:29:04.1Z</time>
      </trkpt>
      <trkpt lat="44.45111" lon="6.27073">
        <ele>1002</ele>
        <time>2014-06-22T11:29:10.1Z</time>
      </trkpt>
      <trkpt lat="44.45112" lon="6.27065">
        <ele>1002</ele>
        <time>2014-06-22T11:29:15.1Z</time>
      </trkpt>
      <trkpt lat="44.4511" lon="6.27057">
        <ele>1003</ele>
        <time>2014-06-22T11:29:21.1Z</time>
      </trkpt>
      <trkpt lat="44.45109" lon="6.27049">
        <ele>1004</ele>
        <time>2014-06-22T11:29:27.1Z</time>
      </trkpt>
      <trkpt lat="44.45106" lon="6.27042">
        <ele>1004</ele>
        <time>2014-06-22T11:29:32.1Z</time>
      </trkpt>
      <trkpt lat="44.45102" lon="6.27033">
        <ele>1003</ele>
        <time>2014-06-22T11:29:38.1Z</time>
      </trkpt>
      <trkpt lat="44.45098" lon="6.27025">
        <ele>1003</ele>
        <time>2014-06-22T11:29:43.1Z</time>
      </trkpt>
      <trkpt lat="44.45096" lon="6.27017">
        <ele>1004</ele>
        <time>2014-06-22T11:29:49.1Z</time>
      </trkpt>
      <trkpt lat="44.45094" lon="6.27007">
        <ele>1005</ele>
        <time>2014-06-22T11:29:55.1Z</time>
      </trkpt>
      <trkpt lat="44.45094" lon="6.27">
        <ele>1005</ele>
        <time>2014-06-22T11:30:01.1Z</time>
      </trkpt>
      <trkpt lat="44.45093" lon="6.2699">
        <ele>1006</ele>
        <time>2014-06-22T11:30:07.1Z</time>
      </trkpt>
      <trkpt lat="44.45092" lon="6.2698">
        <ele>1006</ele>
        <time>2014-06-22T11:30:13.1Z</time>
      </trkpt>
      <trkpt lat="44.45091" lon="6.26969">
        <ele>1006</ele>
        <time>2014-06-22T11:30:19.1Z</time>
      </trkpt>
      <trkpt lat="44.45089" lon="6.26958">
        <ele>1006</ele>
        <time>2014-06-22T11:30:25.1Z</time>
      </trkpt>
      <trkpt lat="44.45086" lon="6.2695">
        <ele>1007</ele>
        <time>2014-06-22T11:30:30.1Z</time>
      </trkpt>
      <trkpt lat="44.45085" lon="6.26941">
        <ele>1006</ele>
        <time>2014-06-22T11:30:35.1Z</time>
      </trkpt>
      <trkpt lat="44.45079" lon="6.26934">
        <ele>1006</ele>
        <time>2014-06-22T11:30:41.1Z</time>
      </trkpt>
      <trkpt lat="44.45076" lon="6.26928">
        <ele>1007</ele>
        <time>2014-06-22T11:30:46.1Z</time>
      </trkpt>
      <trkpt lat="44.45073" lon="6.2692">
        <ele>1007</ele>
        <time>2014-06-22T11:30:52.1Z</time>
      </trkpt>
      <trkpt lat="44.45069" lon="6.26913">
        <ele>1007</ele>
        <time>2014-06-22T11:30:57.1Z</time>
      </trkpt>
      <trkpt lat="44.45067" lon="6.26905">
        <ele>1007</ele>
        <time>2014-06-22T11:31:03.1Z</time>
      </trkpt>
      <trkpt lat="44.45065" lon="6.26898">
        <ele>1008</ele>
        <time>2014-06-22T11:31:09.1Z</time>
      </trkpt>
      <trkpt lat="44.45061" lon="6.26891">
        <ele>1008</ele>
        <time>2014-06-22T11:31:14.1Z</time>
      </trkpt>
      <trkpt lat="44.45058" lon="6.26884">
        <ele>1009</ele>
        <time>2014-06-22T11:31:19.1Z</time>
      </trkpt>
      <trkpt lat="44.45053" lon="6.26876">
        <ele>1009</ele>
        <time>2014-06-22T11:31:25.1Z</time>
      </trkpt>
      <trkpt lat="44.45047" lon="6.26869">
        <ele>1010</ele>
        <time>2014-06-22T11:31:31.1Z</time>
      </trkpt>
      <trkpt lat="44.45041" lon="6.26861">
        <ele>1010</ele>
        <time>2014-06-22T11:31:37.1Z</time>
      </trkpt>
      <trkpt lat="44.45035" lon="6.26856">
        <ele>1009</ele>
        <time>2014-06-22T11:31:43.1Z</time>
      </trkpt>
      <trkpt lat="44.45029" lon="6.26851">
        <ele>1009</ele>
        <time>2014-06-22T11:31:49.1Z</time>
      </trkpt>
      <trkpt lat="44.45024" lon="6.26847">
        <ele>1008</ele>
        <time>2014-06-22T11:31:55.1Z</time>
      </trkpt>
      <trkpt lat="44.45021" lon="6.26845">
        <ele>1008</ele>
        <time>2014-06-22T11:32:00.1Z</time>
      </trkpt>
      <trkpt lat="44.45014" lon="6.26842">
        <ele>1008</ele>
        <time>2014-06-22T11:32:06.1Z</time>
      </trkpt>
      <trkpt lat="44.45008" lon="6.26838">
        <ele>1007</ele>
        <time>2014-06-22T11:32:12.1Z</time>
      </trkpt>
      <trkpt lat="44.45003" lon="6.26833">
        <ele>1007</ele>
        <time>2014-06-22T11:32:17.1Z</time>
      </trkpt>
      <trkpt lat="44.44997" lon="6.26826">
        <ele>1006</ele>
        <time>2014-06-22T11:32:22.1Z</time>
      </trkpt>
      <trkpt lat="44.44991" lon="6.26817">
        <ele>1006</ele>
        <time>2014-06-22T11:32:28.1Z</time>
      </trkpt>
      <trkpt lat="44.44986" lon="6.2681">
        <ele>1005</ele>
        <time>2014-06-22T11:32:33.1Z</time>
      </trkpt>
      <trkpt lat="44.44982" lon="6.26801">
        <ele>1005</ele>
        <time>2014-06-22T11:32:39.1Z</time>
      </trkpt>
      <trkpt lat="44.44978" lon="6.26795">
        <ele>1005</ele>
        <time>2014-06-22T11:32:44.1Z</time>
      </trkpt>
      <trkpt lat="44.44973" lon="6.26791">
        <ele>1005</ele>
        <time>2014-06-22T11:32:50.1Z</time>
      </trkpt>
      <trkpt lat="44.44972" lon="6.2679">
        <ele>1005</ele>
        <time>2014-06-22T11:32:55.1Z</time>
      </trkpt>
      <trkpt lat="44.44971" lon="6.2679">
        <ele>1005</ele>
        <time>2014-06-22T11:33:01.1Z</time>
      </trkpt>
      <trkpt lat="44.4497" lon="6.26789">
        <ele>1005</ele>
        <time>2014-06-22T11:33:07.1Z</time>
      </trkpt>
      <trkpt lat="44.44969" lon="6.26787">
        <ele>1005</ele>
        <time>2014-06-22T11:33:13.1Z</time>
      </trkpt>
      <trkpt lat="44.44968" lon="6.26787">
        <ele>1005</ele>
        <time>2014-06-22T11:33:18.1Z</time>
      </trkpt>
      <trkpt lat="44.44968" lon="6.26785">
        <ele>1005</ele>
        <time>2014-06-22T11:33:23.1Z</time>
      </trkpt>
      <trkpt lat="44.44966" lon="6.26783">
        <ele>1005</ele>
        <time>2014-06-22T11:33:29.1Z</time>
      </trkpt>
      <trkpt lat="44.44965" lon="6.26782">
        <ele>1005</ele>
        <time>2014-06-22T11:33:34.1Z</time>
      </trkpt>
      <trkpt lat="44.44965" lon="6.26781">
        <ele>1005</ele>
        <time>2014-06-22T11:33:40.1Z</time>
      </trkpt>
      <trkpt lat="44.44965" lon="6.2678">
        <ele>1005</ele>
        <time>2014-06-22T11:33:45.1Z</time>
      </trkpt>
      <trkpt lat="44.44965" lon="6.26781">
        <ele>1005</ele>
        <time>2014-06-22T11:33:52.1Z</time>
      </trkpt>
      <trkpt lat="44.44964" lon="6.26781">
        <ele>1005</ele>
        <time>2014-06-22T11:33:58.1Z</time>
      </trkpt>
      <trkpt lat="44.44964" lon="6.26781">
        <ele>1006</ele>
        <time>2014-06-22T11:34:03.1Z</time>
      </trkpt>
      <trkpt lat="44.44961" lon="6.26779">
        <ele>1006</ele>
        <time>2014-06-22T11:34:08.1Z</time>
      </trkpt>
      <trkpt lat="44.44957" lon="6.26777">
        <ele>1005</ele>
        <time>2014-06-22T11:34:14.1Z</time>
      </trkpt>
      <trkpt lat="44.44952" lon="6.26776">
        <ele>1006</ele>
        <time>2014-06-22T11:34:20.1Z</time>
      </trkpt>
      <trkpt lat="44.44947" lon="6.26776">
        <ele>1006</ele>
        <time>2014-06-22T11:34:26.1Z</time>
      </trkpt>
      <trkpt lat="44.44942" lon="6.26775">
        <ele>1005</ele>
        <time>2014-06-22T11:34:32.1Z</time>
      </trkpt>
      <trkpt lat="44.44936" lon="6.26771">
        <ele>1005</ele>
        <time>2014-06-22T11:34:38.1Z</time>
      </trkpt>
      <trkpt lat="44.44931" lon="6.26767">
        <ele>1004</ele>
        <time>2014-06-22T11:34:44.1Z</time>
      </trkpt>
      <trkpt lat="44.44928" lon="6.26762">
        <ele>1004</ele>
        <time>2014-06-22T11:34:50.1Z</time>
      </trkpt>
      <trkpt lat="44.44925" lon="6.26756">
        <ele>1004</ele>
        <time>2014-06-22T11:34:55.1Z</time>
      </trkpt>
      <trkpt lat="44.4492" lon="6.26751">
        <ele>1005</ele>
        <time>2014-06-22T11:35:00.1Z</time>
      </trkpt>
      <trkpt lat="44.44912" lon="6.26746">
        <ele>1005</ele>
        <time>2014-06-22T11:35:06.1Z</time>
      </trkpt>
      <trkpt lat="44.44906" lon="6.26742">
        <ele>1004</ele>
        <time>2014-06-22T11:35:12.1Z</time>
      </trkpt>
      <trkpt lat="44.44898" lon="6.26737">
        <ele>1003</ele>
        <time>2014-06-22T11:35:18.1Z</time>
      </trkpt>
      <trkpt lat="44.44892" lon="6.26737">
        <ele>1002</ele>
        <time>2014-06-22T11:35:24.1Z</time>
      </trkpt>
      <trkpt lat="44.44885" lon="6.2674">
        <ele>1002</ele>
        <time>2014-06-22T11:35:30.1Z</time>
      </trkpt>
      <trkpt lat="44.44878" lon="6.26739">
        <ele>1001</ele>
        <time>2014-06-22T11:35:35.1Z</time>
      </trkpt>
      <trkpt lat="44.4487" lon="6.26736">
        <ele>1001</ele>
        <time>2014-06-22T11:35:41.1Z</time>
      </trkpt>
      <trkpt lat="44.44862" lon="6.26731">
        <ele>1000</ele>
        <time>2014-06-22T11:35:47.1Z</time>
      </trkpt>
      <trkpt lat="44.44855" lon="6.26726">
        <ele>1001</ele>
        <time>2014-06-22T11:35:53.1Z</time>
      </trkpt>
      <trkpt lat="44.44848" lon="6.26722">
        <ele>1002</ele>
        <time>2014-06-22T11:35:59.1Z</time>
      </trkpt>
      <trkpt lat="44.44842" lon="6.26718">
        <ele>1002</ele>
        <time>2014-06-22T11:36:04.1Z</time>
      </trkpt>
      <trkpt lat="44.44835" lon="6.26715">
        <ele>1002</ele>
        <time>2014-06-22T11:36:10.1Z</time>
      </trkpt>
      <trkpt lat="44.44827" lon="6.26711">
        <ele>1002</ele>
        <time>2014-06-22T11:36:16.1Z</time>
      </trkpt>
      <trkpt lat="44.44819" lon="6.2671">
        <ele>1002</ele>
        <time>2014-06-22T11:36:22.1Z</time>
      </trkpt>
      <trkpt lat="44.44812" lon="6.26711">
        <ele>1002</ele>
        <time>2014-06-22T11:36:27.1Z</time>
      </trkpt>
      <trkpt lat="44.44803" lon="6.2671">
        <ele>1002</ele>
        <time>2014-06-22T11:36:33.1Z</time>
      </trkpt>
      <trkpt lat="44.44796" lon="6.26709">
        <ele>1003</ele>
        <time>2014-06-22T11:36:38.1Z</time>
      </trkpt>
      <trkpt lat="44.44787" lon="6.26706">
        <ele>1002</ele>
        <time>2014-06-22T11:36:44.1Z</time>
      </trkpt>
      <trkpt lat="44.4478" lon="6.26701">
        <ele>1002</ele>
        <time>2014-06-22T11:36:49.1Z</time>
      </trkpt>
      <trkpt lat="44.44773" lon="6.26695">
        <ele>1003</ele>
        <time>2014-06-22T11:36:55.1Z</time>
      </trkpt>
      <trkpt lat="44.4477" lon="6.26693">
        <ele>1003</ele>
        <time>2014-06-22T11:37:00.1Z</time>
      </trkpt>
      <trkpt lat="44.44765" lon="6.26691">
        <ele>1003</ele>
        <time>2014-06-22T11:37:05.1Z</time>
      </trkpt>
      <trkpt lat="44.44756" lon="6.26687">
        <ele>1003</ele>
        <time>2014-06-22T11:37:11.1Z</time>
      </trkpt>
      <trkpt lat="44.44751" lon="6.26686">
        <ele>1004</ele>
        <time>2014-06-22T11:37:16.1Z</time>
      </trkpt>
      <trkpt lat="44.44746" lon="6.26689">
        <ele>1004</ele>
        <time>2014-06-22T11:37:22.1Z</time>
      </trkpt>
      <trkpt lat="44.44741" lon="6.26693">
        <ele>1004</ele>
        <time>2014-06-22T11:37:27.1Z</time>
      </trkpt>
      <trkpt lat="44.44737" lon="6.26702">
        <ele>1005</ele>
        <time>2014-06-22T11:37:33.1Z</time>
      </trkpt>
      <trkpt lat="44.44734" lon="6.26712">
        <ele>1005</ele>
        <time>2014-06-22T11:37:38.1Z</time>
      </trkpt>
      <trkpt lat="44.44733" lon="6.26725">
        <ele>1005</ele>
        <time>2014-06-22T11:37:44.1Z</time>
      </trkpt>
      <trkpt lat="44.44728" lon="6.26733">
        <ele>1004</ele>
        <time>2014-06-22T11:37:50.1Z</time>
      </trkpt>
      <trkpt lat="44.44724" lon="6.26739">
        <ele>1003</ele>
        <time>2014-06-22T11:37:55.1Z</time>
      </trkpt>
      <trkpt lat="44.44717" lon="6.26744">
        <ele>1003</ele>
        <time>2014-06-22T11:38:01.1Z</time>
      </trkpt>
      <trkpt lat="44.4471" lon="6.26747">
        <ele>1002</ele>
        <time>2014-06-22T11:38:06.1Z</time>
      </trkpt>
      <trkpt lat="44.44702" lon="6.26745">
        <ele>1002</ele>
        <time>2014-06-22T11:38:12.1Z</time>
      </trkpt>
      <trkpt lat="44.44699" lon="6.26736">
        <ele>1001</ele>
        <time>2014-06-22T11:38:18.1Z</time>
      </trkpt>
      <trkpt lat="44.44695" lon="6.26726">
        <ele>1001</ele>
        <time>2014-06-22T11:38:24.1Z</time>
      </trkpt>
      <trkpt lat="44.44692" lon="6.26717">
        <ele>1000</ele>
        <time>2014-06-22T11:38:29.1Z</time>
      </trkpt>
      <trkpt lat="44.44686" lon="6.26706">
        <ele>999</ele>
        <time>2014-06-22T11:38:35.1Z</time>
      </trkpt>
      <trkpt lat="44.44679" lon="6.26696">
        <ele>998</ele>
        <time>2014-06-22T11:38:41.1Z</time>
      </trkpt>
      <trkpt lat="44.44676" lon="6.26684">
        <ele>997</ele>
        <time>2014-06-22T11:38:47.1Z</time>
      </trkpt>
      <trkpt lat="44.44676" lon="6.26674">
        <ele>996</ele>
        <time>2014-06-22T11:38:53.1Z</time>
      </trkpt>
      <trkpt lat="44.44676" lon="6.26663">
        <ele>996</ele>
        <time>2014-06-22T11:38:59.1Z</time>
      </trkpt>
      <trkpt lat="44.44675" lon="6.26652">
        <ele>996</ele>
        <time>2014-06-22T11:39:05.1Z</time>
      </trkpt>
      <trkpt lat="44.44674" lon="6.26643">
        <ele>995</ele>
        <time>2014-06-22T11:39:11.1Z</time>
      </trkpt>
      <trkpt lat="44.44669" lon="6.26634">
        <ele>996</ele>
        <time>2014-06-22T11:39:16.1Z</time>
      </trkpt>
      <trkpt lat="44.44665" lon="6.26625">
        <ele>996</ele>
        <time>2014-06-22T11:39:22.1Z</time>
      </trkpt>
      <trkpt lat="44.44658" lon="6.26617">
        <ele>995</ele>
        <time>2014-06-22T11:39:28.1Z</time>
      </trkpt>
      <trkpt lat="44.44651" lon="6.26611">
        <ele>994</ele>
        <time>2014-06-22T11:39:33.1Z</time>
      </trkpt>
      <trkpt lat="44.44646" lon="6.26607">
        <ele>994</ele>
        <time>2014-06-22T11:39:38.1Z</time>
      </trkpt>
      <trkpt lat="44.44639" lon="6.26603">
        <ele>994</ele>
        <time>2014-06-22T11:39:44.1Z</time>
      </trkpt>
      <trkpt lat="44.44633" lon="6.266">
        <ele>994</ele>
        <time>2014-06-22T11:39:50.1Z</time>
      </trkpt>
      <trkpt lat="44.44628" lon="6.26596">
        <ele>993</ele>
        <time>2014-06-22T11:39:55.1Z</time>
      </trkpt>
      <trkpt lat="44.44621" lon="6.26591">
        <ele>992</ele>
        <time>2014-06-22T11:40:01.1Z</time>
      </trkpt>
      <trkpt lat="44.44614" lon="6.26586">
        <ele>991</ele>
        <time>2014-06-22T11:40:07.1Z</time>
      </trkpt>
      <trkpt lat="44.44609" lon="6.26582">
        <ele>990</ele>
        <time>2014-06-22T11:40:13.1Z</time>
      </trkpt>
      <trkpt lat="44.44603" lon="6.26578">
        <ele>989</ele>
        <time>2014-06-22T11:40:19.1Z</time>
      </trkpt>
      <trkpt lat="44.44597" lon="6.26576">
        <ele>988</ele>
        <time>2014-06-22T11:40:24.1Z</time>
      </trkpt>
      <trkpt lat="44.44589" lon="6.26574">
        <ele>987</ele>
        <time>2014-06-22T11:40:30.1Z</time>
      </trkpt>
      <trkpt lat="44.44585" lon="6.26572">
        <ele>985</ele>
        <time>2014-06-22T11:40:35.1Z</time>
      </trkpt>
      <trkpt lat="44.44579" lon="6.26568">
        <ele>984</ele>
        <time>2014-06-22T11:40:41.1Z</time>
      </trkpt>
      <trkpt lat="44.44573" lon="6.26567">
        <ele>984</ele>
        <time>2014-06-22T11:40:46.1Z</time>
      </trkpt>
      <trkpt lat="44.44564" lon="6.26565">
        <ele>983</ele>
        <time>2014-06-22T11:40:52.1Z</time>
      </trkpt>
      <trkpt lat="44.44556" lon="6.26561">
        <ele>982</ele>
        <time>2014-06-22T11:40:58.1Z</time>
      </trkpt>
      <trkpt lat="44.44549" lon="6.26555">
        <ele>982</ele>
        <time>2014-06-22T11:41:03.1Z</time>
      </trkpt>
      <trkpt lat="44.4454" lon="6.26549">
        <ele>982</ele>
        <time>2014-06-22T11:41:09.1Z</time>
      </trkpt>
      <trkpt lat="44.44532" lon="6.26545">
        <ele>982</ele>
        <time>2014-06-22T11:41:15.1Z</time>
      </trkpt>
      <trkpt lat="44.44525" lon="6.26544">
        <ele>982</ele>
        <time>2014-06-22T11:41:20.1Z</time>
      </trkpt>
      <trkpt lat="44.44515" lon="6.2654">
        <ele>982</ele>
        <time>2014-06-22T11:41:26.1Z</time>
      </trkpt>
      <trkpt lat="44.44506" lon="6.26539">
        <ele>982</ele>
        <time>2014-06-22T11:41:32.1Z</time>
      </trkpt>
      <trkpt lat="44.44498" lon="6.26538">
        <ele>982</ele>
        <time>2014-06-22T11:41:37.1Z</time>
      </trkpt>
      <trkpt lat="44.4449" lon="6.26536">
        <ele>981</ele>
        <time>2014-06-22T11:41:43.1Z</time>
      </trkpt>
      <trkpt lat="44.44484" lon="6.26538">
        <ele>981</ele>
        <time>2014-06-22T11:41:49.1Z</time>
      </trkpt>
      <trkpt lat="44.44478" lon="6.26538">
        <ele>981</ele>
        <time>2014-06-22T11:41:54.1Z</time>
      </trkpt>
      <trkpt lat="44.44472" lon="6.26538">
        <ele>981</ele>
        <time>2014-06-22T11:41:59.1Z</time>
      </trkpt>
      <trkpt lat="44.44465" lon="6.26535">
        <ele>981</ele>
        <time>2014-06-22T11:42:05.1Z</time>
      </trkpt>
      <trkpt lat="44.44458" lon="6.2653">
        <ele>980</ele>
        <time>2014-06-22T11:42:11.1Z</time>
      </trkpt>
      <trkpt lat="44.44453" lon="6.26524">
        <ele>980</ele>
        <time>2014-06-22T11:42:16.1Z</time>
      </trkpt>
      <trkpt lat="44.44448" lon="6.26515">
        <ele>979</ele>
        <time>2014-06-22T11:42:22.1Z</time>
      </trkpt>
      <trkpt lat="44.44444" lon="6.26506">
        <ele>980</ele>
        <time>2014-06-22T11:42:27.1Z</time>
      </trkpt>
      <trkpt lat="44.44442" lon="6.26496">
        <ele>980</ele>
        <time>2014-06-22T11:42:33.1Z</time>
      </trkpt>
      <trkpt lat="44.44439" lon="6.26483">
        <ele>979</ele>
        <time>2014-06-22T11:42:39.1Z</time>
      </trkpt>
      <trkpt lat="44.44437" lon="6.26472">
        <ele>978</ele>
        <time>2014-06-22T11:42:45.1Z</time>
      </trkpt>
      <trkpt lat="44.44433" lon="6.26462">
        <ele>978</ele>
        <time>2014-06-22T11:42:51.1Z</time>
      </trkpt>
      <trkpt lat="44.4443" lon="6.26453">
        <ele>978</ele>
        <time>2014-06-22T11:42:57.1Z</time>
      </trkpt>
      <trkpt lat="44.44427" lon="6.26444">
        <ele>978</ele>
        <time>2014-06-22T11:43:03.1Z</time>
      </trkpt>
      <trkpt lat="44.44424" lon="6.26438">
        <ele>978</ele>
        <time>2014-06-22T11:43:08.1Z</time>
      </trkpt>
      <trkpt lat="44.44418" lon="6.26433">
        <ele>977</ele>
        <time>2014-06-22T11:43:14.1Z</time>
      </trkpt>
      <trkpt lat="44.44412" lon="6.26426">
        <ele>977</ele>
        <time>2014-06-22T11:43:20.1Z</time>
      </trkpt>
      <trkpt lat="44.44406" lon="6.26421">
        <ele>976</ele>
        <time>2014-06-22T11:43:25.1Z</time>
      </trkpt>
      <trkpt lat="44.44402" lon="6.26415">
        <ele>976</ele>
        <time>2014-06-22T11:43:31.1Z</time>
      </trkpt>
      <trkpt lat="44.44398" lon="6.26406">
        <ele>976</ele>
        <time>2014-06-22T11:43:37.1Z</time>
      </trkpt>
      <trkpt lat="44.44394" lon="6.26394">
        <ele>976</ele>
        <time>2014-06-22T11:43:43.1Z</time>
      </trkpt>
      <trkpt lat="44.44392" lon="6.26381">
        <ele>974</ele>
        <time>2014-06-22T11:43:49.1Z</time>
      </trkpt>
      <trkpt lat="44.4439" lon="6.26371">
        <ele>974</ele>
        <time>2014-06-22T11:43:54.1Z</time>
      </trkpt>
      <trkpt lat="44.44387" lon="6.2636">
        <ele>973</ele>
        <time>2014-06-22T11:44:00.1Z</time>
      </trkpt>
      <trkpt lat="44.44386" lon="6.2635">
        <ele>972</ele>
        <time>2014-06-22T11:44:05.1Z</time>
      </trkpt>
      <trkpt lat="44.44382" lon="6.26338">
        <ele>972</ele>
        <time>2014-06-22T11:44:11.1Z</time>
      </trkpt>
      <trkpt lat="44.44379" lon="6.26326">
        <ele>971</ele>
        <time>2014-06-22T11:44:17.1Z</time>
      </trkpt>
      <trkpt lat="44.44376" lon="6.26318">
        <ele>970</ele>
        <time>2014-06-22T11:44:22.1Z</time>
      </trkpt>
      <trkpt lat="44.44374" lon="6.26311">
        <ele>969</ele>
        <time>2014-06-22T11:44:27.1Z</time>
      </trkpt>
      <trkpt lat="44.44372" lon="6.26304">
        <ele>969</ele>
        <time>2014-06-22T11:44:32.1Z</time>
      </trkpt>
      <trkpt lat="44.44368" lon="6.26296">
        <ele>969</ele>
        <time>2014-06-22T11:44:38.1Z</time>
      </trkpt>
      <trkpt lat="44.44366" lon="6.26287">
        <ele>968</ele>
        <time>2014-06-22T11:44:43.1Z</time>
      </trkpt>
      <trkpt lat="44.44361" lon="6.26275">
        <ele>967</ele>
        <time>2014-06-22T11:44:49.1Z</time>
      </trkpt>
      <trkpt lat="44.44357" lon="6.26265">
        <ele>966</ele>
        <time>2014-06-22T11:44:55.1Z</time>
      </trkpt>
      <trkpt lat="44.44355" lon="6.26257">
        <ele>965</ele>
        <time>2014-06-22T11:45:01.1Z</time>
      </trkpt>
      <trkpt lat="44.44352" lon="6.26252">
        <ele>964</ele>
        <time>2014-06-22T11:45:07.1Z</time>
      </trkpt>
      <trkpt lat="44.44349" lon="6.26257">
        <ele>963</ele>
        <time>2014-06-22T11:45:13.1Z</time>
      </trkpt>
      <trkpt lat="44.44344" lon="6.26263">
        <ele>963</ele>
        <time>2014-06-22T11:45:18.1Z</time>
      </trkpt>
      <trkpt lat="44.44343" lon="6.2627">
        <ele>962</ele>
        <time>2014-06-22T11:45:24.1Z</time>
      </trkpt>
      <trkpt lat="44.44343" lon="6.26278">
        <ele>961</ele>
        <time>2014-06-22T11:45:29.1Z</time>
      </trkpt>
      <trkpt lat="44.44346" lon="6.26288">
        <ele>961</ele>
        <time>2014-06-22T11:45:35.1Z</time>
      </trkpt>
      <trkpt lat="44.44348" lon="6.26297">
        <ele>960</ele>
        <time>2014-06-22T11:45:40.1Z</time>
      </trkpt>
      <trkpt lat="44.4435" lon="6.26306">
        <ele>959</ele>
        <time>2014-06-22T11:45:45.1Z</time>
      </trkpt>
      <trkpt lat="44.44352" lon="6.26318">
        <ele>959</ele>
        <time>2014-06-22T11:45:51.1Z</time>
      </trkpt>
      <trkpt lat="44.44353" lon="6.26326">
        <ele>959</ele>
        <time>2014-06-22T11:45:56.1Z</time>
      </trkpt>
      <trkpt lat="44.44354" lon="6.26336">
        <ele>958</ele>
        <time>2014-06-22T11:46:01.1Z</time>
      </trkpt>
      <trkpt lat="44.44357" lon="6.26349">
        <ele>958</ele>
        <time>2014-06-22T11:46:07.1Z</time>
      </trkpt>
      <trkpt lat="44.44358" lon="6.26363">
        <ele>957</ele>
        <time>2014-06-22T11:46:13.1Z</time>
      </trkpt>
      <trkpt lat="44.44358" lon="6.26373">
        <ele>957</ele>
        <time>2014-06-22T11:46:18.1Z</time>
      </trkpt>
      <trkpt lat="44.44359" lon="6.26385">
        <ele>955</ele>
        <time>2014-06-22T11:46:24.1Z</time>
      </trkpt>
      <trkpt lat="44.44359" lon="6.26396">
        <ele>955</ele>
        <time>2014-06-22T11:46:29.1Z</time>
      </trkpt>
      <trkpt lat="44.44357" lon="6.26405">
        <ele>955</ele>
        <time>2014-06-22T11:46:34.1Z</time>
      </trkpt>
      <trkpt lat="44.44355" lon="6.26415">
        <ele>955</ele>
        <time>2014-06-22T11:46:40.1Z</time>
      </trkpt>
      <trkpt lat="44.44353" lon="6.26421">
        <ele>954</ele>
        <time>2014-06-22T11:46:45.1Z</time>
      </trkpt>
      <trkpt lat="44.44352" lon="6.26433">
        <ele>953</ele>
        <time>2014-06-22T11:46:50.1Z</time>
      </trkpt>
      <trkpt lat="44.44351" lon="6.26444">
        <ele>953</ele>
        <time>2014-06-22T11:46:56.1Z</time>
      </trkpt>
      <trkpt lat="44.44352" lon="6.26454">
        <ele>952</ele>
        <time>2014-06-22T11:47:02.1Z</time>
      </trkpt>
      <trkpt lat="44.44354" lon="6.26466">
        <ele>952</ele>
        <time>2014-06-22T11:47:08.1Z</time>
      </trkpt>
      <trkpt lat="44.44357" lon="6.26475">
        <ele>951</ele>
        <time>2014-06-22T11:47:13.1Z</time>
      </trkpt>
      <trkpt lat="44.44357" lon="6.26488">
        <ele>949</ele>
        <time>2014-06-22T11:47:19.1Z</time>
      </trkpt>
      <trkpt lat="44.44356" lon="6.26501">
        <ele>948</ele>
        <time>2014-06-22T11:47:25.1Z</time>
      </trkpt>
      <trkpt lat="44.44355" lon="6.26513">
        <ele>948</ele>
        <time>2014-06-22T11:47:31.1Z</time>
      </trkpt>
      <trkpt lat="44.44353" lon="6.26523">
        <ele>948</ele>
        <time>2014-06-22T11:47:37.1Z</time>
      </trkpt>
      <trkpt lat="44.4435" lon="6.26533">
        <ele>947</ele>
        <time>2014-06-22T11:47:43.1Z</time>
      </trkpt>
      <trkpt lat="44.4435" lon="6.26541">
        <ele>946</ele>
        <time>2014-06-22T11:47:48.1Z</time>
      </trkpt>
      <trkpt lat="44.44348" lon="6.26551">
        <ele>946</ele>
        <time>2014-06-22T11:47:54.1Z</time>
      </trkpt>
      <trkpt lat="44.44348" lon="6.2656">
        <ele>946</ele>
        <time>2014-06-22T11:47:59.1Z</time>
      </trkpt>
      <trkpt lat="44.44349" lon="6.26569">
        <ele>945</ele>
        <time>2014-06-22T11:48:04.1Z</time>
      </trkpt>
      <trkpt lat="44.4435" lon="6.2658">
        <ele>945</ele>
        <time>2014-06-22T11:48:10.1Z</time>
      </trkpt>
      <trkpt lat="44.4435" lon="6.2659">
        <ele>944</ele>
        <time>2014-06-22T11:48:15.1Z</time>
      </trkpt>
      <trkpt lat="44.44348" lon="6.26601">
        <ele>943</ele>
        <time>2014-06-22T11:48:21.1Z</time>
      </trkpt>
      <trkpt lat="44.44346" lon="6.26608">
        <ele>943</ele>
        <time>2014-06-22T11:48:26.1Z</time>
      </trkpt>
      <trkpt lat="44.44339" lon="6.26613">
        <ele>942</ele>
        <time>2014-06-22T11:48:32.1Z</time>
      </trkpt>
      <trkpt lat="44.44329" lon="6.26613">
        <ele>942</ele>
        <time>2014-06-22T11:48:37.1Z</time>
      </trkpt>
      <trkpt lat="44.44318" lon="6.26606">
        <ele>941</ele>
        <time>2014-06-22T11:48:43.1Z</time>
      </trkpt>
      <trkpt lat="44.44309" lon="6.26598">
        <ele>941</ele>
        <time>2014-06-22T11:48:48.1Z</time>
      </trkpt>
      <trkpt lat="44.44301" lon="6.26586">
        <ele>941</ele>
        <time>2014-06-22T11:48:54.1Z</time>
      </trkpt>
      <trkpt lat="44.44295" lon="6.26579">
        <ele>941</ele>
        <time>2014-06-22T11:48:59.1Z</time>
      </trkpt>
      <trkpt lat="44.4429" lon="6.26569">
        <ele>941</ele>
        <time>2014-06-22T11:49:05.1Z</time>
      </trkpt>
      <trkpt lat="44.44287" lon="6.26562">
        <ele>940</ele>
        <time>2014-06-22T11:49:10.1Z</time>
      </trkpt>
      <trkpt lat="44.44284" lon="6.26554">
        <ele>940</ele>
        <time>2014-06-22T11:49:15.1Z</time>
      </trkpt>
      <trkpt lat="44.4428" lon="6.26547">
        <ele>940</ele>
        <time>2014-06-22T11:49:20.1Z</time>
      </trkpt>
      <trkpt lat="44.44276" lon="6.26541">
        <ele>939</ele>
        <time>2014-06-22T11:49:25.1Z</time>
      </trkpt>
      <trkpt lat="44.4427" lon="6.26536">
        <ele>939</ele>
        <time>2014-06-22T11:49:31.1Z</time>
      </trkpt>
      <trkpt lat="44.44263" lon="6.26534">
        <ele>940</ele>
        <time>2014-06-22T11:49:36.1Z</time>
      </trkpt>
      <trkpt lat="44.44258" lon="6.26533">
        <ele>939</ele>
        <time>2014-06-22T11:49:42.1Z</time>
      </trkpt>
      <trkpt lat="44.44253" lon="6.26532">
        <ele>939</ele>
        <time>2014-06-22T11:49:47.1Z</time>
      </trkpt>
      <trkpt lat="44.44245" lon="6.26528">
        <ele>938</ele>
        <time>2014-06-22T11:49:53.1Z</time>
      </trkpt>
      <trkpt lat="44.44239" lon="6.26524">
        <ele>938</ele>
        <time>2014-06-22T11:49:58.1Z</time>
      </trkpt>
      <trkpt lat="44.44234" lon="6.2652">
        <ele>938</ele>
        <time>2014-06-22T11:50:03.1Z</time>
      </trkpt>
      <trkpt lat="44.44227" lon="6.26514">
        <ele>937</ele>
        <time>2014-06-22T11:50:09.1Z</time>
      </trkpt>
      <trkpt lat="44.4422" lon="6.26507">
        <ele>936</ele>
        <time>2014-06-22T11:50:15.1Z</time>
      </trkpt>
      <trkpt lat="44.44213" lon="6.26502">
        <ele>936</ele>
        <time>2014-06-22T11:50:20.1Z</time>
      </trkpt>
      <trkpt lat="44.44207" lon="6.26499">
        <ele>936</ele>
        <time>2014-06-22T11:50:25.1Z</time>
      </trkpt>
      <trkpt lat="44.44199" lon="6.26494">
        <ele>935</ele>
        <time>2014-06-22T11:50:31.1Z</time>
      </trkpt>
      <trkpt lat="44.44191" lon="6.26489">
        <ele>935</ele>
        <time>2014-06-22T11:50:37.1Z</time>
      </trkpt>
      <trkpt lat="44.44184" lon="6.26484">
        <ele>934</ele>
        <time>2014-06-22T11:50:42.1Z</time>
      </trkpt>
      <trkpt lat="44.44177" lon="6.26479">
        <ele>933</ele>
        <time>2014-06-22T11:50:47.1Z</time>
      </trkpt>
      <trkpt lat="44.44168" lon="6.26474">
        <ele>933</ele>
        <time>2014-06-22T11:50:53.1Z</time>
      </trkpt>
      <trkpt lat="44.4416" lon="6.26469">
        <ele>932</ele>
        <time>2014-06-22T11:50:59.1Z</time>
      </trkpt>
      <trkpt lat="44.44154" lon="6.26467">
        <ele>932</ele>
        <time>2014-06-22T11:51:04.1Z</time>
      </trkpt>
      <trkpt lat="44.4415" lon="6.26466">
        <ele>931</ele>
        <time>2014-06-22T11:51:09.1Z</time>
      </trkpt>
      <trkpt lat="44.44145" lon="6.26465">
        <ele>930</ele>
        <time>2014-06-22T11:51:14.1Z</time>
      </trkpt>
      <trkpt lat="44.44139" lon="6.26466">
        <ele>930</ele>
        <time>2014-06-22T11:51:19.1Z</time>
      </trkpt>
      <trkpt lat="44.44132" lon="6.26466">
        <ele>929</ele>
        <time>2014-06-22T11:51:25.1Z</time>
      </trkpt>
      <trkpt lat="44.44124" lon="6.26463">
        <ele>928</ele>
        <time>2014-06-22T11:51:30.1Z</time>
      </trkpt>
      <trkpt lat="44.44115" lon="6.26462">
        <ele>927</ele>
        <time>2014-06-22T11:51:35.1Z</time>
      </trkpt>
      <trkpt lat="44.44104" lon="6.2646">
        <ele>927</ele>
        <time>2014-06-22T11:51:41.1Z</time>
      </trkpt>
      <trkpt lat="44.44095" lon="6.2646">
        <ele>926</ele>
        <time>2014-06-22T11:51:46.1Z</time>
      </trkpt>
      <trkpt lat="44.44083" lon="6.2646">
        <ele>926</ele>
        <time>2014-06-22T11:51:52.1Z</time>
      </trkpt>
      <trkpt lat="44.44077" lon="6.26464">
        <ele>925</ele>
        <time>2014-06-22T11:51:57.1Z</time>
      </trkpt>
      <trkpt lat="44.44078" lon="6.2648">
        <ele>925</ele>
        <time>2014-06-22T11:52:03.1Z</time>
      </trkpt>
      <trkpt lat="44.44083" lon="6.26501">
        <ele>924</ele>
        <time>2014-06-22T11:52:09.1Z</time>
      </trkpt>
      <trkpt lat="44.44089" lon="6.2652">
        <ele>922</ele>
        <time>2014-06-22T11:52:15.1Z</time>
      </trkpt>
      <trkpt lat="44.44088" lon="6.2653">
        <ele>922</ele>
        <time>2014-06-22T11:52:20.1Z</time>
      </trkpt>
      <trkpt lat="44.44078" lon="6.2653">
        <ele>921</ele>
        <time>2014-06-22T11:52:26.1Z</time>
      </trkpt>
      <trkpt lat="44.44063" lon="6.26521">
        <ele>921</ele>
        <time>2014-06-22T11:52:32.1Z</time>
      </trkpt>
      <trkpt lat="44.44056" lon="6.26513">
        <ele>920</ele>
        <time>2014-06-22T11:52:37.1Z</time>
      </trkpt>
      <trkpt lat="44.44044" lon="6.26502">
        <ele>920</ele>
        <time>2014-06-22T11:52:43.1Z</time>
      </trkpt>
      <trkpt lat="44.44038" lon="6.26496">
        <ele>919</ele>
        <time>2014-06-22T11:52:48.1Z</time>
      </trkpt>
      <trkpt lat="44.44031" lon="6.26485">
        <ele>918</ele>
        <time>2014-06-22T11:52:54.1Z</time>
      </trkpt>
      <trkpt lat="44.44023" lon="6.26478">
        <ele>917</ele>
        <time>2014-06-22T11:52:59.1Z</time>
      </trkpt>
      <trkpt lat="44.44016" lon="6.2647">
        <ele>917</ele>
        <time>2014-06-22T11:53:05.1Z</time>
      </trkpt>
      <trkpt lat="44.44009" lon="6.26461">
        <ele>917</ele>
        <time>2014-06-22T11:53:11.1Z</time>
      </trkpt>
      <trkpt lat="44.44002" lon="6.26457">
        <ele>916</ele>
        <time>2014-06-22T11:53:16.1Z</time>
      </trkpt>
      <trkpt lat="44.43997" lon="6.26453">
        <ele>915</ele>
        <time>2014-06-22T11:53:21.1Z</time>
      </trkpt>
      <trkpt lat="44.43991" lon="6.26447">
        <ele>914</ele>
        <time>2014-06-22T11:53:27.1Z</time>
      </trkpt>
      <trkpt lat="44.43987" lon="6.26441">
        <ele>914</ele>
        <time>2014-06-22T11:53:32.1Z</time>
      </trkpt>
      <trkpt lat="44.43982" lon="6.26432">
        <ele>913</ele>
        <time>2014-06-22T11:53:38.1Z</time>
      </trkpt>
      <trkpt lat="44.43977" lon="6.26426">
        <ele>913</ele>
        <time>2014-06-22T11:53:43.1Z</time>
      </trkpt>
      <trkpt lat="44.43971" lon="6.26417">
        <ele>913</ele>
        <time>2014-06-22T11:53:49.1Z</time>
      </trkpt>
      <trkpt lat="44.43968" lon="6.26408">
        <ele>912</ele>
        <time>2014-06-22T11:53:55.1Z</time>
      </trkpt>
      <trkpt lat="44.43962" lon="6.26398">
        <ele>912</ele>
        <time>2014-06-22T11:54:01.1Z</time>
      </trkpt>
      <trkpt lat="44.43956" lon="6.2639">
        <ele>912</ele>
        <time>2014-06-22T11:54:06.1Z</time>
      </trkpt>
      <trkpt lat="44.43948" lon="6.26381">
        <ele>912</ele>
        <time>2014-06-22T11:54:12.1Z</time>
      </trkpt>
      <trkpt lat="44.4394" lon="6.26374">
        <ele>911</ele>
        <time>2014-06-22T11:54:17.1Z</time>
      </trkpt>
      <trkpt lat="44.43931" lon="6.26369">
        <ele>911</ele>
        <time>2014-06-22T11:54:23.1Z</time>
      </trkpt>
      <trkpt lat="44.43924" lon="6.2636">
        <ele>910</ele>
        <time>2014-06-22T11:54:29.1Z</time>
      </trkpt>
      <trkpt lat="44.43922" lon="6.26348">
        <ele>910</ele>
        <time>2014-06-22T11:54:35.1Z</time>
      </trkpt>
      <trkpt lat="44.43922" lon="6.26337">
        <ele>910</ele>
        <time>2014-06-22T11:54:41.1Z</time>
      </trkpt>
      <trkpt lat="44.43924" lon="6.26326">
        <ele>909</ele>
        <time>2014-06-22T11:54:47.1Z</time>
      </trkpt>
      <trkpt lat="44.43928" lon="6.26316">
        <ele>909</ele>
        <time>2014-06-22T11:54:53.1Z</time>
      </trkpt>
      <trkpt lat="44.4393" lon="6.26307">
        <ele>908</ele>
        <time>2014-06-22T11:54:58.1Z</time>
      </trkpt>
      <trkpt lat="44.43932" lon="6.26296">
        <ele>908</ele>
        <time>2014-06-22T11:55:04.1Z</time>
      </trkpt>
      <trkpt lat="44.43932" lon="6.26286">
        <ele>907</ele>
        <time>2014-06-22T11:55:09.1Z</time>
      </trkpt>
      <trkpt lat="44.43931" lon="6.26274">
        <ele>907</ele>
        <time>2014-06-22T11:55:15.1Z</time>
      </trkpt>
      <trkpt lat="44.43929" lon="6.26264">
        <ele>907</ele>
        <time>2014-06-22T11:55:21.1Z</time>
      </trkpt>
      <trkpt lat="44.43928" lon="6.26254">
        <ele>907</ele>
        <time>2014-06-22T11:55:26.1Z</time>
      </trkpt>
      <trkpt lat="44.43926" lon="6.26241">
        <ele>906</ele>
        <time>2014-06-22T11:55:32.1Z</time>
      </trkpt>
      <trkpt lat="44.43925" lon="6.26229">
        <ele>905</ele>
        <time>2014-06-22T11:55:38.1Z</time>
      </trkpt>
      <trkpt lat="44.43923" lon="6.2622">
        <ele>906</ele>
        <time>2014-06-22T11:55:43.1Z</time>
      </trkpt>
      <trkpt lat="44.43918" lon="6.26209">
        <ele>905</ele>
        <time>2014-06-22T11:55:49.1Z</time>
      </trkpt>
      <trkpt lat="44.43914" lon="6.26201">
        <ele>905</ele>
        <time>2014-06-22T11:55:54.1Z</time>
      </trkpt>
      <trkpt lat="44.43908" lon="6.26191">
        <ele>904</ele>
        <time>2014-06-22T11:56:00.1Z</time>
      </trkpt>
      <trkpt lat="44.43903" lon="6.26181">
        <ele>904</ele>
        <time>2014-06-22T11:56:06.1Z</time>
      </trkpt>
      <trkpt lat="44.43898" lon="6.26172">
        <ele>904</ele>
        <time>2014-06-22T11:56:11.1Z</time>
      </trkpt>
      <trkpt lat="44.43893" lon="6.26161">
        <ele>904</ele>
        <time>2014-06-22T11:56:17.1Z</time>
      </trkpt>
      <trkpt lat="44.43889" lon="6.26152">
        <ele>903</ele>
        <time>2014-06-22T11:56:23.1Z</time>
      </trkpt>
      <trkpt lat="44.43885" lon="6.26145">
        <ele>903</ele>
        <time>2014-06-22T11:56:28.1Z</time>
      </trkpt>
      <trkpt lat="44.43879" lon="6.26138">
        <ele>903</ele>
        <time>2014-06-22T11:56:34.1Z</time>
      </trkpt>
      <trkpt lat="44.43873" lon="6.26131">
        <ele>902</ele>
        <time>2014-06-22T11:56:40.1Z</time>
      </trkpt>
      <trkpt lat="44.43867" lon="6.26125">
        <ele>902</ele>
        <time>2014-06-22T11:56:45.1Z</time>
      </trkpt>
      <trkpt lat="44.43862" lon="6.2612">
        <ele>902</ele>
        <time>2014-06-22T11:56:50.1Z</time>
      </trkpt>
      <trkpt lat="44.43856" lon="6.26113">
        <ele>901</ele>
        <time>2014-06-22T11:56:56.1Z</time>
      </trkpt>
      <trkpt lat="44.43852" lon="6.26107">
        <ele>901</ele>
        <time>2014-06-22T11:57:01.1Z</time>
      </trkpt>
      <trkpt lat="44.43847" lon="6.261">
        <ele>901</ele>
        <time>2014-06-22T11:57:06.1Z</time>
      </trkpt>
      <trkpt lat="44.43842" lon="6.26091">
        <ele>900</ele>
        <time>2014-06-22T11:57:12.1Z</time>
      </trkpt>
      <trkpt lat="44.43837" lon="6.26084">
        <ele>900</ele>
        <time>2014-06-22T11:57:17.1Z</time>
      </trkpt>
      <trkpt lat="44.43832" lon="6.26075">
        <ele>900</ele>
        <time>2014-06-22T11:57:23.1Z</time>
      </trkpt>
      <trkpt lat="44.43829" lon="6.26065">
        <ele>900</ele>
        <time>2014-06-22T11:57:29.1Z</time>
      </trkpt>
      <trkpt lat="44.43826" lon="6.26055">
        <ele>899</ele>
        <time>2014-06-22T11:57:35.1Z</time>
      </trkpt>
      <trkpt lat="44.43824" lon="6.26044">
        <ele>899</ele>
        <time>2014-06-22T11:57:41.1Z</time>
      </trkpt>
      <trkpt lat="44.43823" lon="6.26033">
        <ele>898</ele>
        <time>2014-06-22T11:57:47.1Z</time>
      </trkpt>
      <trkpt lat="44.43822" lon="6.26022">
        <ele>898</ele>
        <time>2014-06-22T11:57:53.1Z</time>
      </trkpt>
      <trkpt lat="44.43821" lon="6.26013">
        <ele>897</ele>
        <time>2014-06-22T11:57:58.1Z</time>
      </trkpt>
      <trkpt lat="44.4382" lon="6.26002">
        <ele>896</ele>
        <time>2014-06-22T11:58:04.1Z</time>
      </trkpt>
      <trkpt lat="44.43819" lon="6.25993">
        <ele>895</ele>
        <time>2014-06-22T11:58:09.1Z</time>
      </trkpt>
      <trkpt lat="44.43817" lon="6.25985">
        <ele>895</ele>
        <time>2014-06-22T11:58:14.1Z</time>
      </trkpt>
      <trkpt lat="44.43815" lon="6.25977">
        <ele>895</ele>
        <time>2014-06-22T11:58:19.1Z</time>
      </trkpt>
      <trkpt lat="44.43813" lon="6.25966">
        <ele>894</ele>
        <time>2014-06-22T11:58:25.1Z</time>
      </trkpt>
      <trkpt lat="44.4381" lon="6.25957">
        <ele>893</ele>
        <time>2014-06-22T11:58:30.1Z</time>
      </trkpt>
      <trkpt lat="44.43807" lon="6.25948">
        <ele>892</ele>
        <time>2014-06-22T11:58:35.1Z</time>
      </trkpt>
      <trkpt lat="44.43803" lon="6.25937">
        <ele>892</ele>
        <time>2014-06-22T11:58:41.1Z</time>
      </trkpt>
      <trkpt lat="44.43799" lon="6.2593">
        <ele>890</ele>
        <time>2014-06-22T11:58:46.1Z</time>
      </trkpt>
      <trkpt lat="44.43793" lon="6.25921">
        <ele>889</ele>
        <time>2014-06-22T11:58:52.1Z</time>
      </trkpt>
      <trkpt lat="44.43788" lon="6.25915">
        <ele>889</ele>
        <time>2014-06-22T11:58:57.1Z</time>
      </trkpt>
      <trkpt lat="44.43784" lon="6.25909">
        <ele>888</ele>
        <time>2014-06-22T11:59:02.1Z</time>
      </trkpt>
      <trkpt lat="44.43781" lon="6.25903">
        <ele>887</ele>
        <time>2014-06-22T11:59:07.1Z</time>
      </trkpt>
      <trkpt lat="44.4378" lon="6.25893">
        <ele>886</ele>
        <time>2014-06-22T11:59:13.1Z</time>
      </trkpt>
      <trkpt lat="44.4378" lon="6.25884">
        <ele>885</ele>
        <time>2014-06-22T11:59:18.1Z</time>
      </trkpt>
      <trkpt lat="44.43781" lon="6.25873">
        <ele>884</ele>
        <time>2014-06-22T11:59:24.1Z</time>
      </trkpt>
      <trkpt lat="44.43782" lon="6.25861">
        <ele>884</ele>
        <time>2014-06-22T11:59:30.1Z</time>
      </trkpt>
      <trkpt lat="44.43785" lon="6.25851">
        <ele>883</ele>
        <time>2014-06-22T11:59:36.1Z</time>
      </trkpt>
      <trkpt lat="44.43788" lon="6.25841">
        <ele>882</ele>
        <time>2014-06-22T11:59:42.1Z</time>
      </trkpt>
      <trkpt lat="44.43787" lon="6.2583">
        <ele>881</ele>
        <time>2014-06-22T11:59:48.1Z</time>
      </trkpt>
      <trkpt lat="44.43787" lon="6.2582">
        <ele>880</ele>
        <time>2014-06-22T11:59:53.1Z</time>
      </trkpt>
      <trkpt lat="44.43786" lon="6.25808">
        <ele>879</ele>
        <time>2014-06-22T11:59:59.1Z</time>
      </trkpt>
      <trkpt lat="44.43786" lon="6.25799">
        <ele>878</ele>
        <time>2014-06-22T12:00:04.1Z</time>
      </trkpt>
      <trkpt lat="44.43788" lon="6.2579">
        <ele>878</ele>
        <time>2014-06-22T12:00:09.1Z</time>
      </trkpt>
      <trkpt lat="44.4379" lon="6.25778">
        <ele>878</ele>
        <time>2014-06-22T12:00:15.1Z</time>
      </trkpt>
      <trkpt lat="44.43792" lon="6.25769">
        <ele>877</ele>
        <time>2014-06-22T12:00:20.1Z</time>
      </trkpt>
      <trkpt lat="44.43793" lon="6.25761">
        <ele>876</ele>
        <time>2014-06-22T12:00:25.1Z</time>
      </trkpt>
      <trkpt lat="44.43796" lon="6.2575">
        <ele>876</ele>
        <time>2014-06-22T12:00:31.1Z</time>
      </trkpt>
      <trkpt lat="44.43797" lon="6.2574">
        <ele>875</ele>
        <time>2014-06-22T12:00:36.1Z</time>
      </trkpt>
      <trkpt lat="44.43799" lon="6.25729">
        <ele>875</ele>
        <time>2014-06-22T12:00:42.1Z</time>
      </trkpt>
      <trkpt lat="44.438" lon="6.2572">
        <ele>874</ele>
        <time>2014-06-22T12:00:48.1Z</time>
      </trkpt>
      <trkpt lat="44.43802" lon="6.25712">
        <ele>874</ele>
        <time>2014-06-22T12:00:53.1Z</time>
      </trkpt>
      <trkpt lat="44.43804" lon="6.25703">
        <ele>874</ele>
        <time>2014-06-22T12:00:58.1Z</time>
      </trkpt>
      <trkpt lat="44.43806" lon="6.25695">
        <ele>872</ele>
        <time>2014-06-22T12:01:04.1Z</time>
      </trkpt>
      <trkpt lat="44.43806" lon="6.25695">
        <ele>872</ele>
        <time>2014-06-22T12:01:09.1Z</time>
      </trkpt>
      <trkpt lat="44.43806" lon="6.25694">
        <ele>872</ele>
        <time>2014-06-22T12:01:17.1Z</time>
      </trkpt>
      <trkpt lat="44.43806" lon="6.25694">
        <ele>872</ele>
        <time>2014-06-22T12:01:23.1Z</time>
      </trkpt>
      <trkpt lat="44.43806" lon="6.25693">
        <ele>871</ele>
        <time>2014-06-22T12:01:30.1Z</time>
      </trkpt>
      <trkpt lat="44.43806" lon="6.25693">
        <ele>872</ele>
        <time>2014-06-22T12:01:36.1Z</time>
      </trkpt>
      <trkpt lat="44.43806" lon="6.25692">
        <ele>872</ele>
        <time>2014-06-22T12:01:43.1Z</time>
      </trkpt>
      <trkpt lat="44.43806" lon="6.25692">
        <ele>871</ele>
        <time>2014-06-22T12:01:49.1Z</time>
      </trkpt>
      <trkpt lat="44.43806" lon="6.25692">
        <ele>871</ele>
        <time>2014-06-22T12:01:55.1Z</time>
      </trkpt>
      <trkpt lat="44.43806" lon="6.25692">
        <ele>871</ele>
        <time>2014-06-22T12:02:03.1Z</time>
      </trkpt>
      <trkpt lat="44.43806" lon="6.25689">
        <ele>871</ele>
        <time>2014-06-22T12:02:08.1Z</time>
      </trkpt>
      <trkpt lat="44.43808" lon="6.25681">
        <ele>871</ele>
        <time>2014-06-22T12:02:14.1Z</time>
      </trkpt>
      <trkpt lat="44.43809" lon="6.25675">
        <ele>870</ele>
        <time>2014-06-22T12:02:20.1Z</time>
      </trkpt>
      <trkpt lat="44.43809" lon="6.25675">
        <ele>870</ele>
        <time>2014-06-22T12:02:27.1Z</time>
      </trkpt>
      <trkpt lat="44.43809" lon="6.25675">
        <ele>870</ele>
        <time>2014-06-22T12:02:33.1Z</time>
      </trkpt>
      <trkpt lat="44.4381" lon="6.25675">
        <ele>870</ele>
        <time>2014-06-22T12:02:40.1Z</time>
      </trkpt>
      <trkpt lat="44.4381" lon="6.25671">
        <ele>870</ele>
        <time>2014-06-22T12:02:45.1Z</time>
      </trkpt>
      <trkpt lat="44.43811" lon="6.25662">
        <ele>869</ele>
        <time>2014-06-22T12:02:51.1Z</time>
      </trkpt>
      <trkpt lat="44.4381" lon="6.25653">
        <ele>868</ele>
        <time>2014-06-22T12:02:56.1Z</time>
      </trkpt>
      <trkpt lat="44.43809" lon="6.25643">
        <ele>867</ele>
        <time>2014-06-22T12:03:02.1Z</time>
      </trkpt>
      <trkpt lat="44.43807" lon="6.25634">
        <ele>867</ele>
        <time>2014-06-22T12:03:07.1Z</time>
      </trkpt>
      <trkpt lat="44.43805" lon="6.25623">
        <ele>866</ele>
        <time>2014-06-22T12:03:13.1Z</time>
      </trkpt>
      <trkpt lat="44.43803" lon="6.25614">
        <ele>865</ele>
        <time>2014-06-22T12:03:18.1Z</time>
      </trkpt>
      <trkpt lat="44.43802" lon="6.25604">
        <ele>864</ele>
        <time>2014-06-22T12:03:24.1Z</time>
      </trkpt>
      <trkpt lat="44.43799" lon="6.25595">
        <ele>863</ele>
        <time>2014-06-22T12:03:29.1Z</time>
      </trkpt>
      <trkpt lat="44.43797" lon="6.25586">
        <ele>862</ele>
        <time>2014-06-22T12:03:34.1Z</time>
      </trkpt>
      <trkpt lat="44.43793" lon="6.25576">
        <ele>861</ele>
        <time>2014-06-22T12:03:40.1Z</time>
      </trkpt>
      <trkpt lat="44.43789" lon="6.25568">
        <ele>861</ele>
        <time>2014-06-22T12:03:45.1Z</time>
      </trkpt>
      <trkpt lat="44.43785" lon="6.25558">
        <ele>859</ele>
        <time>2014-06-22T12:03:51.1Z</time>
      </trkpt>
      <trkpt lat="44.43781" lon="6.25551">
        <ele>858</ele>
        <time>2014-06-22T12:03:56.1Z</time>
      </trkpt>
      <trkpt lat="44.43777" lon="6.25543">
        <ele>858</ele>
        <time>2014-06-22T12:04:01.1Z</time>
      </trkpt>
      <trkpt lat="44.43773" lon="6.25534">
        <ele>857</ele>
        <time>2014-06-22T12:04:07.1Z</time>
      </trkpt>
      <trkpt lat="44.43768" lon="6.25525">
        <ele>857</ele>
        <time>2014-06-22T12:04:13.1Z</time>
      </trkpt>
      <trkpt lat="44.43764" lon="6.25515">
        <ele>856</ele>
        <time>2014-06-22T12:04:19.1Z</time>
      </trkpt>
      <trkpt lat="44.43761" lon="6.25506">
        <ele>855</ele>
        <time>2014-06-22T12:04:24.1Z</time>
      </trkpt>
      <trkpt lat="44.43758" lon="6.25497">
        <ele>855</ele>
        <time>2014-06-22T12:04:29.1Z</time>
      </trkpt>
      <trkpt lat="44.43755" lon="6.25487">
        <ele>854</ele>
        <time>2014-06-22T12:04:35.1Z</time>
      </trkpt>
      <trkpt lat="44.43754" lon="6.25478">
        <ele>853</ele>
        <time>2014-06-22T12:04:40.1Z</time>
      </trkpt>
      <trkpt lat="44.43752" lon="6.25466">
        <ele>852</ele>
        <time>2014-06-22T12:04:46.1Z</time>
      </trkpt>
      <trkpt lat="44.43751" lon="6.25457">
        <ele>851</ele>
        <time>2014-06-22T12:04:51.1Z</time>
      </trkpt>
      <trkpt lat="44.4375" lon="6.25449">
        <ele>851</ele>
        <time>2014-06-22T12:04:56.1Z</time>
      </trkpt>
      <trkpt lat="44.4375" lon="6.2544">
        <ele>851</ele>
        <time>2014-06-22T12:05:01.1Z</time>
      </trkpt>
      <trkpt lat="44.4375" lon="6.25431">
        <ele>849</ele>
        <time>2014-06-22T12:05:06.1Z</time>
      </trkpt>
      <trkpt lat="44.4375" lon="6.25422">
        <ele>849</ele>
        <time>2014-06-22T12:05:11.1Z</time>
      </trkpt>
      <trkpt lat="44.43754" lon="6.25412">
        <ele>849</ele>
        <time>2014-06-22T12:05:17.1Z</time>
      </trkpt>
      <trkpt lat="44.43759" lon="6.25403">
        <ele>847</ele>
        <time>2014-06-22T12:05:23.1Z</time>
      </trkpt>
      <trkpt lat="44.43765" lon="6.254">
        <ele>847</ele>
        <time>2014-06-22T12:05:28.1Z</time>
      </trkpt>
      <trkpt lat="44.43772" lon="6.25396">
        <ele>846</ele>
        <time>2014-06-22T12:05:34.1Z</time>
      </trkpt>
      <trkpt lat="44.43773" lon="6.25389">
        <ele>845</ele>
        <time>2014-06-22T12:05:39.1Z</time>
      </trkpt>
      <trkpt lat="44.43766" lon="6.25386">
        <ele>844</ele>
        <time>2014-06-22T12:05:45.1Z</time>
      </trkpt>
      <trkpt lat="44.43759" lon="6.25387">
        <ele>843</ele>
        <time>2014-06-22T12:05:51.1Z</time>
      </trkpt>
      <trkpt lat="44.43753" lon="6.25389">
        <ele>842</ele>
        <time>2014-06-22T12:05:56.1Z</time>
      </trkpt>
      <trkpt lat="44.43747" lon="6.25395">
        <ele>841</ele>
        <time>2014-06-22T12:06:02.1Z</time>
      </trkpt>
      <trkpt lat="44.43742" lon="6.254">
        <ele>840</ele>
        <time>2014-06-22T12:06:07.1Z</time>
      </trkpt>
      <trkpt lat="44.43738" lon="6.25408">
        <ele>840</ele>
        <time>2014-06-22T12:06:13.1Z</time>
      </trkpt>
      <trkpt lat="44.43735" lon="6.25415">
        <ele>839</ele>
        <time>2014-06-22T12:06:18.1Z</time>
      </trkpt>
      <trkpt lat="44.43731" lon="6.25423">
        <ele>837</ele>
        <time>2014-06-22T12:06:23.1Z</time>
      </trkpt>
      <trkpt lat="44.43727" lon="6.25431">
        <ele>837</ele>
        <time>2014-06-22T12:06:29.1Z</time>
      </trkpt>
      <trkpt lat="44.43723" lon="6.25441">
        <ele>837</ele>
        <time>2014-06-22T12:06:35.1Z</time>
      </trkpt>
      <trkpt lat="44.43721" lon="6.2545">
        <ele>836</ele>
        <time>2014-06-22T12:06:40.1Z</time>
      </trkpt>
      <trkpt lat="44.43719" lon="6.25461">
        <ele>835</ele>
        <time>2014-06-22T12:06:46.1Z</time>
      </trkpt>
      <trkpt lat="44.43718" lon="6.2547">
        <ele>834</ele>
        <time>2014-06-22T12:06:51.1Z</time>
      </trkpt>
      <trkpt lat="44.43714" lon="6.25479">
        <ele>833</ele>
        <time>2014-06-22T12:06:57.1Z</time>
      </trkpt>
      <trkpt lat="44.43709" lon="6.25478">
        <ele>832</ele>
        <time>2014-06-22T12:07:02.1Z</time>
      </trkpt>
      <trkpt lat="44.43705" lon="6.25472">
        <ele>831</ele>
        <time>2014-06-22T12:07:07.1Z</time>
      </trkpt>
      <trkpt lat="44.43702" lon="6.25464">
        <ele>830</ele>
        <time>2014-06-22T12:07:13.1Z</time>
      </trkpt>
      <trkpt lat="44.437" lon="6.25456">
        <ele>829</ele>
        <time>2014-06-22T12:07:19.1Z</time>
      </trkpt>
      <trkpt lat="44.43696" lon="6.25447">
        <ele>828</ele>
        <time>2014-06-22T12:07:24.1Z</time>
      </trkpt>
      <trkpt lat="44.43693" lon="6.25437">
        <ele>828</ele>
        <time>2014-06-22T12:07:30.1Z</time>
      </trkpt>
      <trkpt lat="44.4369" lon="6.25427">
        <ele>826</ele>
        <time>2014-06-22T12:07:36.1Z</time>
      </trkpt>
      <trkpt lat="44.43687" lon="6.25418">
        <ele>825</ele>
        <time>2014-06-22T12:07:41.1Z</time>
      </trkpt>
      <trkpt lat="44.43683" lon="6.25407">
        <ele>824</ele>
        <time>2014-06-22T12:07:47.1Z</time>
      </trkpt>
      <trkpt lat="44.43679" lon="6.25397">
        <ele>823</ele>
        <time>2014-06-22T12:07:53.1Z</time>
      </trkpt>
      <trkpt lat="44.43675" lon="6.2539">
        <ele>821</ele>
        <time>2014-06-22T12:07:58.1Z</time>
      </trkpt>
      <trkpt lat="44.43671" lon="6.25385">
        <ele>820</ele>
        <time>2014-06-22T12:08:03.1Z</time>
      </trkpt>
      <trkpt lat="44.43667" lon="6.25378">
        <ele>819</ele>
        <time>2014-06-22T12:08:08.1Z</time>
      </trkpt>
      <trkpt lat="44.43663" lon="6.2537">
        <ele>818</ele>
        <time>2014-06-22T12:08:14.1Z</time>
      </trkpt>
      <trkpt lat="44.4366" lon="6.25362">
        <ele>818</ele>
        <time>2014-06-22T12:08:19.1Z</time>
      </trkpt>
      <trkpt lat="44.43655" lon="6.25352">
        <ele>817</ele>
        <time>2014-06-22T12:08:25.1Z</time>
      </trkpt>
      <trkpt lat="44.4365" lon="6.25345">
        <ele>816</ele>
        <time>2014-06-22T12:08:30.1Z</time>
      </trkpt>
      <trkpt lat="44.43646" lon="6.25337">
        <ele>815</ele>
        <time>2014-06-22T12:08:35.1Z</time>
      </trkpt>
      <trkpt lat="44.43641" lon="6.25326">
        <ele>813</ele>
        <time>2014-06-22T12:08:41.1Z</time>
      </trkpt>
      <trkpt lat="44.43639" lon="6.25316">
        <ele>812</ele>
        <time>2014-06-22T12:08:46.1Z</time>
      </trkpt>
      <trkpt lat="44.43636" lon="6.25305">
        <ele>811</ele>
        <time>2014-06-22T12:08:52.1Z</time>
      </trkpt>
      <trkpt lat="44.43632" lon="6.25294">
        <ele>810</ele>
        <time>2014-06-22T12:08:58.1Z</time>
      </trkpt>
      <trkpt lat="44.43627" lon="6.25284">
        <ele>809</ele>
        <time>2014-06-22T12:09:04.1Z</time>
      </trkpt>
      <trkpt lat="44.43622" lon="6.25277">
        <ele>808</ele>
        <time>2014-06-22T12:09:09.1Z</time>
      </trkpt>
      <trkpt lat="44.43617" lon="6.25269">
        <ele>808</ele>
        <time>2014-06-22T12:09:14.1Z</time>
      </trkpt>
      <trkpt lat="44.43612" lon="6.25259">
        <ele>807</ele>
        <time>2014-06-22T12:09:20.1Z</time>
      </trkpt>
      <trkpt lat="44.43607" lon="6.2525">
        <ele>807</ele>
        <time>2014-06-22T12:09:26.1Z</time>
      </trkpt>
      <trkpt lat="44.43603" lon="6.25244">
        <ele>807</ele>
        <time>2014-06-22T12:09:31.1Z</time>
      </trkpt>
      <trkpt lat="44.436" lon="6.25234">
        <ele>807</ele>
        <time>2014-06-22T12:09:37.1Z</time>
      </trkpt>
      <trkpt lat="44.43597" lon="6.25225">
        <ele>807</ele>
        <time>2014-06-22T12:09:42.1Z</time>
      </trkpt>
      <trkpt lat="44.43592" lon="6.25214">
        <ele>807</ele>
        <time>2014-06-22T12:09:48.1Z</time>
      </trkpt>
      <trkpt lat="44.43589" lon="6.25206">
        <ele>806</ele>
        <time>2014-06-22T12:09:53.1Z</time>
      </trkpt>
      <trkpt lat="44.43587" lon="6.25201">
        <ele>805</ele>
        <time>2014-06-22T12:09:59.1Z</time>
      </trkpt>
      <trkpt lat="44.43585" lon="6.25197">
        <ele>806</ele>
        <time>2014-06-22T12:10:04.1Z</time>
      </trkpt>
      <trkpt lat="44.43581" lon="6.25188">
        <ele>805</ele>
        <time>2014-06-22T12:10:10.1Z</time>
      </trkpt>
      <trkpt lat="44.4358" lon="6.25181">
        <ele>806</ele>
        <time>2014-06-22T12:10:15.1Z</time>
      </trkpt>
      <trkpt lat="44.4358" lon="6.25173">
        <ele>806</ele>
        <time>2014-06-22T12:10:20.1Z</time>
      </trkpt>
      <trkpt lat="44.4358" lon="6.25169">
        <ele>806</ele>
        <time>2014-06-22T12:10:25.1Z</time>
      </trkpt>
      <trkpt lat="44.43584" lon="6.25162">
        <ele>806</ele>
        <time>2014-06-22T12:10:31.1Z</time>
      </trkpt>
      <trkpt lat="44.43588" lon="6.25154">
        <ele>806</ele>
        <time>2014-06-22T12:10:37.1Z</time>
      </trkpt>
      <trkpt lat="44.43591" lon="6.25147">
        <ele>805</ele>
        <time>2014-06-22T12:10:43.1Z</time>
      </trkpt>
      <trkpt lat="44.43592" lon="6.25145">
        <ele>805</ele>
        <time>2014-06-22T12:10:49.1Z</time>
      </trkpt>
      <trkpt lat="44.43593" lon="6.25144">
        <ele>805</ele>
        <time>2014-06-22T12:10:54.1Z</time>
      </trkpt>
      <trkpt lat="44.43595" lon="6.25141">
        <ele>805</ele>
        <time>2014-06-22T12:10:59.1Z</time>
      </trkpt>
      <trkpt lat="44.43596" lon="6.2514">
        <ele>805</ele>
        <time>2014-06-22T12:11:05.1Z</time>
      </trkpt>
      <trkpt lat="44.43595" lon="6.25139">
        <ele>805</ele>
        <time>2014-06-22T12:11:11.1Z</time>
      </trkpt>
      <trkpt lat="44.43594" lon="6.25139">
        <ele>804</ele>
        <time>2014-06-22T12:11:17.1Z</time>
      </trkpt>
      <trkpt lat="44.43594" lon="6.25139">
        <ele>804</ele>
        <time>2014-06-22T12:11:22.1Z</time>
      </trkpt>
      <trkpt lat="44.43595" lon="6.25139">
        <ele>805</ele>
        <time>2014-06-22T12:11:27.1Z</time>
      </trkpt>
      <trkpt lat="44.43592" lon="6.2514">
        <ele>805</ele>
        <time>2014-06-22T12:11:33.1Z</time>
      </trkpt>
      <trkpt lat="44.43586" lon="6.25141">
        <ele>804</ele>
        <time>2014-06-22T12:11:38.1Z</time>
      </trkpt>
      <trkpt lat="44.43579" lon="6.25142">
        <ele>804</ele>
        <time>2014-06-22T12:11:44.1Z</time>
      </trkpt>
      <trkpt lat="44.43571" lon="6.25139">
        <ele>803</ele>
        <time>2014-06-22T12:11:50.1Z</time>
      </trkpt>
      <trkpt lat="44.43563" lon="6.2514">
        <ele>802</ele>
        <time>2014-06-22T12:11:56.1Z</time>
      </trkpt>
      <trkpt lat="44.43561" lon="6.2514">
        <ele>802</ele>
        <time>2014-06-22T12:12:01.1Z</time>
      </trkpt>
      <trkpt lat="44.43562" lon="6.25138">
        <ele>802</ele>
        <time>2014-06-22T12:12:06.1Z</time>
      </trkpt>
      <trkpt lat="44.43562" lon="6.25136">
        <ele>800</ele>
        <time>2014-06-22T12:12:12.1Z</time>
      </trkpt>
      <trkpt lat="44.43559" lon="6.25133">
        <ele>799</ele>
        <time>2014-06-22T12:12:18.1Z</time>
      </trkpt>
      <trkpt lat="44.43556" lon="6.25132">
        <ele>797</ele>
        <time>2014-06-22T12:12:23.1Z</time>
      </trkpt>
      <trkpt lat="44.43554" lon="6.25131">
        <ele>796</ele>
        <time>2014-06-22T12:12:29.1Z</time>
      </trkpt>
      <trkpt lat="44.43554" lon="6.25128">
        <ele>795</ele>
        <time>2014-06-22T12:12:34.1Z</time>
      </trkpt>
      <trkpt lat="44.43554" lon="6.25125">
        <ele>794</ele>
        <time>2014-06-22T12:12:39.1Z</time>
      </trkpt>
      <trkpt lat="44.43551" lon="6.2512">
        <ele>793</ele>
        <time>2014-06-22T12:12:45.1Z</time>
      </trkpt>
      <trkpt lat="44.43549" lon="6.25114">
        <ele>790</ele>
        <time>2014-06-22T12:12:50.1Z</time>
      </trkpt>
      <trkpt lat="44.43548" lon="6.25109">
        <ele>787</ele>
        <time>2014-06-22T12:12:56.1Z</time>
      </trkpt>
      <trkpt lat="44.43548" lon="6.25104">
        <ele>787</ele>
        <time>2014-06-22T12:13:02.1Z</time>
      </trkpt>
      <trkpt lat="44.43552" lon="6.25098">
        <ele>786</ele>
        <time>2014-06-22T12:13:08.1Z</time>
      </trkpt>
      <trkpt lat="44.43554" lon="6.2509">
        <ele>785</ele>
        <time>2014-06-22T12:13:14.1Z</time>
      </trkpt>
      <trkpt lat="44.43558" lon="6.25082">
        <ele>784</ele>
        <time>2014-06-22T12:13:20.1Z</time>
      </trkpt>
      <trkpt lat="44.43561" lon="6.25076">
        <ele>783</ele>
        <time>2014-06-22T12:13:25.1Z</time>
      </trkpt>
      <trkpt lat="44.43567" lon="6.2507">
        <ele>782</ele>
        <time>2014-06-22T12:13:31.1Z</time>
      </trkpt>
      <trkpt lat="44.43572" lon="6.25064">
        <ele>782</ele>
        <time>2014-06-22T12:13:36.1Z</time>
      </trkpt>
      <trkpt lat="44.43575" lon="6.25055">
        <ele>781</ele>
        <time>2014-06-22T12:13:42.1Z</time>
      </trkpt>
      <trkpt lat="44.43576" lon="6.25048">
        <ele>781</ele>
        <time>2014-06-22T12:13:47.1Z</time>
      </trkpt>
      <trkpt lat="44.43578" lon="6.25041">
        <ele>780</ele>
        <time>2014-06-22T12:13:52.1Z</time>
      </trkpt>
      <trkpt lat="44.43583" lon="6.25033">
        <ele>780</ele>
        <time>2014-06-22T12:13:58.1Z</time>
      </trkpt>
      <trkpt lat="44.43589" lon="6.25025">
        <ele>779</ele>
        <time>2014-06-22T12:14:03.1Z</time>
      </trkpt>
      <trkpt lat="44.43594" lon="6.25016">
        <ele>778</ele>
        <time>2014-06-22T12:14:09.1Z</time>
      </trkpt>
      <trkpt lat="44.43599" lon="6.25009">
        <ele>778</ele>
        <time>2014-06-22T12:14:14.1Z</time>
      </trkpt>
      <trkpt lat="44.43605" lon="6.25003">
        <ele>777</ele>
        <time>2014-06-22T12:14:20.1Z</time>
      </trkpt>
      <trkpt lat="44.43612" lon="6.24997">
        <ele>777</ele>
        <time>2014-06-22T12:14:26.1Z</time>
      </trkpt>
      <trkpt lat="44.43619" lon="6.24989">
        <ele>777</ele>
        <time>2014-06-22T12:14:31.1Z</time>
      </trkpt>
      <trkpt lat="44.43624" lon="6.24984">
        <ele>777</ele>
        <time>2014-06-22T12:14:37.1Z</time>
      </trkpt>
      <trkpt lat="44.4363" lon="6.24978">
        <ele>776</ele>
        <time>2014-06-22T12:14:43.1Z</time>
      </trkpt>
      <trkpt lat="44.43636" lon="6.24972">
        <ele>776</ele>
        <time>2014-06-22T12:14:48.1Z</time>
      </trkpt>
      <trkpt lat="44.43642" lon="6.24966">
        <ele>776</ele>
        <time>2014-06-22T12:14:54.1Z</time>
      </trkpt>
      <trkpt lat="44.43648" lon="6.24961">
        <ele>775</ele>
        <time>2014-06-22T12:15:00.1Z</time>
      </trkpt>
      <trkpt lat="44.43656" lon="6.24957">
        <ele>775</ele>
        <time>2014-06-22T12:15:06.1Z</time>
      </trkpt>
      <trkpt lat="44.43661" lon="6.24957">
        <ele>775</ele>
        <time>2014-06-22T12:15:11.1Z</time>
      </trkpt>
      <trkpt lat="44.43663" lon="6.24954">
        <ele>774</ele>
        <time>2014-06-22T12:15:17.1Z</time>
      </trkpt>
      <trkpt lat="44.43662" lon="6.24949">
        <ele>774</ele>
        <time>2014-06-22T12:15:22.1Z</time>
      </trkpt>
      <trkpt lat="44.43657" lon="6.24946">
        <ele>774</ele>
        <time>2014-06-22T12:15:28.1Z</time>
      </trkpt>
      <trkpt lat="44.43653" lon="6.24947">
        <ele>775</ele>
        <time>2014-06-22T12:15:34.1Z</time>
      </trkpt>
      <trkpt lat="44.43648" lon="6.24946">
        <ele>775</ele>
        <time>2014-06-22T12:15:40.1Z</time>
      </trkpt>
      <trkpt lat="44.43641" lon="6.24946">
        <ele>775</ele>
        <time>2014-06-22T12:15:46.1Z</time>
      </trkpt>
      <trkpt lat="44.43635" lon="6.24949">
        <ele>775</ele>
        <time>2014-06-22T12:15:52.1Z</time>
      </trkpt>
      <trkpt lat="44.43628" lon="6.24952">
        <ele>775</ele>
        <time>2014-06-22T12:15:58.1Z</time>
      </trkpt>
      <trkpt lat="44.43621" lon="6.24955">
        <ele>775</ele>
        <time>2014-06-22T12:16:04.1Z</time>
      </trkpt>
      <trkpt lat="44.43614" lon="6.2496">
        <ele>776</ele>
        <time>2014-06-22T12:16:10.1Z</time>
      </trkpt>
      <trkpt lat="44.43607" lon="6.24962">
        <ele>776</ele>
        <time>2014-06-22T12:16:16.1Z</time>
      </trkpt>
      <trkpt lat="44.43601" lon="6.24964">
        <ele>776</ele>
        <time>2014-06-22T12:16:21.1Z</time>
      </trkpt>
      <trkpt lat="44.43594" lon="6.24965">
        <ele>777</ele>
        <time>2014-06-22T12:16:26.1Z</time>
      </trkpt>
      <trkpt lat="44.43588" lon="6.24967">
        <ele>777</ele>
        <time>2014-06-22T12:16:32.1Z</time>
      </trkpt>
      <trkpt lat="44.43581" lon="6.24971">
        <ele>777</ele>
        <time>2014-06-22T12:16:38.1Z</time>
      </trkpt>
      <trkpt lat="44.43574" lon="6.24976">
        <ele>776</ele>
        <time>2014-06-22T12:16:44.1Z</time>
      </trkpt>
      <trkpt lat="44.43568" lon="6.2498">
        <ele>777</ele>
        <time>2014-06-22T12:16:49.1Z</time>
      </trkpt>
      <trkpt lat="44.4356" lon="6.24981">
        <ele>778</ele>
        <time>2014-06-22T12:16:55.1Z</time>
      </trkpt>
      <trkpt lat="44.43553" lon="6.24983">
        <ele>778</ele>
        <time>2014-06-22T12:17:01.1Z</time>
      </trkpt>
      <trkpt lat="44.43546" lon="6.24987">
        <ele>778</ele>
        <time>2014-06-22T12:17:07.1Z</time>
      </trkpt>
      <trkpt lat="44.43541" lon="6.24992">
        <ele>778</ele>
        <time>2014-06-22T12:17:12.1Z</time>
      </trkpt>
      <trkpt lat="44.43537" lon="6.24994">
        <ele>778</ele>
        <time>2014-06-22T12:17:18.1Z</time>
      </trkpt>
      <trkpt lat="44.43533" lon="6.24996">
        <ele>779</ele>
        <time>2014-06-22T12:17:23.1Z</time>
      </trkpt>
      <trkpt lat="44.43526" lon="6.25002">
        <ele>779</ele>
        <time>2014-06-22T12:17:29.1Z</time>
      </trkpt>
      <trkpt lat="44.43521" lon="6.25005">
        <ele>779</ele>
        <time>2014-06-22T12:17:35.1Z</time>
      </trkpt>
      <trkpt lat="44.43517" lon="6.2501">
        <ele>779</ele>
        <time>2014-06-22T12:17:41.1Z</time>
      </trkpt>
      <trkpt lat="44.4351" lon="6.25016">
        <ele>779</ele>
        <time>2014-06-22T12:17:47.1Z</time>
      </trkpt>
      <trkpt lat="44.43504" lon="6.25022">
        <ele>780</ele>
        <time>2014-06-22T12:17:52.1Z</time>
      </trkpt>
      <trkpt lat="44.43499" lon="6.25027">
        <ele>780</ele>
        <time>2014-06-22T12:17:57.1Z</time>
      </trkpt>
      <trkpt lat="44.43494" lon="6.25031">
        <ele>780</ele>
        <time>2014-06-22T12:18:02.1Z</time>
      </trkpt>
      <trkpt lat="44.43487" lon="6.25035">
        <ele>780</ele>
        <time>2014-06-22T12:18:07.1Z</time>
      </trkpt>
      <trkpt lat="44.43481" lon="6.25037">
        <ele>780</ele>
        <time>2014-06-22T12:18:13.1Z</time>
      </trkpt>
      <trkpt lat="44.43473" lon="6.25034">
        <ele>780</ele>
        <time>2014-06-22T12:18:19.1Z</time>
      </trkpt>
      <trkpt lat="44.43467" lon="6.25029">
        <ele>780</ele>
        <time>2014-06-22T12:18:25.1Z</time>
      </trkpt>
      <trkpt lat="44.43462" lon="6.25024">
        <ele>780</ele>
        <time>2014-06-22T12:18:30.1Z</time>
      </trkpt>
      <trkpt lat="44.43457" lon="6.2502">
        <ele>780</ele>
        <time>2014-06-22T12:18:36.1Z</time>
      </trkpt>
      <trkpt lat="44.43452" lon="6.25018">
        <ele>780</ele>
        <time>2014-06-22T12:18:41.1Z</time>
      </trkpt>
      <trkpt lat="44.43447" lon="6.25018">
        <ele>781</ele>
        <time>2014-06-22T12:18:47.1Z</time>
      </trkpt>
      <trkpt lat="44.43444" lon="6.25019">
        <ele>781</ele>
        <time>2014-06-22T12:18:52.1Z</time>
      </trkpt>
      <trkpt lat="44.4344" lon="6.25018">
        <ele>782</ele>
        <time>2014-06-22T12:18:57.1Z</time>
      </trkpt>
      <trkpt lat="44.43439" lon="6.25016">
        <ele>783</ele>
        <time>2014-06-22T12:19:03.1Z</time>
      </trkpt>
      <trkpt lat="44.43438" lon="6.25013">
        <ele>783</ele>
        <time>2014-06-22T12:19:09.1Z</time>
      </trkpt>
      <trkpt lat="44.43435" lon="6.25011">
        <ele>784</ele>
        <time>2014-06-22T12:19:14.1Z</time>
      </trkpt>
      <trkpt lat="44.43434" lon="6.25008">
        <ele>785</ele>
        <time>2014-06-22T12:19:19.1Z</time>
      </trkpt>
      <trkpt lat="44.43434" lon="6.25005">
        <ele>786</ele>
        <time>2014-06-22T12:19:24.1Z</time>
      </trkpt>
      <trkpt lat="44.4343" lon="6.25002">
        <ele>787</ele>
        <time>2014-06-22T12:19:29.1Z</time>
      </trkpt>
      <trkpt lat="44.43426" lon="6.25">
        <ele>788</ele>
        <time>2014-06-22T12:19:35.1Z</time>
      </trkpt>
      <trkpt lat="44.43424" lon="6.24998">
        <ele>789</ele>
        <time>2014-06-22T12:19:41.1Z</time>
      </trkpt>
      <trkpt lat="44.43423" lon="6.24995">
        <ele>790</ele>
        <time>2014-06-22T12:19:46.1Z</time>
      </trkpt>
      <trkpt lat="44.43422" lon="6.24992">
        <ele>791</ele>
        <time>2014-06-22T12:19:52.1Z</time>
      </trkpt>
      <trkpt lat="44.43419" lon="6.24987">
        <ele>792</ele>
        <time>2014-06-22T12:19:58.1Z</time>
      </trkpt>
      <trkpt lat="44.43417" lon="6.24981">
        <ele>794</ele>
        <time>2014-06-22T12:20:04.1Z</time>
      </trkpt>
      <trkpt lat="44.43415" lon="6.24978">
        <ele>795</ele>
        <time>2014-06-22T12:20:10.1Z</time>
      </trkpt>
      <trkpt lat="44.43414" lon="6.24975">
        <ele>796</ele>
        <time>2014-06-22T12:20:15.1Z</time>
      </trkpt>
      <trkpt lat="44.43413" lon="6.2497">
        <ele>797</ele>
        <time>2014-06-22T12:20:20.1Z</time>
      </trkpt>
      <trkpt lat="44.43412" lon="6.24967">
        <ele>797</ele>
        <time>2014-06-22T12:20:26.1Z</time>
      </trkpt>
      <trkpt lat="44.43409" lon="6.24962">
        <ele>798</ele>
        <time>2014-06-22T12:20:31.1Z</time>
      </trkpt>
      <trkpt lat="44.43406" lon="6.24959">
        <ele>798</ele>
        <time>2014-06-22T12:20:37.1Z</time>
      </trkpt>
      <trkpt lat="44.43403" lon="6.24957">
        <ele>799</ele>
        <time>2014-06-22T12:20:43.1Z</time>
      </trkpt>
      <trkpt lat="44.43402" lon="6.24952">
        <ele>800</ele>
        <time>2014-06-22T12:20:48.1Z</time>
      </trkpt>
      <trkpt lat="44.434" lon="6.24949">
        <ele>800</ele>
        <time>2014-06-22T12:20:54.1Z</time>
      </trkpt>
      <trkpt lat="44.43397" lon="6.24945">
        <ele>801</ele>
        <time>2014-06-22T12:20:59.1Z</time>
      </trkpt>
      <trkpt lat="44.43394" lon="6.24943">
        <ele>802</ele>
        <time>2014-06-22T12:21:04.1Z</time>
      </trkpt>
      <trkpt lat="44.43393" lon="6.24943">
        <ele>802</ele>
        <time>2014-06-22T12:21:09.1Z</time>
      </trkpt>
      <trkpt lat="44.43393" lon="6.24942">
        <ele>802</ele>
        <time>2014-06-22T12:21:14.1Z</time>
      </trkpt>
      <trkpt lat="44.43393" lon="6.24939">
        <ele>802</ele>
        <time>2014-06-22T12:21:21.1Z</time>
      </trkpt>
      <trkpt lat="44.43393" lon="6.24934">
        <ele>803</ele>
        <time>2014-06-22T12:21:26.1Z</time>
      </trkpt>
      <trkpt lat="44.43393" lon="6.24928">
        <ele>804</ele>
        <time>2014-06-22T12:21:31.1Z</time>
      </trkpt>
      <trkpt lat="44.43391" lon="6.24923">
        <ele>805</ele>
        <time>2014-06-22T12:21:37.1Z</time>
      </trkpt>
      <trkpt lat="44.43389" lon="6.24919">
        <ele>805</ele>
        <time>2014-06-22T12:21:42.1Z</time>
      </trkpt>
      <trkpt lat="44.43385" lon="6.24918">
        <ele>806</ele>
        <time>2014-06-22T12:21:48.1Z</time>
      </trkpt>
      <trkpt lat="44.43382" lon="6.24916">
        <ele>806</ele>
        <time>2014-06-22T12:21:54.1Z</time>
      </trkpt>
      <trkpt lat="44.43378" lon="6.24914">
        <ele>807</ele>
        <time>2014-06-22T12:21:59.1Z</time>
      </trkpt>
      <trkpt lat="44.43374" lon="6.24913">
        <ele>808</ele>
        <time>2014-06-22T12:22:05.1Z</time>
      </trkpt>
      <trkpt lat="44.43369" lon="6.24913">
        <ele>808</ele>
        <time>2014-06-22T12:22:11.1Z</time>
      </trkpt>
      <trkpt lat="44.43364" lon="6.24914">
        <ele>808</ele>
        <time>2014-06-22T12:22:17.1Z</time>
      </trkpt>
      <trkpt lat="44.43361" lon="6.24912">
        <ele>809</ele>
        <time>2014-06-22T12:22:23.1Z</time>
      </trkpt>
      <trkpt lat="44.43356" lon="6.24912">
        <ele>810</ele>
        <time>2014-06-22T12:22:28.1Z</time>
      </trkpt>
      <trkpt lat="44.43353" lon="6.24911">
        <ele>810</ele>
        <time>2014-06-22T12:22:34.1Z</time>
      </trkpt>
      <trkpt lat="44.43349" lon="6.24911">
        <ele>811</ele>
        <time>2014-06-22T12:22:39.1Z</time>
      </trkpt>
      <trkpt lat="44.43344" lon="6.24909">
        <ele>812</ele>
        <time>2014-06-22T12:22:45.1Z</time>
      </trkpt>
      <trkpt lat="44.4334" lon="6.24907">
        <ele>813</ele>
        <time>2014-06-22T12:22:50.1Z</time>
      </trkpt>
      <trkpt lat="44.43335" lon="6.24904">
        <ele>814</ele>
        <time>2014-06-22T12:22:56.1Z</time>
      </trkpt>
      <trkpt lat="44.43331" lon="6.249">
        <ele>815</ele>
        <time>2014-06-22T12:23:02.1Z</time>
      </trkpt>
      <trkpt lat="44.43328" lon="6.24897">
        <ele>816</ele>
        <time>2014-06-22T12:23:08.1Z</time>
      </trkpt>
      <trkpt lat="44.43324" lon="6.24894">
        <ele>816</ele>
        <time>2014-06-22T12:23:14.1Z</time>
      </trkpt>
      <trkpt lat="44.43321" lon="6.24893">
        <ele>818</ele>
        <time>2014-06-22T12:23:19.1Z</time>
      </trkpt>
      <trkpt lat="44.43316" lon="6.24894">
        <ele>818</ele>
        <time>2014-06-22T12:23:24.1Z</time>
      </trkpt>
      <trkpt lat="44.43312" lon="6.24894">
        <ele>819</ele>
        <time>2014-06-22T12:23:30.1Z</time>
      </trkpt>
      <trkpt lat="44.43308" lon="6.24892">
        <ele>820</ele>
        <time>2014-06-22T12:23:35.1Z</time>
      </trkpt>
      <trkpt lat="44.43307" lon="6.24888">
        <ele>820</ele>
        <time>2014-06-22T12:23:41.1Z</time>
      </trkpt>
      <trkpt lat="44.43308" lon="6.24881">
        <ele>821</ele>
        <time>2014-06-22T12:23:46.1Z</time>
      </trkpt>
      <trkpt lat="44.43309" lon="6.24875">
        <ele>822</ele>
        <time>2014-06-22T12:23:52.1Z</time>
      </trkpt>
      <trkpt lat="44.43311" lon="6.2487">
        <ele>822</ele>
        <time>2014-06-22T12:23:58.1Z</time>
      </trkpt>
      <trkpt lat="44.43313" lon="6.24862">
        <ele>823</ele>
        <time>2014-06-22T12:24:04.1Z</time>
      </trkpt>
      <trkpt lat="44.43315" lon="6.24859">
        <ele>824</ele>
        <time>2014-06-22T12:24:09.1Z</time>
      </trkpt>
      <trkpt lat="44.43317" lon="6.24856">
        <ele>825</ele>
        <time>2014-06-22T12:24:15.1Z</time>
      </trkpt>
      <trkpt lat="44.43322" lon="6.24853">
        <ele>826</ele>
        <time>2014-06-22T12:24:20.1Z</time>
      </trkpt>
      <trkpt lat="44.43324" lon="6.24851">
        <ele>826</ele>
        <time>2014-06-22T12:24:26.1Z</time>
      </trkpt>
      <trkpt lat="44.43327" lon="6.24849">
        <ele>827</ele>
        <time>2014-06-22T12:24:31.1Z</time>
      </trkpt>
      <trkpt lat="44.4333" lon="6.24849">
        <ele>828</ele>
        <time>2014-06-22T12:24:36.1Z</time>
      </trkpt>
      <trkpt lat="44.43333" lon="6.24848">
        <ele>829</ele>
        <time>2014-06-22T12:24:41.1Z</time>
      </trkpt>
      <trkpt lat="44.43336" lon="6.24848">
        <ele>829</ele>
        <time>2014-06-22T12:24:47.1Z</time>
      </trkpt>
      <trkpt lat="44.43341" lon="6.24847">
        <ele>829</ele>
        <time>2014-06-22T12:24:52.1Z</time>
      </trkpt>
      <trkpt lat="44.43345" lon="6.24846">
        <ele>830</ele>
        <time>2014-06-22T12:24:57.1Z</time>
      </trkpt>
      <trkpt lat="44.43348" lon="6.24844">
        <ele>830</ele>
        <time>2014-06-22T12:25:03.1Z</time>
      </trkpt>
      <trkpt lat="44.43348" lon="6.24843">
        <ele>832</ele>
        <time>2014-06-22T12:25:09.1Z</time>
      </trkpt>
      <trkpt lat="44.43349" lon="6.24842">
        <ele>832</ele>
        <time>2014-06-22T12:25:14.1Z</time>
      </trkpt>
      <trkpt lat="44.4335" lon="6.24839">
        <ele>832</ele>
        <time>2014-06-22T12:25:20.1Z</time>
      </trkpt>
      <trkpt lat="44.4335" lon="6.24836">
        <ele>833</ele>
        <time>2014-06-22T12:25:25.1Z</time>
      </trkpt>
      <trkpt lat="44.43351" lon="6.24832">
        <ele>834</ele>
        <time>2014-06-22T12:25:30.1Z</time>
      </trkpt>
      <trkpt lat="44.43353" lon="6.24828">
        <ele>834</ele>
        <time>2014-06-22T12:25:36.1Z</time>
      </trkpt>
      <trkpt lat="44.43356" lon="6.24825">
        <ele>835</ele>
        <time>2014-06-22T12:25:42.1Z</time>
      </trkpt>
      <trkpt lat="44.43359" lon="6.24823">
        <ele>835</ele>
        <time>2014-06-22T12:25:47.1Z</time>
      </trkpt>
      <trkpt lat="44.43363" lon="6.24823">
        <ele>836</ele>
        <time>2014-06-22T12:25:53.1Z</time>
      </trkpt>
      <trkpt lat="44.43365" lon="6.24824">
        <ele>837</ele>
        <time>2014-06-22T12:25:59.1Z</time>
      </trkpt>
      <trkpt lat="44.43368" lon="6.24823">
        <ele>837</ele>
        <time>2014-06-22T12:26:04.1Z</time>
      </trkpt>
      <trkpt lat="44.4337" lon="6.24823">
        <ele>838</ele>
        <time>2014-06-22T12:26:09.1Z</time>
      </trkpt>
      <trkpt lat="44.43369" lon="6.24825">
        <ele>837</ele>
        <time>2014-06-22T12:26:15.1Z</time>
      </trkpt>
      <trkpt lat="44.43367" lon="6.24827">
        <ele>837</ele>
        <time>2014-06-22T12:26:21.1Z</time>
      </trkpt>
      <trkpt lat="44.43364" lon="6.24826">
        <ele>837</ele>
        <time>2014-06-22T12:26:27.1Z</time>
      </trkpt>
      <trkpt lat="44.43359" lon="6.24829">
        <ele>836</ele>
        <time>2014-06-22T12:26:32.1Z</time>
      </trkpt>
      <trkpt lat="44.43357" lon="6.24834">
        <ele>835</ele>
        <time>2014-06-22T12:26:38.1Z</time>
      </trkpt>
      <trkpt lat="44.43356" lon="6.2484">
        <ele>834</ele>
        <time>2014-06-22T12:26:44.1Z</time>
      </trkpt>
      <trkpt lat="44.43357" lon="6.24841">
        <ele>833</ele>
        <time>2014-06-22T12:26:50.1Z</time>
      </trkpt>
      <trkpt lat="44.43357" lon="6.24841">
        <ele>833</ele>
        <time>2014-06-22T12:26:55.1Z</time>
      </trkpt>
      <trkpt lat="44.43359" lon="6.24842">
        <ele>832</ele>
        <time>2014-06-22T12:27:01.1Z</time>
      </trkpt>
      <trkpt lat="44.43358" lon="6.24839">
        <ele>832</ele>
        <time>2014-06-22T12:27:07.1Z</time>
      </trkpt>
      <trkpt lat="44.43358" lon="6.24837">
        <ele>832</ele>
        <time>2014-06-22T12:27:13.1Z</time>
      </trkpt>
      <trkpt lat="44.43361" lon="6.24835">
        <ele>832</ele>
        <time>2014-06-22T12:27:18.1Z</time>
      </trkpt>
      <trkpt lat="44.43364" lon="6.24835">
        <ele>832</ele>
        <time>2014-06-22T12:27:23.1Z</time>
      </trkpt>
      <trkpt lat="44.43368" lon="6.24837">
        <ele>832</ele>
        <time>2014-06-22T12:27:29.1Z</time>
      </trkpt>
      <trkpt lat="44.43372" lon="6.24837">
        <ele>833</ele>
        <time>2014-06-22T12:27:34.1Z</time>
      </trkpt>
      <trkpt lat="44.43374" lon="6.24837">
        <ele>833</ele>
        <time>2014-06-22T12:27:40.1Z</time>
      </trkpt>
      <trkpt lat="44.43378" lon="6.24836">
        <ele>834</ele>
        <time>2014-06-22T12:27:45.1Z</time>
      </trkpt>
      <trkpt lat="44.43381" lon="6.24836">
        <ele>834</ele>
        <time>2014-06-22T12:27:51.1Z</time>
      </trkpt>
      <trkpt lat="44.43381" lon="6.24837">
        <ele>834</ele>
        <time>2014-06-22T12:27:56.1Z</time>
      </trkpt>
      <trkpt lat="44.43382" lon="6.24836">
        <ele>834</ele>
        <time>2014-06-22T12:28:01.1Z</time>
      </trkpt>
      <trkpt lat="44.43383" lon="6.24837">
        <ele>834</ele>
        <time>2014-06-22T12:28:06.1Z</time>
      </trkpt>
      <trkpt lat="44.43382" lon="6.24837">
        <ele>834</ele>
        <time>2014-06-22T12:28:12.1Z</time>
      </trkpt>
      <trkpt lat="44.4338" lon="6.24839">
        <ele>834</ele>
        <time>2014-06-22T12:28:17.1Z</time>
      </trkpt>
      <trkpt lat="44.43378" lon="6.2484">
        <ele>834</ele>
        <time>2014-06-22T12:28:22.1Z</time>
      </trkpt>
      <trkpt lat="44.43374" lon="6.24841">
        <ele>833</ele>
        <time>2014-06-22T12:28:28.1Z</time>
      </trkpt>
      <trkpt lat="44.43369" lon="6.24843">
        <ele>832</ele>
        <time>2014-06-22T12:28:33.1Z</time>
      </trkpt>
      <trkpt lat="44.43362" lon="6.24846">
        <ele>832</ele>
        <time>2014-06-22T12:28:39.1Z</time>
      </trkpt>
      <trkpt lat="44.43357" lon="6.24849">
        <ele>832</ele>
        <time>2014-06-22T12:28:45.1Z</time>
      </trkpt>
      <trkpt lat="44.43355" lon="6.24848">
        <ele>832</ele>
        <time>2014-06-22T12:28:51.1Z</time>
      </trkpt>
      <trkpt lat="44.43354" lon="6.24843">
        <ele>833</ele>
        <time>2014-06-22T12:28:56.1Z</time>
      </trkpt>
      <trkpt lat="44.43349" lon="6.24845">
        <ele>834</ele>
        <time>2014-06-22T12:29:02.1Z</time>
      </trkpt>
      <trkpt lat="44.43343" lon="6.24848">
        <ele>834</ele>
        <time>2014-06-22T12:29:08.1Z</time>
      </trkpt>
      <trkpt lat="44.43337" lon="6.24851">
        <ele>833</ele>
        <time>2014-06-22T12:29:13.1Z</time>
      </trkpt>
      <trkpt lat="44.43332" lon="6.24854">
        <ele>833</ele>
        <time>2014-06-22T12:29:19.1Z</time>
      </trkpt>
      <trkpt lat="44.43325" lon="6.24853">
        <ele>832</ele>
        <time>2014-06-22T12:29:25.1Z</time>
      </trkpt>
      <trkpt lat="44.43319" lon="6.24851">
        <ele>832</ele>
        <time>2014-06-22T12:29:31.1Z</time>
      </trkpt>
      <trkpt lat="44.43314" lon="6.24851">
        <ele>833</ele>
        <time>2014-06-22T12:29:36.1Z</time>
      </trkpt>
      <trkpt lat="44.4331" lon="6.24852">
        <ele>833</ele>
        <time>2014-06-22T12:29:42.1Z</time>
      </trkpt>
      <trkpt lat="44.43304" lon="6.24852">
        <ele>832</ele>
        <time>2014-06-22T12:29:48.1Z</time>
      </trkpt>
      <trkpt lat="44.43297" lon="6.24854">
        <ele>833</ele>
        <time>2014-06-22T12:29:54.1Z</time>
      </trkpt>
      <trkpt lat="44.43291" lon="6.24854">
        <ele>833</ele>
        <time>2014-06-22T12:29:59.1Z</time>
      </trkpt>
      <trkpt lat="44.43285" lon="6.24854">
        <ele>834</ele>
        <time>2014-06-22T12:30:05.1Z</time>
      </trkpt>
      <trkpt lat="44.4328" lon="6.24854">
        <ele>835</ele>
        <time>2014-06-22T12:30:10.1Z</time>
      </trkpt>
      <trkpt lat="44.43273" lon="6.24852">
        <ele>835</ele>
        <time>2014-06-22T12:30:16.1Z</time>
      </trkpt>
      <trkpt lat="44.43269" lon="6.24849">
        <ele>835</ele>
        <time>2014-06-22T12:30:21.1Z</time>
      </trkpt>
      <trkpt lat="44.43267" lon="6.24845">
        <ele>835</ele>
        <time>2014-06-22T12:30:26.1Z</time>
      </trkpt>
      <trkpt lat="44.43263" lon="6.24844">
        <ele>836</ele>
        <time>2014-06-22T12:30:32.1Z</time>
      </trkpt>
      <trkpt lat="44.43259" lon="6.24846">
        <ele>837</ele>
        <time>2014-06-22T12:30:37.1Z</time>
      </trkpt>
      <trkpt lat="44.43256" lon="6.24847">
        <ele>837</ele>
        <time>2014-06-22T12:30:44.1Z</time>
      </trkpt>
      <trkpt lat="44.43254" lon="6.24844">
        <ele>838</ele>
        <time>2014-06-22T12:30:49.1Z</time>
      </trkpt>
      <trkpt lat="44.43256" lon="6.24838">
        <ele>838</ele>
        <time>2014-06-22T12:30:54.1Z</time>
      </trkpt>
      <trkpt lat="44.43256" lon="6.24829">
        <ele>839</ele>
        <time>2014-06-22T12:31:00.1Z</time>
      </trkpt>
      <trkpt lat="44.43257" lon="6.24824">
        <ele>840</ele>
        <time>2014-06-22T12:31:06.1Z</time>
      </trkpt>
      <trkpt lat="44.43259" lon="6.24821">
        <ele>841</ele>
        <time>2014-06-22T12:31:12.1Z</time>
      </trkpt>
      <trkpt lat="44.43262" lon="6.2482">
        <ele>841</ele>
        <time>2014-06-22T12:31:17.1Z</time>
      </trkpt>
      <trkpt lat="44.43267" lon="6.2482">
        <ele>842</ele>
        <time>2014-06-22T12:31:22.1Z</time>
      </trkpt>
      <trkpt lat="44.43272" lon="6.24821">
        <ele>842</ele>
        <time>2014-06-22T12:31:27.1Z</time>
      </trkpt>
      <trkpt lat="44.43277" lon="6.24822">
        <ele>843</ele>
        <time>2014-06-22T12:31:33.1Z</time>
      </trkpt>
      <trkpt lat="44.43283" lon="6.24822">
        <ele>843</ele>
        <time>2014-06-22T12:31:38.1Z</time>
      </trkpt>
      <trkpt lat="44.4329" lon="6.2482">
        <ele>844</ele>
        <time>2014-06-22T12:31:44.1Z</time>
      </trkpt>
      <trkpt lat="44.43295" lon="6.24817">
        <ele>845</ele>
        <time>2014-06-22T12:31:50.1Z</time>
      </trkpt>
      <trkpt lat="44.433" lon="6.24814">
        <ele>845</ele>
        <time>2014-06-22T12:31:56.1Z</time>
      </trkpt>
      <trkpt lat="44.43305" lon="6.24812">
        <ele>846</ele>
        <time>2014-06-22T12:32:02.1Z</time>
      </trkpt>
      <trkpt lat="44.43311" lon="6.2481">
        <ele>848</ele>
        <time>2014-06-22T12:32:08.1Z</time>
      </trkpt>
      <trkpt lat="44.43318" lon="6.24808">
        <ele>848</ele>
        <time>2014-06-22T12:32:14.1Z</time>
      </trkpt>
      <trkpt lat="44.43323" lon="6.24804">
        <ele>848</ele>
        <time>2014-06-22T12:32:20.1Z</time>
      </trkpt>
      <trkpt lat="44.43327" lon="6.24801">
        <ele>849</ele>
        <time>2014-06-22T12:32:26.1Z</time>
      </trkpt>
      <trkpt lat="44.43332" lon="6.24796">
        <ele>850</ele>
        <time>2014-06-22T12:32:31.1Z</time>
      </trkpt>
      <trkpt lat="44.43336" lon="6.24792">
        <ele>851</ele>
        <time>2014-06-22T12:32:36.1Z</time>
      </trkpt>
      <trkpt lat="44.43341" lon="6.24785">
        <ele>852</ele>
        <time>2014-06-22T12:32:42.1Z</time>
      </trkpt>
      <trkpt lat="44.43344" lon="6.24781">
        <ele>853</ele>
        <time>2014-06-22T12:32:47.1Z</time>
      </trkpt>
      <trkpt lat="44.43349" lon="6.24776">
        <ele>853</ele>
        <time>2014-06-22T12:32:53.1Z</time>
      </trkpt>
      <trkpt lat="44.43355" lon="6.2477">
        <ele>854</ele>
        <time>2014-06-22T12:32:59.1Z</time>
      </trkpt>
      <trkpt lat="44.4336" lon="6.24764">
        <ele>855</ele>
        <time>2014-06-22T12:33:04.1Z</time>
      </trkpt>
      <trkpt lat="44.43365" lon="6.24757">
        <ele>855</ele>
        <time>2014-06-22T12:33:10.1Z</time>
      </trkpt>
      <trkpt lat="44.43373" lon="6.2475">
        <ele>856</ele>
        <time>2014-06-22T12:33:16.1Z</time>
      </trkpt>
      <trkpt lat="44.43378" lon="6.24744">
        <ele>856</ele>
        <time>2014-06-22T12:33:22.1Z</time>
      </trkpt>
      <trkpt lat="44.43382" lon="6.24739">
        <ele>855</ele>
        <time>2014-06-22T12:33:27.1Z</time>
      </trkpt>
      <trkpt lat="44.43386" lon="6.24732">
        <ele>855</ele>
        <time>2014-06-22T12:33:33.1Z</time>
      </trkpt>
      <trkpt lat="44.43391" lon="6.24726">
        <ele>854</ele>
        <time>2014-06-22T12:33:38.1Z</time>
      </trkpt>
      <trkpt lat="44.43398" lon="6.2472">
        <ele>853</ele>
        <time>2014-06-22T12:33:44.1Z</time>
      </trkpt>
      <trkpt lat="44.43402" lon="6.24717">
        <ele>853</ele>
        <time>2014-06-22T12:33:49.1Z</time>
      </trkpt>
      <trkpt lat="44.43407" lon="6.24712">
        <ele>853</ele>
        <time>2014-06-22T12:33:55.1Z</time>
      </trkpt>
      <trkpt lat="44.43414" lon="6.24708">
        <ele>853</ele>
        <time>2014-06-22T12:34:01.1Z</time>
      </trkpt>
      <trkpt lat="44.4342" lon="6.24704">
        <ele>853</ele>
        <time>2014-06-22T12:34:06.1Z</time>
      </trkpt>
      <trkpt lat="44.43426" lon="6.24699">
        <ele>853</ele>
        <time>2014-06-22T12:34:12.1Z</time>
      </trkpt>
      <trkpt lat="44.43433" lon="6.24695">
        <ele>853</ele>
        <time>2014-06-22T12:34:18.1Z</time>
      </trkpt>
      <trkpt lat="44.43437" lon="6.2469">
        <ele>852</ele>
        <time>2014-06-22T12:34:23.1Z</time>
      </trkpt>
      <trkpt lat="44.43445" lon="6.24683">
        <ele>852</ele>
        <time>2014-06-22T12:34:29.1Z</time>
      </trkpt>
      <trkpt lat="44.43454" lon="6.24679">
        <ele>852</ele>
        <time>2014-06-22T12:34:35.1Z</time>
      </trkpt>
      <trkpt lat="44.43459" lon="6.24675">
        <ele>853</ele>
        <time>2014-06-22T12:34:40.1Z</time>
      </trkpt>
      <trkpt lat="44.43464" lon="6.24671">
        <ele>853</ele>
        <time>2014-06-22T12:34:46.1Z</time>
      </trkpt>
      <trkpt lat="44.4347" lon="6.24667">
        <ele>854</ele>
        <time>2014-06-22T12:34:52.1Z</time>
      </trkpt>
      <trkpt lat="44.43475" lon="6.24661">
        <ele>854</ele>
        <time>2014-06-22T12:34:57.1Z</time>
      </trkpt>
      <trkpt lat="44.43478" lon="6.24658">
        <ele>855</ele>
        <time>2014-06-22T12:35:02.1Z</time>
      </trkpt>
      <trkpt lat="44.43484" lon="6.24653">
        <ele>855</ele>
        <time>2014-06-22T12:35:08.1Z</time>
      </trkpt>
      <trkpt lat="44.43489" lon="6.24649">
        <ele>856</ele>
        <time>2014-06-22T12:35:14.1Z</time>
      </trkpt>
      <trkpt lat="44.43496" lon="6.24646">
        <ele>857</ele>
        <time>2014-06-22T12:35:20.1Z</time>
      </trkpt>
      <trkpt lat="44.43502" lon="6.24643">
        <ele>857</ele>
        <time>2014-06-22T12:35:25.1Z</time>
      </trkpt>
      <trkpt lat="44.43507" lon="6.24639">
        <ele>857</ele>
        <time>2014-06-22T12:35:30.1Z</time>
      </trkpt>
      <trkpt lat="44.43513" lon="6.24635">
        <ele>858</ele>
        <time>2014-06-22T12:35:36.1Z</time>
      </trkpt>
      <trkpt lat="44.4352" lon="6.2463">
        <ele>859</ele>
        <time>2014-06-22T12:35:42.1Z</time>
      </trkpt>
      <trkpt lat="44.43526" lon="6.24626">
        <ele>859</ele>
        <time>2014-06-22T12:35:47.1Z</time>
      </trkpt>
      <trkpt lat="44.43532" lon="6.24623">
        <ele>860</ele>
        <time>2014-06-22T12:35:53.1Z</time>
      </trkpt>
      <trkpt lat="44.43537" lon="6.24618">
        <ele>860</ele>
        <time>2014-06-22T12:35:58.1Z</time>
      </trkpt>
      <trkpt lat="44.43543" lon="6.24611">
        <ele>860</ele>
        <time>2014-06-22T12:36:04.1Z</time>
      </trkpt>
      <trkpt lat="44.43548" lon="6.24605">
        <ele>861</ele>
        <time>2014-06-22T12:36:09.1Z</time>
      </trkpt>
      <trkpt lat="44.43553" lon="6.24598">
        <ele>861</ele>
        <time>2014-06-22T12:36:15.1Z</time>
      </trkpt>
      <trkpt lat="44.43556" lon="6.24593">
        <ele>861</ele>
        <time>2014-06-22T12:36:20.1Z</time>
      </trkpt>
      <trkpt lat="44.43562" lon="6.24591">
        <ele>861</ele>
        <time>2014-06-22T12:36:26.1Z</time>
      </trkpt>
      <trkpt lat="44.43565" lon="6.24591">
        <ele>861</ele>
        <time>2014-06-22T12:36:31.1Z</time>
      </trkpt>
      <trkpt lat="44.4357" lon="6.24592">
        <ele>861</ele>
        <time>2014-06-22T12:36:37.1Z</time>
      </trkpt>
      <trkpt lat="44.43578" lon="6.24591">
        <ele>860</ele>
        <time>2014-06-22T12:36:42.1Z</time>
      </trkpt>
      <trkpt lat="44.43584" lon="6.24589">
        <ele>860</ele>
        <time>2014-06-22T12:36:47.1Z</time>
      </trkpt>
      <trkpt lat="44.43591" lon="6.24585">
        <ele>860</ele>
        <time>2014-06-22T12:36:52.1Z</time>
      </trkpt>
      <trkpt lat="44.43597" lon="6.24579">
        <ele>859</ele>
        <time>2014-06-22T12:36:57.1Z</time>
      </trkpt>
      <trkpt lat="44.43604" lon="6.24572">
        <ele>858</ele>
        <time>2014-06-22T12:37:04.1Z</time>
      </trkpt>
      <trkpt lat="44.43612" lon="6.24566">
        <ele>857</ele>
        <time>2014-06-22T12:37:09.1Z</time>
      </trkpt>
      <trkpt lat="44.43618" lon="6.24557">
        <ele>858</ele>
        <time>2014-06-22T12:37:15.1Z</time>
      </trkpt>
      <trkpt lat="44.43623" lon="6.24551">
        <ele>857</ele>
        <time>2014-06-22T12:37:20.1Z</time>
      </trkpt>
      <trkpt lat="44.43628" lon="6.24544">
        <ele>857</ele>
        <time>2014-06-22T12:37:25.1Z</time>
      </trkpt>
      <trkpt lat="44.43633" lon="6.24541">
        <ele>857</ele>
        <time>2014-06-22T12:37:31.1Z</time>
      </trkpt>
      <trkpt lat="44.43637" lon="6.24541">
        <ele>857</ele>
        <time>2014-06-22T12:37:36.1Z</time>
      </trkpt>
      <trkpt lat="44.43644" lon="6.24544">
        <ele>857</ele>
        <time>2014-06-22T12:37:42.1Z</time>
      </trkpt>
      <trkpt lat="44.43651" lon="6.24546">
        <ele>858</ele>
        <time>2014-06-22T12:37:48.1Z</time>
      </trkpt>
      <trkpt lat="44.43658" lon="6.2455">
        <ele>859</ele>
        <time>2014-06-22T12:37:54.1Z</time>
      </trkpt>
      <trkpt lat="44.43664" lon="6.24554">
        <ele>859</ele>
        <time>2014-06-22T12:38:00.1Z</time>
      </trkpt>
      <trkpt lat="44.43671" lon="6.24557">
        <ele>860</ele>
        <time>2014-06-22T12:38:05.1Z</time>
      </trkpt>
      <trkpt lat="44.43676" lon="6.2456">
        <ele>861</ele>
        <time>2014-06-22T12:38:11.1Z</time>
      </trkpt>
      <trkpt lat="44.43682" lon="6.24562">
        <ele>861</ele>
        <time>2014-06-22T12:38:17.1Z</time>
      </trkpt>
      <trkpt lat="44.43687" lon="6.24564">
        <ele>861</ele>
        <time>2014-06-22T12:38:23.1Z</time>
      </trkpt>
      <trkpt lat="44.43692" lon="6.24563">
        <ele>862</ele>
        <time>2014-06-22T12:38:29.1Z</time>
      </trkpt>
      <trkpt lat="44.43697" lon="6.24562">
        <ele>863</ele>
        <time>2014-06-22T12:38:35.1Z</time>
      </trkpt>
      <trkpt lat="44.43703" lon="6.2456">
        <ele>864</ele>
        <time>2014-06-22T12:38:41.1Z</time>
      </trkpt>
      <trkpt lat="44.43708" lon="6.24558">
        <ele>865</ele>
        <time>2014-06-22T12:38:47.1Z</time>
      </trkpt>
      <trkpt lat="44.43713" lon="6.24556">
        <ele>866</ele>
        <time>2014-06-22T12:38:52.1Z</time>
      </trkpt>
      <trkpt lat="44.43718" lon="6.24553">
        <ele>866</ele>
        <time>2014-06-22T12:38:57.1Z</time>
      </trkpt>
      <trkpt lat="44.43724" lon="6.24548">
        <ele>867</ele>
        <time>2014-06-22T12:39:03.1Z</time>
      </trkpt>
      <trkpt lat="44.43728" lon="6.24543">
        <ele>868</ele>
        <time>2014-06-22T12:39:08.1Z</time>
      </trkpt>
      <trkpt lat="44.43732" lon="6.24535">
        <ele>869</ele>
        <time>2014-06-22T12:39:15.1Z</time>
      </trkpt>
      <trkpt lat="44.43736" lon="6.24528">
        <ele>869</ele>
        <time>2014-06-22T12:39:20.1Z</time>
      </trkpt>
      <trkpt lat="44.43739" lon="6.24522">
        <ele>870</ele>
        <time>2014-06-22T12:39:25.1Z</time>
      </trkpt>
      <trkpt lat="44.43742" lon="6.24517">
        <ele>871</ele>
        <time>2014-06-22T12:39:30.1Z</time>
      </trkpt>
      <trkpt lat="44.43745" lon="6.2451">
        <ele>871</ele>
        <time>2014-06-22T12:39:36.1Z</time>
      </trkpt>
      <trkpt lat="44.43747" lon="6.24503">
        <ele>872</ele>
        <time>2014-06-22T12:39:41.1Z</time>
      </trkpt>
      <trkpt lat="44.4375" lon="6.24497">
        <ele>873</ele>
        <time>2014-06-22T12:39:46.1Z</time>
      </trkpt>
      <trkpt lat="44.43753" lon="6.24492">
        <ele>874</ele>
        <time>2014-06-22T12:39:52.1Z</time>
      </trkpt>
      <trkpt lat="44.43758" lon="6.24486">
        <ele>874</ele>
        <time>2014-06-22T12:39:58.1Z</time>
      </trkpt>
      <trkpt lat="44.43763" lon="6.24484">
        <ele>875</ele>
        <time>2014-06-22T12:40:03.1Z</time>
      </trkpt>
      <trkpt lat="44.43768" lon="6.24484">
        <ele>876</ele>
        <time>2014-06-22T12:40:09.1Z</time>
      </trkpt>
      <trkpt lat="44.43773" lon="6.24483">
        <ele>876</ele>
        <time>2014-06-22T12:40:14.1Z</time>
      </trkpt>
      <trkpt lat="44.43781" lon="6.2448">
        <ele>877</ele>
        <time>2014-06-22T12:40:20.1Z</time>
      </trkpt>
      <trkpt lat="44.43787" lon="6.24478">
        <ele>877</ele>
        <time>2014-06-22T12:40:25.1Z</time>
      </trkpt>
      <trkpt lat="44.43792" lon="6.24476">
        <ele>878</ele>
        <time>2014-06-22T12:40:31.1Z</time>
      </trkpt>
      <trkpt lat="44.43798" lon="6.24475">
        <ele>878</ele>
        <time>2014-06-22T12:40:37.1Z</time>
      </trkpt>
      <trkpt lat="44.43805" lon="6.24474">
        <ele>878</ele>
        <time>2014-06-22T12:40:43.1Z</time>
      </trkpt>
      <trkpt lat="44.43808" lon="6.24472">
        <ele>878</ele>
        <time>2014-06-22T12:40:48.1Z</time>
      </trkpt>
      <trkpt lat="44.43811" lon="6.24469">
        <ele>879</ele>
        <time>2014-06-22T12:40:54.1Z</time>
      </trkpt>
      <trkpt lat="44.43814" lon="6.2447">
        <ele>879</ele>
        <time>2014-06-22T12:40:59.1Z</time>
      </trkpt>
      <trkpt lat="44.43819" lon="6.24467">
        <ele>879</ele>
        <time>2014-06-22T12:41:05.1Z</time>
      </trkpt>
      <trkpt lat="44.43824" lon="6.24463">
        <ele>879</ele>
        <time>2014-06-22T12:41:11.1Z</time>
      </trkpt>
      <trkpt lat="44.43829" lon="6.24458">
        <ele>878</ele>
        <time>2014-06-22T12:41:17.1Z</time>
      </trkpt>
      <trkpt lat="44.43834" lon="6.24453">
        <ele>879</ele>
        <time>2014-06-22T12:41:22.1Z</time>
      </trkpt>
      <trkpt lat="44.4384" lon="6.24448">
        <ele>879</ele>
        <time>2014-06-22T12:41:27.1Z</time>
      </trkpt>
      <trkpt lat="44.43847" lon="6.24443">
        <ele>879</ele>
        <time>2014-06-22T12:41:33.1Z</time>
      </trkpt>
      <trkpt lat="44.43853" lon="6.24438">
        <ele>879</ele>
        <time>2014-06-22T12:41:39.1Z</time>
      </trkpt>
      <trkpt lat="44.4386" lon="6.24433">
        <ele>879</ele>
        <time>2014-06-22T12:41:45.1Z</time>
      </trkpt>
      <trkpt lat="44.43865" lon="6.2443">
        <ele>880</ele>
        <time>2014-06-22T12:41:50.1Z</time>
      </trkpt>
      <trkpt lat="44.4387" lon="6.24425">
        <ele>880</ele>
        <time>2014-06-22T12:41:55.1Z</time>
      </trkpt>
      <trkpt lat="44.43875" lon="6.2442">
        <ele>880</ele>
        <time>2014-06-22T12:42:01.1Z</time>
      </trkpt>
      <trkpt lat="44.4388" lon="6.24413">
        <ele>880</ele>
        <time>2014-06-22T12:42:06.1Z</time>
      </trkpt>
      <trkpt lat="44.43885" lon="6.24407">
        <ele>880</ele>
        <time>2014-06-22T12:42:11.1Z</time>
      </trkpt>
      <trkpt lat="44.43892" lon="6.24398">
        <ele>880</ele>
        <time>2014-06-22T12:42:17.1Z</time>
      </trkpt>
      <trkpt lat="44.43895" lon="6.24391">
        <ele>880</ele>
        <time>2014-06-22T12:42:22.1Z</time>
      </trkpt>
      <trkpt lat="44.439" lon="6.24383">
        <ele>880</ele>
        <time>2014-06-22T12:42:28.1Z</time>
      </trkpt>
      <trkpt lat="44.43904" lon="6.24378">
        <ele>880</ele>
        <time>2014-06-22T12:42:33.1Z</time>
      </trkpt>
      <trkpt lat="44.43906" lon="6.24372">
        <ele>880</ele>
        <time>2014-06-22T12:42:38.1Z</time>
      </trkpt>
      <trkpt lat="44.43912" lon="6.24364">
        <ele>880</ele>
        <time>2014-06-22T12:42:44.1Z</time>
      </trkpt>
      <trkpt lat="44.43917" lon="6.24357">
        <ele>880</ele>
        <time>2014-06-22T12:42:49.1Z</time>
      </trkpt>
      <trkpt lat="44.43922" lon="6.24348">
        <ele>880</ele>
        <time>2014-06-22T12:42:55.1Z</time>
      </trkpt>
      <trkpt lat="44.43926" lon="6.24339">
        <ele>880</ele>
        <time>2014-06-22T12:43:01.1Z</time>
      </trkpt>
      <trkpt lat="44.43929" lon="6.24333">
        <ele>879</ele>
        <time>2014-06-22T12:43:06.1Z</time>
      </trkpt>
      <trkpt lat="44.43934" lon="6.24328">
        <ele>880</ele>
        <time>2014-06-22T12:43:11.1Z</time>
      </trkpt>
      <trkpt lat="44.4394" lon="6.24324">
        <ele>880</ele>
        <time>2014-06-22T12:43:17.1Z</time>
      </trkpt>
      <trkpt lat="44.43947" lon="6.2432">
        <ele>880</ele>
        <time>2014-06-22T12:43:22.1Z</time>
      </trkpt>
      <trkpt lat="44.43954" lon="6.24317">
        <ele>881</ele>
        <time>2014-06-22T12:43:27.1Z</time>
      </trkpt>
      <trkpt lat="44.43961" lon="6.24311">
        <ele>881</ele>
        <time>2014-06-22T12:43:33.1Z</time>
      </trkpt>
      <trkpt lat="44.4397" lon="6.24305">
        <ele>881</ele>
        <time>2014-06-22T12:43:39.1Z</time>
      </trkpt>
      <trkpt lat="44.43975" lon="6.243">
        <ele>882</ele>
        <time>2014-06-22T12:43:44.1Z</time>
      </trkpt>
      <trkpt lat="44.4398" lon="6.24297">
        <ele>882</ele>
        <time>2014-06-22T12:43:49.1Z</time>
      </trkpt>
      <trkpt lat="44.43987" lon="6.24295">
        <ele>882</ele>
        <time>2014-06-22T12:43:55.1Z</time>
      </trkpt>
      <trkpt lat="44.43993" lon="6.24294">
        <ele>882</ele>
        <time>2014-06-22T12:44:00.1Z</time>
      </trkpt>
      <trkpt lat="44.44" lon="6.24292">
        <ele>883</ele>
        <time>2014-06-22T12:44:05.1Z</time>
      </trkpt>
      <trkpt lat="44.44006" lon="6.2429">
        <ele>883</ele>
        <time>2014-06-22T12:44:10.1Z</time>
      </trkpt>
      <trkpt lat="44.44014" lon="6.24286">
        <ele>883</ele>
        <time>2014-06-22T12:44:16.1Z</time>
      </trkpt>
      <trkpt lat="44.44021" lon="6.24281">
        <ele>883</ele>
        <time>2014-06-22T12:44:22.1Z</time>
      </trkpt>
      <trkpt lat="44.44027" lon="6.24275">
        <ele>884</ele>
        <time>2014-06-22T12:44:28.1Z</time>
      </trkpt>
      <trkpt lat="44.44031" lon="6.24268">
        <ele>885</ele>
        <time>2014-06-22T12:44:33.1Z</time>
      </trkpt>
      <trkpt lat="44.44034" lon="6.24259">
        <ele>885</ele>
        <time>2014-06-22T12:44:39.1Z</time>
      </trkpt>
      <trkpt lat="44.44036" lon="6.24249">
        <ele>885</ele>
        <time>2014-06-22T12:44:45.1Z</time>
      </trkpt>
      <trkpt lat="44.44035" lon="6.24238">
        <ele>885</ele>
        <time>2014-06-22T12:44:51.1Z</time>
      </trkpt>
      <trkpt lat="44.44034" lon="6.24229">
        <ele>885</ele>
        <time>2014-06-22T12:44:57.1Z</time>
      </trkpt>
      <trkpt lat="44.44034" lon="6.24221">
        <ele>884</ele>
        <time>2014-06-22T12:45:02.1Z</time>
      </trkpt>
      <trkpt lat="44.44033" lon="6.24211">
        <ele>884</ele>
        <time>2014-06-22T12:45:08.1Z</time>
      </trkpt>
      <trkpt lat="44.44032" lon="6.24202">
        <ele>885</ele>
        <time>2014-06-22T12:45:13.1Z</time>
      </trkpt>
      <trkpt lat="44.44031" lon="6.24192">
        <ele>884</ele>
        <time>2014-06-22T12:45:19.1Z</time>
      </trkpt>
      <trkpt lat="44.44028" lon="6.24183">
        <ele>884</ele>
        <time>2014-06-22T12:45:25.1Z</time>
      </trkpt>
      <trkpt lat="44.44025" lon="6.24173">
        <ele>884</ele>
        <time>2014-06-22T12:45:30.1Z</time>
      </trkpt>
      <trkpt lat="44.44025" lon="6.24164">
        <ele>884</ele>
        <time>2014-06-22T12:45:36.1Z</time>
      </trkpt>
      <trkpt lat="44.44023" lon="6.24159">
        <ele>884</ele>
        <time>2014-06-22T12:45:41.1Z</time>
      </trkpt>
      <trkpt lat="44.44022" lon="6.24154">
        <ele>884</ele>
        <time>2014-06-22T12:45:47.1Z</time>
      </trkpt>
      <trkpt lat="44.44026" lon="6.24151">
        <ele>884</ele>
        <time>2014-06-22T12:45:52.1Z</time>
      </trkpt>
      <trkpt lat="44.44031" lon="6.24147">
        <ele>884</ele>
        <time>2014-06-22T12:45:57.1Z</time>
      </trkpt>
      <trkpt lat="44.44037" lon="6.24147">
        <ele>885</ele>
        <time>2014-06-22T12:46:03.1Z</time>
      </trkpt>
      <trkpt lat="44.44043" lon="6.24148">
        <ele>885</ele>
        <time>2014-06-22T12:46:09.1Z</time>
      </trkpt>
      <trkpt lat="44.4405" lon="6.24149">
        <ele>886</ele>
        <time>2014-06-22T12:46:15.1Z</time>
      </trkpt>
      <trkpt lat="44.44057" lon="6.24149">
        <ele>886</ele>
        <time>2014-06-22T12:46:21.1Z</time>
      </trkpt>
      <trkpt lat="44.44064" lon="6.24145">
        <ele>887</ele>
        <time>2014-06-22T12:46:27.1Z</time>
      </trkpt>
      <trkpt lat="44.4407" lon="6.24141">
        <ele>887</ele>
        <time>2014-06-22T12:46:33.1Z</time>
      </trkpt>
      <trkpt lat="44.44075" lon="6.24137">
        <ele>887</ele>
        <time>2014-06-22T12:46:38.1Z</time>
      </trkpt>
      <trkpt lat="44.44081" lon="6.2413">
        <ele>887</ele>
        <time>2014-06-22T12:46:44.1Z</time>
      </trkpt>
      <trkpt lat="44.44085" lon="6.24127">
        <ele>887</ele>
        <time>2014-06-22T12:46:49.1Z</time>
      </trkpt>
      <trkpt lat="44.44091" lon="6.24126">
        <ele>887</ele>
        <time>2014-06-22T12:46:55.1Z</time>
      </trkpt>
      <trkpt lat="44.44099" lon="6.24128">
        <ele>888</ele>
        <time>2014-06-22T12:47:01.1Z</time>
      </trkpt>
      <trkpt lat="44.44107" lon="6.24127">
        <ele>889</ele>
        <time>2014-06-22T12:47:07.1Z</time>
      </trkpt>
      <trkpt lat="44.44112" lon="6.24125">
        <ele>889</ele>
        <time>2014-06-22T12:47:12.1Z</time>
      </trkpt>
      <trkpt lat="44.44117" lon="6.2412">
        <ele>890</ele>
        <time>2014-06-22T12:47:18.1Z</time>
      </trkpt>
      <trkpt lat="44.44121" lon="6.24115">
        <ele>892</ele>
        <time>2014-06-22T12:47:24.1Z</time>
      </trkpt>
      <trkpt lat="44.44125" lon="6.2411">
        <ele>892</ele>
        <time>2014-06-22T12:47:29.1Z</time>
      </trkpt>
      <trkpt lat="44.4413" lon="6.24104">
        <ele>892</ele>
        <time>2014-06-22T12:47:35.1Z</time>
      </trkpt>
      <trkpt lat="44.44133" lon="6.24099">
        <ele>893</ele>
        <time>2014-06-22T12:47:40.1Z</time>
      </trkpt>
      <trkpt lat="44.44136" lon="6.24093">
        <ele>894</ele>
        <time>2014-06-22T12:47:45.1Z</time>
      </trkpt>
      <trkpt lat="44.44138" lon="6.24086">
        <ele>894</ele>
        <time>2014-06-22T12:47:51.1Z</time>
      </trkpt>
      <trkpt lat="44.44141" lon="6.24081">
        <ele>896</ele>
        <time>2014-06-22T12:47:56.1Z</time>
      </trkpt>
      <trkpt lat="44.44146" lon="6.24077">
        <ele>896</ele>
        <time>2014-06-22T12:48:02.1Z</time>
      </trkpt>
      <trkpt lat="44.44152" lon="6.24081">
        <ele>896</ele>
        <time>2014-06-22T12:48:08.1Z</time>
      </trkpt>
      <trkpt lat="44.44156" lon="6.24088">
        <ele>897</ele>
        <time>2014-06-22T12:48:14.1Z</time>
      </trkpt>
      <trkpt lat="44.44159" lon="6.24096">
        <ele>897</ele>
        <time>2014-06-22T12:48:20.1Z</time>
      </trkpt>
      <trkpt lat="44.44163" lon="6.24103">
        <ele>898</ele>
        <time>2014-06-22T12:48:26.1Z</time>
      </trkpt>
      <trkpt lat="44.44164" lon="6.24112">
        <ele>899</ele>
        <time>2014-06-22T12:48:31.1Z</time>
      </trkpt>
      <trkpt lat="44.44164" lon="6.24121">
        <ele>899</ele>
        <time>2014-06-22T12:48:37.1Z</time>
      </trkpt>
      <trkpt lat="44.44168" lon="6.2413">
        <ele>900</ele>
        <time>2014-06-22T12:48:43.1Z</time>
      </trkpt>
      <trkpt lat="44.44173" lon="6.24137">
        <ele>900</ele>
        <time>2014-06-22T12:48:49.1Z</time>
      </trkpt>
      <trkpt lat="44.44179" lon="6.24141">
        <ele>901</ele>
        <time>2014-06-22T12:48:54.1Z</time>
      </trkpt>
      <trkpt lat="44.44186" lon="6.24142">
        <ele>902</ele>
        <time>2014-06-22T12:49:00.1Z</time>
      </trkpt>
      <trkpt lat="44.44192" lon="6.24142">
        <ele>903</ele>
        <time>2014-06-22T12:49:06.1Z</time>
      </trkpt>
      <trkpt lat="44.44197" lon="6.24141">
        <ele>903</ele>
        <time>2014-06-22T12:49:11.1Z</time>
      </trkpt>
      <trkpt lat="44.44203" lon="6.24139">
        <ele>903</ele>
        <time>2014-06-22T12:49:16.1Z</time>
      </trkpt>
      <trkpt lat="44.44209" lon="6.24137">
        <ele>904</ele>
        <time>2014-06-22T12:49:22.1Z</time>
      </trkpt>
      <trkpt lat="44.44216" lon="6.24136">
        <ele>905</ele>
        <time>2014-06-22T12:49:28.1Z</time>
      </trkpt>
      <trkpt lat="44.44222" lon="6.24136">
        <ele>905</ele>
        <time>2014-06-22T12:49:33.1Z</time>
      </trkpt>
      <trkpt lat="44.44227" lon="6.24135">
        <ele>906</ele>
        <time>2014-06-22T12:49:38.1Z</time>
      </trkpt>
      <trkpt lat="44.44233" lon="6.24132">
        <ele>907</ele>
        <time>2014-06-22T12:49:44.1Z</time>
      </trkpt>
      <trkpt lat="44.44236" lon="6.24129">
        <ele>907</ele>
        <time>2014-06-22T12:49:49.1Z</time>
      </trkpt>
      <trkpt lat="44.44241" lon="6.24123">
        <ele>908</ele>
        <time>2014-06-22T12:49:55.1Z</time>
      </trkpt>
      <trkpt lat="44.44245" lon="6.24116">
        <ele>909</ele>
        <time>2014-06-22T12:50:01.1Z</time>
      </trkpt>
      <trkpt lat="44.44248" lon="6.24109">
        <ele>909</ele>
        <time>2014-06-22T12:50:06.1Z</time>
      </trkpt>
      <trkpt lat="44.44251" lon="6.24101">
        <ele>909</ele>
        <time>2014-06-22T12:50:12.1Z</time>
      </trkpt>
      <trkpt lat="44.44253" lon="6.24092">
        <ele>909</ele>
        <time>2014-06-22T12:50:17.1Z</time>
      </trkpt>
      <trkpt lat="44.44256" lon="6.24083">
        <ele>910</ele>
        <time>2014-06-22T12:50:23.1Z</time>
      </trkpt>
      <trkpt lat="44.44258" lon="6.24074">
        <ele>911</ele>
        <time>2014-06-22T12:50:29.1Z</time>
      </trkpt>
      <trkpt lat="44.4426" lon="6.24066">
        <ele>911</ele>
        <time>2014-06-22T12:50:34.1Z</time>
      </trkpt>
      <trkpt lat="44.44262" lon="6.24055">
        <ele>911</ele>
        <time>2014-06-22T12:50:40.1Z</time>
      </trkpt>
      <trkpt lat="44.44262" lon="6.24046">
        <ele>911</ele>
        <time>2014-06-22T12:50:46.1Z</time>
      </trkpt>
      <trkpt lat="44.4426" lon="6.24037">
        <ele>911</ele>
        <time>2014-06-22T12:50:52.1Z</time>
      </trkpt>
      <trkpt lat="44.44258" lon="6.24029">
        <ele>911</ele>
        <time>2014-06-22T12:50:57.1Z</time>
      </trkpt>
      <trkpt lat="44.44255" lon="6.2402">
        <ele>911</ele>
        <time>2014-06-22T12:51:03.1Z</time>
      </trkpt>
      <trkpt lat="44.44253" lon="6.24012">
        <ele>912</ele>
        <time>2014-06-22T12:51:08.1Z</time>
      </trkpt>
      <trkpt lat="44.4425" lon="6.24004">
        <ele>912</ele>
        <time>2014-06-22T12:51:14.1Z</time>
      </trkpt>
      <trkpt lat="44.4425" lon="6.23995">
        <ele>913</ele>
        <time>2014-06-22T12:51:20.1Z</time>
      </trkpt>
      <trkpt lat="44.44251" lon="6.23988">
        <ele>914</ele>
        <time>2014-06-22T12:51:25.1Z</time>
      </trkpt>
      <trkpt lat="44.44255" lon="6.23983">
        <ele>914</ele>
        <time>2014-06-22T12:51:31.1Z</time>
      </trkpt>
      <trkpt lat="44.44261" lon="6.23985">
        <ele>914</ele>
        <time>2014-06-22T12:51:37.1Z</time>
      </trkpt>
      <trkpt lat="44.44264" lon="6.23986">
        <ele>913</ele>
        <time>2014-06-22T12:51:42.1Z</time>
      </trkpt>
      <trkpt lat="44.44269" lon="6.23988">
        <ele>913</ele>
        <time>2014-06-22T12:51:48.1Z</time>
      </trkpt>
      <trkpt lat="44.44274" lon="6.23989">
        <ele>914</ele>
        <time>2014-06-22T12:51:54.1Z</time>
      </trkpt>
      <trkpt lat="44.44281" lon="6.2399">
        <ele>914</ele>
        <time>2014-06-22T12:52:00.1Z</time>
      </trkpt>
      <trkpt lat="44.44288" lon="6.23992">
        <ele>915</ele>
        <time>2014-06-22T12:52:06.1Z</time>
      </trkpt>
      <trkpt lat="44.44295" lon="6.23994">
        <ele>915</ele>
        <time>2014-06-22T12:52:12.1Z</time>
      </trkpt>
      <trkpt lat="44.443" lon="6.23998">
        <ele>915</ele>
        <time>2014-06-22T12:52:18.1Z</time>
      </trkpt>
      <trkpt lat="44.44306" lon="6.24001">
        <ele>916</ele>
        <time>2014-06-22T12:52:24.1Z</time>
      </trkpt>
      <trkpt lat="44.44313" lon="6.24004">
        <ele>916</ele>
        <time>2014-06-22T12:52:30.1Z</time>
      </trkpt>
      <trkpt lat="44.44316" lon="6.24004">
        <ele>917</ele>
        <time>2014-06-22T12:52:35.1Z</time>
      </trkpt>
      <trkpt lat="44.44317" lon="6.24005">
        <ele>917</ele>
        <time>2014-06-22T12:52:40.1Z</time>
      </trkpt>
      <trkpt lat="44.44319" lon="6.24006">
        <ele>916</ele>
        <time>2014-06-22T12:52:46.1Z</time>
      </trkpt>
      <trkpt lat="44.4432" lon="6.24007">
        <ele>916</ele>
        <time>2014-06-22T12:52:51.1Z</time>
      </trkpt>
      <trkpt lat="44.44321" lon="6.24007">
        <ele>916</ele>
        <time>2014-06-22T12:52:56.1Z</time>
      </trkpt>
      <trkpt lat="44.44322" lon="6.24008">
        <ele>917</ele>
        <time>2014-06-22T12:53:02.1Z</time>
      </trkpt>
      <trkpt lat="44.44323" lon="6.24008">
        <ele>916</ele>
        <time>2014-06-22T12:53:07.1Z</time>
      </trkpt>
      <trkpt lat="44.44325" lon="6.24008">
        <ele>916</ele>
        <time>2014-06-22T12:53:14.1Z</time>
      </trkpt>
      <trkpt lat="44.44326" lon="6.24008">
        <ele>916</ele>
        <time>2014-06-22T12:53:20.1Z</time>
      </trkpt>
      <trkpt lat="44.44326" lon="6.24008">
        <ele>916</ele>
        <time>2014-06-22T12:53:25.1Z</time>
      </trkpt>
      <trkpt lat="44.44326" lon="6.24008">
        <ele>916</ele>
        <time>2014-06-22T12:53:31.1Z</time>
      </trkpt>
      <trkpt lat="44.44325" lon="6.24009">
        <ele>916</ele>
        <time>2014-06-22T12:53:36.1Z</time>
      </trkpt>
      <trkpt lat="44.44324" lon="6.24009">
        <ele>916</ele>
        <time>2014-06-22T12:53:42.1Z</time>
      </trkpt>
      <trkpt lat="44.44323" lon="6.24009">
        <ele>916</ele>
        <time>2014-06-22T12:53:47.1Z</time>
      </trkpt>
      <trkpt lat="44.44322" lon="6.24011">
        <ele>916</ele>
        <time>2014-06-22T12:53:53.1Z</time>
      </trkpt>
      <trkpt lat="44.44323" lon="6.24013">
        <ele>916</ele>
        <time>2014-06-22T12:53:58.1Z</time>
      </trkpt>
      <trkpt lat="44.44323" lon="6.24013">
        <ele>916</ele>
        <time>2014-06-22T12:54:07.1Z</time>
      </trkpt>
      <trkpt lat="44.44323" lon="6.24013">
        <ele>916</ele>
        <time>2014-06-22T12:54:12.1Z</time>
      </trkpt>
      <trkpt lat="44.44323" lon="6.24013">
        <ele>916</ele>
        <time>2014-06-22T12:54:17.1Z</time>
      </trkpt>
      <trkpt lat="44.44324" lon="6.24013">
        <ele>916</ele>
        <time>2014-06-22T12:54:22.1Z</time>
      </trkpt>
      <trkpt lat="44.44328" lon="6.24011">
        <ele>917</ele>
        <time>2014-06-22T12:54:28.1Z</time>
      </trkpt>
      <trkpt lat="44.44332" lon="6.24009">
        <ele>917</ele>
        <time>2014-06-22T12:54:33.1Z</time>
      </trkpt>
      <trkpt lat="44.44337" lon="6.24003">
        <ele>917</ele>
        <time>2014-06-22T12:54:39.1Z</time>
      </trkpt>
      <trkpt lat="44.44341" lon="6.23997">
        <ele>918</ele>
        <time>2014-06-22T12:54:44.1Z</time>
      </trkpt>
      <trkpt lat="44.44344" lon="6.23989">
        <ele>919</ele>
        <time>2014-06-22T12:54:50.1Z</time>
      </trkpt>
      <trkpt lat="44.44347" lon="6.23981">
        <ele>919</ele>
        <time>2014-06-22T12:54:56.1Z</time>
      </trkpt>
      <trkpt lat="44.44348" lon="6.23974">
        <ele>919</ele>
        <time>2014-06-22T12:55:01.1Z</time>
      </trkpt>
      <trkpt lat="44.44352" lon="6.23966">
        <ele>919</ele>
        <time>2014-06-22T12:55:07.1Z</time>
      </trkpt>
      <trkpt lat="44.44355" lon="6.23959">
        <ele>919</ele>
        <time>2014-06-22T12:55:12.1Z</time>
      </trkpt>
      <trkpt lat="44.4436" lon="6.23952">
        <ele>920</ele>
        <time>2014-06-22T12:55:17.1Z</time>
      </trkpt>
      <trkpt lat="44.44365" lon="6.23947">
        <ele>920</ele>
        <time>2014-06-22T12:55:22.1Z</time>
      </trkpt>
      <trkpt lat="44.44372" lon="6.23941">
        <ele>921</ele>
        <time>2014-06-22T12:55:28.1Z</time>
      </trkpt>
      <trkpt lat="44.44379" lon="6.23936">
        <ele>921</ele>
        <time>2014-06-22T12:55:34.1Z</time>
      </trkpt>
      <trkpt lat="44.44385" lon="6.23934">
        <ele>922</ele>
        <time>2014-06-22T12:55:39.1Z</time>
      </trkpt>
      <trkpt lat="44.44392" lon="6.23932">
        <ele>923</ele>
        <time>2014-06-22T12:55:44.1Z</time>
      </trkpt>
      <trkpt lat="44.44399" lon="6.23931">
        <ele>923</ele>
        <time>2014-06-22T12:55:50.1Z</time>
      </trkpt>
      <trkpt lat="44.44405" lon="6.23931">
        <ele>923</ele>
        <time>2014-06-22T12:55:55.1Z</time>
      </trkpt>
      <trkpt lat="44.44411" lon="6.23931">
        <ele>923</ele>
        <time>2014-06-22T12:56:00.1Z</time>
      </trkpt>
      <trkpt lat="44.44416" lon="6.2393">
        <ele>923</ele>
        <time>2014-06-22T12:56:05.1Z</time>
      </trkpt>
      <trkpt lat="44.44424" lon="6.23928">
        <ele>924</ele>
        <time>2014-06-22T12:56:11.1Z</time>
      </trkpt>
      <trkpt lat="44.44432" lon="6.23925">
        <ele>924</ele>
        <time>2014-06-22T12:56:17.1Z</time>
      </trkpt>
      <trkpt lat="44.44438" lon="6.23922">
        <ele>923</ele>
        <time>2014-06-22T12:56:22.1Z</time>
      </trkpt>
      <trkpt lat="44.44444" lon="6.23914">
        <ele>923</ele>
        <time>2014-06-22T12:56:28.1Z</time>
      </trkpt>
      <trkpt lat="44.44447" lon="6.23904">
        <ele>922</ele>
        <time>2014-06-22T12:56:34.1Z</time>
      </trkpt>
      <trkpt lat="44.4445" lon="6.23894">
        <ele>921</ele>
        <time>2014-06-22T12:56:40.1Z</time>
      </trkpt>
      <trkpt lat="44.44455" lon="6.23885">
        <ele>921</ele>
        <time>2014-06-22T12:56:46.1Z</time>
      </trkpt>
      <trkpt lat="44.4446" lon="6.2388">
        <ele>921</ele>
        <time>2014-06-22T12:56:51.1Z</time>
      </trkpt>
      <trkpt lat="44.44466" lon="6.23876">
        <ele>920</ele>
        <time>2014-06-22T12:56:56.1Z</time>
      </trkpt>
      <trkpt lat="44.44473" lon="6.23875">
        <ele>919</ele>
        <time>2014-06-22T12:57:02.1Z</time>
      </trkpt>
      <trkpt lat="44.44482" lon="6.23875">
        <ele>918</ele>
        <time>2014-06-22T12:57:08.1Z</time>
      </trkpt>
      <trkpt lat="44.44488" lon="6.23874">
        <ele>917</ele>
        <time>2014-06-22T12:57:13.1Z</time>
      </trkpt>
      <trkpt lat="44.44496" lon="6.23871">
        <ele>917</ele>
        <time>2014-06-22T12:57:19.1Z</time>
      </trkpt>
      <trkpt lat="44.44503" lon="6.23867">
        <ele>916</ele>
        <time>2014-06-22T12:57:25.1Z</time>
      </trkpt>
      <trkpt lat="44.44508" lon="6.23862">
        <ele>915</ele>
        <time>2014-06-22T12:57:30.1Z</time>
      </trkpt>
      <trkpt lat="44.44514" lon="6.23857">
        <ele>915</ele>
        <time>2014-06-22T12:57:35.1Z</time>
      </trkpt>
      <trkpt lat="44.44519" lon="6.23852">
        <ele>915</ele>
        <time>2014-06-22T12:57:40.1Z</time>
      </trkpt>
      <trkpt lat="44.44525" lon="6.23845">
        <ele>913</ele>
        <time>2014-06-22T12:57:46.1Z</time>
      </trkpt>
      <trkpt lat="44.44529" lon="6.23836">
        <ele>912</ele>
        <time>2014-06-22T12:57:52.1Z</time>
      </trkpt>
      <trkpt lat="44.4453" lon="6.23829">
        <ele>912</ele>
        <time>2014-06-22T12:57:57.1Z</time>
      </trkpt>
      <trkpt lat="44.4453" lon="6.23817">
        <ele>911</ele>
        <time>2014-06-22T12:58:03.1Z</time>
      </trkpt>
      <trkpt lat="44.44528" lon="6.23809">
        <ele>910</ele>
        <time>2014-06-22T12:58:08.1Z</time>
      </trkpt>
      <trkpt lat="44.44523" lon="6.23802">
        <ele>909</ele>
        <time>2014-06-22T12:58:14.1Z</time>
      </trkpt>
      <trkpt lat="44.44518" lon="6.23796">
        <ele>908</ele>
        <time>2014-06-22T12:58:19.1Z</time>
      </trkpt>
      <trkpt lat="44.44512" lon="6.23791">
        <ele>907</ele>
        <time>2014-06-22T12:58:25.1Z</time>
      </trkpt>
      <trkpt lat="44.44505" lon="6.23786">
        <ele>906</ele>
        <time>2014-06-22T12:58:31.1Z</time>
      </trkpt>
      <trkpt lat="44.44499" lon="6.23782">
        <ele>906</ele>
        <time>2014-06-22T12:58:37.1Z</time>
      </trkpt>
      <trkpt lat="44.44494" lon="6.23778">
        <ele>905</ele>
        <time>2014-06-22T12:58:42.1Z</time>
      </trkpt>
      <trkpt lat="44.44488" lon="6.23771">
        <ele>905</ele>
        <time>2014-06-22T12:58:48.1Z</time>
      </trkpt>
      <trkpt lat="44.44485" lon="6.23764">
        <ele>903</ele>
        <time>2014-06-22T12:58:54.1Z</time>
      </trkpt>
      <trkpt lat="44.44485" lon="6.23754">
        <ele>902</ele>
        <time>2014-06-22T12:59:00.1Z</time>
      </trkpt>
      <trkpt lat="44.44487" lon="6.23746">
        <ele>901</ele>
        <time>2014-06-22T12:59:05.1Z</time>
      </trkpt>
      <trkpt lat="44.44491" lon="6.23738">
        <ele>900</ele>
        <time>2014-06-22T12:59:10.1Z</time>
      </trkpt>
      <trkpt lat="44.44495" lon="6.2373">
        <ele>900</ele>
        <time>2014-06-22T12:59:15.1Z</time>
      </trkpt>
      <trkpt lat="44.44498" lon="6.23719">
        <ele>899</ele>
        <time>2014-06-22T12:59:21.1Z</time>
      </trkpt>
      <trkpt lat="44.44496" lon="6.2371">
        <ele>898</ele>
        <time>2014-06-22T12:59:26.1Z</time>
      </trkpt>
      <trkpt lat="44.44493" lon="6.237">
        <ele>897</ele>
        <time>2014-06-22T12:59:32.1Z</time>
      </trkpt>
      <trkpt lat="44.44491" lon="6.23689">
        <ele>897</ele>
        <time>2014-06-22T12:59:38.1Z</time>
      </trkpt>
      <trkpt lat="44.44492" lon="6.23681">
        <ele>896</ele>
        <time>2014-06-22T12:59:43.1Z</time>
      </trkpt>
      <trkpt lat="44.44496" lon="6.23674">
        <ele>897</ele>
        <time>2014-06-22T12:59:48.1Z</time>
      </trkpt>
      <trkpt lat="44.44502" lon="6.23667">
        <ele>897</ele>
        <time>2014-06-22T12:59:54.1Z</time>
      </trkpt>
      <trkpt lat="44.44506" lon="6.23657">
        <ele>898</ele>
        <time>2014-06-22T13:00:00.1Z</time>
      </trkpt>
      <trkpt lat="44.44507" lon="6.23648">
        <ele>898</ele>
        <time>2014-06-22T13:00:05.1Z</time>
      </trkpt>
      <trkpt lat="44.44505" lon="6.23637">
        <ele>898</ele>
        <time>2014-06-22T13:00:11.1Z</time>
      </trkpt>
      <trkpt lat="44.44504" lon="6.23629">
        <ele>898</ele>
        <time>2014-06-22T13:00:16.1Z</time>
      </trkpt>
      <trkpt lat="44.44503" lon="6.2362">
        <ele>898</ele>
        <time>2014-06-22T13:00:21.1Z</time>
      </trkpt>
      <trkpt lat="44.44502" lon="6.2361">
        <ele>898</ele>
        <time>2014-06-22T13:00:27.1Z</time>
      </trkpt>
      <trkpt lat="44.445" lon="6.23602">
        <ele>898</ele>
        <time>2014-06-22T13:00:32.1Z</time>
      </trkpt>
      <trkpt lat="44.44501" lon="6.23591">
        <ele>898</ele>
        <time>2014-06-22T13:00:38.1Z</time>
      </trkpt>
      <trkpt lat="44.44506" lon="6.23583">
        <ele>899</ele>
        <time>2014-06-22T13:00:44.1Z</time>
      </trkpt>
      <trkpt lat="44.44514" lon="6.2358">
        <ele>899</ele>
        <time>2014-06-22T13:00:50.1Z</time>
      </trkpt>
      <trkpt lat="44.44521" lon="6.23579">
        <ele>898</ele>
        <time>2014-06-22T13:00:56.1Z</time>
      </trkpt>
      <trkpt lat="44.44527" lon="6.23581">
        <ele>898</ele>
        <time>2014-06-22T13:01:01.1Z</time>
      </trkpt>
      <trkpt lat="44.44534" lon="6.23586">
        <ele>898</ele>
        <time>2014-06-22T13:01:07.1Z</time>
      </trkpt>
      <trkpt lat="44.44538" lon="6.23592">
        <ele>898</ele>
        <time>2014-06-22T13:01:12.1Z</time>
      </trkpt>
      <trkpt lat="44.44545" lon="6.23599">
        <ele>899</ele>
        <time>2014-06-22T13:01:18.1Z</time>
      </trkpt>
      <trkpt lat="44.4455" lon="6.23606">
        <ele>898</ele>
        <time>2014-06-22T13:01:24.1Z</time>
      </trkpt>
      <trkpt lat="44.44554" lon="6.23612">
        <ele>899</ele>
        <time>2014-06-22T13:01:29.1Z</time>
      </trkpt>
      <trkpt lat="44.44559" lon="6.2362">
        <ele>899</ele>
        <time>2014-06-22T13:01:35.1Z</time>
      </trkpt>
      <trkpt lat="44.44565" lon="6.23627">
        <ele>900</ele>
        <time>2014-06-22T13:01:41.1Z</time>
      </trkpt>
      <trkpt lat="44.44572" lon="6.23631">
        <ele>901</ele>
        <time>2014-06-22T13:01:47.1Z</time>
      </trkpt>
      <trkpt lat="44.44577" lon="6.23634">
        <ele>902</ele>
        <time>2014-06-22T13:01:53.1Z</time>
      </trkpt>
      <trkpt lat="44.44584" lon="6.23634">
        <ele>902</ele>
        <time>2014-06-22T13:01:59.1Z</time>
      </trkpt>
      <trkpt lat="44.4459" lon="6.23636">
        <ele>903</ele>
        <time>2014-06-22T13:02:05.1Z</time>
      </trkpt>
      <trkpt lat="44.44593" lon="6.23639">
        <ele>903</ele>
        <time>2014-06-22T13:02:11.1Z</time>
      </trkpt>
      <trkpt lat="44.44598" lon="6.23641">
        <ele>904</ele>
        <time>2014-06-22T13:02:16.1Z</time>
      </trkpt>
      <trkpt lat="44.44604" lon="6.23643">
        <ele>904</ele>
        <time>2014-06-22T13:02:21.1Z</time>
      </trkpt>
      <trkpt lat="44.44611" lon="6.23645">
        <ele>905</ele>
        <time>2014-06-22T13:02:27.1Z</time>
      </trkpt>
      <trkpt lat="44.44618" lon="6.23645">
        <ele>906</ele>
        <time>2014-06-22T13:02:33.1Z</time>
      </trkpt>
      <trkpt lat="44.44624" lon="6.23644">
        <ele>906</ele>
        <time>2014-06-22T13:02:38.1Z</time>
      </trkpt>
      <trkpt lat="44.44629" lon="6.2364">
        <ele>906</ele>
        <time>2014-06-22T13:02:43.1Z</time>
      </trkpt>
      <trkpt lat="44.44635" lon="6.23632">
        <ele>906</ele>
        <time>2014-06-22T13:02:49.1Z</time>
      </trkpt>
      <trkpt lat="44.44641" lon="6.23626">
        <ele>907</ele>
        <time>2014-06-22T13:02:55.1Z</time>
      </trkpt>
      <trkpt lat="44.44646" lon="6.23621">
        <ele>906</ele>
        <time>2014-06-22T13:03:00.1Z</time>
      </trkpt>
      <trkpt lat="44.44652" lon="6.23614">
        <ele>905</ele>
        <time>2014-06-22T13:03:06.1Z</time>
      </trkpt>
      <trkpt lat="44.44658" lon="6.23606">
        <ele>904</ele>
        <time>2014-06-22T13:03:12.1Z</time>
      </trkpt>
      <trkpt lat="44.44664" lon="6.236">
        <ele>904</ele>
        <time>2014-06-22T13:03:17.1Z</time>
      </trkpt>
      <trkpt lat="44.44668" lon="6.23591">
        <ele>903</ele>
        <time>2014-06-22T13:03:23.1Z</time>
      </trkpt>
      <trkpt lat="44.4467" lon="6.23584">
        <ele>903</ele>
        <time>2014-06-22T13:03:28.1Z</time>
      </trkpt>
      <trkpt lat="44.4467" lon="6.23575">
        <ele>902</ele>
        <time>2014-06-22T13:03:34.1Z</time>
      </trkpt>
      <trkpt lat="44.44667" lon="6.23568">
        <ele>901</ele>
        <time>2014-06-22T13:03:39.1Z</time>
      </trkpt>
      <trkpt lat="44.44664" lon="6.23561">
        <ele>900</ele>
        <time>2014-06-22T13:03:45.1Z</time>
      </trkpt>
      <trkpt lat="44.44661" lon="6.23554">
        <ele>900</ele>
        <time>2014-06-22T13:03:51.1Z</time>
      </trkpt>
      <trkpt lat="44.44661" lon="6.23546">
        <ele>899</ele>
        <time>2014-06-22T13:03:56.1Z</time>
      </trkpt>
      <trkpt lat="44.44663" lon="6.23542">
        <ele>900</ele>
        <time>2014-06-22T13:04:01.1Z</time>
      </trkpt>
      <trkpt lat="44.44667" lon="6.23537">
        <ele>900</ele>
        <time>2014-06-22T13:04:07.1Z</time>
      </trkpt>
      <trkpt lat="44.44671" lon="6.2353">
        <ele>899</ele>
        <time>2014-06-22T13:04:13.1Z</time>
      </trkpt>
      <trkpt lat="44.44674" lon="6.23524">
        <ele>899</ele>
        <time>2014-06-22T13:04:18.1Z</time>
      </trkpt>
      <trkpt lat="44.44677" lon="6.23516">
        <ele>899</ele>
        <time>2014-06-22T13:04:24.1Z</time>
      </trkpt>
      <trkpt lat="44.44681" lon="6.23516">
        <ele>899</ele>
        <time>2014-06-22T13:04:29.1Z</time>
      </trkpt>
      <trkpt lat="44.44688" lon="6.2352">
        <ele>900</ele>
        <time>2014-06-22T13:04:35.1Z</time>
      </trkpt>
      <trkpt lat="44.44695" lon="6.23523">
        <ele>900</ele>
        <time>2014-06-22T13:04:41.1Z</time>
      </trkpt>
      <trkpt lat="44.44704" lon="6.23525">
        <ele>901</ele>
        <time>2014-06-22T13:04:47.1Z</time>
      </trkpt>
      <trkpt lat="44.44711" lon="6.23528">
        <ele>902</ele>
        <time>2014-06-22T13:04:53.1Z</time>
      </trkpt>
      <trkpt lat="44.44717" lon="6.23529">
        <ele>902</ele>
        <time>2014-06-22T13:04:58.1Z</time>
      </trkpt>
      <trkpt lat="44.44723" lon="6.23532">
        <ele>903</ele>
        <time>2014-06-22T13:05:04.1Z</time>
      </trkpt>
      <trkpt lat="44.44727" lon="6.23531">
        <ele>903</ele>
        <time>2014-06-22T13:05:09.1Z</time>
      </trkpt>
      <trkpt lat="44.44734" lon="6.23531">
        <ele>903</ele>
        <time>2014-06-22T13:05:14.1Z</time>
      </trkpt>
      <trkpt lat="44.44741" lon="6.23536">
        <ele>904</ele>
        <time>2014-06-22T13:05:20.1Z</time>
      </trkpt>
      <trkpt lat="44.44746" lon="6.23541">
        <ele>904</ele>
        <time>2014-06-22T13:05:25.1Z</time>
      </trkpt>
      <trkpt lat="44.44751" lon="6.23546">
        <ele>905</ele>
        <time>2014-06-22T13:05:30.1Z</time>
      </trkpt>
      <trkpt lat="44.44758" lon="6.23551">
        <ele>905</ele>
        <time>2014-06-22T13:05:36.1Z</time>
      </trkpt>
      <trkpt lat="44.44763" lon="6.23556">
        <ele>906</ele>
        <time>2014-06-22T13:05:42.1Z</time>
      </trkpt>
      <trkpt lat="44.4477" lon="6.23559">
        <ele>907</ele>
        <time>2014-06-22T13:05:48.1Z</time>
      </trkpt>
      <trkpt lat="44.44778" lon="6.23564">
        <ele>907</ele>
        <time>2014-06-22T13:05:54.1Z</time>
      </trkpt>
      <trkpt lat="44.44785" lon="6.2357">
        <ele>907</ele>
        <time>2014-06-22T13:06:00.1Z</time>
      </trkpt>
      <trkpt lat="44.44789" lon="6.23575">
        <ele>908</ele>
        <time>2014-06-22T13:06:05.1Z</time>
      </trkpt>
      <trkpt lat="44.44796" lon="6.23583">
        <ele>908</ele>
        <time>2014-06-22T13:06:11.1Z</time>
      </trkpt>
      <trkpt lat="44.44801" lon="6.23591">
        <ele>908</ele>
        <time>2014-06-22T13:06:17.1Z</time>
      </trkpt>
      <trkpt lat="44.44807" lon="6.23598">
        <ele>908</ele>
        <time>2014-06-22T13:06:23.1Z</time>
      </trkpt>
      <trkpt lat="44.44812" lon="6.23604">
        <ele>908</ele>
        <time>2014-06-22T13:06:29.1Z</time>
      </trkpt>
      <trkpt lat="44.44816" lon="6.23606">
        <ele>908</ele>
        <time>2014-06-22T13:06:34.1Z</time>
      </trkpt>
      <trkpt lat="44.44815" lon="6.23607">
        <ele>907</ele>
        <time>2014-06-22T13:06:40.1Z</time>
      </trkpt>
      <trkpt lat="44.44821" lon="6.2361">
        <ele>907</ele>
        <time>2014-06-22T13:06:46.1Z</time>
      </trkpt>
      <trkpt lat="44.44827" lon="6.23611">
        <ele>907</ele>
        <time>2014-06-22T13:06:51.1Z</time>
      </trkpt>
      <trkpt lat="44.44833" lon="6.23612">
        <ele>907</ele>
        <time>2014-06-22T13:06:56.1Z</time>
      </trkpt>
      <trkpt lat="44.44839" lon="6.2361">
        <ele>908</ele>
        <time>2014-06-22T13:07:02.1Z</time>
      </trkpt>
      <trkpt lat="44.44846" lon="6.23606">
        <ele>908</ele>
        <time>2014-06-22T13:07:08.1Z</time>
      </trkpt>
      <trkpt lat="44.44852" lon="6.236">
        <ele>908</ele>
        <time>2014-06-22T13:07:13.1Z</time>
      </trkpt>
      <trkpt lat="44.44856" lon="6.23595">
        <ele>908</ele>
        <time>2014-06-22T13:07:18.1Z</time>
      </trkpt>
      <trkpt lat="44.44862" lon="6.23589">
        <ele>908</ele>
        <time>2014-06-22T13:07:24.1Z</time>
      </trkpt>
      <trkpt lat="44.44866" lon="6.23583">
        <ele>908</ele>
        <time>2014-06-22T13:07:29.1Z</time>
      </trkpt>
      <trkpt lat="44.44871" lon="6.23574">
        <ele>908</ele>
        <time>2014-06-22T13:07:35.1Z</time>
      </trkpt>
      <trkpt lat="44.44876" lon="6.23565">
        <ele>907</ele>
        <time>2014-06-22T13:07:41.1Z</time>
      </trkpt>
      <trkpt lat="44.44882" lon="6.23558">
        <ele>907</ele>
        <time>2014-06-22T13:07:47.1Z</time>
      </trkpt>
      <trkpt lat="44.44887" lon="6.23549">
        <ele>907</ele>
        <time>2014-06-22T13:07:53.1Z</time>
      </trkpt>
      <trkpt lat="44.44891" lon="6.23541">
        <ele>907</ele>
        <time>2014-06-22T13:07:59.1Z</time>
      </trkpt>
      <trkpt lat="44.44895" lon="6.23534">
        <ele>907</ele>
        <time>2014-06-22T13:08:04.1Z</time>
      </trkpt>
      <trkpt lat="44.44899" lon="6.23525">
        <ele>906</ele>
        <time>2014-06-22T13:08:10.1Z</time>
      </trkpt>
      <trkpt lat="44.44904" lon="6.2352">
        <ele>905</ele>
        <time>2014-06-22T13:08:15.1Z</time>
      </trkpt>
      <trkpt lat="44.44907" lon="6.23512">
        <ele>905</ele>
        <time>2014-06-22T13:08:21.1Z</time>
      </trkpt>
      <trkpt lat="44.44912" lon="6.23507">
        <ele>904</ele>
        <time>2014-06-22T13:08:26.1Z</time>
      </trkpt>
      <trkpt lat="44.44919" lon="6.23501">
        <ele>904</ele>
        <time>2014-06-22T13:08:32.1Z</time>
      </trkpt>
      <trkpt lat="44.44925" lon="6.23494">
        <ele>904</ele>
        <time>2014-06-22T13:08:37.1Z</time>
      </trkpt>
      <trkpt lat="44.4493" lon="6.23489">
        <ele>904</ele>
        <time>2014-06-22T13:08:42.1Z</time>
      </trkpt>
      <trkpt lat="44.44937" lon="6.23485">
        <ele>904</ele>
        <time>2014-06-22T13:08:47.1Z</time>
      </trkpt>
      <trkpt lat="44.44943" lon="6.23481">
        <ele>905</ele>
        <time>2014-06-22T13:08:53.1Z</time>
      </trkpt>
      <trkpt lat="44.44948" lon="6.23482">
        <ele>905</ele>
        <time>2014-06-22T13:08:58.1Z</time>
      </trkpt>
      <trkpt lat="44.44955" lon="6.23487">
        <ele>906</ele>
        <time>2014-06-22T13:09:04.1Z</time>
      </trkpt>
      <trkpt lat="44.44962" lon="6.23494">
        <ele>906</ele>
        <time>2014-06-22T13:09:10.1Z</time>
      </trkpt>
      <trkpt lat="44.44968" lon="6.23502">
        <ele>906</ele>
        <time>2014-06-22T13:09:16.1Z</time>
      </trkpt>
      <trkpt lat="44.44974" lon="6.23512">
        <ele>907</ele>
        <time>2014-06-22T13:09:22.1Z</time>
      </trkpt>
      <trkpt lat="44.44979" lon="6.23521">
        <ele>907</ele>
        <time>2014-06-22T13:09:28.1Z</time>
      </trkpt>
      <trkpt lat="44.44983" lon="6.23529">
        <ele>907</ele>
        <time>2014-06-22T13:09:33.1Z</time>
      </trkpt>
      <trkpt lat="44.44987" lon="6.23537">
        <ele>908</ele>
        <time>2014-06-22T13:09:39.1Z</time>
      </trkpt>
      <trkpt lat="44.44991" lon="6.23544">
        <ele>909</ele>
        <time>2014-06-22T13:09:44.1Z</time>
      </trkpt>
      <trkpt lat="44.44994" lon="6.23551">
        <ele>910</ele>
        <time>2014-06-22T13:09:49.1Z</time>
      </trkpt>
      <trkpt lat="44.45" lon="6.23558">
        <ele>910</ele>
        <time>2014-06-22T13:09:55.1Z</time>
      </trkpt>
      <trkpt lat="44.45004" lon="6.23563">
        <ele>911</ele>
        <time>2014-06-22T13:10:00.1Z</time>
      </trkpt>
      <trkpt lat="44.45009" lon="6.23568">
        <ele>912</ele>
        <time>2014-06-22T13:10:05.1Z</time>
      </trkpt>
      <trkpt lat="44.45014" lon="6.23573">
        <ele>912</ele>
        <time>2014-06-22T13:10:10.1Z</time>
      </trkpt>
      <trkpt lat="44.45018" lon="6.2358">
        <ele>913</ele>
        <time>2014-06-22T13:10:15.1Z</time>
      </trkpt>
      <trkpt lat="44.45024" lon="6.23585">
        <ele>914</ele>
        <time>2014-06-22T13:10:21.1Z</time>
      </trkpt>
      <trkpt lat="44.45029" lon="6.23588">
        <ele>915</ele>
        <time>2014-06-22T13:10:27.1Z</time>
      </trkpt>
      <trkpt lat="44.45034" lon="6.23587">
        <ele>916</ele>
        <time>2014-06-22T13:10:33.1Z</time>
      </trkpt>
      <trkpt lat="44.45039" lon="6.23582">
        <ele>916</ele>
        <time>2014-06-22T13:10:38.1Z</time>
      </trkpt>
      <trkpt lat="44.45042" lon="6.23574">
        <ele>916</ele>
        <time>2014-06-22T13:10:44.1Z</time>
      </trkpt>
      <trkpt lat="44.45042" lon="6.23566">
        <ele>915</ele>
        <time>2014-06-22T13:10:50.1Z</time>
      </trkpt>
      <trkpt lat="44.45044" lon="6.23559">
        <ele>915</ele>
        <time>2014-06-22T13:10:55.1Z</time>
      </trkpt>
      <trkpt lat="44.45045" lon="6.23552">
        <ele>916</ele>
        <time>2014-06-22T13:11:00.1Z</time>
      </trkpt>
      <trkpt lat="44.45048" lon="6.23541">
        <ele>915</ele>
        <time>2014-06-22T13:11:06.1Z</time>
      </trkpt>
      <trkpt lat="44.45053" lon="6.23533">
        <ele>916</ele>
        <time>2014-06-22T13:11:12.1Z</time>
      </trkpt>
      <trkpt lat="44.45058" lon="6.23525">
        <ele>916</ele>
        <time>2014-06-22T13:11:18.1Z</time>
      </trkpt>
      <trkpt lat="44.45063" lon="6.23515">
        <ele>916</ele>
        <time>2014-06-22T13:11:24.1Z</time>
      </trkpt>
      <trkpt lat="44.45068" lon="6.23508">
        <ele>916</ele>
        <time>2014-06-22T13:11:30.1Z</time>
      </trkpt>
      <trkpt lat="44.45074" lon="6.23501">
        <ele>915</ele>
        <time>2014-06-22T13:11:36.1Z</time>
      </trkpt>
      <trkpt lat="44.45079" lon="6.23496">
        <ele>915</ele>
        <time>2014-06-22T13:11:42.1Z</time>
      </trkpt>
      <trkpt lat="44.45086" lon="6.23487">
        <ele>916</ele>
        <time>2014-06-22T13:11:48.1Z</time>
      </trkpt>
      <trkpt lat="44.4509" lon="6.2348">
        <ele>916</ele>
        <time>2014-06-22T13:11:53.1Z</time>
      </trkpt>
      <trkpt lat="44.45097" lon="6.23471">
        <ele>916</ele>
        <time>2014-06-22T13:11:59.1Z</time>
      </trkpt>
      <trkpt lat="44.451" lon="6.23463">
        <ele>916</ele>
        <time>2014-06-22T13:12:04.1Z</time>
      </trkpt>
      <trkpt lat="44.45103" lon="6.23454">
        <ele>916</ele>
        <time>2014-06-22T13:12:10.1Z</time>
      </trkpt>
      <trkpt lat="44.45109" lon="6.23447">
        <ele>916</ele>
        <time>2014-06-22T13:12:15.1Z</time>
      </trkpt>
      <trkpt lat="44.45116" lon="6.23442">
        <ele>916</ele>
        <time>2014-06-22T13:12:21.1Z</time>
      </trkpt>
      <trkpt lat="44.45122" lon="6.23439">
        <ele>917</ele>
        <time>2014-06-22T13:12:27.1Z</time>
      </trkpt>
      <trkpt lat="44.45129" lon="6.23437">
        <ele>917</ele>
        <time>2014-06-22T13:12:32.1Z</time>
      </trkpt>
      <trkpt lat="44.45137" lon="6.23435">
        <ele>916</ele>
        <time>2014-06-22T13:12:38.1Z</time>
      </trkpt>
      <trkpt lat="44.45146" lon="6.23431">
        <ele>917</ele>
        <time>2014-06-22T13:12:44.1Z</time>
      </trkpt>
      <trkpt lat="44.45153" lon="6.23429">
        <ele>917</ele>
        <time>2014-06-22T13:12:49.1Z</time>
      </trkpt>
      <trkpt lat="44.45159" lon="6.23427">
        <ele>917</ele>
        <time>2014-06-22T13:12:54.1Z</time>
      </trkpt>
      <trkpt lat="44.45166" lon="6.23427">
        <ele>918</ele>
        <time>2014-06-22T13:13:00.1Z</time>
      </trkpt>
      <trkpt lat="44.45173" lon="6.23427">
        <ele>918</ele>
        <time>2014-06-22T13:13:06.1Z</time>
      </trkpt>
      <trkpt lat="44.45179" lon="6.23429">
        <ele>917</ele>
        <time>2014-06-22T13:13:12.1Z</time>
      </trkpt>
      <trkpt lat="44.45184" lon="6.23431">
        <ele>916</ele>
        <time>2014-06-22T13:13:17.1Z</time>
      </trkpt>
      <trkpt lat="44.45189" lon="6.23433">
        <ele>914</ele>
        <time>2014-06-22T13:13:23.1Z</time>
      </trkpt>
      <trkpt lat="44.45195" lon="6.23434">
        <ele>912</ele>
        <time>2014-06-22T13:13:29.1Z</time>
      </trkpt>
      <trkpt lat="44.45199" lon="6.23434">
        <ele>911</ele>
        <time>2014-06-22T13:13:35.1Z</time>
      </trkpt>
      <trkpt lat="44.45204" lon="6.23433">
        <ele>910</ele>
        <time>2014-06-22T13:13:41.1Z</time>
      </trkpt>
      <trkpt lat="44.4521" lon="6.2343">
        <ele>909</ele>
        <time>2014-06-22T13:13:47.1Z</time>
      </trkpt>
      <trkpt lat="44.45214" lon="6.23428">
        <ele>908</ele>
        <time>2014-06-22T13:13:52.1Z</time>
      </trkpt>
      <trkpt lat="44.45219" lon="6.23424">
        <ele>907</ele>
        <time>2014-06-22T13:13:57.1Z</time>
      </trkpt>
      <trkpt lat="44.45224" lon="6.23422">
        <ele>906</ele>
        <time>2014-06-22T13:14:03.1Z</time>
      </trkpt>
      <trkpt lat="44.45229" lon="6.23422">
        <ele>905</ele>
        <time>2014-06-22T13:14:08.1Z</time>
      </trkpt>
      <trkpt lat="44.45234" lon="6.23422">
        <ele>903</ele>
        <time>2014-06-22T13:14:14.1Z</time>
      </trkpt>
      <trkpt lat="44.45238" lon="6.23423">
        <ele>901</ele>
        <time>2014-06-22T13:14:19.1Z</time>
      </trkpt>
      <trkpt lat="44.45243" lon="6.23424">
        <ele>900</ele>
        <time>2014-06-22T13:14:24.1Z</time>
      </trkpt>
      <trkpt lat="44.4525" lon="6.23425">
        <ele>899</ele>
        <time>2014-06-22T13:14:30.1Z</time>
      </trkpt>
      <trkpt lat="44.45254" lon="6.23426">
        <ele>898</ele>
        <time>2014-06-22T13:14:35.1Z</time>
      </trkpt>
      <trkpt lat="44.45258" lon="6.23426">
        <ele>896</ele>
        <time>2014-06-22T13:14:40.1Z</time>
      </trkpt>
      <trkpt lat="44.45263" lon="6.23425">
        <ele>895</ele>
        <time>2014-06-22T13:14:46.1Z</time>
      </trkpt>
      <trkpt lat="44.4527" lon="6.23425">
        <ele>894</ele>
        <time>2014-06-22T13:14:52.1Z</time>
      </trkpt>
      <trkpt lat="44.45275" lon="6.23425">
        <ele>894</ele>
        <time>2014-06-22T13:14:58.1Z</time>
      </trkpt>
      <trkpt lat="44.45281" lon="6.23425">
        <ele>892</ele>
        <time>2014-06-22T13:15:04.1Z</time>
      </trkpt>
      <trkpt lat="44.45288" lon="6.23426">
        <ele>891</ele>
        <time>2014-06-22T13:15:09.1Z</time>
      </trkpt>
      <trkpt lat="44.45295" lon="6.23426">
        <ele>890</ele>
        <time>2014-06-22T13:15:15.1Z</time>
      </trkpt>
      <trkpt lat="44.45301" lon="6.23428">
        <ele>890</ele>
        <time>2014-06-22T13:15:20.1Z</time>
      </trkpt>
      <trkpt lat="44.45308" lon="6.23431">
        <ele>889</ele>
        <time>2014-06-22T13:15:26.1Z</time>
      </trkpt>
      <trkpt lat="44.45314" lon="6.23432">
        <ele>887</ele>
        <time>2014-06-22T13:15:31.1Z</time>
      </trkpt>
      <trkpt lat="44.45321" lon="6.23432">
        <ele>887</ele>
        <time>2014-06-22T13:15:36.1Z</time>
      </trkpt>
      <trkpt lat="44.45325" lon="6.23435">
        <ele>887</ele>
        <time>2014-06-22T13:15:41.1Z</time>
      </trkpt>
      <trkpt lat="44.4533" lon="6.23436">
        <ele>886</ele>
        <time>2014-06-22T13:15:47.1Z</time>
      </trkpt>
      <trkpt lat="44.45336" lon="6.23435">
        <ele>884</ele>
        <time>2014-06-22T13:15:52.1Z</time>
      </trkpt>
      <trkpt lat="44.45342" lon="6.23435">
        <ele>883</ele>
        <time>2014-06-22T13:15:58.1Z</time>
      </trkpt>
      <trkpt lat="44.45348" lon="6.23434">
        <ele>882</ele>
        <time>2014-06-22T13:16:04.1Z</time>
      </trkpt>
      <trkpt lat="44.45355" lon="6.23434">
        <ele>881</ele>
        <time>2014-06-22T13:16:10.1Z</time>
      </trkpt>
      <trkpt lat="44.45361" lon="6.23435">
        <ele>880</ele>
        <time>2014-06-22T13:16:15.1Z</time>
      </trkpt>
      <trkpt lat="44.45367" lon="6.23435">
        <ele>879</ele>
        <time>2014-06-22T13:16:21.1Z</time>
      </trkpt>
      <trkpt lat="44.45372" lon="6.23436">
        <ele>877</ele>
        <time>2014-06-22T13:16:26.1Z</time>
      </trkpt>
      <trkpt lat="44.45376" lon="6.23439">
        <ele>876</ele>
        <time>2014-06-22T13:16:31.1Z</time>
      </trkpt>
      <trkpt lat="44.4538" lon="6.23441">
        <ele>875</ele>
        <time>2014-06-22T13:16:36.1Z</time>
      </trkpt>
      <trkpt lat="44.45383" lon="6.23442">
        <ele>873</ele>
        <time>2014-06-22T13:16:42.1Z</time>
      </trkpt>
      <trkpt lat="44.45384" lon="6.23442">
        <ele>873</ele>
        <time>2014-06-22T13:16:47.1Z</time>
      </trkpt>
      <trkpt lat="44.45385" lon="6.23443">
        <ele>873</ele>
        <time>2014-06-22T13:16:53.1Z</time>
      </trkpt>
      <trkpt lat="44.45386" lon="6.23443">
        <ele>873</ele>
        <time>2014-06-22T13:16:58.1Z</time>
      </trkpt>
      <trkpt lat="44.45391" lon="6.23445">
        <ele>873</ele>
        <time>2014-06-22T13:17:04.1Z</time>
      </trkpt>
      <trkpt lat="44.45394" lon="6.23447">
        <ele>871</ele>
        <time>2014-06-22T13:17:10.1Z</time>
      </trkpt>
      <trkpt lat="44.45398" lon="6.23451">
        <ele>869</ele>
        <time>2014-06-22T13:17:16.1Z</time>
      </trkpt>
      <trkpt lat="44.45403" lon="6.23451">
        <ele>869</ele>
        <time>2014-06-22T13:17:21.1Z</time>
      </trkpt>
      <trkpt lat="44.45407" lon="6.23453">
        <ele>868</ele>
        <time>2014-06-22T13:17:27.1Z</time>
      </trkpt>
      <trkpt lat="44.45412" lon="6.23454">
        <ele>866</ele>
        <time>2014-06-22T13:17:33.1Z</time>
      </trkpt>
      <trkpt lat="44.45416" lon="6.23455">
        <ele>865</ele>
        <time>2014-06-22T13:17:38.1Z</time>
      </trkpt>
      <trkpt lat="44.45422" lon="6.23454">
        <ele>863</ele>
        <time>2014-06-22T13:17:44.1Z</time>
      </trkpt>
      <trkpt lat="44.45425" lon="6.23452">
        <ele>862</ele>
        <time>2014-06-22T13:17:50.1Z</time>
      </trkpt>
      <trkpt lat="44.45429" lon="6.23451">
        <ele>861</ele>
        <time>2014-06-22T13:17:55.1Z</time>
      </trkpt>
      <trkpt lat="44.45432" lon="6.23454">
        <ele>859</ele>
        <time>2014-06-22T13:18:01.1Z</time>
      </trkpt>
      <trkpt lat="44.45436" lon="6.23455">
        <ele>857</ele>
        <time>2014-06-22T13:18:07.1Z</time>
      </trkpt>
      <trkpt lat="44.4544" lon="6.23454">
        <ele>856</ele>
        <time>2014-06-22T13:18:12.1Z</time>
      </trkpt>
      <trkpt lat="44.45443" lon="6.23449">
        <ele>855</ele>
        <time>2014-06-22T13:18:18.1Z</time>
      </trkpt>
      <trkpt lat="44.45443" lon="6.23443">
        <ele>854</ele>
        <time>2014-06-22T13:18:24.1Z</time>
      </trkpt>
      <trkpt lat="44.45444" lon="6.23437">
        <ele>852</ele>
        <time>2014-06-22T13:18:30.1Z</time>
      </trkpt>
      <trkpt lat="44.45445" lon="6.23431">
        <ele>851</ele>
        <time>2014-06-22T13:18:36.1Z</time>
      </trkpt>
      <trkpt lat="44.45447" lon="6.23426">
        <ele>850</ele>
        <time>2014-06-22T13:18:42.1Z</time>
      </trkpt>
      <trkpt lat="44.45448" lon="6.2342">
        <ele>848</ele>
        <time>2014-06-22T13:18:48.1Z</time>
      </trkpt>
      <trkpt lat="44.45449" lon="6.23415">
        <ele>846</ele>
        <time>2014-06-22T13:18:54.1Z</time>
      </trkpt>
      <trkpt lat="44.45449" lon="6.23408">
        <ele>844</ele>
        <time>2014-06-22T13:18:59.1Z</time>
      </trkpt>
      <trkpt lat="44.45451" lon="6.23403">
        <ele>843</ele>
        <time>2014-06-22T13:19:04.1Z</time>
      </trkpt>
      <trkpt lat="44.45453" lon="6.23395">
        <ele>842</ele>
        <time>2014-06-22T13:19:10.1Z</time>
      </trkpt>
      <trkpt lat="44.45454" lon="6.23388">
        <ele>840</ele>
        <time>2014-06-22T13:19:16.1Z</time>
      </trkpt>
      <trkpt lat="44.45455" lon="6.23381">
        <ele>839</ele>
        <time>2014-06-22T13:19:22.1Z</time>
      </trkpt>
      <trkpt lat="44.45457" lon="6.23375">
        <ele>838</ele>
        <time>2014-06-22T13:19:27.1Z</time>
      </trkpt>
      <trkpt lat="44.45459" lon="6.23368">
        <ele>837</ele>
        <time>2014-06-22T13:19:33.1Z</time>
      </trkpt>
      <trkpt lat="44.45462" lon="6.23362">
        <ele>835</ele>
        <time>2014-06-22T13:19:39.1Z</time>
      </trkpt>
      <trkpt lat="44.45463" lon="6.23353">
        <ele>833</ele>
        <time>2014-06-22T13:19:45.1Z</time>
      </trkpt>
      <trkpt lat="44.45464" lon="6.23347">
        <ele>832</ele>
        <time>2014-06-22T13:19:51.1Z</time>
      </trkpt>
      <trkpt lat="44.45464" lon="6.23342">
        <ele>831</ele>
        <time>2014-06-22T13:19:57.1Z</time>
      </trkpt>
      <trkpt lat="44.45467" lon="6.23336">
        <ele>828</ele>
        <time>2014-06-22T13:20:03.1Z</time>
      </trkpt>
      <trkpt lat="44.45472" lon="6.2333">
        <ele>827</ele>
        <time>2014-06-22T13:20:08.1Z</time>
      </trkpt>
      <trkpt lat="44.45479" lon="6.23322">
        <ele>825</ele>
        <time>2014-06-22T13:20:14.1Z</time>
      </trkpt>
      <trkpt lat="44.45483" lon="6.23317">
        <ele>824</ele>
        <time>2014-06-22T13:20:19.1Z</time>
      </trkpt>
      <trkpt lat="44.45486" lon="6.23311">
        <ele>823</ele>
        <time>2014-06-22T13:20:25.1Z</time>
      </trkpt>
      <trkpt lat="44.45487" lon="6.23309">
        <ele>823</ele>
        <time>2014-06-22T13:20:30.1Z</time>
      </trkpt>
      <trkpt lat="44.45485" lon="6.23305">
        <ele>822</ele>
        <time>2014-06-22T13:20:36.1Z</time>
      </trkpt>
      <trkpt lat="44.45483" lon="6.23301">
        <ele>820</ele>
        <time>2014-06-22T13:20:41.1Z</time>
      </trkpt>
      <trkpt lat="44.45479" lon="6.23298">
        <ele>819</ele>
        <time>2014-06-22T13:20:47.1Z</time>
      </trkpt>
      <trkpt lat="44.45476" lon="6.23294">
        <ele>818</ele>
        <time>2014-06-22T13:20:52.1Z</time>
      </trkpt>
      <trkpt lat="44.45472" lon="6.2329">
        <ele>816</ele>
        <time>2014-06-22T13:20:58.1Z</time>
      </trkpt>
      <trkpt lat="44.45471" lon="6.23286">
        <ele>815</ele>
        <time>2014-06-22T13:21:04.1Z</time>
      </trkpt>
      <trkpt lat="44.4547" lon="6.23283">
        <ele>814</ele>
        <time>2014-06-22T13:21:09.1Z</time>
      </trkpt>
      <trkpt lat="44.4547" lon="6.23278">
        <ele>813</ele>
        <time>2014-06-22T13:21:15.1Z</time>
      </trkpt>
      <trkpt lat="44.45467" lon="6.23271">
        <ele>811</ele>
        <time>2014-06-22T13:21:21.1Z</time>
      </trkpt>
      <trkpt lat="44.45464" lon="6.23264">
        <ele>809</ele>
        <time>2014-06-22T13:21:27.1Z</time>
      </trkpt>
      <trkpt lat="44.45461" lon="6.23258">
        <ele>808</ele>
        <time>2014-06-22T13:21:32.1Z</time>
      </trkpt>
      <trkpt lat="44.45457" lon="6.23249">
        <ele>807</ele>
        <time>2014-06-22T13:21:38.1Z</time>
      </trkpt>
      <trkpt lat="44.45454" lon="6.23242">
        <ele>806</ele>
        <time>2014-06-22T13:21:44.1Z</time>
      </trkpt>
      <trkpt lat="44.45452" lon="6.23237">
        <ele>805</ele>
        <time>2014-06-22T13:21:49.1Z</time>
      </trkpt>
      <trkpt lat="44.4545" lon="6.23232">
        <ele>803</ele>
        <time>2014-06-22T13:21:55.1Z</time>
      </trkpt>
      <trkpt lat="44.45448" lon="6.23226">
        <ele>802</ele>
        <time>2014-06-22T13:22:01.1Z</time>
      </trkpt>
      <trkpt lat="44.45446" lon="6.23219">
        <ele>800</ele>
        <time>2014-06-22T13:22:07.1Z</time>
      </trkpt>
      <trkpt lat="44.45442" lon="6.23213">
        <ele>799</ele>
        <time>2014-06-22T13:22:13.1Z</time>
      </trkpt>
      <trkpt lat="44.45438" lon="6.23206">
        <ele>798</ele>
        <time>2014-06-22T13:22:19.1Z</time>
      </trkpt>
      <trkpt lat="44.45436" lon="6.232">
        <ele>796</ele>
        <time>2014-06-22T13:22:24.1Z</time>
      </trkpt>
      <trkpt lat="44.45435" lon="6.23192">
        <ele>795</ele>
        <time>2014-06-22T13:22:30.1Z</time>
      </trkpt>
      <trkpt lat="44.45435" lon="6.23182">
        <ele>793</ele>
        <time>2014-06-22T13:22:36.1Z</time>
      </trkpt>
      <trkpt lat="44.45431" lon="6.23174">
        <ele>792</ele>
        <time>2014-06-22T13:22:42.1Z</time>
      </trkpt>
      <trkpt lat="44.45427" lon="6.23167">
        <ele>790</ele>
        <time>2014-06-22T13:22:48.1Z</time>
      </trkpt>
      <trkpt lat="44.45425" lon="6.23163">
        <ele>790</ele>
        <time>2014-06-22T13:22:54.1Z</time>
      </trkpt>
      <trkpt lat="44.45424" lon="6.23158">
        <ele>788</ele>
        <time>2014-06-22T13:22:59.1Z</time>
      </trkpt>
      <trkpt lat="44.45423" lon="6.23151">
        <ele>787</ele>
        <time>2014-06-22T13:23:05.1Z</time>
      </trkpt>
      <trkpt lat="44.4542" lon="6.23143">
        <ele>786</ele>
        <time>2014-06-22T13:23:11.1Z</time>
      </trkpt>
      <trkpt lat="44.4542" lon="6.23137">
        <ele>784</ele>
        <time>2014-06-22T13:23:16.1Z</time>
      </trkpt>
      <trkpt lat="44.4542" lon="6.2313">
        <ele>783</ele>
        <time>2014-06-22T13:23:22.1Z</time>
      </trkpt>
      <trkpt lat="44.45421" lon="6.23123">
        <ele>781</ele>
        <time>2014-06-22T13:23:28.1Z</time>
      </trkpt>
      <trkpt lat="44.45422" lon="6.23116">
        <ele>779</ele>
        <time>2014-06-22T13:23:34.1Z</time>
      </trkpt>
      <trkpt lat="44.45423" lon="6.2311">
        <ele>778</ele>
        <time>2014-06-22T13:23:39.1Z</time>
      </trkpt>
      <trkpt lat="44.45425" lon="6.23104">
        <ele>777</ele>
        <time>2014-06-22T13:23:45.1Z</time>
      </trkpt>
      <trkpt lat="44.45426" lon="6.23095">
        <ele>776</ele>
        <time>2014-06-22T13:23:51.1Z</time>
      </trkpt>
      <trkpt lat="44.45426" lon="6.23084">
        <ele>775</ele>
        <time>2014-06-22T13:23:57.1Z</time>
      </trkpt>
      <trkpt lat="44.45425" lon="6.23075">
        <ele>775</ele>
        <time>2014-06-22T13:24:02.1Z</time>
      </trkpt>
      <trkpt lat="44.45425" lon="6.23067">
        <ele>776</ele>
        <time>2014-06-22T13:24:07.1Z</time>
      </trkpt>
      <trkpt lat="44.45424" lon="6.23058">
        <ele>776</ele>
        <time>2014-06-22T13:24:13.1Z</time>
      </trkpt>
      <trkpt lat="44.45421" lon="6.23052">
        <ele>775</ele>
        <time>2014-06-22T13:24:18.1Z</time>
      </trkpt>
      <trkpt lat="44.45419" lon="6.23046">
        <ele>776</ele>
        <time>2014-06-22T13:24:23.1Z</time>
      </trkpt>
      <trkpt lat="44.45414" lon="6.23039">
        <ele>775</ele>
        <time>2014-06-22T13:24:29.1Z</time>
      </trkpt>
      <trkpt lat="44.45412" lon="6.23033">
        <ele>774</ele>
        <time>2014-06-22T13:24:35.1Z</time>
      </trkpt>
      <trkpt lat="44.45413" lon="6.23029">
        <ele>775</ele>
        <time>2014-06-22T13:24:40.1Z</time>
      </trkpt>
      <trkpt lat="44.45414" lon="6.23025">
        <ele>775</ele>
        <time>2014-06-22T13:24:46.1Z</time>
      </trkpt>
      <trkpt lat="44.45415" lon="6.23023">
        <ele>775</ele>
        <time>2014-06-22T13:24:51.1Z</time>
      </trkpt>
      <trkpt lat="44.45418" lon="6.23022">
        <ele>775</ele>
        <time>2014-06-22T13:24:56.1Z</time>
      </trkpt>
      <trkpt lat="44.45423" lon="6.23022">
        <ele>775</ele>
        <time>2014-06-22T13:25:02.1Z</time>
      </trkpt>
      <trkpt lat="44.45429" lon="6.23019">
        <ele>773</ele>
        <time>2014-06-22T13:25:08.1Z</time>
      </trkpt>
      <trkpt lat="44.45434" lon="6.23018">
        <ele>773</ele>
        <time>2014-06-22T13:25:13.1Z</time>
      </trkpt>
      <trkpt lat="44.45436" lon="6.23013">
        <ele>773</ele>
        <time>2014-06-22T13:25:19.1Z</time>
      </trkpt>
      <trkpt lat="44.4544" lon="6.2301">
        <ele>773</ele>
        <time>2014-06-22T13:25:24.1Z</time>
      </trkpt>
      <trkpt lat="44.45445" lon="6.2301">
        <ele>772</ele>
        <time>2014-06-22T13:25:30.1Z</time>
      </trkpt>
      <trkpt lat="44.45452" lon="6.23011">
        <ele>772</ele>
        <time>2014-06-22T13:25:36.1Z</time>
      </trkpt>
      <trkpt lat="44.45457" lon="6.23016">
        <ele>770</ele>
        <time>2014-06-22T13:25:42.1Z</time>
      </trkpt>
      <trkpt lat="44.45459" lon="6.23018">
        <ele>770</ele>
        <time>2014-06-22T13:25:47.1Z</time>
      </trkpt>
      <trkpt lat="44.45461" lon="6.23022">
        <ele>770</ele>
        <time>2014-06-22T13:25:52.1Z</time>
      </trkpt>
      <trkpt lat="44.45466" lon="6.23025">
        <ele>769</ele>
        <time>2014-06-22T13:25:57.1Z</time>
      </trkpt>
      <trkpt lat="44.4547" lon="6.23027">
        <ele>768</ele>
        <time>2014-06-22T13:26:02.1Z</time>
      </trkpt>
      <trkpt lat="44.45477" lon="6.23027">
        <ele>767</ele>
        <time>2014-06-22T13:26:08.1Z</time>
      </trkpt>
      <trkpt lat="44.45483" lon="6.23027">
        <ele>767</ele>
        <time>2014-06-22T13:26:13.1Z</time>
      </trkpt>
      <trkpt lat="44.45488" lon="6.23031">
        <ele>766</ele>
        <time>2014-06-22T13:26:18.1Z</time>
      </trkpt>
      <trkpt lat="44.45492" lon="6.23035">
        <ele>765</ele>
        <time>2014-06-22T13:26:23.1Z</time>
      </trkpt>
      <trkpt lat="44.45498" lon="6.2304">
        <ele>764</ele>
        <time>2014-06-22T13:26:29.1Z</time>
      </trkpt>
      <trkpt lat="44.45503" lon="6.23044">
        <ele>763</ele>
        <time>2014-06-22T13:26:34.1Z</time>
      </trkpt>
      <trkpt lat="44.45508" lon="6.23049">
        <ele>762</ele>
        <time>2014-06-22T13:26:40.1Z</time>
      </trkpt>
      <trkpt lat="44.45511" lon="6.23055">
        <ele>761</ele>
        <time>2014-06-22T13:26:45.1Z</time>
      </trkpt>
      <trkpt lat="44.45515" lon="6.23062">
        <ele>760</ele>
        <time>2014-06-22T13:26:51.1Z</time>
      </trkpt>
      <trkpt lat="44.45518" lon="6.23071">
        <ele>759</ele>
        <time>2014-06-22T13:26:57.1Z</time>
      </trkpt>
      <trkpt lat="44.45517" lon="6.23081">
        <ele>758</ele>
        <time>2014-06-22T13:27:03.1Z</time>
      </trkpt>
      <trkpt lat="44.45518" lon="6.2309">
        <ele>758</ele>
        <time>2014-06-22T13:27:08.1Z</time>
      </trkpt>
      <trkpt lat="44.45522" lon="6.23095">
        <ele>757</ele>
        <time>2014-06-22T13:27:14.1Z</time>
      </trkpt>
      <trkpt lat="44.45526" lon="6.23101">
        <ele>756</ele>
        <time>2014-06-22T13:27:19.1Z</time>
      </trkpt>
      <trkpt lat="44.4553" lon="6.23106">
        <ele>755</ele>
        <time>2014-06-22T13:27:24.1Z</time>
      </trkpt>
      <trkpt lat="44.45535" lon="6.23111">
        <ele>754</ele>
        <time>2014-06-22T13:27:30.1Z</time>
      </trkpt>
      <trkpt lat="44.45539" lon="6.23118">
        <ele>753</ele>
        <time>2014-06-22T13:27:36.1Z</time>
      </trkpt>
      <trkpt lat="44.45542" lon="6.23123">
        <ele>752</ele>
        <time>2014-06-22T13:27:41.1Z</time>
      </trkpt>
      <trkpt lat="44.45547" lon="6.23126">
        <ele>751</ele>
        <time>2014-06-22T13:27:47.1Z</time>
      </trkpt>
      <trkpt lat="44.45553" lon="6.23129">
        <ele>750</ele>
        <time>2014-06-22T13:27:52.1Z</time>
      </trkpt>
      <trkpt lat="44.45558" lon="6.23132">
        <ele>749</ele>
        <time>2014-06-22T13:27:57.1Z</time>
      </trkpt>
      <trkpt lat="44.45563" lon="6.23136">
        <ele>749</ele>
        <time>2014-06-22T13:28:02.1Z</time>
      </trkpt>
      <trkpt lat="44.45568" lon="6.23142">
        <ele>747</ele>
        <time>2014-06-22T13:28:08.1Z</time>
      </trkpt>
      <trkpt lat="44.45572" lon="6.23146">
        <ele>746</ele>
        <time>2014-06-22T13:28:13.1Z</time>
      </trkpt>
      <trkpt lat="44.45577" lon="6.23149">
        <ele>745</ele>
        <time>2014-06-22T13:28:19.1Z</time>
      </trkpt>
      <trkpt lat="44.45583" lon="6.23154">
        <ele>744</ele>
        <time>2014-06-22T13:28:25.1Z</time>
      </trkpt>
      <trkpt lat="44.45589" lon="6.23159">
        <ele>744</ele>
        <time>2014-06-22T13:28:31.1Z</time>
      </trkpt>
      <trkpt lat="44.45595" lon="6.23164">
        <ele>742</ele>
        <time>2014-06-22T13:28:37.1Z</time>
      </trkpt>
      <trkpt lat="44.45599" lon="6.23169">
        <ele>742</ele>
        <time>2014-06-22T13:28:42.1Z</time>
      </trkpt>
      <trkpt lat="44.45601" lon="6.23177">
        <ele>741</ele>
        <time>2014-06-22T13:28:47.1Z</time>
      </trkpt>
      <trkpt lat="44.45607" lon="6.23183">
        <ele>740</ele>
        <time>2014-06-22T13:28:53.1Z</time>
      </trkpt>
      <trkpt lat="44.45613" lon="6.23187">
        <ele>739</ele>
        <time>2014-06-22T13:28:58.1Z</time>
      </trkpt>
      <trkpt lat="44.4562" lon="6.23189">
        <ele>738</ele>
        <time>2014-06-22T13:29:04.1Z</time>
      </trkpt>
      <trkpt lat="44.45626" lon="6.23194">
        <ele>738</ele>
        <time>2014-06-22T13:29:10.1Z</time>
      </trkpt>
      <trkpt lat="44.45631" lon="6.23196">
        <ele>737</ele>
        <time>2014-06-22T13:29:15.1Z</time>
      </trkpt>
      <trkpt lat="44.45636" lon="6.23202">
        <ele>736</ele>
        <time>2014-06-22T13:29:21.1Z</time>
      </trkpt>
      <trkpt lat="44.45641" lon="6.23207">
        <ele>736</ele>
        <time>2014-06-22T13:29:27.1Z</time>
      </trkpt>
      <trkpt lat="44.45644" lon="6.23213">
        <ele>735</ele>
        <time>2014-06-22T13:29:32.1Z</time>
      </trkpt>
      <trkpt lat="44.45648" lon="6.23221">
        <ele>734</ele>
        <time>2014-06-22T13:29:38.1Z</time>
      </trkpt>
      <trkpt lat="44.45652" lon="6.23229">
        <ele>733</ele>
        <time>2014-06-22T13:29:43.1Z</time>
      </trkpt>
      <trkpt lat="44.45656" lon="6.23238">
        <ele>733</ele>
        <time>2014-06-22T13:29:49.1Z</time>
      </trkpt>
      <trkpt lat="44.4566" lon="6.23248">
        <ele>732</ele>
        <time>2014-06-22T13:29:55.1Z</time>
      </trkpt>
      <trkpt lat="44.45664" lon="6.23255">
        <ele>731</ele>
        <time>2014-06-22T13:30:00.1Z</time>
      </trkpt>
      <trkpt lat="44.45668" lon="6.23264">
        <ele>732</ele>
        <time>2014-06-22T13:30:06.1Z</time>
      </trkpt>
      <trkpt lat="44.45672" lon="6.2327">
        <ele>730</ele>
        <time>2014-06-22T13:30:11.1Z</time>
      </trkpt>
      <trkpt lat="44.45675" lon="6.23272">
        <ele>730</ele>
        <time>2014-06-22T13:30:16.1Z</time>
      </trkpt>
      <trkpt lat="44.45675" lon="6.23276">
        <ele>730</ele>
        <time>2014-06-22T13:30:22.1Z</time>
      </trkpt>
      <trkpt lat="44.45676" lon="6.23283">
        <ele>729</ele>
        <time>2014-06-22T13:30:27.1Z</time>
      </trkpt>
      <trkpt lat="44.45678" lon="6.23292">
        <ele>728</ele>
        <time>2014-06-22T13:30:32.1Z</time>
      </trkpt>
      <trkpt lat="44.4568" lon="6.23302">
        <ele>728</ele>
        <time>2014-06-22T13:30:38.1Z</time>
      </trkpt>
      <trkpt lat="44.45685" lon="6.23308">
        <ele>727</ele>
        <time>2014-06-22T13:30:43.1Z</time>
      </trkpt>
      <trkpt lat="44.4569" lon="6.23315">
        <ele>726</ele>
        <time>2014-06-22T13:30:49.1Z</time>
      </trkpt>
      <trkpt lat="44.45694" lon="6.23319">
        <ele>725</ele>
        <time>2014-06-22T13:30:54.1Z</time>
      </trkpt>
      <trkpt lat="44.45699" lon="6.23324">
        <ele>724</ele>
        <time>2014-06-22T13:31:00.1Z</time>
      </trkpt>
      <trkpt lat="44.45704" lon="6.23331">
        <ele>723</ele>
        <time>2014-06-22T13:31:06.1Z</time>
      </trkpt>
      <trkpt lat="44.4571" lon="6.23336">
        <ele>723</ele>
        <time>2014-06-22T13:31:12.1Z</time>
      </trkpt>
      <trkpt lat="44.45715" lon="6.23342">
        <ele>722</ele>
        <time>2014-06-22T13:31:17.1Z</time>
      </trkpt>
      <trkpt lat="44.45722" lon="6.23347">
        <ele>721</ele>
        <time>2014-06-22T13:31:23.1Z</time>
      </trkpt>
      <trkpt lat="44.45727" lon="6.2335">
        <ele>721</ele>
        <time>2014-06-22T13:31:28.1Z</time>
      </trkpt>
      <trkpt lat="44.45732" lon="6.23354">
        <ele>720</ele>
        <time>2014-06-22T13:31:33.1Z</time>
      </trkpt>
      <trkpt lat="44.45738" lon="6.23359">
        <ele>719</ele>
        <time>2014-06-22T13:31:39.1Z</time>
      </trkpt>
      <trkpt lat="44.45744" lon="6.23361">
        <ele>718</ele>
        <time>2014-06-22T13:31:44.1Z</time>
      </trkpt>
      <trkpt lat="44.45751" lon="6.23364">
        <ele>718</ele>
        <time>2014-06-22T13:31:50.1Z</time>
      </trkpt>
      <trkpt lat="44.45758" lon="6.23365">
        <ele>718</ele>
        <time>2014-06-22T13:31:56.1Z</time>
      </trkpt>
      <trkpt lat="44.45758" lon="6.23362">
        <ele>718</ele>
        <time>2014-06-22T13:32:03.1Z</time>
      </trkpt>
      <trkpt lat="44.45758" lon="6.23362">
        <ele>718</ele>
        <time>2014-06-22T13:32:08.1Z</time>
      </trkpt>
      <trkpt lat="44.45758" lon="6.23361">
        <ele>717</ele>
        <time>2014-06-22T13:32:13.1Z</time>
      </trkpt>
      <trkpt lat="44.45761" lon="6.23355">
        <ele>717</ele>
        <time>2014-06-22T13:32:19.1Z</time>
      </trkpt>
      <trkpt lat="44.45767" lon="6.23355">
        <ele>715</ele>
        <time>2014-06-22T13:32:24.1Z</time>
      </trkpt>
      <trkpt lat="44.45771" lon="6.23358">
        <ele>714</ele>
        <time>2014-06-22T13:32:29.1Z</time>
      </trkpt>
      <trkpt lat="44.45772" lon="6.23358">
        <ele>715</ele>
        <time>2014-06-22T13:32:35.1Z</time>
      </trkpt>
      <trkpt lat="44.45773" lon="6.23358">
        <ele>715</ele>
        <time>2014-06-22T13:32:40.1Z</time>
      </trkpt>
      <trkpt lat="44.45776" lon="6.23361">
        <ele>715</ele>
        <time>2014-06-22T13:32:46.1Z</time>
      </trkpt>
      <trkpt lat="44.45782" lon="6.23366">
        <ele>714</ele>
        <time>2014-06-22T13:32:52.1Z</time>
      </trkpt>
      <trkpt lat="44.45788" lon="6.23367">
        <ele>714</ele>
        <time>2014-06-22T13:32:57.1Z</time>
      </trkpt>
      <trkpt lat="44.45796" lon="6.23368">
        <ele>712</ele>
        <time>2014-06-22T13:33:03.1Z</time>
      </trkpt>
      <trkpt lat="44.45802" lon="6.2337">
        <ele>712</ele>
        <time>2014-06-22T13:33:08.1Z</time>
      </trkpt>
      <trkpt lat="44.45809" lon="6.2337">
        <ele>712</ele>
        <time>2014-06-22T13:33:14.1Z</time>
      </trkpt>
      <trkpt lat="44.45817" lon="6.23371">
        <ele>711</ele>
        <time>2014-06-22T13:33:20.1Z</time>
      </trkpt>
      <trkpt lat="44.45823" lon="6.23371">
        <ele>710</ele>
        <time>2014-06-22T13:33:25.1Z</time>
      </trkpt>
      <trkpt lat="44.4583" lon="6.23369">
        <ele>710</ele>
        <time>2014-06-22T13:33:31.1Z</time>
      </trkpt>
      <trkpt lat="44.45834" lon="6.23363">
        <ele>710</ele>
        <time>2014-06-22T13:33:36.1Z</time>
      </trkpt>
      <trkpt lat="44.45837" lon="6.23355">
        <ele>710</ele>
        <time>2014-06-22T13:33:42.1Z</time>
      </trkpt>
      <trkpt lat="44.45839" lon="6.23347">
        <ele>710</ele>
        <time>2014-06-22T13:33:48.1Z</time>
      </trkpt>
      <trkpt lat="44.4584" lon="6.23337">
        <ele>710</ele>
        <time>2014-06-22T13:33:54.1Z</time>
      </trkpt>
      <trkpt lat="44.45843" lon="6.23327">
        <ele>710</ele>
        <time>2014-06-22T13:34:00.1Z</time>
      </trkpt>
      <trkpt lat="44.45844" lon="6.23317">
        <ele>710</ele>
        <time>2014-06-22T13:34:06.1Z</time>
      </trkpt>
      <trkpt lat="44.45845" lon="6.23309">
        <ele>710</ele>
        <time>2014-06-22T13:34:11.1Z</time>
      </trkpt>
      <trkpt lat="44.45845" lon="6.23299">
        <ele>710</ele>
        <time>2014-06-22T13:34:17.1Z</time>
      </trkpt>
      <trkpt lat="44.45847" lon="6.23291">
        <ele>710</ele>
        <time>2014-06-22T13:34:22.1Z</time>
      </trkpt>
      <trkpt lat="44.45848" lon="6.23282">
        <ele>710</ele>
        <time>2014-06-22T13:34:28.1Z</time>
      </trkpt>
      <trkpt lat="44.45849" lon="6.23273">
        <ele>710</ele>
        <time>2014-06-22T13:34:34.1Z</time>
      </trkpt>
      <trkpt lat="44.45848" lon="6.2327">
        <ele>711</ele>
        <time>2014-06-22T13:34:41.1Z</time>
      </trkpt>
      <trkpt lat="44.45848" lon="6.2327">
        <ele>711</ele>
        <time>2014-06-22T13:34:47.1Z</time>
      </trkpt>
      <trkpt lat="44.45848" lon="6.2327">
        <ele>711</ele>
        <time>2014-06-22T13:34:53.1Z</time>
      </trkpt>
      <trkpt lat="44.45848" lon="6.2327">
        <ele>711</ele>
        <time>2014-06-22T13:34:58.1Z</time>
      </trkpt>
      <trkpt lat="44.45848" lon="6.2327">
        <ele>711</ele>
        <time>2014-06-22T13:35:04.1Z</time>
      </trkpt>
      <trkpt lat="44.45848" lon="6.2327">
        <ele>711</ele>
        <time>2014-06-22T13:35:09.1Z</time>
      </trkpt>
      <trkpt lat="44.45848" lon="6.23269">
        <ele>711</ele>
        <time>2014-06-22T13:35:15.1Z</time>
      </trkpt>
      <trkpt lat="44.45848" lon="6.23269">
        <ele>711</ele>
        <time>2014-06-22T13:35:21.1Z</time>
      </trkpt>
      <trkpt lat="44.45848" lon="6.23268">
        <ele>711</ele>
        <time>2014-06-22T13:35:26.1Z</time>
      </trkpt>
      <trkpt lat="44.45849" lon="6.23266">
        <ele>711</ele>
        <time>2014-06-22T13:35:31.1Z</time>
      </trkpt>
      <trkpt lat="44.45852" lon="6.23258">
        <ele>711</ele>
        <time>2014-06-22T13:35:37.1Z</time>
      </trkpt>
      <trkpt lat="44.45853" lon="6.23249">
        <ele>711</ele>
        <time>2014-06-22T13:35:43.1Z</time>
      </trkpt>
      <trkpt lat="44.45855" lon="6.23242">
        <ele>711</ele>
        <time>2014-06-22T13:35:49.1Z</time>
      </trkpt>
      <trkpt lat="44.45856" lon="6.23238">
        <ele>711</ele>
        <time>2014-06-22T13:35:54.1Z</time>
      </trkpt>
      <trkpt lat="44.45857" lon="6.23236">
        <ele>711</ele>
        <time>2014-06-22T13:36:00.1Z</time>
      </trkpt>
      <trkpt lat="44.45858" lon="6.23234">
        <ele>712</ele>
        <time>2014-06-22T13:36:05.1Z</time>
      </trkpt>
      <trkpt lat="44.45863" lon="6.23231">
        <ele>713</ele>
        <time>2014-06-22T13:36:11.1Z</time>
      </trkpt>
      <trkpt lat="44.45865" lon="6.23237">
        <ele>711</ele>
        <time>2014-06-22T13:36:17.1Z</time>
      </trkpt>
      <trkpt lat="44.45864" lon="6.2324">
        <ele>711</ele>
        <time>2014-06-22T13:36:23.1Z</time>
      </trkpt>
      <trkpt lat="44.45863" lon="6.23245">
        <ele>710</ele>
        <time>2014-06-22T13:36:29.1Z</time>
      </trkpt>
      <trkpt lat="44.45862" lon="6.23251">
        <ele>709</ele>
        <time>2014-06-22T13:36:34.1Z</time>
      </trkpt>
      <trkpt lat="44.45867" lon="6.23256">
        <ele>708</ele>
        <time>2014-06-22T13:36:40.1Z</time>
      </trkpt>
      <trkpt lat="44.45872" lon="6.23256">
        <ele>706</ele>
        <time>2014-06-22T13:36:45.1Z</time>
      </trkpt>
      <trkpt lat="44.45876" lon="6.23256">
        <ele>706</ele>
        <time>2014-06-22T13:36:50.1Z</time>
      </trkpt>
      <trkpt lat="44.45881" lon="6.23255">
        <ele>705</ele>
        <time>2014-06-22T13:36:55.1Z</time>
      </trkpt>
      <trkpt lat="44.45885" lon="6.23255">
        <ele>704</ele>
        <time>2014-06-22T13:37:01.1Z</time>
      </trkpt>
      <trkpt lat="44.45892" lon="6.23256">
        <ele>703</ele>
        <time>2014-06-22T13:37:07.1Z</time>
      </trkpt>
      <trkpt lat="44.45898" lon="6.23255">
        <ele>702</ele>
        <time>2014-06-22T13:37:13.1Z</time>
      </trkpt>
      <trkpt lat="44.45903" lon="6.23253">
        <ele>702</ele>
        <time>2014-06-22T13:37:18.1Z</time>
      </trkpt>
      <trkpt lat="44.45903" lon="6.2326">
        <ele>701</ele>
        <time>2014-06-22T13:37:24.1Z</time>
      </trkpt>
      <trkpt lat="44.45906" lon="6.23267">
        <ele>700</ele>
        <time>2014-06-22T13:37:29.1Z</time>
      </trkpt>
      <trkpt lat="44.4591" lon="6.23276">
        <ele>698</ele>
        <time>2014-06-22T13:37:35.1Z</time>
      </trkpt>
      <trkpt lat="44.45913" lon="6.23286">
        <ele>698</ele>
        <time>2014-06-22T13:37:41.1Z</time>
      </trkpt>
      <trkpt lat="44.45917" lon="6.23293">
        <ele>697</ele>
        <time>2014-06-22T13:37:46.1Z</time>
      </trkpt>
      <trkpt lat="44.45924" lon="6.23295">
        <ele>697</ele>
        <time>2014-06-22T13:37:52.1Z</time>
      </trkpt>
      <trkpt lat="44.45928" lon="6.23299">
        <ele>696</ele>
        <time>2014-06-22T13:37:57.1Z</time>
      </trkpt>
      <trkpt lat="44.45928" lon="6.233">
        <ele>696</ele>
        <time>2014-06-22T13:38:03.1Z</time>
      </trkpt>
      <trkpt lat="44.45928" lon="6.233">
        <ele>696</ele>
        <time>2014-06-22T13:38:08.1Z</time>
      </trkpt>
      <trkpt lat="44.45929" lon="6.233">
        <ele>696</ele>
        <time>2014-06-22T13:38:17.1Z</time>
      </trkpt>
      <trkpt lat="44.45929" lon="6.23301">
        <ele>696</ele>
        <time>2014-06-22T13:38:22.1Z</time>
      </trkpt>
      <trkpt lat="44.45929" lon="6.23301">
        <ele>696</ele>
        <time>2014-06-22T13:38:30.1Z</time>
      </trkpt>
      <trkpt lat="44.4593" lon="6.23302">
        <ele>696</ele>
        <time>2014-06-22T13:38:36.1Z</time>
      </trkpt>
      <trkpt lat="44.4593" lon="6.23302">
        <ele>696</ele>
        <time>2014-06-22T13:38:41.1Z</time>
      </trkpt>
      <trkpt lat="44.45931" lon="6.23302">
        <ele>696</ele>
        <time>2014-06-22T13:38:46.1Z</time>
      </trkpt>
      <trkpt lat="44.4593" lon="6.23301">
        <ele>697</ele>
        <time>2014-06-22T13:38:52.1Z</time>
      </trkpt>
      <trkpt lat="44.4593" lon="6.23301">
        <ele>697</ele>
        <time>2014-06-22T13:38:57.1Z</time>
      </trkpt>
      <trkpt lat="44.4593" lon="6.23302">
        <ele>697</ele>
        <time>2014-06-22T13:39:03.1Z</time>
      </trkpt>
      <trkpt lat="44.4593" lon="6.23301">
        <ele>696</ele>
        <time>2014-06-22T13:39:08.1Z</time>
      </trkpt>
      <trkpt lat="44.4593" lon="6.23301">
        <ele>696</ele>
        <time>2014-06-22T13:39:14.1Z</time>
      </trkpt>
      <trkpt lat="44.4593" lon="6.23301">
        <ele>696</ele>
        <time>2014-06-22T13:39:19.1Z</time>
      </trkpt>
      <trkpt lat="44.45932" lon="6.23298">
        <ele>696</ele>
        <time>2014-06-22T13:39:25.1Z</time>
      </trkpt>
      <trkpt lat="44.45934" lon="6.23294">
        <ele>696</ele>
        <time>2014-06-22T13:39:30.1Z</time>
      </trkpt>
      <trkpt lat="44.45937" lon="6.23292">
        <ele>695</ele>
        <time>2014-06-22T13:39:36.1Z</time>
      </trkpt>
      <trkpt lat="44.45937" lon="6.2329">
        <ele>695</ele>
        <time>2014-06-22T13:39:41.1Z</time>
      </trkpt>
      <trkpt lat="44.45939" lon="6.23291">
        <ele>695</ele>
        <time>2014-06-22T13:39:46.1Z</time>
      </trkpt>
      <trkpt lat="44.4594" lon="6.23292">
        <ele>695</ele>
        <time>2014-06-22T13:39:52.1Z</time>
      </trkpt>
      <trkpt lat="44.45943" lon="6.23294">
        <ele>695</ele>
        <time>2014-06-22T13:39:58.1Z</time>
      </trkpt>
      <trkpt lat="44.45943" lon="6.23295">
        <ele>696</ele>
        <time>2014-06-22T13:40:03.1Z</time>
      </trkpt>
      <trkpt lat="44.45944" lon="6.23295">
        <ele>695</ele>
        <time>2014-06-22T13:40:09.1Z</time>
      </trkpt>
      <trkpt lat="44.45944" lon="6.23295">
        <ele>695</ele>
        <time>2014-06-22T13:40:14.1Z</time>
      </trkpt>
      <trkpt lat="44.45944" lon="6.23295">
        <ele>695</ele>
        <time>2014-06-22T13:40:19.1Z</time>
      </trkpt>
      <trkpt lat="44.45943" lon="6.23293">
        <ele>695</ele>
        <time>2014-06-22T13:40:25.1Z</time>
      </trkpt>
      <trkpt lat="44.45942" lon="6.23288">
        <ele>695</ele>
        <time>2014-06-22T13:40:31.1Z</time>
      </trkpt>
      <trkpt lat="44.45942" lon="6.23287">
        <ele>695</ele>
        <time>2014-06-22T13:40:37.1Z</time>
      </trkpt>
      <trkpt lat="44.45942" lon="6.23283">
        <ele>694</ele>
        <time>2014-06-22T13:40:42.1Z</time>
      </trkpt>
      <trkpt lat="44.45945" lon="6.23281">
        <ele>694</ele>
        <time>2014-06-22T13:40:47.1Z</time>
      </trkpt>
      <trkpt lat="44.45951" lon="6.23276">
        <ele>694</ele>
        <time>2014-06-22T13:40:53.1Z</time>
      </trkpt>
      <trkpt lat="44.45956" lon="6.23279">
        <ele>693</ele>
        <time>2014-06-22T13:40:59.1Z</time>
      </trkpt>
      <trkpt lat="44.4596" lon="6.23287">
        <ele>693</ele>
        <time>2014-06-22T13:41:05.1Z</time>
      </trkpt>
      <trkpt lat="44.45963" lon="6.23294">
        <ele>694</ele>
        <time>2014-06-22T13:41:10.1Z</time>
      </trkpt>
      <trkpt lat="44.45968" lon="6.23303">
        <ele>693</ele>
        <time>2014-06-22T13:41:16.1Z</time>
      </trkpt>
      <trkpt lat="44.45971" lon="6.23311">
        <ele>693</ele>
        <time>2014-06-22T13:41:21.1Z</time>
      </trkpt>
      <trkpt lat="44.45976" lon="6.2332">
        <ele>693</ele>
        <time>2014-06-22T13:41:27.1Z</time>
      </trkpt>
      <trkpt lat="44.45979" lon="6.23328">
        <ele>693</ele>
        <time>2014-06-22T13:41:32.1Z</time>
      </trkpt>
      <trkpt lat="44.45982" lon="6.23336">
        <ele>694</ele>
        <time>2014-06-22T13:41:37.1Z</time>
      </trkpt>
      <trkpt lat="44.45986" lon="6.23345">
        <ele>694</ele>
        <time>2014-06-22T13:41:43.1Z</time>
      </trkpt>
      <trkpt lat="44.4599" lon="6.23354">
        <ele>693</ele>
        <time>2014-06-22T13:41:49.1Z</time>
      </trkpt>
      <trkpt lat="44.45995" lon="6.23363">
        <ele>694</ele>
        <time>2014-06-22T13:41:55.1Z</time>
      </trkpt>
      <trkpt lat="44.46" lon="6.23372">
        <ele>694</ele>
        <time>2014-06-22T13:42:01.1Z</time>
      </trkpt>
      <trkpt lat="44.46003" lon="6.23381">
        <ele>694</ele>
        <time>2014-06-22T13:42:07.1Z</time>
      </trkpt>
      <trkpt lat="44.46006" lon="6.23388">
        <ele>694</ele>
        <time>2014-06-22T13:42:12.1Z</time>
      </trkpt>
      <trkpt lat="44.46009" lon="6.23398">
        <ele>695</ele>
        <time>2014-06-22T13:42:18.1Z</time>
      </trkpt>
      <trkpt lat="44.46012" lon="6.23407">
        <ele>695</ele>
        <time>2014-06-22T13:42:24.1Z</time>
      </trkpt>
      <trkpt lat="44.46016" lon="6.23411">
        <ele>695</ele>
        <time>2014-06-22T13:42:29.1Z</time>
      </trkpt>
      <trkpt lat="44.46021" lon="6.23414">
        <ele>694</ele>
        <time>2014-06-22T13:42:35.1Z</time>
      </trkpt>
      <trkpt lat="44.46023" lon="6.23416">
        <ele>694</ele>
        <time>2014-06-22T13:42:40.1Z</time>
      </trkpt>
      <trkpt lat="44.46021" lon="6.23418">
        <ele>693</ele>
        <time>2014-06-22T13:42:46.1Z</time>
      </trkpt>
      <trkpt lat="44.46021" lon="6.23417">
        <ele>693</ele>
        <time>2014-06-22T13:42:51.1Z</time>
      </trkpt>
      <trkpt lat="44.46026" lon="6.23421">
        <ele>692</ele>
        <time>2014-06-22T13:42:57.1Z</time>
      </trkpt>
      <trkpt lat="44.46032" lon="6.23426">
        <ele>692</ele>
        <time>2014-06-22T13:43:03.1Z</time>
      </trkpt>
      <trkpt lat="44.46037" lon="6.23431">
        <ele>692</ele>
        <time>2014-06-22T13:43:08.1Z</time>
      </trkpt>
      <trkpt lat="44.46042" lon="6.23435">
        <ele>692</ele>
        <time>2014-06-22T13:43:14.1Z</time>
      </trkpt>
      <trkpt lat="44.46046" lon="6.2344">
        <ele>692</ele>
        <time>2014-06-22T13:43:19.1Z</time>
      </trkpt>
      <trkpt lat="44.46052" lon="6.23444">
        <ele>692</ele>
        <time>2014-06-22T13:43:25.1Z</time>
      </trkpt>
      <trkpt lat="44.46056" lon="6.23449">
        <ele>691</ele>
        <time>2014-06-22T13:43:30.1Z</time>
      </trkpt>
      <trkpt lat="44.46062" lon="6.23455">
        <ele>690</ele>
        <time>2014-06-22T13:43:36.1Z</time>
      </trkpt>
      <trkpt lat="44.46067" lon="6.2346">
        <ele>690</ele>
        <time>2014-06-22T13:43:41.1Z</time>
      </trkpt>
      <trkpt lat="44.46071" lon="6.23467">
        <ele>690</ele>
        <time>2014-06-22T13:43:47.1Z</time>
      </trkpt>
      <trkpt lat="44.46077" lon="6.23468">
        <ele>690</ele>
        <time>2014-06-22T13:43:53.1Z</time>
      </trkpt>
      <trkpt lat="44.4608" lon="6.23467">
        <ele>691</ele>
        <time>2014-06-22T13:43:58.1Z</time>
      </trkpt>
      <trkpt lat="44.46085" lon="6.2347">
        <ele>692</ele>
        <time>2014-06-22T13:44:04.1Z</time>
      </trkpt>
      <trkpt lat="44.4609" lon="6.23475">
        <ele>692</ele>
        <time>2014-06-22T13:44:10.1Z</time>
      </trkpt>
      <trkpt lat="44.46094" lon="6.23479">
        <ele>692</ele>
        <time>2014-06-22T13:44:15.1Z</time>
      </trkpt>
      <trkpt lat="44.46101" lon="6.23483">
        <ele>691</ele>
        <time>2014-06-22T13:44:21.1Z</time>
      </trkpt>
      <trkpt lat="44.46106" lon="6.23488">
        <ele>690</ele>
        <time>2014-06-22T13:44:26.1Z</time>
      </trkpt>
      <trkpt lat="44.46112" lon="6.23493">
        <ele>691</ele>
        <time>2014-06-22T13:44:32.1Z</time>
      </trkpt>
      <trkpt lat="44.46117" lon="6.23498">
        <ele>691</ele>
        <time>2014-06-22T13:44:38.1Z</time>
      </trkpt>
      <trkpt lat="44.46123" lon="6.23504">
        <ele>691</ele>
        <time>2014-06-22T13:44:44.1Z</time>
      </trkpt>
      <trkpt lat="44.4613" lon="6.23511">
        <ele>692</ele>
        <time>2014-06-22T13:44:50.1Z</time>
      </trkpt>
      <trkpt lat="44.46135" lon="6.23516">
        <ele>691</ele>
        <time>2014-06-22T13:44:55.1Z</time>
      </trkpt>
      <trkpt lat="44.46141" lon="6.23522">
        <ele>690</ele>
        <time>2014-06-22T13:45:01.1Z</time>
      </trkpt>
      <trkpt lat="44.46146" lon="6.23529">
        <ele>691</ele>
        <time>2014-06-22T13:45:07.1Z</time>
      </trkpt>
      <trkpt lat="44.4615" lon="6.23534">
        <ele>690</ele>
        <time>2014-06-22T13:45:12.1Z</time>
      </trkpt>
      <trkpt lat="44.46154" lon="6.2354">
        <ele>690</ele>
        <time>2014-06-22T13:45:17.1Z</time>
      </trkpt>
      <trkpt lat="44.46159" lon="6.23546">
        <ele>690</ele>
        <time>2014-06-22T13:45:23.1Z</time>
      </trkpt>
      <trkpt lat="44.46165" lon="6.23553">
        <ele>690</ele>
        <time>2014-06-22T13:45:29.1Z</time>
      </trkpt>
      <trkpt lat="44.4617" lon="6.23561">
        <ele>690</ele>
        <time>2014-06-22T13:45:35.1Z</time>
      </trkpt>
      <trkpt lat="44.46174" lon="6.23566">
        <ele>690</ele>
        <time>2014-06-22T13:45:40.1Z</time>
      </trkpt>
      <trkpt lat="44.46178" lon="6.23571">
        <ele>690</ele>
        <time>2014-06-22T13:45:45.1Z</time>
      </trkpt>
      <trkpt lat="44.46183" lon="6.23576">
        <ele>690</ele>
        <time>2014-06-22T13:45:51.1Z</time>
      </trkpt>
      <trkpt lat="44.46185" lon="6.2358">
        <ele>690</ele>
        <time>2014-06-22T13:45:56.1Z</time>
      </trkpt>
      <trkpt lat="44.46189" lon="6.23587">
        <ele>690</ele>
        <time>2014-06-22T13:46:02.1Z</time>
      </trkpt>
      <trkpt lat="44.46192" lon="6.2359">
        <ele>691</ele>
        <time>2014-06-22T13:46:07.1Z</time>
      </trkpt>
      <trkpt lat="44.46194" lon="6.23592">
        <ele>691</ele>
        <time>2014-06-22T13:46:13.1Z</time>
      </trkpt>
      <trkpt lat="44.46196" lon="6.23595">
        <ele>690</ele>
        <time>2014-06-22T13:46:18.1Z</time>
      </trkpt>
      <trkpt lat="44.46199" lon="6.236">
        <ele>690</ele>
        <time>2014-06-22T13:46:24.1Z</time>
      </trkpt>
      <trkpt lat="44.46204" lon="6.23605">
        <ele>689</ele>
        <time>2014-06-22T13:46:29.1Z</time>
      </trkpt>
      <trkpt lat="44.46205" lon="6.23609">
        <ele>689</ele>
        <time>2014-06-22T13:46:34.1Z</time>
      </trkpt>
      <trkpt lat="44.46207" lon="6.23616">
        <ele>689</ele>
        <time>2014-06-22T13:46:40.1Z</time>
      </trkpt>
      <trkpt lat="44.46208" lon="6.23618">
        <ele>690</ele>
        <time>2014-06-22T13:46:45.1Z</time>
      </trkpt>
      <trkpt lat="44.4621" lon="6.23618">
        <ele>690</ele>
        <time>2014-06-22T13:46:51.1Z</time>
      </trkpt>
      <trkpt lat="44.46212" lon="6.23619">
        <ele>690</ele>
        <time>2014-06-22T13:46:57.1Z</time>
      </trkpt>
      <trkpt lat="44.46215" lon="6.23621">
        <ele>690</ele>
        <time>2014-06-22T13:47:02.1Z</time>
      </trkpt>
      <trkpt lat="44.46218" lon="6.23629">
        <ele>690</ele>
        <time>2014-06-22T13:47:08.1Z</time>
      </trkpt>
      <trkpt lat="44.46215" lon="6.23635">
        <ele>689</ele>
        <time>2014-06-22T13:47:14.1Z</time>
      </trkpt>
      <trkpt lat="44.46216" lon="6.2364">
        <ele>689</ele>
        <time>2014-06-22T13:47:19.1Z</time>
      </trkpt>
      <trkpt lat="44.4622" lon="6.23641">
        <ele>689</ele>
        <time>2014-06-22T13:47:25.1Z</time>
      </trkpt>
      <trkpt lat="44.46226" lon="6.23639">
        <ele>690</ele>
        <time>2014-06-22T13:47:31.1Z</time>
      </trkpt>
      <trkpt lat="44.46232" lon="6.23636">
        <ele>690</ele>
        <time>2014-06-22T13:47:37.1Z</time>
      </trkpt>
      <trkpt lat="44.46236" lon="6.23633">
        <ele>690</ele>
        <time>2014-06-22T13:47:43.1Z</time>
      </trkpt>
      <trkpt lat="44.46242" lon="6.23631">
        <ele>690</ele>
        <time>2014-06-22T13:47:48.1Z</time>
      </trkpt>
      <trkpt lat="44.46246" lon="6.23629">
        <ele>691</ele>
        <time>2014-06-22T13:47:53.1Z</time>
      </trkpt>
      <trkpt lat="44.46252" lon="6.23626">
        <ele>690</ele>
        <time>2014-06-22T13:47:59.1Z</time>
      </trkpt>
      <trkpt lat="44.46259" lon="6.23622">
        <ele>690</ele>
        <time>2014-06-22T13:48:05.1Z</time>
      </trkpt>
      <trkpt lat="44.46265" lon="6.2362">
        <ele>690</ele>
        <time>2014-06-22T13:48:10.1Z</time>
      </trkpt>
      <trkpt lat="44.46272" lon="6.23617">
        <ele>690</ele>
        <time>2014-06-22T13:48:16.1Z</time>
      </trkpt>
      <trkpt lat="44.46276" lon="6.23616">
        <ele>690</ele>
        <time>2014-06-22T13:48:21.1Z</time>
      </trkpt>
      <trkpt lat="44.46283" lon="6.23613">
        <ele>690</ele>
        <time>2014-06-22T13:48:27.1Z</time>
      </trkpt>
      <trkpt lat="44.46289" lon="6.2361">
        <ele>690</ele>
        <time>2014-06-22T13:48:32.1Z</time>
      </trkpt>
      <trkpt lat="44.46296" lon="6.23607">
        <ele>690</ele>
        <time>2014-06-22T13:48:38.1Z</time>
      </trkpt>
      <trkpt lat="44.46304" lon="6.23603">
        <ele>689</ele>
        <time>2014-06-22T13:48:44.1Z</time>
      </trkpt>
      <trkpt lat="44.4631" lon="6.23599">
        <ele>689</ele>
        <time>2014-06-22T13:48:49.1Z</time>
      </trkpt>
      <trkpt lat="44.46317" lon="6.23596">
        <ele>689</ele>
        <time>2014-06-22T13:48:55.1Z</time>
      </trkpt>
      <trkpt lat="44.46324" lon="6.23592">
        <ele>689</ele>
        <time>2014-06-22T13:49:01.1Z</time>
      </trkpt>
      <trkpt lat="44.46332" lon="6.23588">
        <ele>690</ele>
        <time>2014-06-22T13:49:07.1Z</time>
      </trkpt>
      <trkpt lat="44.46338" lon="6.23585">
        <ele>690</ele>
        <time>2014-06-22T13:49:12.1Z</time>
      </trkpt>
      <trkpt lat="44.46345" lon="6.23581">
        <ele>690</ele>
        <time>2014-06-22T13:49:18.1Z</time>
      </trkpt>
      <trkpt lat="44.46353" lon="6.23577">
        <ele>689</ele>
        <time>2014-06-22T13:49:24.1Z</time>
      </trkpt>
      <trkpt lat="44.46359" lon="6.23573">
        <ele>690</ele>
        <time>2014-06-22T13:49:29.1Z</time>
      </trkpt>
      <trkpt lat="44.46366" lon="6.23569">
        <ele>690</ele>
        <time>2014-06-22T13:49:35.1Z</time>
      </trkpt>
      <trkpt lat="44.46374" lon="6.23566">
        <ele>690</ele>
        <time>2014-06-22T13:49:41.1Z</time>
      </trkpt>
      <trkpt lat="44.4638" lon="6.23562">
        <ele>690</ele>
        <time>2014-06-22T13:49:46.1Z</time>
      </trkpt>
      <trkpt lat="44.46387" lon="6.23558">
        <ele>690</ele>
        <time>2014-06-22T13:49:52.1Z</time>
      </trkpt>
      <trkpt lat="44.46392" lon="6.23555">
        <ele>690</ele>
        <time>2014-06-22T13:49:58.1Z</time>
      </trkpt>
      <trkpt lat="44.464" lon="6.23552">
        <ele>690</ele>
        <time>2014-06-22T13:50:04.1Z</time>
      </trkpt>
      <trkpt lat="44.46405" lon="6.23549">
        <ele>690</ele>
        <time>2014-06-22T13:50:09.1Z</time>
      </trkpt>
      <trkpt lat="44.46411" lon="6.23545">
        <ele>690</ele>
        <time>2014-06-22T13:50:15.1Z</time>
      </trkpt>
      <trkpt lat="44.46418" lon="6.23542">
        <ele>690</ele>
        <time>2014-06-22T13:50:21.1Z</time>
      </trkpt>
      <trkpt lat="44.46423" lon="6.23538">
        <ele>690</ele>
        <time>2014-06-22T13:50:26.1Z</time>
      </trkpt>
      <trkpt lat="44.46431" lon="6.23534">
        <ele>690</ele>
        <time>2014-06-22T13:50:32.1Z</time>
      </trkpt>
      <trkpt lat="44.46437" lon="6.2353">
        <ele>690</ele>
        <time>2014-06-22T13:50:38.1Z</time>
      </trkpt>
      <trkpt lat="44.46444" lon="6.23527">
        <ele>690</ele>
        <time>2014-06-22T13:50:43.1Z</time>
      </trkpt>
      <trkpt lat="44.46451" lon="6.23524">
        <ele>690</ele>
        <time>2014-06-22T13:50:49.1Z</time>
      </trkpt>
      <trkpt lat="44.46457" lon="6.23521">
        <ele>690</ele>
        <time>2014-06-22T13:50:54.1Z</time>
      </trkpt>
      <trkpt lat="44.46463" lon="6.23518">
        <ele>691</ele>
        <time>2014-06-22T13:50:59.1Z</time>
      </trkpt>
      <trkpt lat="44.4647" lon="6.23513">
        <ele>691</ele>
        <time>2014-06-22T13:51:05.1Z</time>
      </trkpt>
      <trkpt lat="44.46477" lon="6.23508">
        <ele>691</ele>
        <time>2014-06-22T13:51:11.1Z</time>
      </trkpt>
      <trkpt lat="44.46484" lon="6.23503">
        <ele>690</ele>
        <time>2014-06-22T13:51:17.1Z</time>
      </trkpt>
      <trkpt lat="44.46489" lon="6.23497">
        <ele>691</ele>
        <time>2014-06-22T13:51:22.1Z</time>
      </trkpt>
      <trkpt lat="44.46494" lon="6.23489">
        <ele>691</ele>
        <time>2014-06-22T13:51:28.1Z</time>
      </trkpt>
      <trkpt lat="44.46496" lon="6.23479">
        <ele>692</ele>
        <time>2014-06-22T13:51:34.1Z</time>
      </trkpt>
      <trkpt lat="44.46499" lon="6.23473">
        <ele>692</ele>
        <time>2014-06-22T13:51:39.1Z</time>
      </trkpt>
      <trkpt lat="44.46503" lon="6.23469">
        <ele>691</ele>
        <time>2014-06-22T13:51:45.1Z</time>
      </trkpt>
      <trkpt lat="44.46509" lon="6.23465">
        <ele>691</ele>
        <time>2014-06-22T13:51:51.1Z</time>
      </trkpt>
      <trkpt lat="44.46514" lon="6.23458">
        <ele>691</ele>
        <time>2014-06-22T13:51:57.1Z</time>
      </trkpt>
      <trkpt lat="44.46517" lon="6.23452">
        <ele>692</ele>
        <time>2014-06-22T13:52:02.1Z</time>
      </trkpt>
      <trkpt lat="44.46518" lon="6.23442">
        <ele>691</ele>
        <time>2014-06-22T13:52:08.1Z</time>
      </trkpt>
      <trkpt lat="44.46519" lon="6.23431">
        <ele>691</ele>
        <time>2014-06-22T13:52:14.1Z</time>
      </trkpt>
      <trkpt lat="44.4652" lon="6.23423">
        <ele>692</ele>
        <time>2014-06-22T13:52:19.1Z</time>
      </trkpt>
      <trkpt lat="44.46521" lon="6.23413">
        <ele>692</ele>
        <time>2014-06-22T13:52:25.1Z</time>
      </trkpt>
      <trkpt lat="44.46522" lon="6.23403">
        <ele>692</ele>
        <time>2014-06-22T13:52:31.1Z</time>
      </trkpt>
      <trkpt lat="44.46522" lon="6.23394">
        <ele>692</ele>
        <time>2014-06-22T13:52:36.1Z</time>
      </trkpt>
      <trkpt lat="44.46521" lon="6.23385">
        <ele>692</ele>
        <time>2014-06-22T13:52:42.1Z</time>
      </trkpt>
      <trkpt lat="44.46522" lon="6.23375">
        <ele>692</ele>
        <time>2014-06-22T13:52:48.1Z</time>
      </trkpt>
      <trkpt lat="44.46523" lon="6.23366">
        <ele>693</ele>
        <time>2014-06-22T13:52:54.1Z</time>
      </trkpt>
      <trkpt lat="44.46523" lon="6.23358">
        <ele>693</ele>
        <time>2014-06-22T13:52:59.1Z</time>
      </trkpt>
      <trkpt lat="44.46523" lon="6.23348">
        <ele>693</ele>
        <time>2014-06-22T13:53:05.1Z</time>
      </trkpt>
      <trkpt lat="44.46523" lon="6.23338">
        <ele>693</ele>
        <time>2014-06-22T13:53:10.1Z</time>
      </trkpt>
      <trkpt lat="44.46521" lon="6.23329">
        <ele>693</ele>
        <time>2014-06-22T13:53:15.1Z</time>
      </trkpt>
      <trkpt lat="44.46518" lon="6.23319">
        <ele>693</ele>
        <time>2014-06-22T13:53:21.1Z</time>
      </trkpt>
      <trkpt lat="44.46517" lon="6.23308">
        <ele>694</ele>
        <time>2014-06-22T13:53:27.1Z</time>
      </trkpt>
      <trkpt lat="44.46516" lon="6.23299">
        <ele>694</ele>
        <time>2014-06-22T13:53:33.1Z</time>
      </trkpt>
      <trkpt lat="44.46517" lon="6.23292">
        <ele>694</ele>
        <time>2014-06-22T13:53:38.1Z</time>
      </trkpt>
      <trkpt lat="44.46517" lon="6.23283">
        <ele>695</ele>
        <time>2014-06-22T13:53:44.1Z</time>
      </trkpt>
      <trkpt lat="44.46517" lon="6.23273">
        <ele>696</ele>
        <time>2014-06-22T13:53:50.1Z</time>
      </trkpt>
      <trkpt lat="44.46516" lon="6.23263">
        <ele>697</ele>
        <time>2014-06-22T13:53:55.1Z</time>
      </trkpt>
      <trkpt lat="44.46514" lon="6.23254">
        <ele>697</ele>
        <time>2014-06-22T13:54:01.1Z</time>
      </trkpt>
      <trkpt lat="44.46513" lon="6.23244">
        <ele>697</ele>
        <time>2014-06-22T13:54:07.1Z</time>
      </trkpt>
      <trkpt lat="44.46513" lon="6.23235">
        <ele>697</ele>
        <time>2014-06-22T13:54:12.1Z</time>
      </trkpt>
      <trkpt lat="44.46513" lon="6.23224">
        <ele>697</ele>
        <time>2014-06-22T13:54:18.1Z</time>
      </trkpt>
      <trkpt lat="44.46511" lon="6.23214">
        <ele>698</ele>
        <time>2014-06-22T13:54:24.1Z</time>
      </trkpt>
      <trkpt lat="44.46509" lon="6.23205">
        <ele>698</ele>
        <time>2014-06-22T13:54:30.1Z</time>
      </trkpt>
      <trkpt lat="44.46508" lon="6.23195">
        <ele>697</ele>
        <time>2014-06-22T13:54:36.1Z</time>
      </trkpt>
      <trkpt lat="44.46506" lon="6.23185">
        <ele>697</ele>
        <time>2014-06-22T13:54:42.1Z</time>
      </trkpt>
      <trkpt lat="44.46505" lon="6.23174">
        <ele>697</ele>
        <time>2014-06-22T13:54:48.1Z</time>
      </trkpt>
      <trkpt lat="44.46503" lon="6.23166">
        <ele>696</ele>
        <time>2014-06-22T13:54:53.1Z</time>
      </trkpt>
      <trkpt lat="44.46501" lon="6.23155">
        <ele>696</ele>
        <time>2014-06-22T13:54:59.1Z</time>
      </trkpt>
      <trkpt lat="44.46499" lon="6.23145">
        <ele>696</ele>
        <time>2014-06-22T13:55:05.1Z</time>
      </trkpt>
      <trkpt lat="44.46497" lon="6.23137">
        <ele>696</ele>
        <time>2014-06-22T13:55:10.1Z</time>
      </trkpt>
      <trkpt lat="44.46496" lon="6.23126">
        <ele>696</ele>
        <time>2014-06-22T13:55:16.1Z</time>
      </trkpt>
      <trkpt lat="44.46495" lon="6.23115">
        <ele>695</ele>
        <time>2014-06-22T13:55:22.1Z</time>
      </trkpt>
      <trkpt lat="44.46493" lon="6.23106">
        <ele>695</ele>
        <time>2014-06-22T13:55:27.1Z</time>
      </trkpt>
      <trkpt lat="44.46492" lon="6.23095">
        <ele>695</ele>
        <time>2014-06-22T13:55:33.1Z</time>
      </trkpt>
      <trkpt lat="44.46491" lon="6.23083">
        <ele>694</ele>
        <time>2014-06-22T13:55:39.1Z</time>
      </trkpt>
      <trkpt lat="44.4649" lon="6.23072">
        <ele>695</ele>
        <time>2014-06-22T13:55:45.1Z</time>
      </trkpt>
      <trkpt lat="44.46489" lon="6.23063">
        <ele>695</ele>
        <time>2014-06-22T13:55:50.1Z</time>
      </trkpt>
      <trkpt lat="44.46489" lon="6.23052">
        <ele>695</ele>
        <time>2014-06-22T13:55:56.1Z</time>
      </trkpt>
      <trkpt lat="44.46488" lon="6.23041">
        <ele>695</ele>
        <time>2014-06-22T13:56:02.1Z</time>
      </trkpt>
      <trkpt lat="44.46488" lon="6.23032">
        <ele>695</ele>
        <time>2014-06-22T13:56:07.1Z</time>
      </trkpt>
      <trkpt lat="44.46491" lon="6.23024">
        <ele>695</ele>
        <time>2014-06-22T13:56:13.1Z</time>
      </trkpt>
      <trkpt lat="44.46489" lon="6.23015">
        <ele>695</ele>
        <time>2014-06-22T13:56:18.1Z</time>
      </trkpt>
      <trkpt lat="44.46489" lon="6.23004">
        <ele>694</ele>
        <time>2014-06-22T13:56:24.1Z</time>
      </trkpt>
      <trkpt lat="44.46485" lon="6.22997">
        <ele>695</ele>
        <time>2014-06-22T13:56:29.1Z</time>
      </trkpt>
      <trkpt lat="44.4648" lon="6.22988">
        <ele>694</ele>
        <time>2014-06-22T13:56:35.1Z</time>
      </trkpt>
      <trkpt lat="44.46475" lon="6.2298">
        <ele>694</ele>
        <time>2014-06-22T13:56:41.1Z</time>
      </trkpt>
      <trkpt lat="44.46471" lon="6.22974">
        <ele>694</ele>
        <time>2014-06-22T13:56:46.1Z</time>
      </trkpt>
      <trkpt lat="44.46465" lon="6.22972">
        <ele>693</ele>
        <time>2014-06-22T13:56:52.1Z</time>
      </trkpt>
      <trkpt lat="44.46461" lon="6.22971">
        <ele>693</ele>
        <time>2014-06-22T13:56:57.1Z</time>
      </trkpt>
      <trkpt lat="44.46455" lon="6.22972">
        <ele>692</ele>
        <time>2014-06-22T13:57:02.1Z</time>
      </trkpt>
      <trkpt lat="44.46448" lon="6.22971">
        <ele>691</ele>
        <time>2014-06-22T13:57:07.1Z</time>
      </trkpt>
      <trkpt lat="44.46442" lon="6.22971">
        <ele>691</ele>
        <time>2014-06-22T13:57:12.1Z</time>
      </trkpt>
      <trkpt lat="44.46434" lon="6.2297">
        <ele>690</ele>
        <time>2014-06-22T13:57:18.1Z</time>
      </trkpt>
      <trkpt lat="44.46429" lon="6.22968">
        <ele>690</ele>
        <time>2014-06-22T13:57:23.1Z</time>
      </trkpt>
      <trkpt lat="44.46427" lon="6.22962">
        <ele>689</ele>
        <time>2014-06-22T13:57:29.1Z</time>
      </trkpt>
      <trkpt lat="44.46427" lon="6.22954">
        <ele>689</ele>
        <time>2014-06-22T13:57:35.1Z</time>
      </trkpt>
      <trkpt lat="44.46426" lon="6.22944">
        <ele>689</ele>
        <time>2014-06-22T13:57:40.1Z</time>
      </trkpt>
      <trkpt lat="44.46424" lon="6.22933">
        <ele>689</ele>
        <time>2014-06-22T13:57:46.1Z</time>
      </trkpt>
      <trkpt lat="44.46422" lon="6.22923">
        <ele>689</ele>
        <time>2014-06-22T13:57:51.1Z</time>
      </trkpt>
      <trkpt lat="44.46422" lon="6.2291">
        <ele>689</ele>
        <time>2014-06-22T13:57:57.1Z</time>
      </trkpt>
      <trkpt lat="44.46424" lon="6.229">
        <ele>688</ele>
        <time>2014-06-22T13:58:02.1Z</time>
      </trkpt>
      <trkpt lat="44.46425" lon="6.22889">
        <ele>688</ele>
        <time>2014-06-22T13:58:08.1Z</time>
      </trkpt>
      <trkpt lat="44.46425" lon="6.2288">
        <ele>688</ele>
        <time>2014-06-22T13:58:14.1Z</time>
      </trkpt>
      <trkpt lat="44.46425" lon="6.22873">
        <ele>688</ele>
        <time>2014-06-22T13:58:20.1Z</time>
      </trkpt>
      <trkpt lat="44.46425" lon="6.22871">
        <ele>689</ele>
        <time>2014-06-22T13:58:26.1Z</time>
      </trkpt>
      <trkpt lat="44.46426" lon="6.22873">
        <ele>690</ele>
        <time>2014-06-22T13:58:31.1Z</time>
      </trkpt>
      <trkpt lat="44.46426" lon="6.22871">
        <ele>690</ele>
        <time>2014-06-22T13:58:37.1Z</time>
      </trkpt>
      <trkpt lat="44.46427" lon="6.22871">
        <ele>690</ele>
        <time>2014-06-22T13:58:42.1Z</time>
      </trkpt>
      <trkpt lat="44.46428" lon="6.22872">
        <ele>691</ele>
        <time>2014-06-22T13:58:47.1Z</time>
      </trkpt>
      <trkpt lat="44.46429" lon="6.22872">
        <ele>690</ele>
        <time>2014-06-22T13:58:52.1Z</time>
      </trkpt>
      <trkpt lat="44.46431" lon="6.22871">
        <ele>690</ele>
        <time>2014-06-22T13:58:58.1Z</time>
      </trkpt>
      <trkpt lat="44.46431" lon="6.22869">
        <ele>690</ele>
        <time>2014-06-22T13:59:04.1Z</time>
      </trkpt>
      <trkpt lat="44.4643" lon="6.22869">
        <ele>691</ele>
        <time>2014-06-22T13:59:09.1Z</time>
      </trkpt>
      <trkpt lat="44.4643" lon="6.22868">
        <ele>691</ele>
        <time>2014-06-22T13:59:16.1Z</time>
      </trkpt>
      <trkpt lat="44.46428" lon="6.22868">
        <ele>691</ele>
        <time>2014-06-22T13:59:21.1Z</time>
      </trkpt>
      <trkpt lat="44.46429" lon="6.22868">
        <ele>691</ele>
        <time>2014-06-22T13:59:26.1Z</time>
      </trkpt>
      <trkpt lat="44.46429" lon="6.22868">
        <ele>690</ele>
        <time>2014-06-22T13:59:31.1Z</time>
      </trkpt>
      <trkpt lat="44.46429" lon="6.22867">
        <ele>690</ele>
        <time>2014-06-22T13:59:38.1Z</time>
      </trkpt>
      <trkpt lat="44.46429" lon="6.22867">
        <ele>690</ele>
        <time>2014-06-22T13:59:43.1Z</time>
      </trkpt>
      <trkpt lat="44.46429" lon="6.22867">
        <ele>691</ele>
        <time>2014-06-22T13:59:49.1Z</time>
      </trkpt>
      <trkpt lat="44.46429" lon="6.22867">
        <ele>690</ele>
        <time>2014-06-22T13:59:54.1Z</time>
      </trkpt>
      <trkpt lat="44.46428" lon="6.22866">
        <ele>691</ele>
        <time>2014-06-22T14:00:00.1Z</time>
      </trkpt>
      <trkpt lat="44.46426" lon="6.22867">
        <ele>691</ele>
        <time>2014-06-22T14:00:05.1Z</time>
      </trkpt>
      <trkpt lat="44.46425" lon="6.22867">
        <ele>691</ele>
        <time>2014-06-22T14:00:10.1Z</time>
      </trkpt>
      <trkpt lat="44.46424" lon="6.22867">
        <ele>691</ele>
        <time>2014-06-22T14:00:16.1Z</time>
      </trkpt>
      <trkpt lat="44.46425" lon="6.22865">
        <ele>691</ele>
        <time>2014-06-22T14:00:21.1Z</time>
      </trkpt>
      <trkpt lat="44.46426" lon="6.22864">
        <ele>691</ele>
        <time>2014-06-22T14:00:27.1Z</time>
      </trkpt>
      <trkpt lat="44.46426" lon="6.22864">
        <ele>691</ele>
        <time>2014-06-22T14:00:32.1Z</time>
      </trkpt>
      <trkpt lat="44.46425" lon="6.22863">
        <ele>691</ele>
        <time>2014-06-22T14:00:38.1Z</time>
      </trkpt>
      <trkpt lat="44.46424" lon="6.22862">
        <ele>691</ele>
        <time>2014-06-22T14:00:44.1Z</time>
      </trkpt>
      <trkpt lat="44.46424" lon="6.22862">
        <ele>691</ele>
        <time>2014-06-22T14:00:50.1Z</time>
      </trkpt>
      <trkpt lat="44.46423" lon="6.22862">
        <ele>691</ele>
        <time>2014-06-22T14:00:56.1Z</time>
      </trkpt>
      <trkpt lat="44.46424" lon="6.22861">
        <ele>691</ele>
        <time>2014-06-22T14:01:01.1Z</time>
      </trkpt>
      <trkpt lat="44.46424" lon="6.22861">
        <ele>691</ele>
        <time>2014-06-22T14:01:08.1Z</time>
      </trkpt>
      <trkpt lat="44.46424" lon="6.22861">
        <ele>691</ele>
        <time>2014-06-22T14:01:13.1Z</time>
      </trkpt>
      <trkpt lat="44.46425" lon="6.2286">
        <ele>691</ele>
        <time>2014-06-22T14:01:19.1Z</time>
      </trkpt>
      <trkpt lat="44.46424" lon="6.22861">
        <ele>691</ele>
        <time>2014-06-22T14:01:24.1Z</time>
      </trkpt>
      <trkpt lat="44.46422" lon="6.22861">
        <ele>691</ele>
        <time>2014-06-22T14:01:30.1Z</time>
      </trkpt>
      <trkpt lat="44.46421" lon="6.22861">
        <ele>691</ele>
        <time>2014-06-22T14:01:36.1Z</time>
      </trkpt>
      <trkpt lat="44.4642" lon="6.22861">
        <ele>691</ele>
        <time>2014-06-22T14:01:42.1Z</time>
      </trkpt>
      <trkpt lat="44.46421" lon="6.22859">
        <ele>691</ele>
        <time>2014-06-22T14:01:48.1Z</time>
      </trkpt>
      <trkpt lat="44.46421" lon="6.2286">
        <ele>691</ele>
        <time>2014-06-22T14:01:54.1Z</time>
      </trkpt>
      <trkpt lat="44.46421" lon="6.2286">
        <ele>691</ele>
        <time>2014-06-22T14:02:00.1Z</time>
      </trkpt>
      <trkpt lat="44.46421" lon="6.22861">
        <ele>691</ele>
        <time>2014-06-22T14:02:06.1Z</time>
      </trkpt>
      <trkpt lat="44.46422" lon="6.22862">
        <ele>691</ele>
        <time>2014-06-22T14:02:12.1Z</time>
      </trkpt>
      <trkpt lat="44.46425" lon="6.22862">
        <ele>691</ele>
        <time>2014-06-22T14:02:17.1Z</time>
      </trkpt>
      <trkpt lat="44.46426" lon="6.22862">
        <ele>691</ele>
        <time>2014-06-22T14:02:22.1Z</time>
      </trkpt>
      <trkpt lat="44.46428" lon="6.22863">
        <ele>691</ele>
        <time>2014-06-22T14:02:28.1Z</time>
      </trkpt>
      <trkpt lat="44.46429" lon="6.22863">
        <ele>691</ele>
        <time>2014-06-22T14:02:35.1Z</time>
      </trkpt>
      <trkpt lat="44.46428" lon="6.22862">
        <ele>691</ele>
        <time>2014-06-22T14:02:40.1Z</time>
      </trkpt>
      <trkpt lat="44.46427" lon="6.22862">
        <ele>691</ele>
        <time>2014-06-22T14:02:46.1Z</time>
      </trkpt>
      <trkpt lat="44.46426" lon="6.22863">
        <ele>691</ele>
        <time>2014-06-22T14:02:53.1Z</time>
      </trkpt>
      <trkpt lat="44.46425" lon="6.22863">
        <ele>691</ele>
        <time>2014-06-22T14:02:58.1Z</time>
      </trkpt>
      <trkpt lat="44.46426" lon="6.22863">
        <ele>691</ele>
        <time>2014-06-22T14:03:04.1Z</time>
      </trkpt>
      <trkpt lat="44.46426" lon="6.22863">
        <ele>691</ele>
        <time>2014-06-22T14:03:09.1Z</time>
      </trkpt>
      <trkpt lat="44.46426" lon="6.22863">
        <ele>691</ele>
        <time>2014-06-22T14:03:14.1Z</time>
      </trkpt>
      <trkpt lat="44.46426" lon="6.22862">
        <ele>691</ele>
        <time>2014-06-22T14:03:19.1Z</time>
      </trkpt>
      <trkpt lat="44.46426" lon="6.22863">
        <ele>691</ele>
        <time>2014-06-22T14:03:25.1Z</time>
      </trkpt>
      <trkpt lat="44.46426" lon="6.22862">
        <ele>691</ele>
        <time>2014-06-22T14:03:30.1Z</time>
      </trkpt>
      <trkpt lat="44.46428" lon="6.22859">
        <ele>691</ele>
        <time>2014-06-22T14:03:36.1Z</time>
      </trkpt>
      <trkpt lat="44.46428" lon="6.22858">
        <ele>691</ele>
        <time>2014-06-22T14:03:42.1Z</time>
      </trkpt>
      <trkpt lat="44.46429" lon="6.22857">
        <ele>691</ele>
        <time>2014-06-22T14:03:43.1Z</time>
      </trkpt>
    </trkseg>
  </trk>
</gpx>